<?xml version='1.0' encoding='UTF-8'?><gpx version="1.1" creator="JPX - https://github.com/jenetics/jpx" xmlns="http://www.topografix.com/GPX/1/1"><trk><trkseg><trkpt lat="46.01728841204049" lon="11.89041025946374"><ele>268.0</ele><time>2026-04-16T08:37:38.01Z</time></trkpt><trkpt lat="46.0173591519106" lon="11.8904209773861"><ele>268.0</ele><time>2026-04-16T08:37:43.703Z</time></trkpt><trkpt lat="46.017294956446314" lon="11.890491077877533"><ele>268.0</ele><time>2026-04-16T08:40:13Z</time></trkpt><trkpt lat="46.01722355794654" lon="11.890460522962165"><ele>268.0</ele><time>2026-04-16T08:40:15Z</time></trkpt><trkpt lat="46.017163963606464" lon="11.890406688655501"><ele>268.0</ele><time>2026-04-16T08:40:16Z</time></trkpt><trkpt lat="46.01705982374793" lon="11.89034370893111"><ele>268.0</ele><time>2026-04-16T08:40:18Z</time></trkpt><trkpt lat="46.016978077299314" lon="11.890268182633488"><ele>268.0</ele><time>2026-04-16T08:40:20Z</time></trkpt><trkpt lat="46.0169821802973" lon="11.890116069938749"><ele>268.0</ele><time>2026-04-16T08:40:22Z</time></trkpt><trkpt lat="46.017002402269135" lon="11.889980822223679"><ele>268.0</ele><time>2026-04-16T08:40:23Z</time></trkpt><trkpt lat="46.017050603969906" lon="11.889871123454325"><ele>268.0</ele><time>2026-04-16T08:40:24Z</time></trkpt><trkpt lat="46.01706392318758" lon="11.889781203671456"><ele>268.0</ele><time>2026-04-16T08:40:25Z</time></trkpt><trkpt lat="46.01716282522653" lon="11.889735306403063"><ele>268.16666666666663</ele><time>2026-04-16T08:40:27Z</time></trkpt><trkpt lat="46.01723088576171" lon="11.889720794056814"><ele>268.3333333333333</ele><time>2026-04-16T08:40:28Z</time></trkpt><trkpt lat="46.01731785774557" lon="11.889704366016845"><ele>268.5</ele><time>2026-04-16T08:40:29Z</time></trkpt><trkpt lat="46.017406554622795" lon="11.889687612168009"><ele>268.6666666666667</ele><time>2026-04-16T08:40:30Z</time></trkpt><trkpt lat="46.01748765130098" lon="11.88967414744104"><ele>268.83333333333337</ele><time>2026-04-16T08:40:31Z</time></trkpt><trkpt lat="46.01758373494777" lon="11.889653394285785"><ele>269.0</ele><time>2026-04-16T08:40:33Z</time></trkpt><trkpt lat="46.01764681618721" lon="11.889626796141226"><ele>269.2</ele><time>2026-04-16T08:40:37Z</time></trkpt><trkpt lat="46.017675536117984" lon="11.889472080875853"><ele>269.4</ele><time>2026-04-16T08:40:40Z</time></trkpt><trkpt lat="46.01765697221089" lon="11.88930241770008"><ele>269.6</ele><time>2026-04-16T08:40:42Z</time></trkpt><trkpt lat="46.017631124223236" lon="11.889133556548284"><ele>269.8</ele><time>2026-04-16T08:40:44Z</time></trkpt><trkpt lat="46.01761284445292" lon="11.889042729299165"><ele>270.0</ele><time>2026-04-16T08:40:45Z</time></trkpt><trkpt lat="46.01760050197617" lon="11.88888934770008"><ele>270.0</ele><time>2026-04-16T08:40:47Z</time></trkpt><trkpt lat="46.01758351251427" lon="11.888759745357492"><ele>270.0</ele><time>2026-04-16T08:40:49Z</time></trkpt><trkpt lat="46.01756572895944" lon="11.888658990858248"><ele>270.0</ele><time>2026-04-16T08:40:53Z</time></trkpt><trkpt lat="46.01761658423997" lon="11.888560131381237"><ele>270.0</ele><time>2026-04-16T08:40:56Z</time></trkpt><trkpt lat="46.017778878910725" lon="11.888477674410776"><ele>270.0</ele><time>2026-04-16T08:40:58Z</time></trkpt><trkpt lat="46.01788110695946" lon="11.888434018118836"><ele>269.25</ele><time>2026-04-16T08:40:59Z</time></trkpt><trkpt lat="46.01801454674254" lon="11.888422817643825"><ele>268.5</ele><time>2026-04-16T08:41:00Z</time></trkpt><trkpt lat="46.01816189063924" lon="11.888357419080322"><ele>267.75</ele><time>2026-04-16T08:41:01Z</time></trkpt><trkpt lat="46.018272716431355" lon="11.888353308027039"><ele>267.0</ele><time>2026-04-16T08:41:02Z</time></trkpt><trkpt lat="46.01835793324592" lon="11.888366385385504"><ele>267.0</ele><time>2026-04-16T08:41:03Z</time></trkpt><trkpt lat="46.01843667208092" lon="11.888386988583475"><ele>267.0</ele><time>2026-04-16T08:41:04Z</time></trkpt><trkpt lat="46.018514502239334" lon="11.888380053136935"><ele>267.0</ele><time>2026-04-16T08:41:05Z</time></trkpt><trkpt lat="46.01857996987808" lon="11.88833401746111"><ele>267.0</ele><time>2026-04-16T08:41:06Z</time></trkpt><trkpt lat="46.01861867050977" lon="11.888253936053053"><ele>267.0</ele><time>2026-04-16T08:41:07Z</time></trkpt><trkpt lat="46.018621837436534" lon="11.88815544851682"><ele>267.0</ele><time>2026-04-16T08:41:08Z</time></trkpt><trkpt lat="46.01856565836212" lon="11.888038182702736"><ele>267.0</ele><time>2026-04-16T08:41:09Z</time></trkpt><trkpt lat="46.018509666618186" lon="11.88793492132491"><ele>267.0</ele><time>2026-04-16T08:41:10Z</time></trkpt><trkpt lat="46.01847899910735" lon="11.887815339491137"><ele>267.0</ele><time>2026-04-16T08:41:11Z</time></trkpt><trkpt lat="46.01849679641129" lon="11.887684432791298"><ele>267.0</ele><time>2026-04-16T08:41:12Z</time></trkpt><trkpt lat="46.01853842318062" lon="11.887547620879033"><ele>267.0</ele><time>2026-04-16T08:41:13Z</time></trkpt><trkpt lat="46.018566027566166" lon="11.88739368274843"><ele>267.0</ele><time>2026-04-16T08:41:14Z</time></trkpt><trkpt lat="46.01856276340981" lon="11.88721033894804"><ele>267.0</ele><time>2026-04-16T08:41:15Z</time></trkpt><trkpt lat="46.018541399766924" lon="11.887043478727831"><ele>267.0</ele><time>2026-04-16T08:41:16Z</time></trkpt><trkpt lat="46.018505370221256" lon="11.886881987988772"><ele>267.0</ele><time>2026-04-16T08:41:17Z</time></trkpt><trkpt lat="46.01845871746425" lon="11.886707714011541"><ele>267.0</ele><time>2026-04-16T08:41:18Z</time></trkpt><trkpt lat="46.018411999396456" lon="11.886532260712354"><ele>267.0</ele><time>2026-04-16T08:41:19Z</time></trkpt><trkpt lat="46.01834934833988" lon="11.886356519829222"><ele>267.0</ele><time>2026-04-16T08:41:20Z</time></trkpt><trkpt lat="46.01827504839543" lon="11.886164133395095"><ele>267.0</ele><time>2026-04-16T08:41:21Z</time></trkpt><trkpt lat="46.01820263954057" lon="11.885969449830489"><ele>266.75</ele><time>2026-04-16T08:41:22Z</time></trkpt><trkpt lat="46.01814013829307" lon="11.885785098964401"><ele>266.5</ele><time>2026-04-16T08:41:23Z</time></trkpt><trkpt lat="46.018075753650116" lon="11.885599797665423"><ele>266.25</ele><time>2026-04-16T08:41:24Z</time></trkpt><trkpt lat="46.01800125417697" lon="11.88540594800391"><ele>266.0</ele><time>2026-04-16T08:41:24.999Z</time></trkpt><trkpt lat="46.01792672659185" lon="11.88520848719095"><ele>266.33333333333337</ele><time>2026-04-16T08:41:25.999Z</time></trkpt><trkpt lat="46.01785656466664" lon="11.885000850201445"><ele>266.6666666666667</ele><time>2026-04-16T08:41:26.999Z</time></trkpt><trkpt lat="46.01778577389136" lon="11.884778617587022"><ele>267.0</ele><time>2026-04-16T08:41:27.999Z</time></trkpt><trkpt lat="46.01770643849986" lon="11.884540983991027"><ele>267.0</ele><time>2026-04-16T08:41:28.999Z</time></trkpt><trkpt lat="46.017621113585754" lon="11.884290879353221"><ele>267.0</ele><time>2026-04-16T08:41:29.999Z</time></trkpt><trkpt lat="46.0175407479758" lon="11.884049035556941"><ele>267.0</ele><time>2026-04-16T08:41:30.999Z</time></trkpt><trkpt lat="46.017457891576605" lon="11.88381290176134"><ele>268.3333333333333</ele><time>2026-04-16T08:41:31.999Z</time></trkpt><trkpt lat="46.017371418775724" lon="11.883570260496542"><ele>269.66666666666663</ele><time>2026-04-16T08:41:32.999Z</time></trkpt><trkpt lat="46.01728995185686" lon="11.883326890266861"><ele>271.0</ele><time>2026-04-16T08:41:33.999Z</time></trkpt><trkpt lat="46.01720564316441" lon="11.88308252501856"><ele>271.0</ele><time>2026-04-16T08:41:34.999Z</time></trkpt><trkpt lat="46.01712437795129" lon="11.882836414632466"><ele>271.0</ele><time>2026-04-16T08:41:35.999Z</time></trkpt><trkpt lat="46.01704340310705" lon="11.88259750772601"><ele>271.0</ele><time>2026-04-16T08:41:36.999Z</time></trkpt><trkpt lat="46.01696105821293" lon="11.882357731274022"><ele>271.0</ele><time>2026-04-16T08:41:37.999Z</time></trkpt><trkpt lat="46.01687546510658" lon="11.88211941077485"><ele>271.0</ele><time>2026-04-16T08:41:38.999Z</time></trkpt><trkpt lat="46.01678714709177" lon="11.88187765178623"><ele>271.0</ele><time>2026-04-16T08:41:39.999Z</time></trkpt><trkpt lat="46.016707476797784" lon="11.88163967226716"><ele>271.0</ele><time>2026-04-16T08:41:40.999Z</time></trkpt><trkpt lat="46.016627300575145" lon="11.881401582262212"><ele>271.0</ele><time>2026-04-16T08:41:41.999Z</time></trkpt><trkpt lat="46.016545959521885" lon="11.881164296643018"><ele>271.0</ele><time>2026-04-16T08:41:42.999Z</time></trkpt><trkpt lat="46.016459323556255" lon="11.880910159598244"><ele>271.0</ele><time>2026-04-16T08:41:43.999Z</time></trkpt><trkpt lat="46.016364707058116" lon="11.880636245187643"><ele>271.0</ele><time>2026-04-16T08:41:44.999Z</time></trkpt><trkpt lat="46.01627164742857" lon="11.880353902604275"><ele>271.0</ele><time>2026-04-16T08:41:46Z</time></trkpt><trkpt lat="46.01617347598113" lon="11.88006947854728"><ele>272.0</ele><time>2026-04-16T08:41:47Z</time></trkpt><trkpt lat="46.016083692879135" lon="11.879821549079253"><ele>273.0</ele><time>2026-04-16T08:41:48Z</time></trkpt><trkpt lat="46.01600158780446" lon="11.879591357144154"><ele>274.0</ele><time>2026-04-16T08:41:49Z</time></trkpt><trkpt lat="46.01592271528302" lon="11.879361127862724"><ele>273.66666666666663</ele><time>2026-04-16T08:41:50Z</time></trkpt><trkpt lat="46.015844810656496" lon="11.879122915147493"><ele>273.3333333333333</ele><time>2026-04-16T08:41:51Z</time></trkpt><trkpt lat="46.01576025442862" lon="11.878877982503063"><ele>273.0</ele><time>2026-04-16T08:41:52Z</time></trkpt><trkpt lat="46.015664408735574" lon="11.878612677838724"><ele>273.6666666666667</ele><time>2026-04-16T08:41:53Z</time></trkpt><trkpt lat="46.01557249758208" lon="11.87834068168422"><ele>274.33333333333337</ele><time>2026-04-16T08:41:54Z</time></trkpt><trkpt lat="46.01547918375544" lon="11.8780559610954"><ele>275.0</ele><time>2026-04-16T08:41:55Z</time></trkpt><trkpt lat="46.01538640412848" lon="11.877774801906693"><ele>275.0</ele><time>2026-04-16T08:41:56Z</time></trkpt><trkpt lat="46.01529309651149" lon="11.877507331926155"><ele>275.0</ele><time>2026-04-16T08:41:57Z</time></trkpt><trkpt lat="46.01520923610031" lon="11.877271551332418"><ele>275.0</ele><time>2026-04-16T08:41:58Z</time></trkpt><trkpt lat="46.015135204936726" lon="11.877054999619792"><ele>275.0</ele><time>2026-04-16T08:41:59Z</time></trkpt><trkpt lat="46.01506423383954" lon="11.876845190096892"><ele>275.0</ele><time>2026-04-16T08:42:00Z</time></trkpt><trkpt lat="46.015000547140986" lon="11.876660580299438"><ele>275.0</ele><time>2026-04-16T08:42:01Z</time></trkpt><trkpt lat="46.014943262674024" lon="11.876502117090926"><ele>275.0</ele><time>2026-04-16T08:42:02Z</time></trkpt><trkpt lat="46.01489148359653" lon="11.876356076037597"><ele>275.2</ele><time>2026-04-16T08:42:03Z</time></trkpt><trkpt lat="46.01484622736523" lon="11.876222510190285"><ele>275.4</ele><time>2026-04-16T08:42:04Z</time></trkpt><trkpt lat="46.01480278905799" lon="11.876094737811894"><ele>275.6</ele><time>2026-04-16T08:42:05Z</time></trkpt><trkpt lat="46.01476130157893" lon="11.875963413494164"><ele>275.8</ele><time>2026-04-16T08:42:06Z</time></trkpt><trkpt lat="46.014718404817984" lon="11.875820453122916"><ele>276.0</ele><time>2026-04-16T08:42:07Z</time></trkpt><trkpt lat="46.014663680671546" lon="11.87566874655402"><ele>276.5</ele><time>2026-04-16T08:42:08Z</time></trkpt><trkpt lat="46.014605234982135" lon="11.875510859205423"><ele>277.0</ele><time>2026-04-16T08:42:09Z</time></trkpt><trkpt lat="46.01454643259768" lon="11.87534484119164"><ele>277.5</ele><time>2026-04-16T08:42:10Z</time></trkpt><trkpt lat="46.014487426264935" lon="11.875178236261197"><ele>278.0</ele><time>2026-04-16T08:42:11Z</time></trkpt><trkpt lat="46.014429987994575" lon="11.875017544162795"><ele>278.2</ele><time>2026-04-16T08:42:12Z</time></trkpt><trkpt lat="46.014383985301784" lon="11.874884697335395"><ele>278.4</ele><time>2026-04-16T08:42:13Z</time></trkpt><trkpt lat="46.014359784801925" lon="11.874777272249466"><ele>278.59999999999997</ele><time>2026-04-16T08:42:14Z</time></trkpt><trkpt lat="46.01437156231705" lon="11.87461216819243"><ele>278.8</ele><time>2026-04-16T08:42:16Z</time></trkpt><trkpt lat="46.014351489733606" lon="11.87448167507143"><ele>279.0</ele><time>2026-04-16T08:42:18Z</time></trkpt><trkpt lat="46.014271809187065" lon="11.874397382046482"><ele>279.0</ele><time>2026-04-16T08:46:40Z</time></trkpt><trkpt lat="46.01432320403458" lon="11.874464836215694"><ele>279.0</ele><time>2026-04-16T08:46:44Z</time></trkpt><trkpt lat="46.01428752323453" lon="11.874338913752284"><ele>279.0</ele><time>2026-04-16T08:48:05Z</time></trkpt><trkpt lat="46.01420499843111" lon="11.874277849944033"><ele>279.0</ele><time>2026-04-16T08:48:07Z</time></trkpt><trkpt lat="46.014157299748604" lon="11.874196778139183"><ele>279.0</ele><time>2026-04-16T08:48:08Z</time></trkpt><trkpt lat="46.01411622514784" lon="11.874086969142734"><ele>279.0</ele><time>2026-04-16T08:48:09Z</time></trkpt><trkpt lat="46.014086330601494" lon="11.873989474744588"><ele>279.0</ele><time>2026-04-16T08:48:10Z</time></trkpt><trkpt lat="46.014057270636485" lon="11.873894690380501"><ele>279.0</ele><time>2026-04-16T08:48:11Z</time></trkpt><trkpt lat="46.014021170288665" lon="11.873784480156539"><ele>279.0</ele><time>2026-04-16T08:48:12Z</time></trkpt><trkpt lat="46.013973537038424" lon="11.873658291004912"><ele>279.0</ele><time>2026-04-16T08:48:13Z</time></trkpt><trkpt lat="46.01392044352367" lon="11.873510911844708"><ele>279.0</ele><time>2026-04-16T08:48:14Z</time></trkpt><trkpt lat="46.013860042886265" lon="11.873338261991048"><ele>279.5</ele><time>2026-04-16T08:48:15Z</time></trkpt><trkpt lat="46.01380366264469" lon="11.87316737030562"><ele>280.0</ele><time>2026-04-16T08:48:16Z</time></trkpt><trkpt lat="46.01374747987918" lon="11.873015599964981"><ele>280.5</ele><time>2026-04-16T08:48:17Z</time></trkpt><trkpt lat="46.013692341327676" lon="11.872862804099407"><ele>281.0</ele><time>2026-04-16T08:48:18Z</time></trkpt><trkpt lat="46.013640845472885" lon="11.872709538525985"><ele>281.0</ele><time>2026-04-16T08:48:19Z</time></trkpt><trkpt lat="46.013585010908244" lon="11.872553677252705"><ele>281.0</ele><time>2026-04-16T08:48:20Z</time></trkpt><trkpt lat="46.01353021259133" lon="11.87239401775255"><ele>281.0</ele><time>2026-04-16T08:48:21Z</time></trkpt><trkpt lat="46.013475539728525" lon="11.872236888387317"><ele>281.0</ele><time>2026-04-16T08:48:22Z</time></trkpt><trkpt lat="46.01341978343733" lon="11.872079865253905"><ele>281.0</ele><time>2026-04-16T08:48:23Z</time></trkpt><trkpt lat="46.013365565130954" lon="11.871922468291297"><ele>281.0</ele><time>2026-04-16T08:48:24Z</time></trkpt><trkpt lat="46.01331013389538" lon="11.871765531617994"><ele>281.0</ele><time>2026-04-16T08:48:25Z</time></trkpt><trkpt lat="46.01325758470779" lon="11.87161234893758"><ele>281.0</ele><time>2026-04-16T08:48:26Z</time></trkpt><trkpt lat="46.013205807858654" lon="11.871464183358086"><ele>281.2</ele><time>2026-04-16T08:48:27Z</time></trkpt><trkpt lat="46.01316191572693" lon="11.871329670658719"><ele>281.40000000000003</ele><time>2026-04-16T08:48:28Z</time></trkpt><trkpt lat="46.01312391122652" lon="11.871211139801817"><ele>281.6</ele><time>2026-04-16T08:48:29Z</time></trkpt><trkpt lat="46.013088262913385" lon="11.871102472845237"><ele>281.8</ele><time>2026-04-16T08:48:30Z</time></trkpt><trkpt lat="46.01304372699986" lon="11.870970469002264"><ele>282.0</ele><time>2026-04-16T08:48:32Z</time></trkpt><trkpt lat="46.0130024784995" lon="11.870855755147106"><ele>282.2</ele><time>2026-04-16T08:48:53Z</time></trkpt><trkpt lat="46.012942204321455" lon="11.870691567807462"><ele>282.4</ele><time>2026-04-16T08:48:55Z</time></trkpt><trkpt lat="46.01290695765531" lon="11.870583099169448"><ele>282.6</ele><time>2026-04-16T08:48:56Z</time></trkpt><trkpt lat="46.01286986805108" lon="11.870469680952834"><ele>282.8</ele><time>2026-04-16T08:48:57Z</time></trkpt><trkpt lat="46.01281757329893" lon="11.870321905031957"><ele>283.0</ele><time>2026-04-16T08:48:58Z</time></trkpt><trkpt lat="46.012760660435475" lon="11.870158318864911"><ele>283.0</ele><time>2026-04-16T08:48:59Z</time></trkpt><trkpt lat="46.01270732070777" lon="11.870012765283159"><ele>283.0</ele><time>2026-04-16T08:49:00Z</time></trkpt><trkpt lat="46.01265165576171" lon="11.869865135706902"><ele>283.0</ele><time>2026-04-16T08:49:01Z</time></trkpt><trkpt lat="46.01258966343104" lon="11.869691507648666"><ele>283.0</ele><time>2026-04-16T08:49:02Z</time></trkpt><trkpt lat="46.01252061225638" lon="11.869492515167009"><ele>283.0</ele><time>2026-04-16T08:49:03Z</time></trkpt><trkpt lat="46.01244131170771" lon="11.869264462576993"><ele>283.0</ele><time>2026-04-16T08:49:04Z</time></trkpt><trkpt lat="46.01236923824341" lon="11.86904839497996"><ele>283.0</ele><time>2026-04-16T08:49:05Z</time></trkpt><trkpt lat="46.01230075355624" lon="11.868842759145206"><ele>283.0</ele><time>2026-04-16T08:49:06Z</time></trkpt><trkpt lat="46.012229332814364" lon="11.868630559726483"><ele>283.0</ele><time>2026-04-16T08:49:07Z</time></trkpt><trkpt lat="46.01215554577521" lon="11.868412074051168"><ele>283.0</ele><time>2026-04-16T08:49:08Z</time></trkpt><trkpt lat="46.0120768040908" lon="11.868182826216483"><ele>284.0</ele><time>2026-04-16T08:49:09Z</time></trkpt><trkpt lat="46.011990982052616" lon="11.86794153963762"><ele>285.0</ele><time>2026-04-16T08:49:10Z</time></trkpt><trkpt lat="46.011902406594594" lon="11.86769121468634"><ele>286.0</ele><time>2026-04-16T08:49:11Z</time></trkpt><trkpt lat="46.01181052464754" lon="11.8674346232446"><ele>286.0</ele><time>2026-04-16T08:49:12Z</time></trkpt><trkpt lat="46.01171918778547" lon="11.86717199668176"><ele>286.0</ele><time>2026-04-16T08:49:13Z</time></trkpt><trkpt lat="46.011627443093886" lon="11.866894722842263"><ele>286.0</ele><time>2026-04-16T08:49:14Z</time></trkpt><trkpt lat="46.01153550802111" lon="11.866626244044895"><ele>286.0</ele><time>2026-04-16T08:49:15Z</time></trkpt><trkpt lat="46.011448528940186" lon="11.86637881882281"><ele>286.0</ele><time>2026-04-16T08:49:16Z</time></trkpt><trkpt lat="46.011356575859644" lon="11.866118162873237"><ele>286.0</ele><time>2026-04-16T08:49:17Z</time></trkpt><trkpt lat="46.0112648799238" lon="11.86584643097639"><ele>286.3333333333333</ele><time>2026-04-16T08:49:18Z</time></trkpt><trkpt lat="46.01116803757269" lon="11.86556844191303"><ele>286.6666666666667</ele><time>2026-04-16T08:49:19Z</time></trkpt><trkpt lat="46.01107041187776" lon="11.86528227677402"><ele>287.0</ele><time>2026-04-16T08:49:20Z</time></trkpt><trkpt lat="46.01097381867633" lon="11.864993478039175"><ele>288.0</ele><time>2026-04-16T08:49:21Z</time></trkpt><trkpt lat="46.01087213570692" lon="11.864697918181497"><ele>289.0</ele><time>2026-04-16T08:49:22Z</time></trkpt><trkpt lat="46.010770884498136" lon="11.864403133707555"><ele>290.5</ele><time>2026-04-16T08:49:23Z</time></trkpt><trkpt lat="46.01066983823453" lon="11.864110338939499"><ele>292.0</ele><time>2026-04-16T08:49:24Z</time></trkpt><trkpt lat="46.01056745358854" lon="11.863813367290609"><ele>292.0</ele><time>2026-04-16T08:49:25Z</time></trkpt><trkpt lat="46.01046471615794" lon="11.8635116764759"><ele>292.0</ele><time>2026-04-16T08:49:26Z</time></trkpt><trkpt lat="46.010361380702854" lon="11.863209384130785"><ele>292.0</ele><time>2026-04-16T08:49:27Z</time></trkpt><trkpt lat="46.01025677473464" lon="11.862910990914907"><ele>292.0</ele><time>2026-04-16T08:49:28Z</time></trkpt><trkpt lat="46.010152344809825" lon="11.86261297364561"><ele>292.0</ele><time>2026-04-16T08:49:29Z</time></trkpt><trkpt lat="46.01004841237488" lon="11.862316408592639"><ele>292.0</ele><time>2026-04-16T08:49:30Z</time></trkpt><trkpt lat="46.00994337149018" lon="11.862012045544171"><ele>291.5</ele><time>2026-04-16T08:49:31Z</time></trkpt><trkpt lat="46.00984381092527" lon="11.8617089205149"><ele>291.0</ele><time>2026-04-16T08:49:32Z</time></trkpt><trkpt lat="46.009737813424" lon="11.86139540364015"><ele>291.0</ele><time>2026-04-16T08:49:33Z</time></trkpt><trkpt lat="46.00962408624036" lon="11.861079359359803"><ele>291.0</ele><time>2026-04-16T08:49:34Z</time></trkpt><trkpt lat="46.00951197049401" lon="11.860757773247117"><ele>292.5</ele><time>2026-04-16T08:49:35Z</time></trkpt><trkpt lat="46.00940829988632" lon="11.860452396472171"><ele>294.0</ele><time>2026-04-16T08:49:36Z</time></trkpt><trkpt lat="46.00930639581273" lon="11.860153082463656"><ele>294.0</ele><time>2026-04-16T08:49:37Z</time></trkpt><trkpt lat="46.00920373626234" lon="11.859844550286983"><ele>294.0</ele><time>2026-04-16T08:49:38Z</time></trkpt><trkpt lat="46.00909542358832" lon="11.859530127107638"><ele>295.0</ele><time>2026-04-16T08:49:39Z</time></trkpt><trkpt lat="46.008987863439486" lon="11.85922241227394"><ele>296.0</ele><time>2026-04-16T08:49:40Z</time></trkpt><trkpt lat="46.00888084625427" lon="11.85891322419989"><ele>296.0</ele><time>2026-04-16T08:49:41Z</time></trkpt><trkpt lat="46.00877214085279" lon="11.858601870977665"><ele>296.0</ele><time>2026-04-16T08:49:42Z</time></trkpt><trkpt lat="46.00866127178416" lon="11.858282781641144"><ele>297.5</ele><time>2026-04-16T08:49:43Z</time></trkpt><trkpt lat="46.00854753254158" lon="11.857957568722538"><ele>299.0</ele><time>2026-04-16T08:49:44Z</time></trkpt><trkpt lat="46.00843609691035" lon="11.857614222870401"><ele>298.5</ele><time>2026-04-16T08:49:45Z</time></trkpt><trkpt lat="46.00831208630624" lon="11.85729672627229"><ele>298.0</ele><time>2026-04-16T08:49:46Z</time></trkpt><trkpt lat="46.00819697570591" lon="11.856963687561159"><ele>299.5</ele><time>2026-04-16T08:49:47Z</time></trkpt><trkpt lat="46.008083127253656" lon="11.85662198473516"><ele>301.0</ele><time>2026-04-16T08:49:48Z</time></trkpt><trkpt lat="46.00796911768654" lon="11.856282644187257"><ele>302.0</ele><time>2026-04-16T08:49:49Z</time></trkpt><trkpt lat="46.00785363250055" lon="11.855941820961979"><ele>303.0</ele><time>2026-04-16T08:49:50Z</time></trkpt><trkpt lat="46.007736281193885" lon="11.855603917993045"><ele>303.0</ele><time>2026-04-16T08:49:51Z</time></trkpt><trkpt lat="46.007622723701665" lon="11.855273430783928"><ele>303.0</ele><time>2026-04-16T08:49:52Z</time></trkpt><trkpt lat="46.007514157445904" lon="11.85494953411177"><ele>303.5</ele><time>2026-04-16T08:49:53Z</time></trkpt><trkpt lat="46.00740412826379" lon="11.85461074203778"><ele>304.0</ele><time>2026-04-16T08:49:54Z</time></trkpt><trkpt lat="46.007289848045076" lon="11.854276580329548"><ele>305.0</ele><time>2026-04-16T08:49:55Z</time></trkpt><trkpt lat="46.007175783819136" lon="11.853948293920052"><ele>306.0</ele><time>2026-04-16T08:49:56Z</time></trkpt><trkpt lat="46.007060561727734" lon="11.853619439677818"><ele>306.0</ele><time>2026-04-16T08:49:57Z</time></trkpt><trkpt lat="46.00693859858915" lon="11.853295748114034"><ele>306.0</ele><time>2026-04-16T08:49:58Z</time></trkpt><trkpt lat="46.006818820225014" lon="11.85296214944274"><ele>306.0</ele><time>2026-04-16T08:49:59Z</time></trkpt><trkpt lat="46.006700844819235" lon="11.852640647002762"><ele>306.0</ele><time>2026-04-16T08:50:00Z</time></trkpt><trkpt lat="46.0065813228709" lon="11.852300918950823"><ele>306.5</ele><time>2026-04-16T08:50:01Z</time></trkpt><trkpt lat="46.00646272231054" lon="11.851945507127988"><ele>307.0</ele><time>2026-04-16T08:50:02Z</time></trkpt><trkpt lat="46.00634274875506" lon="11.85160444870774"><ele>308.5</ele><time>2026-04-16T08:50:03Z</time></trkpt><trkpt lat="46.006230123702046" lon="11.851246996421153"><ele>310.0</ele><time>2026-04-16T08:50:04Z</time></trkpt><trkpt lat="46.00610965504242" lon="11.850898225398065"><ele>310.5</ele><time>2026-04-16T08:50:05Z</time></trkpt><trkpt lat="46.00598951634883" lon="11.850546687604485"><ele>311.0</ele><time>2026-04-16T08:50:06Z</time></trkpt><trkpt lat="46.00588299614443" lon="11.85022605745694"><ele>311.0</ele><time>2026-04-16T08:50:07Z</time></trkpt><trkpt lat="46.005779558000405" lon="11.849913604410288"><ele>311.0</ele><time>2026-04-16T08:50:08Z</time></trkpt><trkpt lat="46.00567108770266" lon="11.849607632703936"><ele>311.0</ele><time>2026-04-16T08:50:09Z</time></trkpt><trkpt lat="46.00555258791873" lon="11.849298338903266"><ele>311.0</ele><time>2026-04-16T08:50:10Z</time></trkpt><trkpt lat="46.005413952699044" lon="11.848991496453344"><ele>311.0</ele><time>2026-04-16T08:50:11Z</time></trkpt><trkpt lat="46.005249808911024" lon="11.848700686864559"><ele>311.0</ele><time>2026-04-16T08:50:12Z</time></trkpt><trkpt lat="46.005074824540216" lon="11.848404785807183"><ele>311.0</ele><time>2026-04-16T08:50:13Z</time></trkpt><trkpt lat="46.00491329734523" lon="11.84812300290295"><ele>311.0</ele><time>2026-04-16T08:50:14Z</time></trkpt><trkpt lat="46.00474639407031" lon="11.847819398474359"><ele>312.5</ele><time>2026-04-16T08:50:15Z</time></trkpt><trkpt lat="46.004579053303004" lon="11.847502355256404"><ele>314.0</ele><time>2026-04-16T08:50:16Z</time></trkpt><trkpt lat="46.00441481659868" lon="11.84717493956933"><ele>314.0</ele><time>2026-04-16T08:50:17Z</time></trkpt><trkpt lat="46.00425752706244" lon="11.846839412011876"><ele>314.0</ele><time>2026-04-16T08:50:18Z</time></trkpt><trkpt lat="46.00410299967058" lon="11.846495871454266"><ele>314.0</ele><time>2026-04-16T08:50:19Z</time></trkpt><trkpt lat="46.00394904273574" lon="11.846152648138187"><ele>314.0</ele><time>2026-04-16T08:50:20Z</time></trkpt><trkpt lat="46.00379003910282" lon="11.845810282721366"><ele>315.0</ele><time>2026-04-16T08:50:21Z</time></trkpt><trkpt lat="46.0036466842015" lon="11.845496628407734"><ele>316.0</ele><time>2026-04-16T08:50:22Z</time></trkpt><trkpt lat="46.00351279629782" lon="11.845178575345125"><ele>317.0</ele><time>2026-04-16T08:50:23Z</time></trkpt><trkpt lat="46.00338808313802" lon="11.844833307854454"><ele>318.0</ele><time>2026-04-16T08:50:24Z</time></trkpt><trkpt lat="46.003279322220244" lon="11.844477037314181"><ele>319.0</ele><time>2026-04-16T08:50:25Z</time></trkpt><trkpt lat="46.00319276034261" lon="11.844124881327378"><ele>320.0</ele><time>2026-04-16T08:50:26Z</time></trkpt><trkpt lat="46.003119847021104" lon="11.84375287424651"><ele>321.0</ele><time>2026-04-16T08:50:27Z</time></trkpt><trkpt lat="46.00306921066705" lon="11.843404028857776"><ele>322.0</ele><time>2026-04-16T08:50:28Z</time></trkpt><trkpt lat="46.003030921885944" lon="11.843044963612584"><ele>322.0</ele><time>2026-04-16T08:50:29Z</time></trkpt><trkpt lat="46.00300941491636" lon="11.842711064059483"><ele>322.0</ele><time>2026-04-16T08:50:30Z</time></trkpt><trkpt lat="46.003000705962435" lon="11.842428524770614"><ele>322.0</ele><time>2026-04-16T08:50:31Z</time></trkpt><trkpt lat="46.00300189396351" lon="11.842181501632268"><ele>322.25</ele><time>2026-04-16T08:50:32Z</time></trkpt><trkpt lat="46.00302395108045" lon="11.841978314067969"><ele>322.5</ele><time>2026-04-16T08:50:33Z</time></trkpt><trkpt lat="46.003052407875266" lon="11.841818233067762"><ele>322.75</ele><time>2026-04-16T08:50:34Z</time></trkpt><trkpt lat="46.00307922820571" lon="11.84168600875989"><ele>323.0</ele><time>2026-04-16T08:50:35Z</time></trkpt><trkpt lat="46.00306709222527" lon="11.841545903745455"><ele>322.5</ele><time>2026-04-16T08:50:36Z</time></trkpt><trkpt lat="46.00301858490063" lon="11.841433478741191"><ele>322.0</ele><time>2026-04-16T08:50:37Z</time></trkpt><trkpt lat="46.00294002877302" lon="11.84133309542701"><ele>321.5</ele><time>2026-04-16T08:50:38Z</time></trkpt><trkpt lat="46.00283696891253" lon="11.84124086961594"><ele>321.0</ele><time>2026-04-16T08:50:39Z</time></trkpt><trkpt lat="46.00271117936532" lon="11.841143666476022"><ele>321.0</ele><time>2026-04-16T08:50:40Z</time></trkpt><trkpt lat="46.00256563208889" lon="11.841027224917115"><ele>321.0</ele><time>2026-04-16T08:50:41Z</time></trkpt><trkpt lat="46.002406994324055" lon="11.840892118922543"><ele>321.0</ele><time>2026-04-16T08:50:42Z</time></trkpt><trkpt lat="46.00225882800372" lon="11.84077632147432"><ele>320.3333333333333</ele><time>2026-04-16T08:50:43Z</time></trkpt><trkpt lat="46.00209987524546" lon="11.840652849599058"><ele>319.66666666666663</ele><time>2026-04-16T08:50:44Z</time></trkpt><trkpt lat="46.00192971938663" lon="11.840507507189828"><ele>319.0</ele><time>2026-04-16T08:50:45Z</time></trkpt><trkpt lat="46.00175614372609" lon="11.840362304291737"><ele>319.66666666666663</ele><time>2026-04-16T08:50:46Z</time></trkpt><trkpt lat="46.00158134856789" lon="11.840224983847916"><ele>320.3333333333333</ele><time>2026-04-16T08:50:47Z</time></trkpt><trkpt lat="46.00140290681781" lon="11.840094295551406"><ele>321.0</ele><time>2026-04-16T08:50:48Z</time></trkpt><trkpt lat="46.00121450749585" lon="11.83996112272599"><ele>321.3333333333333</ele><time>2026-04-16T08:50:49Z</time></trkpt><trkpt lat="46.001015056417344" lon="11.839808666335692"><ele>321.66666666666663</ele><time>2026-04-16T08:50:50Z</time></trkpt><trkpt lat="46.00082976847566" lon="11.839655091124186"><ele>322.0</ele><time>2026-04-16T08:50:51Z</time></trkpt><trkpt lat="46.00063811459115" lon="11.839505746998872"><ele>322.66666666666663</ele><time>2026-04-16T08:50:52Z</time></trkpt><trkpt lat="46.00046175351477" lon="11.839377851645963"><ele>323.3333333333333</ele><time>2026-04-16T08:50:53Z</time></trkpt><trkpt lat="46.00028014966794" lon="11.839284710343984"><ele>324.0</ele><time>2026-04-16T08:50:54Z</time></trkpt><trkpt lat="46.00009087860212" lon="11.83922851456634"><ele>324.0</ele><time>2026-04-16T08:50:55Z</time></trkpt><trkpt lat="45.99988570460182" lon="11.839204554744125"><ele>324.0</ele><time>2026-04-16T08:50:56Z</time></trkpt><trkpt lat="45.999669624016654" lon="11.839216302210101"><ele>324.0</ele><time>2026-04-16T08:50:57Z</time></trkpt><trkpt lat="45.999472049510665" lon="11.839245495431562"><ele>324.0</ele><time>2026-04-16T08:50:58Z</time></trkpt><trkpt lat="45.99928834424812" lon="11.83925393634262"><ele>324.0</ele><time>2026-04-16T08:50:59Z</time></trkpt><trkpt lat="45.99910166621225" lon="11.839229495730228"><ele>324.0</ele><time>2026-04-16T08:51:00Z</time></trkpt><trkpt lat="45.99892318030896" lon="11.839158821693944"><ele>323.6666666666667</ele><time>2026-04-16T08:51:01Z</time></trkpt><trkpt lat="45.998753218100205" lon="11.839044386939712"><ele>323.33333333333337</ele><time>2026-04-16T08:51:02Z</time></trkpt><trkpt lat="45.99858454957669" lon="11.83888769427276"><ele>323.0</ele><time>2026-04-16T08:51:03Z</time></trkpt><trkpt lat="45.99841242116682" lon="11.838699092322255"><ele>324.0</ele><time>2026-04-16T08:51:04Z</time></trkpt><trkpt lat="45.99822957352503" lon="11.838509066328676"><ele>325.0</ele><time>2026-04-16T08:51:05Z</time></trkpt><trkpt lat="45.99804508446603" lon="11.838324179776272"><ele>325.3333333333333</ele><time>2026-04-16T08:51:06Z</time></trkpt><trkpt lat="45.99786468672213" lon="11.838160447152978"><ele>325.6666666666667</ele><time>2026-04-16T08:51:07Z</time></trkpt><trkpt lat="45.9976560750583" lon="11.838018355325717"><ele>326.0</ele><time>2026-04-16T08:51:08Z</time></trkpt><trkpt lat="45.99745598532393" lon="11.837907311092172"><ele>326.6666666666667</ele><time>2026-04-16T08:51:09Z</time></trkpt><trkpt lat="45.997275863395075" lon="11.837823691757904"><ele>327.3333333333333</ele><time>2026-04-16T08:51:10Z</time></trkpt><trkpt lat="45.99711254631126" lon="11.837760195681462"><ele>328.0</ele><time>2026-04-16T08:51:11Z</time></trkpt><trkpt lat="45.99694344289816" lon="11.837682216080895"><ele>328.3333333333333</ele><time>2026-04-16T08:51:12Z</time></trkpt><trkpt lat="45.996795445949395" lon="11.837591290795205"><ele>328.6666666666667</ele><time>2026-04-16T08:51:13Z</time></trkpt><trkpt lat="45.99667067463328" lon="11.837482076176716"><ele>329.0</ele><time>2026-04-16T08:51:14Z</time></trkpt><trkpt lat="45.996552587713715" lon="11.837346302083105"><ele>329.25</ele><time>2026-04-16T08:51:15Z</time></trkpt><trkpt lat="45.996433844239085" lon="11.837197578164474"><ele>329.5</ele><time>2026-04-16T08:51:16Z</time></trkpt><trkpt lat="45.99633386566571" lon="11.837048213811615"><ele>329.75</ele><time>2026-04-16T08:51:17Z</time></trkpt><trkpt lat="45.99626913654911" lon="11.836871357657273"><ele>330.0</ele><time>2026-04-16T08:51:18Z</time></trkpt><trkpt lat="45.9962172938316" lon="11.836680382197155"><ele>330.0</ele><time>2026-04-16T08:51:19Z</time></trkpt><trkpt lat="45.996145204486574" lon="11.836466840219051"><ele>330.0</ele><time>2026-04-16T08:51:20Z</time></trkpt><trkpt lat="45.99608508766815" lon="11.836248823237751"><ele>330.0</ele><time>2026-04-16T08:51:21Z</time></trkpt><trkpt lat="45.99603823994666" lon="11.836083586956033"><ele>329.8</ele><time>2026-04-16T08:51:22Z</time></trkpt><trkpt lat="45.99600516217537" lon="11.835960847724676"><ele>329.6</ele><time>2026-04-16T08:51:23Z</time></trkpt><trkpt lat="45.99595940914998" lon="11.83587053000659"><ele>329.4</ele><time>2026-04-16T08:51:24Z</time></trkpt><trkpt lat="45.99588019269905" lon="11.835826886853154"><ele>329.2</ele><time>2026-04-16T08:51:25Z</time></trkpt><trkpt lat="45.995789429477824" lon="11.835832065750038"><ele>329.0</ele><time>2026-04-16T08:51:26Z</time></trkpt><trkpt lat="45.99567745288506" lon="11.835863761521964"><ele>330.5</ele><time>2026-04-16T08:51:27Z</time></trkpt><trkpt lat="45.99554000071157" lon="11.835866147558173"><ele>332.0</ele><time>2026-04-16T08:51:28Z</time></trkpt><trkpt lat="45.995402776365964" lon="11.83583128253608"><ele>333.5</ele><time>2026-04-16T08:51:29Z</time></trkpt><trkpt lat="45.995273422588745" lon="11.835803256474604"><ele>335.0</ele><time>2026-04-16T08:51:30Z</time></trkpt><trkpt lat="45.99511890603687" lon="11.835771038366268"><ele>334.5</ele><time>2026-04-16T08:51:31Z</time></trkpt><trkpt lat="45.99495542339877" lon="11.835759346789487"><ele>334.0</ele><time>2026-04-16T08:51:32Z</time></trkpt><trkpt lat="45.994816688779025" lon="11.8357460586221"><ele>333.5</ele><time>2026-04-16T08:51:33Z</time></trkpt><trkpt lat="45.99468182581881" lon="11.835731014132337"><ele>333.0</ele><time>2026-04-16T08:51:34Z</time></trkpt><trkpt lat="45.99453876210289" lon="11.835682247785492"><ele>333.0</ele><time>2026-04-16T08:51:35Z</time></trkpt><trkpt lat="45.994388205425096" lon="11.835615781046938"><ele>333.0</ele><time>2026-04-16T08:51:36Z</time></trkpt><trkpt lat="45.99427147793848" lon="11.835588145216853"><ele>333.0</ele><time>2026-04-16T08:51:37Z</time></trkpt><trkpt lat="45.99420650496478" lon="11.835553755392914"><ele>333.0</ele><time>2026-04-16T08:51:38Z</time></trkpt><trkpt lat="45.99415847169688" lon="11.835481361810423"><ele>333.0</ele><time>2026-04-16T08:51:39Z</time></trkpt><trkpt lat="45.994126086143936" lon="11.83536523083282"><ele>332.75</ele><time>2026-04-16T08:51:40Z</time></trkpt><trkpt lat="45.99410444912643" lon="11.835222880307345"><ele>332.5</ele><time>2026-04-16T08:51:41Z</time></trkpt><trkpt lat="45.99414294275142" lon="11.835067326801482"><ele>332.25</ele><time>2026-04-16T08:51:42Z</time></trkpt><trkpt lat="45.99417398774208" lon="11.834862677955256"><ele>332.0</ele><time>2026-04-16T08:51:43Z</time></trkpt><trkpt lat="45.99417056698009" lon="11.834650807341076"><ele>333.6666666666667</ele><time>2026-04-16T08:51:44Z</time></trkpt><trkpt lat="45.994161475766155" lon="11.834434385000495"><ele>335.3333333333333</ele><time>2026-04-16T08:51:45Z</time></trkpt><trkpt lat="45.99414460299314" lon="11.834175157357146"><ele>337.0</ele><time>2026-04-16T08:51:46Z</time></trkpt><trkpt lat="45.99414416802161" lon="11.83392002060063"><ele>335.0</ele><time>2026-04-16T08:51:47Z</time></trkpt><trkpt lat="45.99418772364927" lon="11.833688273138488"><ele>333.0</ele><time>2026-04-16T08:51:48Z</time></trkpt><trkpt lat="45.99424262861573" lon="11.833421730407027"><ele>331.0</ele><time>2026-04-16T08:51:49Z</time></trkpt><trkpt lat="45.99429090544712" lon="11.833121624886278"><ele>331.0</ele><time>2026-04-16T08:51:50Z</time></trkpt><trkpt lat="45.99436706601006" lon="11.832823735166482"><ele>331.0</ele><time>2026-04-16T08:51:51Z</time></trkpt><trkpt lat="45.99443825156519" lon="11.83255463082827"><ele>331.0</ele><time>2026-04-16T08:51:52Z</time></trkpt><trkpt lat="45.99451570801785" lon="11.83229930781079"><ele>331.0</ele><time>2026-04-16T08:51:53Z</time></trkpt><trkpt lat="45.994566424855385" lon="11.832019621821278"><ele>331.0</ele><time>2026-04-16T08:51:54Z</time></trkpt><trkpt lat="45.99458041392676" lon="11.83173213978152"><ele>331.0</ele><time>2026-04-16T08:51:55Z</time></trkpt><trkpt lat="45.994556491367035" lon="11.831506424898068"><ele>332.0</ele><time>2026-04-16T08:51:56Z</time></trkpt><trkpt lat="45.99456913666142" lon="11.831298615027302"><ele>333.0</ele><time>2026-04-16T08:51:57Z</time></trkpt><trkpt lat="45.99463622635754" lon="11.83111515564641"><ele>334.0</ele><time>2026-04-16T08:51:58Z</time></trkpt><trkpt lat="45.994724594768236" lon="11.830897430697657"><ele>338.0</ele><time>2026-04-16T08:51:59Z</time></trkpt><trkpt lat="45.99481478204935" lon="11.830672285662628"><ele>342.0</ele><time>2026-04-16T08:52:00Z</time></trkpt><trkpt lat="45.99490562170984" lon="11.830469316979142"><ele>346.0</ele><time>2026-04-16T08:52:01Z</time></trkpt><trkpt lat="45.99495167388538" lon="11.830230082594731"><ele>341.66666666666663</ele><time>2026-04-16T08:52:02Z</time></trkpt><trkpt lat="45.994949772577776" lon="11.829956190864634"><ele>337.3333333333333</ele><time>2026-04-16T08:52:03Z</time></trkpt><trkpt lat="45.995008326957986" lon="11.829671639850222"><ele>333.0</ele><time>2026-04-16T08:52:04Z</time></trkpt><trkpt lat="45.9950850690587" lon="11.829370939744203"><ele>337.0</ele><time>2026-04-16T08:52:05Z</time></trkpt><trkpt lat="45.995156414133085" lon="11.829094850844239"><ele>341.0</ele><time>2026-04-16T08:52:06Z</time></trkpt><trkpt lat="45.99522457373569" lon="11.828770133414192"><ele>345.0</ele><time>2026-04-16T08:52:07Z</time></trkpt><trkpt lat="45.99531295621076" lon="11.8284446952059"><ele>349.6666666666667</ele><time>2026-04-16T08:52:08Z</time></trkpt><trkpt lat="45.99539291962609" lon="11.828142988928784"><ele>354.33333333333337</ele><time>2026-04-16T08:52:09Z</time></trkpt><trkpt lat="45.995483169579096" lon="11.827900794359762"><ele>359.0</ele><time>2026-04-16T08:52:10Z</time></trkpt><trkpt lat="45.99558426054828" lon="11.82764760255533"><ele>366.33333333333337</ele><time>2026-04-16T08:52:11Z</time></trkpt><trkpt lat="45.99566509583506" lon="11.827399922962867"><ele>373.6666666666667</ele><time>2026-04-16T08:52:12Z</time></trkpt><trkpt lat="45.99574025047472" lon="11.827172309236332"><ele>381.0</ele><time>2026-04-16T08:52:13Z</time></trkpt><trkpt lat="45.99579061720946" lon="11.826905760936542"><ele>370.3333333333333</ele><time>2026-04-16T08:52:14Z</time></trkpt><trkpt lat="45.9958421052052" lon="11.826618797387555"><ele>359.66666666666663</ele><time>2026-04-16T08:52:15Z</time></trkpt><trkpt lat="45.99592581470661" lon="11.826332644686632"><ele>349.0</ele><time>2026-04-16T08:52:16Z</time></trkpt><trkpt lat="45.99595629876785" lon="11.826020231802085"><ele>354.0</ele><time>2026-04-16T08:52:17Z</time></trkpt><trkpt lat="45.99597441673389" lon="11.82570706840528"><ele>359.0</ele><time>2026-04-16T08:52:18Z</time></trkpt><trkpt lat="45.99600801875719" lon="11.825409408276848"><ele>364.0</ele><time>2026-04-16T08:52:19Z</time></trkpt><trkpt lat="45.99608628516342" lon="11.82514765058256"><ele>369.3333333333333</ele><time>2026-04-16T08:52:20Z</time></trkpt><trkpt lat="45.99616271357267" lon="11.824883152165157"><ele>374.6666666666667</ele><time>2026-04-16T08:52:21Z</time></trkpt><trkpt lat="45.996249073620305" lon="11.8246118807831"><ele>380.0</ele><time>2026-04-16T08:52:22Z</time></trkpt><trkpt lat="45.99635351119674" lon="11.8243603668226"><ele>385.75</ele><time>2026-04-16T08:52:23Z</time></trkpt><trkpt lat="45.996412746722605" lon="11.824141345023769"><ele>391.5</ele><time>2026-04-16T08:52:24Z</time></trkpt><trkpt lat="45.99646300783747" lon="11.8239818044696"><ele>397.25</ele><time>2026-04-16T08:52:25Z</time></trkpt><trkpt lat="45.99653354951105" lon="11.823837769342601"><ele>403.0</ele><time>2026-04-16T08:52:26Z</time></trkpt><trkpt lat="45.99657528122021" lon="11.823653248172382"><ele>410.33333333333337</ele><time>2026-04-16T08:52:27Z</time></trkpt><trkpt lat="45.996600733207266" lon="11.823432186327219"><ele>417.66666666666663</ele><time>2026-04-16T08:52:28Z</time></trkpt><trkpt lat="45.996636682652515" lon="11.823192562725266"><ele>425.0</ele><time>2026-04-16T08:52:29Z</time></trkpt><trkpt lat="45.99670002760654" lon="11.822958245639507"><ele>417.0</ele><time>2026-04-16T08:52:30Z</time></trkpt><trkpt lat="45.996765320940824" lon="11.822743849837785"><ele>409.0</ele><time>2026-04-16T08:52:31Z</time></trkpt><trkpt lat="45.996805444935966" lon="11.82253187509423"><ele>401.0</ele><time>2026-04-16T08:52:32Z</time></trkpt><trkpt lat="45.99684376504463" lon="11.822299513741665"><ele>401.0</ele><time>2026-04-16T08:52:33Z</time></trkpt><trkpt lat="45.99691834846409" lon="11.82206062118788"><ele>401.0</ele><time>2026-04-16T08:52:34Z</time></trkpt><trkpt lat="45.99702426497465" lon="11.821829572260484"><ele>401.0</ele><time>2026-04-16T08:52:35Z</time></trkpt><trkpt lat="45.99714068584762" lon="11.821612729260746"><ele>405.5</ele><time>2026-04-16T08:52:36Z</time></trkpt><trkpt lat="45.99722647207641" lon="11.821452586968798"><ele>410.0</ele><time>2026-04-16T08:52:37Z</time></trkpt><trkpt lat="45.99726657927171" lon="11.821285932558215"><ele>414.5</ele><time>2026-04-16T08:52:38Z</time></trkpt><trkpt lat="45.99726045494739" lon="11.821083581431827"><ele>419.0</ele><time>2026-04-16T08:52:39Z</time></trkpt><trkpt lat="45.997231339806206" lon="11.820855680674773"><ele>421.16666666666663</ele><time>2026-04-16T08:52:40Z</time></trkpt><trkpt lat="45.997225418263945" lon="11.820678186261597"><ele>423.3333333333333</ele><time>2026-04-16T08:52:41Z</time></trkpt><trkpt lat="45.99726488081601" lon="11.820561033292906"><ele>425.5</ele><time>2026-04-16T08:52:42Z</time></trkpt><trkpt lat="45.99729007952437" lon="11.820445339090691"><ele>427.66666666666663</ele><time>2026-04-16T08:52:43Z</time></trkpt><trkpt lat="45.99730748836691" lon="11.820353564557449"><ele>429.8333333333333</ele><time>2026-04-16T08:52:44Z</time></trkpt><trkpt lat="45.9972430204132" lon="11.820289241756539"><ele>432.0</ele><time>2026-04-16T08:52:45Z</time></trkpt><trkpt lat="45.99717726424388" lon="11.82025703279626"><ele>432.0</ele><time>2026-04-16T08:52:46Z</time></trkpt><trkpt lat="45.997107318185044" lon="11.820308026830952"><ele>432.00000000000006</ele><time>2026-04-16T08:52:47Z</time></trkpt><trkpt lat="45.99705241610698" lon="11.82037574228241"><ele>432.00000000000006</ele><time>2026-04-16T08:52:48Z</time></trkpt><trkpt lat="45.997054338136394" lon="11.820537254001277"><ele>432.0</ele><time>2026-04-16T08:52:49Z</time></trkpt><trkpt lat="45.99705119892377" lon="11.820722361289063"><ele>432.0</ele><time>2026-04-16T08:52:50Z</time></trkpt><trkpt lat="45.99701274788928" lon="11.820873547787786"><ele>428.75</ele><time>2026-04-16T08:52:51Z</time></trkpt><trkpt lat="45.996964067129454" lon="11.821059050288623"><ele>425.5</ele><time>2026-04-16T08:52:52Z</time></trkpt><trkpt lat="45.996914682483855" lon="11.821260878048024"><ele>422.25</ele><time>2026-04-16T08:52:53Z</time></trkpt><trkpt lat="45.99686121620455" lon="11.8214280454482"><ele>419.0</ele><time>2026-04-16T08:52:54Z</time></trkpt><trkpt lat="45.99678538590222" lon="11.821583071770322"><ele>419.0</ele><time>2026-04-16T08:52:55Z</time></trkpt><trkpt lat="45.99667549333511" lon="11.821748174619062"><ele>419.0</ele><time>2026-04-16T08:52:56Z</time></trkpt><trkpt lat="45.99656126580116" lon="11.821927900291962"><ele>419.0</ele><time>2026-04-16T08:52:57Z</time></trkpt><trkpt lat="45.996429135460204" lon="11.822022004302571"><ele>426.66666666666663</ele><time>2026-04-16T08:52:58Z</time></trkpt><trkpt lat="45.99633081605543" lon="11.822170642587055"><ele>434.33333333333337</ele><time>2026-04-16T08:52:59Z</time></trkpt><trkpt lat="45.99622881705177" lon="11.82233349288702"><ele>442.0</ele><time>2026-04-16T08:53:00Z</time></trkpt><trkpt lat="45.99613600919746" lon="11.822559538479135"><ele>436.33333333333337</ele><time>2026-04-16T08:53:01Z</time></trkpt><trkpt lat="45.996010949483136" lon="11.82277954014908"><ele>430.66666666666663</ele><time>2026-04-16T08:53:02Z</time></trkpt><trkpt lat="45.99592402210884" lon="11.82301643106575"><ele>425.0</ele><time>2026-04-16T08:53:03Z</time></trkpt><trkpt lat="45.99581937891535" lon="11.823256776874597"><ele>435.3333333333333</ele><time>2026-04-16T08:53:04Z</time></trkpt><trkpt lat="45.99573135678321" lon="11.823509459183166"><ele>445.66666666666663</ele><time>2026-04-16T08:53:05Z</time></trkpt><trkpt lat="45.99567615089768" lon="11.823733643960411"><ele>456.0</ele><time>2026-04-16T08:53:06Z</time></trkpt><trkpt lat="45.99561963033279" lon="11.823961959801865"><ele>456.0</ele><time>2026-04-16T08:53:07Z</time></trkpt><trkpt lat="45.99551524919065" lon="11.824141647237923"><ele>456.0</ele><time>2026-04-16T08:53:08Z</time></trkpt><trkpt lat="45.99540598333673" lon="11.82432578225348"><ele>456.0</ele><time>2026-04-16T08:53:09Z</time></trkpt><trkpt lat="45.995299449686286" lon="11.82452916272781"><ele>450.0</ele><time>2026-04-16T08:53:10Z</time></trkpt><trkpt lat="45.99517937224058" lon="11.824710081774143"><ele>444.0</ele><time>2026-04-16T08:53:11Z</time></trkpt><trkpt lat="45.995094199276735" lon="11.824912362919315"><ele>438.0</ele><time>2026-04-16T08:53:12Z</time></trkpt><trkpt lat="45.99502727383316" lon="11.825134051959184"><ele>449.75</ele><time>2026-04-16T08:53:13Z</time></trkpt><trkpt lat="45.99497199119259" lon="11.825363482947418"><ele>461.5</ele><time>2026-04-16T08:53:14Z</time></trkpt><trkpt lat="45.99495591307819" lon="11.825528703081606"><ele>473.25</ele><time>2026-04-16T08:53:15Z</time></trkpt><trkpt lat="45.99489048012613" lon="11.825680597491404"><ele>485.0</ele><time>2026-04-16T08:53:16Z</time></trkpt><trkpt lat="45.99479418712206" lon="11.825858351659104"><ele>478.0</ele><time>2026-04-16T08:53:17Z</time></trkpt><trkpt lat="45.99468560904983" lon="11.826027496423276"><ele>471.0</ele><time>2026-04-16T08:53:18Z</time></trkpt><trkpt lat="45.994588609367895" lon="11.826186297296744"><ele>464.0</ele><time>2026-04-16T08:53:19Z</time></trkpt><trkpt lat="45.99448108188873" lon="11.826381463753332"><ele>464.0</ele><time>2026-04-16T08:53:20Z</time></trkpt><trkpt lat="45.994386483558785" lon="11.82656678592174"><ele>464.0</ele><time>2026-04-16T08:53:21Z</time></trkpt><trkpt lat="45.99428386455768" lon="11.826788654041971"><ele>464.0</ele><time>2026-04-16T08:53:22Z</time></trkpt><trkpt lat="45.99415630512688" lon="11.826915240620783"><ele>471.25</ele><time>2026-04-16T08:53:23Z</time></trkpt><trkpt lat="45.99406463095538" lon="11.827073538380857"><ele>478.5</ele><time>2026-04-16T08:53:24Z</time></trkpt><trkpt lat="45.99402388134072" lon="11.827286889649331"><ele>485.75</ele><time>2026-04-16T08:53:25Z</time></trkpt><trkpt lat="45.99395106677355" lon="11.827427125806643"><ele>493.0</ele><time>2026-04-16T08:53:26Z</time></trkpt><trkpt lat="45.993843639402236" lon="11.827568578078253"><ele>485.0</ele><time>2026-04-16T08:53:27Z</time></trkpt><trkpt lat="45.99372133196376" lon="11.827726765997252"><ele>477.0</ele><time>2026-04-16T08:53:28Z</time></trkpt><trkpt lat="45.99360840165236" lon="11.827920057954499"><ele>469.0</ele><time>2026-04-16T08:53:29Z</time></trkpt><trkpt lat="45.99348159298383" lon="11.828133266093193"><ele>469.0</ele><time>2026-04-16T08:53:30Z</time></trkpt><trkpt lat="45.99336290374493" lon="11.828321483149802"><ele>469.0</ele><time>2026-04-16T08:53:31Z</time></trkpt><trkpt lat="45.99328619885984" lon="11.82842408871263"><ele>469.0</ele><time>2026-04-16T08:53:32Z</time></trkpt><trkpt lat="45.993235683637806" lon="11.828484509824182"><ele>469.0</ele><time>2026-04-16T08:53:34Z</time></trkpt><trkpt lat="45.993141246555524" lon="11.828605992102597"><ele>475.25</ele><time>2026-04-16T08:53:41Z</time></trkpt><trkpt lat="45.99306153410057" lon="11.828697778505573"><ele>481.5</ele><time>2026-04-16T08:53:42Z</time></trkpt><trkpt lat="45.992988367047765" lon="11.828793113243563"><ele>487.75</ele><time>2026-04-16T08:53:43Z</time></trkpt><trkpt lat="45.99292385283177" lon="11.828919783672053"><ele>494.0</ele><time>2026-04-16T08:53:44Z</time></trkpt><trkpt lat="45.992871879121125" lon="11.829117832873921"><ele>494.0</ele><time>2026-04-16T08:53:45Z</time></trkpt><trkpt lat="45.992808726162245" lon="11.829288741538289"><ele>494.0</ele><time>2026-04-16T08:53:46Z</time></trkpt><trkpt lat="45.99271512660962" lon="11.829457915695853"><ele>494.0</ele><time>2026-04-16T08:53:47Z</time></trkpt><trkpt lat="45.99262650691964" lon="11.829672206526633"><ele>499.3333333333333</ele><time>2026-04-16T08:53:48Z</time></trkpt><trkpt lat="45.99256376259101" lon="11.829896757539599"><ele>504.66666666666663</ele><time>2026-04-16T08:53:49Z</time></trkpt><trkpt lat="45.99247561628369" lon="11.83009462043403"><ele>510.0</ele><time>2026-04-16T08:53:50Z</time></trkpt><trkpt lat="45.9923930630573" lon="11.830316442673697"><ele>510.0</ele><time>2026-04-16T08:53:51Z</time></trkpt><trkpt lat="45.99234264710616" lon="11.830515123840875"><ele>510.0</ele><time>2026-04-16T08:53:52Z</time></trkpt><trkpt lat="45.99225618084044" lon="11.830639739972757"><ele>510.0</ele><time>2026-04-16T08:53:53Z</time></trkpt><trkpt lat="45.992175674692305" lon="11.830810738504523"><ele>510.0</ele><time>2026-04-16T08:53:54Z</time></trkpt><trkpt lat="45.992109594141276" lon="11.8309780764059"><ele>502.66666666666663</ele><time>2026-04-16T08:53:55Z</time></trkpt><trkpt lat="45.99200181797189" lon="11.831095397184736"><ele>495.3333333333333</ele><time>2026-04-16T08:53:56Z</time></trkpt><trkpt lat="45.99189109289862" lon="11.831263864925686"><ele>488.0</ele><time>2026-04-16T08:53:57Z</time></trkpt><trkpt lat="45.99174762007564" lon="11.831386495425829"><ele>495.2</ele><time>2026-04-16T08:53:58Z</time></trkpt><trkpt lat="45.99163936748875" lon="11.831548254280015"><ele>502.4</ele><time>2026-04-16T08:53:59Z</time></trkpt><trkpt lat="45.991562613726494" lon="11.831624436817775"><ele>509.59999999999997</ele><time>2026-04-16T08:54:00Z</time></trkpt><trkpt lat="45.99147979923712" lon="11.831704329789666"><ele>516.8</ele><time>2026-04-16T08:54:02Z</time></trkpt><trkpt lat="45.991382276452896" lon="11.831673186518868"><ele>524.0</ele><time>2026-04-16T08:54:04Z</time></trkpt><trkpt lat="45.99138268197172" lon="11.83156800139145"><ele>524.0</ele><time>2026-04-16T08:54:05Z</time></trkpt><trkpt lat="45.99142719954555" lon="11.831487163075376"><ele>524.0</ele><time>2026-04-16T08:54:06Z</time></trkpt><trkpt lat="45.991520444133634" lon="11.831448915064774"><ele>524.0</ele><time>2026-04-16T08:54:07Z</time></trkpt><trkpt lat="45.99161611046059" lon="11.831376465933888"><ele>524.0</ele><time>2026-04-16T08:54:08Z</time></trkpt><trkpt lat="45.99169005239302" lon="11.831305856145756"><ele>524.0</ele><time>2026-04-16T08:54:09Z</time></trkpt><trkpt lat="45.9917717343498" lon="11.831223223638288"><ele>520.5</ele><time>2026-04-16T08:54:10Z</time></trkpt><trkpt lat="45.991864705277045" lon="11.831085029557867"><ele>517.0</ele><time>2026-04-16T08:54:11Z</time></trkpt><trkpt lat="45.99194809038282" lon="11.830902889620804"><ele>513.5</ele><time>2026-04-16T08:54:12Z</time></trkpt><trkpt lat="45.99200684334946" lon="11.830725959762383"><ele>510.0</ele><time>2026-04-16T08:54:13Z</time></trkpt><trkpt lat="45.99206763911016" lon="11.830553946209552"><ele>510.0</ele><time>2026-04-16T08:54:14Z</time></trkpt><trkpt lat="45.99213356359675" lon="11.830358803218259"><ele>510.0</ele><time>2026-04-16T08:54:15Z</time></trkpt><trkpt lat="45.992203438421335" lon="11.830141105019264"><ele>510.0</ele><time>2026-04-16T08:54:16Z</time></trkpt><trkpt lat="45.992239599496614" lon="11.829878827494062"><ele>517.0</ele><time>2026-04-16T08:54:17Z</time></trkpt><trkpt lat="45.99225044266434" lon="11.829624660985143"><ele>524.0</ele><time>2026-04-16T08:54:18Z</time></trkpt><trkpt lat="45.99227619182969" lon="11.829414923593534"><ele>531.0</ele><time>2026-04-16T08:54:19Z</time></trkpt><trkpt lat="45.99233737137518" lon="11.829222202098224"><ele>537.0</ele><time>2026-04-16T08:54:20Z</time></trkpt><trkpt lat="45.99238131078323" lon="11.828993636423053"><ele>543.0</ele><time>2026-04-16T08:54:21Z</time></trkpt><trkpt lat="45.992417003626024" lon="11.828770281526001"><ele>549.0</ele><time>2026-04-16T08:54:22.001Z</time></trkpt><trkpt lat="45.99240768781196" lon="11.82858368190165"><ele>554.25</ele><time>2026-04-16T08:54:23.001Z</time></trkpt><trkpt lat="45.99243319641118" lon="11.828430145126037"><ele>559.5</ele><time>2026-04-16T08:54:24.001Z</time></trkpt><trkpt lat="45.992513119221556" lon="11.828316614034863"><ele>564.75</ele><time>2026-04-16T08:54:25.001Z</time></trkpt><trkpt lat="45.99259675635364" lon="11.828144055128694"><ele>570.0</ele><time>2026-04-16T08:54:26.001Z</time></trkpt><trkpt lat="45.99267585981902" lon="11.827927639111047"><ele>559.6666666666666</ele><time>2026-04-16T08:54:27.001Z</time></trkpt><trkpt lat="45.992759131649535" lon="11.827676551606242"><ele>549.3333333333333</ele><time>2026-04-16T08:54:28.001Z</time></trkpt><trkpt lat="45.99284601692238" lon="11.827460119226142"><ele>539.0</ele><time>2026-04-16T08:54:29.001Z</time></trkpt><trkpt lat="45.99294550733356" lon="11.827263854207006"><ele>539.0</ele><time>2026-04-16T08:54:30.001Z</time></trkpt><trkpt lat="45.993060001652104" lon="11.827050895570052"><ele>539.0</ele><time>2026-04-16T08:54:31.001Z</time></trkpt><trkpt lat="45.993161270211935" lon="11.826809269185945"><ele>539.0</ele><time>2026-04-16T08:54:32.001Z</time></trkpt><trkpt lat="45.993239734877235" lon="11.826566871300567"><ele>539.0</ele><time>2026-04-16T08:54:33.001Z</time></trkpt><trkpt lat="45.9932910824894" lon="11.826303416767562"><ele>539.0</ele><time>2026-04-16T08:54:34.001Z</time></trkpt><trkpt lat="45.993376604527924" lon="11.826045345405767"><ele>539.0</ele><time>2026-04-16T08:54:35.001Z</time></trkpt><trkpt lat="45.99342872454457" lon="11.825803396954893"><ele>539.0</ele><time>2026-04-16T08:54:36.001Z</time></trkpt><trkpt lat="45.99346958903965" lon="11.825559865208055"><ele>539.0</ele><time>2026-04-16T08:54:37.001Z</time></trkpt><trkpt lat="45.993478202100924" lon="11.825282853826184"><ele>539.0</ele><time>2026-04-16T08:54:38.001Z</time></trkpt><trkpt lat="45.99352420419364" lon="11.824990567603828"><ele>546.6666666666666</ele><time>2026-04-16T08:54:39Z</time></trkpt><trkpt lat="45.993601740934636" lon="11.824698600426332"><ele>554.3333333333334</ele><time>2026-04-16T08:54:40Z</time></trkpt><trkpt lat="45.993697213993954" lon="11.824431035875609"><ele>562.0</ele><time>2026-04-16T08:54:41Z</time></trkpt><trkpt lat="45.99377067321393" lon="11.824220938979249"><ele>566.75</ele><time>2026-04-16T08:54:42Z</time></trkpt><trkpt lat="45.993809522908414" lon="11.824038142422697"><ele>571.5</ele><time>2026-04-16T08:54:43Z</time></trkpt><trkpt lat="45.993807259057256" lon="11.8238693273221"><ele>576.25</ele><time>2026-04-16T08:54:44Z</time></trkpt><trkpt lat="45.99380860438279" lon="11.823691345459379"><ele>581.0</ele><time>2026-04-16T08:54:45Z</time></trkpt><trkpt lat="45.9938755394193" lon="11.823550290591378"><ele>586.6666666666666</ele><time>2026-04-16T08:54:46Z</time></trkpt><trkpt lat="45.99397713477893" lon="11.823451153157045"><ele>592.3333333333334</ele><time>2026-04-16T08:54:47Z</time></trkpt><trkpt lat="45.99406847349819" lon="11.82327855091983"><ele>598.0</ele><time>2026-04-16T08:54:48Z</time></trkpt><trkpt lat="45.994163267734336" lon="11.823059619971158"><ele>586.6666666666667</ele><time>2026-04-16T08:54:49Z</time></trkpt><trkpt lat="45.994228361592604" lon="11.82280594454646"><ele>575.3333333333334</ele><time>2026-04-16T08:54:50Z</time></trkpt><trkpt lat="45.99427291968737" lon="11.8225820752271"><ele>564.0</ele><time>2026-04-16T08:54:51Z</time></trkpt><trkpt lat="45.994283178869885" lon="11.822365044599499"><ele>564.0</ele><time>2026-04-16T08:54:52Z</time></trkpt><trkpt lat="45.994241856157345" lon="11.822130616179741"><ele>564.0</ele><time>2026-04-16T08:54:53Z</time></trkpt><trkpt lat="45.99418580455574" lon="11.821840035174295"><ele>564.0</ele><time>2026-04-16T08:54:54Z</time></trkpt><trkpt lat="45.99419263703963" lon="11.821503987009622"><ele>571.0</ele><time>2026-04-16T08:54:55Z</time></trkpt><trkpt lat="45.994180366917206" lon="11.821152430590152"><ele>578.0</ele><time>2026-04-16T08:54:56Z</time></trkpt><trkpt lat="45.99418778681771" lon="11.820793223786058"><ele>581.0</ele><time>2026-04-16T08:54:57Z</time></trkpt><trkpt lat="45.99419408794649" lon="11.82040881459866"><ele>584.0</ele><time>2026-04-16T08:54:58Z</time></trkpt><trkpt lat="45.994171337962264" lon="11.82002025328153"><ele>604.5</ele><time>2026-04-16T08:54:59Z</time></trkpt><trkpt lat="45.994146533343084" lon="11.819653313547148"><ele>625.0</ele><time>2026-04-16T08:55:00Z</time></trkpt><trkpt lat="45.994137523629064" lon="11.819374346545892"><ele>624.75</ele><time>2026-04-16T08:55:01Z</time></trkpt><trkpt lat="45.994137407373685" lon="11.819165670740041"><ele>624.5</ele><time>2026-04-16T08:55:02Z</time></trkpt><trkpt lat="45.994123946326056" lon="11.818990834798553"><ele>624.25</ele><time>2026-04-16T08:55:03Z</time></trkpt><trkpt lat="45.99407549573453" lon="11.818809455362471"><ele>624.0</ele><time>2026-04-16T08:55:04Z</time></trkpt><trkpt lat="45.993993881185865" lon="11.818608038864927"><ele>621.5</ele><time>2026-04-16T08:55:05Z</time></trkpt><trkpt lat="45.9938835270377" lon="11.818455899924352"><ele>619.0</ele><time>2026-04-16T08:55:06Z</time></trkpt><trkpt lat="45.993770413871395" lon="11.818350651520104"><ele>616.5</ele><time>2026-04-16T08:55:07Z</time></trkpt><trkpt lat="45.993652604432654" lon="11.818288337757682"><ele>614.0</ele><time>2026-04-16T08:55:08Z</time></trkpt><trkpt lat="45.99353346605619" lon="11.818255966018544"><ele>614.0</ele><time>2026-04-16T08:55:09Z</time></trkpt><trkpt lat="45.993406484691626" lon="11.818249347009568"><ele>614.0</ele><time>2026-04-16T08:55:10Z</time></trkpt><trkpt lat="45.99324025835239" lon="11.818282904521215"><ele>614.0</ele><time>2026-04-16T08:55:11Z</time></trkpt><trkpt lat="45.99306419812293" lon="11.818303226897754"><ele>619.5</ele><time>2026-04-16T08:55:12Z</time></trkpt><trkpt lat="45.99292192242176" lon="11.818342835675045"><ele>625.0</ele><time>2026-04-16T08:55:13Z</time></trkpt><trkpt lat="45.99278049251051" lon="11.818442425708291"><ele>630.5</ele><time>2026-04-16T08:55:14Z</time></trkpt><trkpt lat="45.992650649282744" lon="11.818497281066534"><ele>636.0</ele><time>2026-04-16T08:55:15Z</time></trkpt><trkpt lat="45.992543343042165" lon="11.818528136820683"><ele>639.5</ele><time>2026-04-16T08:55:16Z</time></trkpt><trkpt lat="45.99240836867415" lon="11.818478446095062"><ele>643.0</ele><time>2026-04-16T08:55:17Z</time></trkpt><trkpt lat="45.99226725279615" lon="11.818428370585938"><ele>646.5</ele><time>2026-04-16T08:55:18Z</time></trkpt><trkpt lat="45.99216611371442" lon="11.818385765282022"><ele>650.0</ele><time>2026-04-16T08:55:19Z</time></trkpt><trkpt lat="45.99210090546371" lon="11.818305208545336"><ele>650.0</ele><time>2026-04-16T08:55:20Z</time></trkpt><trkpt lat="45.9920655621937" lon="11.818136322177478"><ele>650.0</ele><time>2026-04-16T08:55:21Z</time></trkpt><trkpt lat="45.99201610281954" lon="11.818006914282606"><ele>650.0</ele><time>2026-04-16T08:55:22Z</time></trkpt><trkpt lat="45.992027786882" lon="11.817856499543383"><ele>650.0</ele><time>2026-04-16T08:55:23Z</time></trkpt><trkpt lat="45.99211005119401" lon="11.817739587343336"><ele>650.0</ele><time>2026-04-16T08:55:24Z</time></trkpt><trkpt lat="45.99216495798646" lon="11.817576162883991"><ele>650.0</ele><time>2026-04-16T08:55:25Z</time></trkpt><trkpt lat="45.99219025972365" lon="11.817363691083365"><ele>650.0</ele><time>2026-04-16T08:55:26Z</time></trkpt><trkpt lat="45.992187535236" lon="11.817173613856783"><ele>650.0</ele><time>2026-04-16T08:55:27Z</time></trkpt><trkpt lat="45.992184324537355" lon="11.81704723633037"><ele>650.0</ele><time>2026-04-16T08:55:28Z</time></trkpt><trkpt lat="45.992230265836085" lon="11.816954851255343"><ele>650.0</ele><time>2026-04-16T08:55:29Z</time></trkpt><trkpt lat="45.99231595131569" lon="11.816902431685278"><ele>650.0</ele><time>2026-04-16T08:55:30Z</time></trkpt><trkpt lat="45.992421752108605" lon="11.816935054781204"><ele>650.0</ele><time>2026-04-16T08:55:31Z</time></trkpt><trkpt lat="45.99252468051365" lon="11.81691004767773"><ele>650.0</ele><time>2026-04-16T08:55:32Z</time></trkpt><trkpt lat="45.99261151325399" lon="11.816865874384659"><ele>650.0</ele><time>2026-04-16T08:55:33Z</time></trkpt><trkpt lat="45.99270196879835" lon="11.816746980599582"><ele>650.0</ele><time>2026-04-16T08:55:34Z</time></trkpt><trkpt lat="45.992803554574905" lon="11.816540965542098"><ele>648.3333333333333</ele><time>2026-04-16T08:55:35Z</time></trkpt><trkpt lat="45.99293141870101" lon="11.816325919494194"><ele>646.6666666666666</ele><time>2026-04-16T08:55:36Z</time></trkpt><trkpt lat="45.99305532220246" lon="11.816096573802739"><ele>645.0</ele><time>2026-04-16T08:55:37Z</time></trkpt><trkpt lat="45.99318602305524" lon="11.815850962110849"><ele>649.5</ele><time>2026-04-16T08:55:38Z</time></trkpt><trkpt lat="45.993257946581146" lon="11.815647412147541"><ele>654.0</ele><time>2026-04-16T08:55:39Z</time></trkpt><trkpt lat="45.99326980841819" lon="11.815453937242433"><ele>658.5</ele><time>2026-04-16T08:55:40Z</time></trkpt><trkpt lat="45.9932896669674" lon="11.815237339713493"><ele>663.0</ele><time>2026-04-16T08:55:41Z</time></trkpt><trkpt lat="45.99325768632666" lon="11.815046849654134"><ele>664.3333333333334</ele><time>2026-04-16T08:55:42Z</time></trkpt><trkpt lat="45.99319096918797" lon="11.814859778123797"><ele>665.6666666666667</ele><time>2026-04-16T08:55:43Z</time></trkpt><trkpt lat="45.99309595377602" lon="11.814638225014832"><ele>667.0</ele><time>2026-04-16T08:55:44Z</time></trkpt><trkpt lat="45.99304677092607" lon="11.814418913791899"><ele>667.0</ele><time>2026-04-16T08:55:45Z</time></trkpt><trkpt lat="45.99297641691648" lon="11.814245317450801"><ele>667.0</ele><time>2026-04-16T08:55:46Z</time></trkpt><trkpt lat="45.99285407190558" lon="11.814093592979194"><ele>667.0</ele><time>2026-04-16T08:55:47Z</time></trkpt><trkpt lat="45.992710485546105" lon="11.813902749425438"><ele>667.0</ele><time>2026-04-16T08:55:48Z</time></trkpt><trkpt lat="45.992556184096166" lon="11.81367270313255"><ele>667.0</ele><time>2026-04-16T08:55:49Z</time></trkpt><trkpt lat="45.992387948537676" lon="11.813431275989391"><ele>673.3333333333334</ele><time>2026-04-16T08:55:50Z</time></trkpt><trkpt lat="45.992223590668125" lon="11.81315315042564"><ele>679.6666666666666</ele><time>2026-04-16T08:55:51Z</time></trkpt><trkpt lat="45.99211065534266" lon="11.812955405838748"><ele>686.0</ele><time>2026-04-16T08:55:52Z</time></trkpt><trkpt lat="45.99200799572333" lon="11.812829829057199"><ele>686.0</ele><time>2026-04-16T08:55:53Z</time></trkpt><trkpt lat="45.99189116939137" lon="11.812806987741029"><ele>686.0</ele><time>2026-04-16T08:55:54Z</time></trkpt><trkpt lat="45.991729773338875" lon="11.812725935798824"><ele>686.0</ele><time>2026-04-16T08:55:55Z</time></trkpt><trkpt lat="45.99159136762182" lon="11.81263654794567"><ele>686.0</ele><time>2026-04-16T08:55:56Z</time></trkpt><trkpt lat="45.991475607343325" lon="11.812490302353554"><ele>690.3333333333333</ele><time>2026-04-16T08:55:57Z</time></trkpt><trkpt lat="45.99135689443258" lon="11.812293365893469"><ele>694.6666666666666</ele><time>2026-04-16T08:55:58Z</time></trkpt><trkpt lat="45.99124327205951" lon="11.812130198376325"><ele>699.0</ele><time>2026-04-16T08:55:59Z</time></trkpt><trkpt lat="45.99111883507834" lon="11.812059510297724"><ele>699.0</ele><time>2026-04-16T08:56:00Z</time></trkpt><trkpt lat="45.99096314507798" lon="11.811964061765279"><ele>699.0</ele><time>2026-04-16T08:56:01Z</time></trkpt><trkpt lat="45.99077540068387" lon="11.811908210326814"><ele>699.0</ele><time>2026-04-16T08:56:02Z</time></trkpt><trkpt lat="45.990599868494165" lon="11.811904927508756"><ele>699.75</ele><time>2026-04-16T08:56:03Z</time></trkpt><trkpt lat="45.99047287173883" lon="11.81185120741728"><ele>700.5</ele><time>2026-04-16T08:56:04Z</time></trkpt><trkpt lat="45.9903717017735" lon="11.811761941044676"><ele>701.25</ele><time>2026-04-16T08:56:05Z</time></trkpt><trkpt lat="45.990294127699755" lon="11.811649561810766"><ele>702.0</ele><time>2026-04-16T08:56:06Z</time></trkpt><trkpt lat="45.99023926962647" lon="11.811507282143166"><ele>702.0</ele><time>2026-04-16T08:56:07Z</time></trkpt><trkpt lat="45.990190649103795" lon="11.811330874566659"><ele>702.0</ele><time>2026-04-16T08:56:08Z</time></trkpt><trkpt lat="45.99011399787047" lon="11.81118648184583"><ele>702.0</ele><time>2026-04-16T08:56:09Z</time></trkpt><trkpt lat="45.990017299692646" lon="11.811078738830165"><ele>702.0</ele><time>2026-04-16T08:56:10Z</time></trkpt><trkpt lat="45.98986440025171" lon="11.811011023382227"><ele>704.6</ele><time>2026-04-16T08:56:11Z</time></trkpt><trkpt lat="45.9897529243876" lon="11.810904784040103"><ele>707.2</ele><time>2026-04-16T08:56:12Z</time></trkpt><trkpt lat="45.989678176364116" lon="11.81077817497594"><ele>709.8</ele><time>2026-04-16T08:56:13Z</time></trkpt><trkpt lat="45.98962804729005" lon="11.810697633817098"><ele>712.4</ele><time>2026-04-16T08:56:14Z</time></trkpt><trkpt lat="45.98952074746308" lon="11.81060807639966"><ele>715.0</ele><time>2026-04-16T08:56:16Z</time></trkpt><trkpt lat="45.989442595258055" lon="11.81065084215445"><ele>715.0</ele><time>2026-04-16T08:56:17Z</time></trkpt><trkpt lat="45.98941165839793" lon="11.810778855115434"><ele>715.0</ele><time>2026-04-16T08:56:18Z</time></trkpt><trkpt lat="45.989416704047834" lon="11.810901024992523"><ele>715.0</ele><time>2026-04-16T08:56:19Z</time></trkpt><trkpt lat="45.98947873383333" lon="11.811024319432244"><ele>715.0</ele><time>2026-04-16T08:56:20Z</time></trkpt><trkpt lat="45.98958722004904" lon="11.811160560320685"><ele>715.0</ele><time>2026-04-16T08:56:21Z</time></trkpt><trkpt lat="45.98969898228049" lon="11.811308547506608"><ele>717.6666666666667</ele><time>2026-04-16T08:56:22Z</time></trkpt><trkpt lat="45.98979954562217" lon="11.811505300679558"><ele>720.3333333333334</ele><time>2026-04-16T08:56:23Z</time></trkpt><trkpt lat="45.98986478750105" lon="11.811790626672284"><ele>723.0</ele><time>2026-04-16T08:56:24Z</time></trkpt><trkpt lat="45.98991842153895" lon="11.812038015652384"><ele>725.0</ele><time>2026-04-16T08:56:25Z</time></trkpt><trkpt lat="45.99000669167076" lon="11.81230522725523"><ele>727.0</ele><time>2026-04-16T08:56:26Z</time></trkpt><trkpt lat="45.99005824012705" lon="11.81260741308586"><ele>729.0</ele><time>2026-04-16T08:56:27Z</time></trkpt><trkpt lat="45.99009036669445" lon="11.81294162606614"><ele>729.0</ele><time>2026-04-16T08:56:28.001Z</time></trkpt><trkpt lat="45.99014211918046" lon="11.813302301157243"><ele>729.0</ele><time>2026-04-16T08:56:29.001Z</time></trkpt><trkpt lat="45.99017946771362" lon="11.813588162230706"><ele>730.75</ele><time>2026-04-16T08:56:30.001Z</time></trkpt><trkpt lat="45.9902004287198" lon="11.813774746064787"><ele>732.5</ele><time>2026-04-16T08:56:31.001Z</time></trkpt><trkpt lat="45.990207580902606" lon="11.813923330291523"><ele>734.25</ele><time>2026-04-16T08:56:32.001Z</time></trkpt><trkpt lat="45.99014834133452" lon="11.81407693859416"><ele>736.0</ele><time>2026-04-16T08:56:33.001Z</time></trkpt><trkpt lat="45.990108557511924" lon="11.814265112455692"><ele>737.0</ele><time>2026-04-16T08:56:34.001Z</time></trkpt><trkpt lat="45.9900699535564" lon="11.814422283280692"><ele>738.0</ele><time>2026-04-16T08:56:35.001Z</time></trkpt><trkpt lat="45.99008458548168" lon="11.814637478840476"><ele>739.0</ele><time>2026-04-16T08:56:36.001Z</time></trkpt><trkpt lat="45.99013407628081" lon="11.814846796955194"><ele>740.0</ele><time>2026-04-16T08:56:37.001Z</time></trkpt><trkpt lat="45.990190390347536" lon="11.815062718195598"><ele>741.0</ele><time>2026-04-16T08:56:38.001Z</time></trkpt><trkpt lat="45.99017691408152" lon="11.815233680439484"><ele>742.0</ele><time>2026-04-16T08:56:39.001Z</time></trkpt><trkpt lat="45.990152244642985" lon="11.815354611289377"><ele>743.0</ele><time>2026-04-16T08:56:40.001Z</time></trkpt><trkpt lat="45.99010789493884" lon="11.815434760153632"><ele>744.0</ele><time>2026-04-16T08:56:41.001Z</time></trkpt><trkpt lat="45.98996876740097" lon="11.815443719170961"><ele>745.0</ele><time>2026-04-16T08:56:43.001Z</time></trkpt><trkpt lat="45.98988755481626" lon="11.815348715600354"><ele>748.6666666666667</ele><time>2026-04-16T08:56:44.001Z</time></trkpt><trkpt lat="45.98976976162007" lon="11.81524312784027"><ele>752.3333333333334</ele><time>2026-04-16T08:56:45.001Z</time></trkpt><trkpt lat="45.98960888042309" lon="11.815152103200695"><ele>756.0</ele><time>2026-04-16T08:56:46.001Z</time></trkpt><trkpt lat="45.98945458024368" lon="11.815036294087792"><ele>756.0</ele><time>2026-04-16T08:56:47.001Z</time></trkpt><trkpt lat="45.98931772899802" lon="11.814918055763682"><ele>756.0</ele><time>2026-04-16T08:56:48Z</time></trkpt><trkpt lat="45.98918648901399" lon="11.814771761610874"><ele>756.0</ele><time>2026-04-16T08:56:49Z</time></trkpt><trkpt lat="45.98905693574366" lon="11.814547329198808"><ele>760.0</ele><time>2026-04-16T08:56:50Z</time></trkpt><trkpt lat="45.98892304666275" lon="11.814297820172046"><ele>764.0</ele><time>2026-04-16T08:56:51Z</time></trkpt><trkpt lat="45.98881846952499" lon="11.814079431861517"><ele>768.0</ele><time>2026-04-16T08:56:52Z</time></trkpt><trkpt lat="45.98871313154893" lon="11.813929716967367"><ele>768.0</ele><time>2026-04-16T08:56:53Z</time></trkpt><trkpt lat="45.98859309329188" lon="11.813844173688048"><ele>768.0</ele><time>2026-04-16T08:56:54Z</time></trkpt><trkpt lat="45.98844948049302" lon="11.813772400106819"><ele>768.0</ele><time>2026-04-16T08:56:55Z</time></trkpt><trkpt lat="45.98830634491768" lon="11.813707979125626"><ele>768.0</ele><time>2026-04-16T08:56:56Z</time></trkpt><trkpt lat="45.988226766144166" lon="11.813565637666633"><ele>772.3333333333333</ele><time>2026-04-16T08:56:57Z</time></trkpt><trkpt lat="45.98815991688057" lon="11.81342725624046"><ele>776.6666666666666</ele><time>2026-04-16T08:56:58Z</time></trkpt><trkpt lat="45.98808552465954" lon="11.813218000666925"><ele>781.0</ele><time>2026-04-16T08:56:59Z</time></trkpt><trkpt lat="45.98799838219444" lon="11.812984045221375"><ele>781.0</ele><time>2026-04-16T08:57:00Z</time></trkpt><trkpt lat="45.98793089508646" lon="11.812742317119397"><ele>781.0</ele><time>2026-04-16T08:57:01Z</time></trkpt><trkpt lat="45.987848412980036" lon="11.812527473655809"><ele>781.0</ele><time>2026-04-16T08:57:02Z</time></trkpt><trkpt lat="45.98773414871464" lon="11.812334903309507"><ele>774.0</ele><time>2026-04-16T08:57:03Z</time></trkpt><trkpt lat="45.98757091607165" lon="11.812062606533567"><ele>767.0</ele><time>2026-04-16T08:57:04Z</time></trkpt><trkpt lat="45.98744548302117" lon="11.811825130532467"><ele>779.0</ele><time>2026-04-16T08:57:05Z</time></trkpt><trkpt lat="45.98731650465727" lon="11.811559631039236"><ele>791.0</ele><time>2026-04-16T08:57:06Z</time></trkpt><trkpt lat="45.98714895523105" lon="11.811312824774976"><ele>791.0</ele><time>2026-04-16T08:57:07Z</time></trkpt><trkpt lat="45.98701055995872" lon="11.811120416308176"><ele>791.0</ele><time>2026-04-16T08:57:08Z</time></trkpt><trkpt lat="45.98688128984324" lon="11.810996290620066"><ele>791.0</ele><time>2026-04-16T08:57:09Z</time></trkpt><trkpt lat="45.98674888580662" lon="11.810867525658068"><ele>796.6666666666667</ele><time>2026-04-16T08:57:10Z</time></trkpt><trkpt lat="45.986658955344005" lon="11.810737061743302"><ele>802.3333333333333</ele><time>2026-04-16T08:57:11Z</time></trkpt><trkpt lat="45.98656192620462" lon="11.810544502170057"><ele>808.0</ele><time>2026-04-16T08:57:12Z</time></trkpt><trkpt lat="45.986469440148056" lon="11.810316705887963"><ele>804.0</ele><time>2026-04-16T08:57:13Z</time></trkpt><trkpt lat="45.98636704696033" lon="11.810079685009828"><ele>800.0</ele><time>2026-04-16T08:57:14Z</time></trkpt><trkpt lat="45.98621787944103" lon="11.809879872079396"><ele>796.0</ele><time>2026-04-16T08:57:15Z</time></trkpt><trkpt lat="45.98607881816594" lon="11.809693480422693"><ele>796.0</ele><time>2026-04-16T08:57:16Z</time></trkpt><trkpt lat="45.985968706124254" lon="11.809526980460566"><ele>796.0</ele><time>2026-04-16T08:57:17Z</time></trkpt><trkpt lat="45.98590279456145" lon="11.809322990602624"><ele>796.0</ele><time>2026-04-16T08:57:18Z</time></trkpt><trkpt lat="45.98585724925706" lon="11.809091007875235"><ele>800.6666666666666</ele><time>2026-04-16T08:57:19Z</time></trkpt><trkpt lat="45.985779959850575" lon="11.808871155745129"><ele>805.3333333333333</ele><time>2026-04-16T08:57:20Z</time></trkpt><trkpt lat="45.98569020313563" lon="11.808654486508736"><ele>810.0</ele><time>2026-04-16T08:57:21Z</time></trkpt><trkpt lat="45.98558131912471" lon="11.808415566668444"><ele>810.0</ele><time>2026-04-16T08:57:22Z</time></trkpt><trkpt lat="45.985441043900785" lon="11.808190438240993"><ele>810.0</ele><time>2026-04-16T08:57:23Z</time></trkpt><trkpt lat="45.98531038967744" lon="11.8079995948861"><ele>810.0</ele><time>2026-04-16T08:57:24Z</time></trkpt><trkpt lat="45.985148950291084" lon="11.80780526623286"><ele>813.3333333333333</ele><time>2026-04-16T08:57:25Z</time></trkpt><trkpt lat="45.98495949805902" lon="11.807618257607867"><ele>816.6666666666666</ele><time>2026-04-16T08:57:26Z</time></trkpt><trkpt lat="45.984783020809815" lon="11.807473566758954"><ele>820.0</ele><time>2026-04-16T08:57:27Z</time></trkpt><trkpt lat="45.984620628976174" lon="11.807376070362483"><ele>820.0</ele><time>2026-04-16T08:57:28Z</time></trkpt><trkpt lat="45.98445632120446" lon="11.807302377985755"><ele>820.0</ele><time>2026-04-16T08:57:29Z</time></trkpt><trkpt lat="45.98431059657387" lon="11.807188246148995"><ele>820.0</ele><time>2026-04-16T08:57:30Z</time></trkpt><trkpt lat="45.98418483643839" lon="11.80698093047973"><ele>824.0</ele><time>2026-04-16T08:57:31Z</time></trkpt><trkpt lat="45.983993648353525" lon="11.806823351201167"><ele>828.0</ele><time>2026-04-16T08:57:32Z</time></trkpt><trkpt lat="45.98380802159068" lon="11.806653018007136"><ele>832.0</ele><time>2026-04-16T08:57:33Z</time></trkpt><trkpt lat="45.98365601668875" lon="11.806451646000548"><ele>832.0</ele><time>2026-04-16T08:57:34Z</time></trkpt><trkpt lat="45.983480163362806" lon="11.806235528288195"><ele>832.0</ele><time>2026-04-16T08:57:35Z</time></trkpt><trkpt lat="45.98327916282023" lon="11.806096752330513"><ele>833.3333333333333</ele><time>2026-04-16T08:57:36Z</time></trkpt><trkpt lat="45.983129580269676" lon="11.805981467801532"><ele>834.6666666666667</ele><time>2026-04-16T08:57:37Z</time></trkpt><trkpt lat="45.9829994336914" lon="11.80589862479736"><ele>836.0</ele><time>2026-04-16T08:57:38Z</time></trkpt><trkpt lat="45.98285041864962" lon="11.805860035663834"><ele>836.0</ele><time>2026-04-16T08:57:39Z</time></trkpt><trkpt lat="45.982671095085365" lon="11.80583235714266"><ele>836.0</ele><time>2026-04-16T08:57:40Z</time></trkpt><trkpt lat="45.98248371897443" lon="11.805744968013684"><ele>836.0</ele><time>2026-04-16T08:57:41Z</time></trkpt><trkpt lat="45.98228975423018" lon="11.805623994928071"><ele>841.6666666666667</ele><time>2026-04-16T08:57:42Z</time></trkpt><trkpt lat="45.98208538290197" lon="11.805501905592147"><ele>847.3333333333333</ele><time>2026-04-16T08:57:43Z</time></trkpt><trkpt lat="45.98187612441957" lon="11.80537282471822"><ele>853.0</ele><time>2026-04-16T08:57:44Z</time></trkpt><trkpt lat="45.981660773195706" lon="11.805318514599424"><ele>852.75</ele><time>2026-04-16T08:57:45Z</time></trkpt><trkpt lat="45.98151772094243" lon="11.80525734459336"><ele>852.5</ele><time>2026-04-16T08:57:46Z</time></trkpt><trkpt lat="45.98140641182014" lon="11.805170574191655"><ele>852.25</ele><time>2026-04-16T08:57:47Z</time></trkpt><trkpt lat="45.9813463510179" lon="11.80504690512395"><ele>852.0</ele><time>2026-04-16T08:57:48Z</time></trkpt><trkpt lat="45.98126412661192" lon="11.804956758405922"><ele>852.0</ele><time>2026-04-16T08:57:49Z</time></trkpt><trkpt lat="45.98119529702682" lon="11.804877841956607"><ele>852.0</ele><time>2026-04-16T08:57:50Z</time></trkpt><trkpt lat="45.981116701014685" lon="11.804837886038488"><ele>852.0</ele><time>2026-04-16T08:57:51Z</time></trkpt><trkpt lat="45.981040527704295" lon="11.804921742729984"><ele>852.0</ele><time>2026-04-16T08:57:52Z</time></trkpt><trkpt lat="45.98101380020973" lon="11.805027208883166"><ele>852.0</ele><time>2026-04-16T08:57:53Z</time></trkpt><trkpt lat="45.9810321397859" lon="11.805137767572116"><ele>852.0</ele><time>2026-04-16T08:57:54Z</time></trkpt><trkpt lat="45.981089419997666" lon="11.805242146271176"><ele>855.75</ele><time>2026-04-16T08:57:55Z</time></trkpt><trkpt lat="45.9811846193246" lon="11.805332962212995"><ele>859.5</ele><time>2026-04-16T08:57:56Z</time></trkpt><trkpt lat="45.9813115783371" lon="11.805448294721819"><ele>863.25</ele><time>2026-04-16T08:57:57Z</time></trkpt><trkpt lat="45.98144006163446" lon="11.805607316301984"><ele>867.0</ele><time>2026-04-16T08:57:58Z</time></trkpt><trkpt lat="45.98155387783902" lon="11.805774798687372"><ele>867.6666666666667</ele><time>2026-04-16T08:57:59Z</time></trkpt><trkpt lat="45.98169020464599" lon="11.805972861658791"><ele>868.3333333333334</ele><time>2026-04-16T08:58:00Z</time></trkpt><trkpt lat="45.981804280337954" lon="11.806149777294555"><ele>869.0</ele><time>2026-04-16T08:58:01Z</time></trkpt><trkpt lat="45.9818788696616" lon="11.806321572016053"><ele>869.0</ele><time>2026-04-16T08:58:02Z</time></trkpt><trkpt lat="45.98193408122009" lon="11.806494742403363"><ele>869.0</ele><time>2026-04-16T08:58:03Z</time></trkpt><trkpt lat="45.98196049289957" lon="11.806678445184703"><ele>869.0</ele><time>2026-04-16T08:58:04Z</time></trkpt><trkpt lat="45.98198765636704" lon="11.806862392791443"><ele>869.0</ele><time>2026-04-16T08:58:05Z</time></trkpt><trkpt lat="45.98205374643454" lon="11.807029624496922"><ele>874.0</ele><time>2026-04-16T08:58:06Z</time></trkpt><trkpt lat="45.98216894289529" lon="11.807191792323406"><ele>879.0</ele><time>2026-04-16T08:58:07Z</time></trkpt><trkpt lat="45.98230003735205" lon="11.807381119361605"><ele>884.0</ele><time>2026-04-16T08:58:08Z</time></trkpt><trkpt lat="45.98242184220454" lon="11.807613727575383"><ele>883.6666666666667</ele><time>2026-04-16T08:58:09Z</time></trkpt><trkpt lat="45.98252757656085" lon="11.807803053233389"><ele>883.3333333333333</ele><time>2026-04-16T08:58:10Z</time></trkpt><trkpt lat="45.98261471857393" lon="11.807958148411696"><ele>883.0</ele><time>2026-04-16T08:58:11Z</time></trkpt><trkpt lat="45.98271186694354" lon="11.808117724188623"><ele>883.0</ele><time>2026-04-16T08:58:12Z</time></trkpt><trkpt lat="45.98279799933399" lon="11.808331360612902"><ele>883.0</ele><time>2026-04-16T08:58:13Z</time></trkpt><trkpt lat="45.982879891700506" lon="11.80854056362926"><ele>883.0</ele><time>2026-04-16T08:58:14Z</time></trkpt><trkpt lat="45.98297604762238" lon="11.808725683881335"><ele>885.25</ele><time>2026-04-16T08:58:15Z</time></trkpt><trkpt lat="45.98309686394483" lon="11.808880504720364"><ele>887.5</ele><time>2026-04-16T08:58:16Z</time></trkpt><trkpt lat="45.983192923973874" lon="11.809015179857397"><ele>889.75</ele><time>2026-04-16T08:58:17Z</time></trkpt><trkpt lat="45.983271625825736" lon="11.809120626338949"><ele>892.0</ele><time>2026-04-16T08:58:18Z</time></trkpt><trkpt lat="45.98331125837754" lon="11.809250216042882"><ele>893.25</ele><time>2026-04-16T08:58:19Z</time></trkpt><trkpt lat="45.98330314774399" lon="11.809418371892713"><ele>894.5</ele><time>2026-04-16T08:58:20Z</time></trkpt><trkpt lat="45.983318551775206" lon="11.809629155102536"><ele>895.75</ele><time>2026-04-16T08:58:21Z</time></trkpt><trkpt lat="45.98334536678196" lon="11.809835703208439"><ele>897.0</ele><time>2026-04-16T08:58:22Z</time></trkpt><trkpt lat="45.98341468247689" lon="11.810032968532417"><ele>892.3333333333333</ele><time>2026-04-16T08:58:23Z</time></trkpt><trkpt lat="45.983469210349" lon="11.81023471814349"><ele>887.6666666666666</ele><time>2026-04-16T08:58:24Z</time></trkpt><trkpt lat="45.98348081702681" lon="11.810486176658724"><ele>883.0</ele><time>2026-04-16T08:58:25Z</time></trkpt><trkpt lat="45.98348195143742" lon="11.810722016048965"><ele>883.0</ele><time>2026-04-16T08:58:26Z</time></trkpt><trkpt lat="45.98351750195129" lon="11.81089241164505"><ele>883.0</ele><time>2026-04-16T08:58:27Z</time></trkpt><trkpt lat="45.983546798715224" lon="11.811039918579894"><ele>883.0</ele><time>2026-04-16T08:58:28Z</time></trkpt><trkpt lat="45.98357732548892" lon="11.811145573061149"><ele>883.0</ele><time>2026-04-16T08:58:29Z</time></trkpt><trkpt lat="45.983560304463204" lon="11.811286364299944"><ele>883.0</ele><time>2026-04-16T08:58:31Z</time></trkpt><trkpt lat="45.98344267946756" lon="11.81126565400854"><ele>883.0</ele><time>2026-04-16T08:58:33Z</time></trkpt><trkpt lat="45.98341027445621" lon="11.811172533727785"><ele>883.0</ele><time>2026-04-16T08:58:34.001Z</time></trkpt><trkpt lat="45.983400042602156" lon="11.811022884305558"><ele>883.0</ele><time>2026-04-16T08:58:35.001Z</time></trkpt><trkpt lat="45.983385459681195" lon="11.810826178823367"><ele>883.0</ele><time>2026-04-16T08:58:36.001Z</time></trkpt><trkpt lat="45.98336396768053" lon="11.810664422737496"><ele>883.0</ele><time>2026-04-16T08:58:37.001Z</time></trkpt><trkpt lat="45.98331645027674" lon="11.810480678381117"><ele>887.6666666666666</ele><time>2026-04-16T08:58:38.001Z</time></trkpt><trkpt lat="45.98323148715029" lon="11.810277491255045"><ele>892.3333333333333</ele><time>2026-04-16T08:58:39.001Z</time></trkpt><trkpt lat="45.983130653626844" lon="11.810099460865027"><ele>897.0</ele><time>2026-04-16T08:58:40.001Z</time></trkpt><trkpt lat="45.9830058883397" lon="11.809913931813549"><ele>897.0</ele><time>2026-04-16T08:58:41.001Z</time></trkpt><trkpt lat="45.98286477974855" lon="11.80975208370968"><ele>897.0</ele><time>2026-04-16T08:58:42.001Z</time></trkpt><trkpt lat="45.98269855220196" lon="11.809633652339576"><ele>897.0</ele><time>2026-04-16T08:58:43.001Z</time></trkpt><trkpt lat="45.98253350550656" lon="11.80948628773632"><ele>900.3333333333333</ele><time>2026-04-16T08:58:44.001Z</time></trkpt><trkpt lat="45.98239420871284" lon="11.809278693786178"><ele>903.6666666666666</ele><time>2026-04-16T08:58:45.001Z</time></trkpt><trkpt lat="45.98223093593411" lon="11.809057044869647"><ele>907.0</ele><time>2026-04-16T08:58:46.001Z</time></trkpt><trkpt lat="45.98206988809464" lon="11.80884366581844"><ele>907.0</ele><time>2026-04-16T08:58:47.001Z</time></trkpt><trkpt lat="45.98191915489767" lon="11.808624131269935"><ele>907.0</ele><time>2026-04-16T08:58:48Z</time></trkpt><trkpt lat="45.98180194475255" lon="11.808456631498913"><ele>907.0</ele><time>2026-04-16T08:58:49Z</time></trkpt><trkpt lat="45.981709144621746" lon="11.808329707949449"><ele>908.5</ele><time>2026-04-16T08:58:50Z</time></trkpt><trkpt lat="45.981609548874864" lon="11.808240597338015"><ele>910.0</ele><time>2026-04-16T08:58:51Z</time></trkpt><trkpt lat="45.98149139203961" lon="11.808191821148881"><ele>911.5</ele><time>2026-04-16T08:58:52Z</time></trkpt><trkpt lat="45.98134052655557" lon="11.808195339446591"><ele>913.0</ele><time>2026-04-16T08:58:53Z</time></trkpt><trkpt lat="45.98115810650889" lon="11.808187984399444"><ele>913.0</ele><time>2026-04-16T08:58:54Z</time></trkpt><trkpt lat="45.98099322345387" lon="11.808108798793526"><ele>913.0</ele><time>2026-04-16T08:58:55Z</time></trkpt><trkpt lat="45.980855443608164" lon="11.8080577874189"><ele>913.0</ele><time>2026-04-16T08:58:56Z</time></trkpt><trkpt lat="45.98075630198573" lon="11.807953971434126"><ele>913.0</ele><time>2026-04-16T08:58:57Z</time></trkpt><trkpt lat="45.98071626618218" lon="11.80779049149241"><ele>913.25</ele><time>2026-04-16T08:58:58Z</time></trkpt><trkpt lat="45.980638305282774" lon="11.807648551600696"><ele>913.5</ele><time>2026-04-16T08:58:59Z</time></trkpt><trkpt lat="45.98054763660691" lon="11.807527395497702"><ele>913.75</ele><time>2026-04-16T08:59:00Z</time></trkpt><trkpt lat="45.98041455178436" lon="11.80746253047235"><ele>914.0</ele><time>2026-04-16T08:59:01Z</time></trkpt><trkpt lat="45.98025279557027" lon="11.807422948313686"><ele>914.0</ele><time>2026-04-16T08:59:02Z</time></trkpt><trkpt lat="45.98008944254953" lon="11.807397706329969"><ele>914.0</ele><time>2026-04-16T08:59:03Z</time></trkpt><trkpt lat="45.97997103515544" lon="11.807302318401392"><ele>914.0</ele><time>2026-04-16T08:59:04Z</time></trkpt><trkpt lat="45.97986841807073" lon="11.807169381989912"><ele>914.0</ele><time>2026-04-16T08:59:05Z</time></trkpt><trkpt lat="45.979771530577445" lon="11.806992286688782"><ele>914.0</ele><time>2026-04-16T08:59:06Z</time></trkpt><trkpt lat="45.979653002505145" lon="11.806867485368262"><ele>914.0</ele><time>2026-04-16T08:59:07Z</time></trkpt><trkpt lat="45.97951707242302" lon="11.806758482806849"><ele>914.0</ele><time>2026-04-16T08:59:08Z</time></trkpt><trkpt lat="45.97934792765962" lon="11.806665575933772"><ele>923.6666666666667</ele><time>2026-04-16T08:59:09Z</time></trkpt><trkpt lat="45.97916151777471" lon="11.80656875881503"><ele>933.3333333333333</ele><time>2026-04-16T08:59:10Z</time></trkpt><trkpt lat="45.979002401854714" lon="11.806398794562163"><ele>943.0</ele><time>2026-04-16T08:59:11Z</time></trkpt><trkpt lat="45.97883709450182" lon="11.806202196205104"><ele>943.0</ele><time>2026-04-16T08:59:12Z</time></trkpt><trkpt lat="45.97870253828532" lon="11.806066499125563"><ele>943.0</ele><time>2026-04-16T08:59:13Z</time></trkpt><trkpt lat="45.978602884770424" lon="11.805957667154468"><ele>943.0</ele><time>2026-04-16T08:59:14Z</time></trkpt><trkpt lat="45.97847863446201" lon="11.80588773569643"><ele>943.0</ele><time>2026-04-16T08:59:15Z</time></trkpt><trkpt lat="45.978327841501844" lon="11.805871141969934"><ele>940.0</ele><time>2026-04-16T08:59:16Z</time></trkpt><trkpt lat="45.97817029303569" lon="11.805898405930979"><ele>937.0</ele><time>2026-04-16T08:59:17Z</time></trkpt><trkpt lat="45.97802929226762" lon="11.80596447404981"><ele>934.0</ele><time>2026-04-16T08:59:18Z</time></trkpt><trkpt lat="45.977903313774874" lon="11.806076184215728"><ele>942.3333333333333</ele><time>2026-04-16T08:59:19Z</time></trkpt><trkpt lat="45.9777926729813" lon="11.806235139524347"><ele>950.6666666666667</ele><time>2026-04-16T08:59:20Z</time></trkpt><trkpt lat="45.977698992766705" lon="11.806439085019614"><ele>959.0</ele><time>2026-04-16T08:59:21Z</time></trkpt><trkpt lat="45.977608654258276" lon="11.806594881998581"><ele>956.25</ele><time>2026-04-16T08:59:22Z</time></trkpt><trkpt lat="45.977508263064244" lon="11.806695744442607"><ele>953.5</ele><time>2026-04-16T08:59:23Z</time></trkpt><trkpt lat="45.977386117473124" lon="11.806765167945958"><ele>950.75</ele><time>2026-04-16T08:59:24Z</time></trkpt><trkpt lat="45.97725427156191" lon="11.80677507679439"><ele>948.0</ele><time>2026-04-16T08:59:25Z</time></trkpt><trkpt lat="45.9770959845438" lon="11.806761251598566"><ele>948.0</ele><time>2026-04-16T08:59:26Z</time></trkpt><trkpt lat="45.97691021368004" lon="11.806730061582005"><ele>948.0</ele><time>2026-04-16T08:59:27Z</time></trkpt><trkpt lat="45.97671294232463" lon="11.806675588607511"><ele>948.0</ele><time>2026-04-16T08:59:28Z</time></trkpt><trkpt lat="45.97655424717282" lon="11.80662180568568"><ele>953.0</ele><time>2026-04-16T08:59:29Z</time></trkpt><trkpt lat="45.97638115268671" lon="11.806595143196372"><ele>958.0</ele><time>2026-04-16T08:59:30Z</time></trkpt><trkpt lat="45.97619288344999" lon="11.806602132856144"><ele>963.0</ele><time>2026-04-16T08:59:31Z</time></trkpt><trkpt lat="45.9760080067031" lon="11.806651344358547"><ele>963.0</ele><time>2026-04-16T08:59:32Z</time></trkpt><trkpt lat="45.975886531425026" lon="11.806698691238223"><ele>963.0</ele><time>2026-04-16T08:59:33Z</time></trkpt><trkpt lat="45.97577655456234" lon="11.80677762376267"><ele>963.0</ele><time>2026-04-16T08:59:34Z</time></trkpt><trkpt lat="45.97566141140866" lon="11.80691911291275"><ele>963.0</ele><time>2026-04-16T08:59:35Z</time></trkpt><trkpt lat="45.975527405025964" lon="11.807074720626174"><ele>973.6666666666667</ele><time>2026-04-16T08:59:36Z</time></trkpt><trkpt lat="45.97538024148598" lon="11.807182758147313"><ele>984.3333333333334</ele><time>2026-04-16T08:59:37Z</time></trkpt><trkpt lat="45.97526775729817" lon="11.807305853813277"><ele>995.0</ele><time>2026-04-16T08:59:38Z</time></trkpt><trkpt lat="45.97517135980946" lon="11.807491122598005"><ele>994.6666666666667</ele><time>2026-04-16T08:59:39Z</time></trkpt><trkpt lat="45.97509554246689" lon="11.807722443337171"><ele>994.3333333333333</ele><time>2026-04-16T08:59:40Z</time></trkpt><trkpt lat="45.97502152029011" lon="11.807982702713272"><ele>994.0</ele><time>2026-04-16T08:59:41Z</time></trkpt><trkpt lat="45.97496324999186" lon="11.808183262416481"><ele>994.0</ele><time>2026-04-16T08:59:42Z</time></trkpt><trkpt lat="45.9749043607844" lon="11.808312748054936"><ele>994.0000000000001</ele><time>2026-04-16T08:59:43Z</time></trkpt><trkpt lat="45.974864676833725" lon="11.808436005046252"><ele>994.0000000000001</ele><time>2026-04-16T08:59:44Z</time></trkpt><trkpt lat="45.97478500922718" lon="11.808489291444134"><ele>994.0</ele><time>2026-04-16T08:59:45Z</time></trkpt><trkpt lat="45.974682749690174" lon="11.80850676618327"><ele>994.0</ele><time>2026-04-16T08:59:46Z</time></trkpt><trkpt lat="45.974545945604504" lon="11.808476481314782"><ele>994.0</ele><time>2026-04-16T08:59:47Z</time></trkpt><trkpt lat="45.974385609667536" lon="11.808424333540682"><ele>994.0</ele><time>2026-04-16T08:59:48Z</time></trkpt><trkpt lat="45.9742151048248" lon="11.808364779148159"><ele>994.0</ele><time>2026-04-16T08:59:49Z</time></trkpt><trkpt lat="45.974055346091724" lon="11.80832769727604"><ele>992.3333333333333</ele><time>2026-04-16T08:59:50Z</time></trkpt><trkpt lat="45.973887725775526" lon="11.808330063946933"><ele>990.6666666666667</ele><time>2026-04-16T08:59:51Z</time></trkpt><trkpt lat="45.97371555484033" lon="11.80840613146842"><ele>989.0</ele><time>2026-04-16T08:59:52Z</time></trkpt><trkpt lat="45.973544906498105" lon="11.80853833559223"><ele>996.25</ele><time>2026-04-16T08:59:53Z</time></trkpt><trkpt lat="45.973373244907776" lon="11.808673417107313"><ele>1003.5</ele><time>2026-04-16T08:59:54Z</time></trkpt><trkpt lat="45.973253324353394" lon="11.80872205346812"><ele>1010.75</ele><time>2026-04-16T08:59:55Z</time></trkpt><trkpt lat="45.97316484738148" lon="11.808749591747151"><ele>1018.0</ele><time>2026-04-16T08:59:56Z</time></trkpt><trkpt lat="45.973077599447016" lon="11.808758369485627"><ele>1018.0</ele><time>2026-04-16T08:59:57Z</time></trkpt><trkpt lat="45.97295495063548" lon="11.808736046390363"><ele>1018.0</ele><time>2026-04-16T08:59:58Z</time></trkpt><trkpt lat="45.9727973555528" lon="11.808559552403361"><ele>1018.0</ele><time>2026-04-16T08:59:59Z</time></trkpt><trkpt lat="45.97261358274337" lon="11.808465061582973"><ele>1010.6666666666666</ele><time>2026-04-16T09:00:00Z</time></trkpt><trkpt lat="45.97241199519385" lon="11.808403972624157"><ele>1003.3333333333333</ele><time>2026-04-16T09:00:01Z</time></trkpt><trkpt lat="45.97216994183235" lon="11.808403082135841"><ele>996.0</ele><time>2026-04-16T09:00:02Z</time></trkpt><trkpt lat="45.971981176935515" lon="11.80838240174706"><ele>996.0</ele><time>2026-04-16T09:00:03Z</time></trkpt><trkpt lat="45.97181921830987" lon="11.808410571699522"><ele>996.0</ele><time>2026-04-16T09:00:04Z</time></trkpt><trkpt lat="45.97163498825407" lon="11.808495026051869"><ele>996.0</ele><time>2026-04-16T09:00:05Z</time></trkpt><trkpt lat="45.97147416766247" lon="11.808573783665718"><ele>997.3333333333333</ele><time>2026-04-16T09:00:06Z</time></trkpt><trkpt lat="45.97133189119408" lon="11.808591680144641"><ele>998.6666666666666</ele><time>2026-04-16T09:00:07Z</time></trkpt><trkpt lat="45.971186920636086" lon="11.808534682607421"><ele>1000.0</ele><time>2026-04-16T09:00:08Z</time></trkpt><trkpt lat="45.97098501083068" lon="11.808471418981956"><ele>1002.3333333333333</ele><time>2026-04-16T09:00:09Z</time></trkpt><trkpt lat="45.97076476418802" lon="11.80840931474371"><ele>1004.6666666666667</ele><time>2026-04-16T09:00:10Z</time></trkpt><trkpt lat="45.97057006551485" lon="11.808357936258606"><ele>1007.0</ele><time>2026-04-16T09:00:11Z</time></trkpt><trkpt lat="45.97043301639883" lon="11.808318779452213"><ele>1007.0</ele><time>2026-04-16T09:00:12Z</time></trkpt><trkpt lat="45.97031500490711" lon="11.808276780298153"><ele>1007.0</ele><time>2026-04-16T09:00:13Z</time></trkpt><trkpt lat="45.97021561283028" lon="11.80819299566495"><ele>1007.0</ele><time>2026-04-16T09:00:14Z</time></trkpt><trkpt lat="45.97012535479271" lon="11.808026862907143"><ele>1007.0</ele><time>2026-04-16T09:00:15Z</time></trkpt><trkpt lat="45.97001837369026" lon="11.807819117079159"><ele>1006.6</ele><time>2026-04-16T09:00:16Z</time></trkpt><trkpt lat="45.9699344490679" lon="11.80768471188409"><ele>1006.2</ele><time>2026-04-16T09:00:17Z</time></trkpt><trkpt lat="45.969862044783326" lon="11.807619234810815"><ele>1005.8</ele><time>2026-04-16T09:00:18Z</time></trkpt><trkpt lat="45.96977003403617" lon="11.807589079396132"><ele>1005.4</ele><time>2026-04-16T09:00:18.999Z</time></trkpt><trkpt lat="45.969650740328056" lon="11.807573114287115"><ele>1005.0</ele><time>2026-04-16T09:00:19.999Z</time></trkpt><trkpt lat="45.96952605791602" lon="11.807538019543587"><ele>1005.0</ele><time>2026-04-16T09:00:20.999Z</time></trkpt><trkpt lat="45.96942294016275" lon="11.807476702341528"><ele>1005.0</ele><time>2026-04-16T09:00:21.999Z</time></trkpt><trkpt lat="45.96933543720284" lon="11.807405085796896"><ele>1005.0</ele><time>2026-04-16T09:00:22.999Z</time></trkpt><trkpt lat="45.96924325565861" lon="11.80733484317947"><ele>1005.0</ele><time>2026-04-16T09:00:23.999Z</time></trkpt><trkpt lat="45.96914172002679" lon="11.807320067533926"><ele>1005.0</ele><time>2026-04-16T09:00:24.999Z</time></trkpt><trkpt lat="45.96904110792853" lon="11.807331630406882"><ele>1007.75</ele><time>2026-04-16T09:00:25.999Z</time></trkpt><trkpt lat="45.96894153092938" lon="11.807350117374497"><ele>1010.5</ele><time>2026-04-16T09:00:26.999Z</time></trkpt><trkpt lat="45.96879703419225" lon="11.807383656602706"><ele>1013.25</ele><time>2026-04-16T09:00:27.999Z</time></trkpt><trkpt lat="45.968613616357835" lon="11.80747037838208"><ele>1016.0</ele><time>2026-04-16T09:00:28.999Z</time></trkpt><trkpt lat="45.96846658191306" lon="11.807623848365388"><ele>1015.5</ele><time>2026-04-16T09:00:29.999Z</time></trkpt><trkpt lat="45.968349573505755" lon="11.807720771550516"><ele>1015.0</ele><time>2026-04-16T09:00:30.999Z</time></trkpt><trkpt lat="45.96822633687385" lon="11.807700934636962"><ele>1014.5</ele><time>2026-04-16T09:00:31.999Z</time></trkpt><trkpt lat="45.96809154646531" lon="11.807658341911093"><ele>1014.0</ele><time>2026-04-16T09:00:32.999Z</time></trkpt><trkpt lat="45.967932843087375" lon="11.80757648016633"><ele>1014.0</ele><time>2026-04-16T09:00:33.999Z</time></trkpt><trkpt lat="45.967790754361545" lon="11.807465111109376"><ele>1014.0</ele><time>2026-04-16T09:00:34.999Z</time></trkpt><trkpt lat="45.967639984512225" lon="11.807302850766566"><ele>1014.0</ele><time>2026-04-16T09:00:35.999Z</time></trkpt><trkpt lat="45.96747319715454" lon="11.807098746654056"><ele>1014.0</ele><time>2026-04-16T09:00:36.999Z</time></trkpt><trkpt lat="45.96731227914896" lon="11.806926056592587"><ele>1014.0</ele><time>2026-04-16T09:00:37.999Z</time></trkpt><trkpt lat="45.96719219164532" lon="11.806793945083268"><ele>1014.0</ele><time>2026-04-16T09:00:38.999Z</time></trkpt><trkpt lat="45.96705452078761" lon="11.806673973959757"><ele>1014.0</ele><time>2026-04-16T09:00:40Z</time></trkpt><trkpt lat="45.96688116773835" lon="11.806637407784901"><ele>1014.0</ele><time>2026-04-16T09:00:41Z</time></trkpt><trkpt lat="45.96669526961845" lon="11.806598213747645"><ele>1014.0</ele><time>2026-04-16T09:00:42Z</time></trkpt><trkpt lat="45.96649113869499" lon="11.806546693099216"><ele>1015.0</ele><time>2026-04-16T09:00:43Z</time></trkpt><trkpt lat="45.96633834542499" lon="11.806512598722078"><ele>1016.0</ele><time>2026-04-16T09:00:44Z</time></trkpt><trkpt lat="45.96621389867961" lon="11.806525440169652"><ele>1017.0</ele><time>2026-04-16T09:00:45Z</time></trkpt><trkpt lat="45.966097974592394" lon="11.80659137711655"><ele>1018.0</ele><time>2026-04-16T09:00:46Z</time></trkpt><trkpt lat="45.96596335736292" lon="11.806708535334204"><ele>1026.0</ele><time>2026-04-16T09:00:47Z</time></trkpt><trkpt lat="45.96579980149802" lon="11.806845636422214"><ele>1034.0</ele><time>2026-04-16T09:00:48Z</time></trkpt><trkpt lat="45.9656148807678" lon="11.806907969187963"><ele>1042.0</ele><time>2026-04-16T09:00:49Z</time></trkpt><trkpt lat="45.965461853484186" lon="11.806935557213457"><ele>1042.0</ele><time>2026-04-16T09:00:50Z</time></trkpt><trkpt lat="45.9653414857837" lon="11.806933154868922"><ele>1042.0</ele><time>2026-04-16T09:00:51Z</time></trkpt><trkpt lat="45.965241921953826" lon="11.806913577191265"><ele>1042.0</ele><time>2026-04-16T09:00:52Z</time></trkpt><trkpt lat="45.96512368824486" lon="11.80682054357222"><ele>1042.0</ele><time>2026-04-16T09:00:53Z</time></trkpt><trkpt lat="45.96504756161117" lon="11.806653850096897"><ele>1039.25</ele><time>2026-04-16T09:00:54Z</time></trkpt><trkpt lat="45.964956328192216" lon="11.806521421189961"><ele>1036.5</ele><time>2026-04-16T09:00:55Z</time></trkpt><trkpt lat="45.964886136699164" lon="11.806387760993253"><ele>1033.75</ele><time>2026-04-16T09:00:56Z</time></trkpt><trkpt lat="45.96475953905212" lon="11.806356336102679"><ele>1031.0</ele><time>2026-04-16T09:00:57Z</time></trkpt><trkpt lat="45.96463709667328" lon="11.806304979298343"><ele>1031.0</ele><time>2026-04-16T09:00:58Z</time></trkpt><trkpt lat="45.96452068395237" lon="11.806233087568836"><ele>1031.0</ele><time>2026-04-16T09:00:59Z</time></trkpt><trkpt lat="45.96443315209138" lon="11.80612146910459"><ele>1031.0</ele><time>2026-04-16T09:01:00Z</time></trkpt><trkpt lat="45.964380625262244" lon="11.805936599571888"><ele>1031.0</ele><time>2026-04-16T09:01:01Z</time></trkpt><trkpt lat="45.964280904155466" lon="11.80581824249227"><ele>1033.5</ele><time>2026-04-16T09:01:02Z</time></trkpt><trkpt lat="45.96418738978926" lon="11.80571105508429"><ele>1036.0</ele><time>2026-04-16T09:01:03Z</time></trkpt><trkpt lat="45.96404491864438" lon="11.805689972730848"><ele>1038.5</ele><time>2026-04-16T09:01:04Z</time></trkpt><trkpt lat="45.963888929036365" lon="11.805676361944062"><ele>1041.0</ele><time>2026-04-16T09:01:05Z</time></trkpt><trkpt lat="45.963735672162386" lon="11.805629576485634"><ele>1041.0</ele><time>2026-04-16T09:01:06Z</time></trkpt><trkpt lat="45.963589845246915" lon="11.805595228844169"><ele>1041.0</ele><time>2026-04-16T09:01:07Z</time></trkpt><trkpt lat="45.963473004413174" lon="11.805465109886624"><ele>1041.0</ele><time>2026-04-16T09:01:08Z</time></trkpt><trkpt lat="45.9633610705853" lon="11.805304899782001"><ele>1040.3333333333333</ele><time>2026-04-16T09:01:09Z</time></trkpt><trkpt lat="45.9632189264572" lon="11.805119003780101"><ele>1039.6666666666665</ele><time>2026-04-16T09:01:10Z</time></trkpt><trkpt lat="45.96307072958495" lon="11.804960292504443"><ele>1039.0</ele><time>2026-04-16T09:01:11Z</time></trkpt><trkpt lat="45.962954577082456" lon="11.80480668480042"><ele>1039.0</ele><time>2026-04-16T09:01:12Z</time></trkpt><trkpt lat="45.962860009154475" lon="11.80463405816692"><ele>1039.0</ele><time>2026-04-16T09:01:13Z</time></trkpt><trkpt lat="45.96281225997524" lon="11.80444073394662"><ele>1039.0</ele><time>2026-04-16T09:01:14Z</time></trkpt><trkpt lat="45.96276017422348" lon="11.804267859845831"><ele>1039.0</ele><time>2026-04-16T09:01:15Z</time></trkpt><trkpt lat="45.962715390391665" lon="11.804122047204805"><ele>1039.75</ele><time>2026-04-16T09:01:16Z</time></trkpt><trkpt lat="45.962644264318406" lon="11.804002827954411"><ele>1040.5</ele><time>2026-04-16T09:01:17Z</time></trkpt><trkpt lat="45.962553403007085" lon="11.803938246141122"><ele>1041.25</ele><time>2026-04-16T09:01:18Z</time></trkpt><trkpt lat="45.962443395459445" lon="11.803919615623586"><ele>1042.0</ele><time>2026-04-16T09:01:19Z</time></trkpt><trkpt lat="45.96231410932554" lon="11.803965404503186"><ele>1042.0</ele><time>2026-04-16T09:01:20Z</time></trkpt><trkpt lat="45.96217033524125" lon="11.804031218723546"><ele>1042.0</ele><time>2026-04-16T09:01:21Z</time></trkpt><trkpt lat="45.96203557104992" lon="11.804067920417134"><ele>1042.0</ele><time>2026-04-16T09:01:22Z</time></trkpt><trkpt lat="45.96193168656054" lon="11.804054157873745"><ele>1042.0</ele><time>2026-04-16T09:01:23Z</time></trkpt><trkpt lat="45.96185540965137" lon="11.803979251428819"><ele>1042.0</ele><time>2026-04-16T09:01:24Z</time></trkpt><trkpt lat="45.96180487063202" lon="11.803868993360002"><ele>1042.0</ele><time>2026-04-16T09:01:25Z</time></trkpt><trkpt lat="45.96173782877573" lon="11.803731970145012"><ele>1042.0</ele><time>2026-04-16T09:01:26Z</time></trkpt><trkpt lat="45.96163577866084" lon="11.803632468865713"><ele>1042.0</ele><time>2026-04-16T09:01:27Z</time></trkpt><trkpt lat="45.96152096662427" lon="11.803557999860091"><ele>1045.2</ele><time>2026-04-16T09:01:28Z</time></trkpt><trkpt lat="45.96141902468656" lon="11.803527512265406"><ele>1048.4</ele><time>2026-04-16T09:01:29Z</time></trkpt><trkpt lat="45.961327693444765" lon="11.803532876875984"><ele>1051.6</ele><time>2026-04-16T09:01:30Z</time></trkpt><trkpt lat="45.961225109926964" lon="11.80358024935087"><ele>1054.8</ele><time>2026-04-16T09:01:31Z</time></trkpt><trkpt lat="45.96109843383531" lon="11.803660750120242"><ele>1058.0</ele><time>2026-04-16T09:01:32Z</time></trkpt><trkpt lat="45.960961278778875" lon="11.803710198960445"><ele>1060.4</ele><time>2026-04-16T09:01:33Z</time></trkpt><trkpt lat="45.96084452147683" lon="11.803757488103264"><ele>1062.8</ele><time>2026-04-16T09:01:34Z</time></trkpt><trkpt lat="45.960761434074335" lon="11.803780548972533"><ele>1065.2</ele><time>2026-04-16T09:01:35Z</time></trkpt><trkpt lat="45.960657988764666" lon="11.803762867792578"><ele>1067.6</ele><time>2026-04-16T09:01:37Z</time></trkpt><trkpt lat="45.96060243634164" lon="11.803692128426418"><ele>1070.0</ele><time>2026-04-16T09:01:38Z</time></trkpt><trkpt lat="45.96060119057276" lon="11.803564984552963"><ele>1065.4</ele><time>2026-04-16T09:01:39Z</time></trkpt><trkpt lat="45.96057837439371" lon="11.803422857085772"><ele>1060.8</ele><time>2026-04-16T09:01:40Z</time></trkpt><trkpt lat="45.96054369152074" lon="11.803275521016992"><ele>1056.2</ele><time>2026-04-16T09:01:41Z</time></trkpt><trkpt lat="45.96049230390447" lon="11.803150961498769"><ele>1051.6</ele><time>2026-04-16T09:01:42Z</time></trkpt><trkpt lat="45.96044536070822" lon="11.803021667544984"><ele>1047.0</ele><time>2026-04-16T09:01:43Z</time></trkpt><trkpt lat="45.96036750580493" lon="11.802938979020738"><ele>1047.0</ele><time>2026-04-16T09:01:44Z</time></trkpt><trkpt lat="45.96024394670226" lon="11.80287409949476"><ele>1047.0</ele><time>2026-04-16T09:01:45Z</time></trkpt><trkpt lat="45.960084148704325" lon="11.802792612205323"><ele>1047.0</ele><time>2026-04-16T09:01:46Z</time></trkpt><trkpt lat="45.95993260626826" lon="11.802707845460441"><ele>1048.2</ele><time>2026-04-16T09:01:47Z</time></trkpt><trkpt lat="45.95980887972884" lon="11.802650377349257"><ele>1049.4</ele><time>2026-04-16T09:01:48Z</time></trkpt><trkpt lat="45.9596999128542" lon="11.802611111144973"><ele>1050.6</ele><time>2026-04-16T09:01:49Z</time></trkpt><trkpt lat="45.95961722876767" lon="11.80259945324875"><ele>1051.8</ele><time>2026-04-16T09:01:50Z</time></trkpt><trkpt lat="45.9595347571578" lon="11.802615661456112"><ele>1053.0</ele><time>2026-04-16T09:01:51Z</time></trkpt><trkpt lat="45.959433894739796" lon="11.802662757924335"><ele>1059.5</ele><time>2026-04-16T09:01:52Z</time></trkpt><trkpt lat="45.95931749180391" lon="11.80272916893925"><ele>1066.0</ele><time>2026-04-16T09:01:53Z</time></trkpt><trkpt lat="45.95917380925664" lon="11.802796560119374"><ele>1072.5</ele><time>2026-04-16T09:01:54Z</time></trkpt><trkpt lat="45.95907201929743" lon="11.802846723846578"><ele>1079.0</ele><time>2026-04-16T09:01:55Z</time></trkpt><trkpt lat="45.95900062017329" lon="11.802867089326433"><ele>1077.8</ele><time>2026-04-16T09:01:56Z</time></trkpt><trkpt lat="45.95890639569183" lon="11.802770499890029"><ele>1076.6000000000001</ele><time>2026-04-16T09:01:58Z</time></trkpt><trkpt lat="45.958894905948526" lon="11.802652390945184"><ele>1075.4</ele><time>2026-04-16T09:01:59Z</time></trkpt><trkpt lat="45.95894053649387" lon="11.80254291136265"><ele>1074.2</ele><time>2026-04-16T09:02:00Z</time></trkpt><trkpt lat="45.9589820847282" lon="11.802405858923095"><ele>1073.0</ele><time>2026-04-16T09:02:01Z</time></trkpt><trkpt lat="45.95903196297449" lon="11.80221490562157"><ele>1073.0</ele><time>2026-04-16T09:02:02Z</time></trkpt><trkpt lat="45.959084798743895" lon="11.802025301630383"><ele>1073.0</ele><time>2026-04-16T09:02:03Z</time></trkpt><trkpt lat="45.95912529180892" lon="11.801900765489538"><ele>1073.0</ele><time>2026-04-16T09:02:04Z</time></trkpt><trkpt lat="45.95916142087892" lon="11.80181334173883"><ele>1073.0</ele><time>2026-04-16T09:02:05Z</time></trkpt><trkpt lat="45.95924499872555" lon="11.801789851902994"><ele>1073.0</ele><time>2026-04-16T09:02:06Z</time></trkpt><trkpt lat="45.959351484710666" lon="11.801782922520044"><ele>1068.3333333333335</ele><time>2026-04-16T09:02:06.999Z</time></trkpt><trkpt lat="45.95946533430149" lon="11.801681319710248"><ele>1063.6666666666667</ele><time>2026-04-16T09:02:07.999Z</time></trkpt><trkpt lat="45.959643015463236" lon="11.80158770894838"><ele>1059.0</ele><time>2026-04-16T09:02:08.999Z</time></trkpt><trkpt lat="45.959782907436406" lon="11.80146236041105"><ele>1059.0</ele><time>2026-04-16T09:02:09.999Z</time></trkpt><trkpt lat="45.9599667781725" lon="11.80133215428399"><ele>1059.0</ele><time>2026-04-16T09:02:10.999Z</time></trkpt><trkpt lat="45.96011079732703" lon="11.801229885994536"><ele>1059.0</ele><time>2026-04-16T09:02:11.999Z</time></trkpt><trkpt lat="45.9602042123471" lon="11.801138535900092"><ele>1059.0</ele><time>2026-04-16T09:02:12.999Z</time></trkpt><trkpt lat="45.96028888549635" lon="11.801029835989544"><ele>1059.0</ele><time>2026-04-16T09:02:13.999Z</time></trkpt><trkpt lat="45.96036136193459" lon="11.800941711582832"><ele>1059.0</ele><time>2026-04-16T09:02:14.999Z</time></trkpt><trkpt lat="45.96043517651786" lon="11.800866649970716"><ele>1059.0</ele><time>2026-04-16T09:02:15.999Z</time></trkpt><trkpt lat="45.96050228857786" lon="11.80079660732929"><ele>1059.0</ele><time>2026-04-16T09:02:16.999Z</time></trkpt><trkpt lat="45.96057537098781" lon="11.800720974377523"><ele>1059.0</ele><time>2026-04-16T09:02:17.999Z</time></trkpt><trkpt lat="45.96065001092205" lon="11.800609246350081"><ele>1059.0</ele><time>2026-04-16T09:02:18.999Z</time></trkpt><trkpt lat="45.96072236405807" lon="11.800497832832756"><ele>1059.0</ele><time>2026-04-16T09:02:19.999Z</time></trkpt><trkpt lat="45.96079770461049" lon="11.800385949768941"><ele>1059.0</ele><time>2026-04-16T09:02:20.999Z</time></trkpt><trkpt lat="45.96086189504305" lon="11.800290888298603"><ele>1059.0</ele><time>2026-04-16T09:02:21.999Z</time></trkpt><trkpt lat="45.96092549898944" lon="11.800186527635558"><ele>1056.4</ele><time>2026-04-16T09:02:22.999Z</time></trkpt><trkpt lat="45.9609934545226" lon="11.800064028776383"><ele>1053.8000000000002</ele><time>2026-04-16T09:02:23.999Z</time></trkpt><trkpt lat="45.9610559801533" lon="11.799926316072007"><ele>1051.1999999999998</ele><time>2026-04-16T09:02:24.999Z</time></trkpt><trkpt lat="45.96111465204906" lon="11.79981571464097"><ele>1048.6</ele><time>2026-04-16T09:02:25.999Z</time></trkpt><trkpt lat="45.96117429310685" lon="11.799696955505846"><ele>1046.0</ele><time>2026-04-16T09:02:26.999Z</time></trkpt><trkpt lat="45.96121508968043" lon="11.79952813280215"><ele>1048.6666666666667</ele><time>2026-04-16T09:02:27.999Z</time></trkpt><trkpt lat="45.96127074471407" lon="11.799283626422474"><ele>1051.3333333333333</ele><time>2026-04-16T09:02:28.999Z</time></trkpt><trkpt lat="45.96131472305655" lon="11.79901844673623"><ele>1054.0</ele><time>2026-04-16T09:02:29.999Z</time></trkpt><trkpt lat="45.96138754547012" lon="11.79873992096378"><ele>1059.0</ele><time>2026-04-16T09:02:30.999Z</time></trkpt><trkpt lat="45.9614487573599" lon="11.798439175811806"><ele>1064.0</ele><time>2026-04-16T09:02:31.999Z</time></trkpt><trkpt lat="45.961486098848134" lon="11.798197603998881"><ele>1069.0</ele><time>2026-04-16T09:02:32.999Z</time></trkpt><trkpt lat="45.96154918441908" lon="11.79797261944048"><ele>1069.0</ele><time>2026-04-16T09:02:33.999Z</time></trkpt><trkpt lat="45.961631955242986" lon="11.79772623049338"><ele>1069.0</ele><time>2026-04-16T09:02:34.999Z</time></trkpt><trkpt lat="45.9617527958122" lon="11.797481998871755"><ele>1069.0</ele><time>2026-04-16T09:02:35.999Z</time></trkpt><trkpt lat="45.96187003270571" lon="11.79725588284714"><ele>1067.0</ele><time>2026-04-16T09:02:36.999Z</time></trkpt><trkpt lat="45.961966244434336" lon="11.797070046829905"><ele>1065.0</ele><time>2026-04-16T09:02:37.999Z</time></trkpt><trkpt lat="45.96204740198932" lon="11.796917587236985"><ele>1063.0</ele><time>2026-04-16T09:02:38.999Z</time></trkpt><trkpt lat="45.962093272549275" lon="11.796776413380533"><ele>1061.0</ele><time>2026-04-16T09:02:39.999Z</time></trkpt><trkpt lat="45.96211310526135" lon="11.796638386275939"><ele>1061.0</ele><time>2026-04-16T09:02:40.999Z</time></trkpt><trkpt lat="45.962105165680875" lon="11.79648077336325"><ele>1061.0</ele><time>2026-04-16T09:02:41.999Z</time></trkpt><trkpt lat="45.96206767689947" lon="11.796296727812967"><ele>1061.0</ele><time>2026-04-16T09:02:42.999Z</time></trkpt><trkpt lat="45.96202352479972" lon="11.796054298792438"><ele>1061.0</ele><time>2026-04-16T09:02:43.999Z</time></trkpt><trkpt lat="45.96197236778291" lon="11.795819990518218"><ele>1061.0</ele><time>2026-04-16T09:02:44.999Z</time></trkpt><trkpt lat="45.96194304144933" lon="11.795619026554087"><ele>1061.0</ele><time>2026-04-16T09:02:46Z</time></trkpt><trkpt lat="45.961868885522" lon="11.79543735645589"><ele>1061.0</ele><time>2026-04-16T09:02:47Z</time></trkpt><trkpt lat="45.961758603161634" lon="11.795234538023728"><ele>1065.5</ele><time>2026-04-16T09:02:48Z</time></trkpt><trkpt lat="45.96166786566532" lon="11.79505507612464"><ele>1070.0</ele><time>2026-04-16T09:02:49Z</time></trkpt><trkpt lat="45.96158764115359" lon="11.794914023210938"><ele>1074.5</ele><time>2026-04-16T09:02:50Z</time></trkpt><trkpt lat="45.96148389054475" lon="11.79479814163552"><ele>1079.0</ele><time>2026-04-16T09:02:51Z</time></trkpt><trkpt lat="45.961400932226" lon="11.794721560798417"><ele>1079.0</ele><time>2026-04-16T09:02:52Z</time></trkpt><trkpt lat="45.96131964066835" lon="11.794675376679658"><ele>1079.0</ele><time>2026-04-16T09:02:53Z</time></trkpt><trkpt lat="45.961228201156494" lon="11.794687567468106"><ele>1079.0</ele><time>2026-04-16T09:02:54Z</time></trkpt><trkpt lat="45.96110933012661" lon="11.794752701842398"><ele>1079.0</ele><time>2026-04-16T09:02:55Z</time></trkpt><trkpt lat="45.96095056529922" lon="11.79480470785519"><ele>1081.5</ele><time>2026-04-16T09:02:56Z</time></trkpt><trkpt lat="45.96081907742578" lon="11.794880793434704"><ele>1084.0</ele><time>2026-04-16T09:02:57Z</time></trkpt><trkpt lat="45.96071797469954" lon="11.794937912600114"><ele>1086.5</ele><time>2026-04-16T09:02:58Z</time></trkpt><trkpt lat="45.960630420300156" lon="11.7950318744448"><ele>1089.0</ele><time>2026-04-16T09:02:59Z</time></trkpt><trkpt lat="45.96055071074113" lon="11.795155612897915"><ele>1094.3333333333333</ele><time>2026-04-16T09:03:00Z</time></trkpt><trkpt lat="45.96044719558828" lon="11.795342654403594"><ele>1099.6666666666665</ele><time>2026-04-16T09:03:01Z</time></trkpt><trkpt lat="45.96032179551666" lon="11.79553851412627"><ele>1105.0</ele><time>2026-04-16T09:03:02Z</time></trkpt><trkpt lat="45.960208342265325" lon="11.795728074352851"><ele>1105.0</ele><time>2026-04-16T09:03:03Z</time></trkpt><trkpt lat="45.96007621165234" lon="11.795923841002873"><ele>1105.0</ele><time>2026-04-16T09:03:04Z</time></trkpt><trkpt lat="45.959975073228215" lon="11.796109051369935"><ele>1105.0</ele><time>2026-04-16T09:03:05Z</time></trkpt><trkpt lat="45.95987610625471" lon="11.796246392396665"><ele>1109.0</ele><time>2026-04-16T09:03:06Z</time></trkpt><trkpt lat="45.95975084130022" lon="11.79632551456571"><ele>1113.0</ele><time>2026-04-16T09:03:07Z</time></trkpt><trkpt lat="45.95958874030931" lon="11.796426679841964"><ele>1117.0</ele><time>2026-04-16T09:03:08Z</time></trkpt><trkpt lat="45.9594142140971" lon="11.796546220354653"><ele>1117.0</ele><time>2026-04-16T09:03:09Z</time></trkpt><trkpt lat="45.95924553247873" lon="11.796642261394197"><ele>1117.0</ele><time>2026-04-16T09:03:10Z</time></trkpt><trkpt lat="45.95909333385368" lon="11.796708903569131"><ele>1117.0</ele><time>2026-04-16T09:03:11Z</time></trkpt><trkpt lat="45.958985007902605" lon="11.79673933846528"><ele>1114.2</ele><time>2026-04-16T09:03:12Z</time></trkpt><trkpt lat="45.95889468662245" lon="11.796789259806536"><ele>1111.4</ele><time>2026-04-16T09:03:13Z</time></trkpt><trkpt lat="45.95881354249688" lon="11.796871879233132"><ele>1108.6</ele><time>2026-04-16T09:03:14Z</time></trkpt><trkpt lat="45.9587140557071" lon="11.796965279039975"><ele>1105.8</ele><time>2026-04-16T09:03:15Z</time></trkpt><trkpt lat="45.958613477359364" lon="11.797060274049583"><ele>1103.0</ele><time>2026-04-16T09:03:16Z</time></trkpt><trkpt lat="45.95849658192657" lon="11.797125090399577"><ele>1108.75</ele><time>2026-04-16T09:03:17Z</time></trkpt><trkpt lat="45.9583527270887" lon="11.797136687335415"><ele>1114.5</ele><time>2026-04-16T09:03:18Z</time></trkpt><trkpt lat="45.95822748138636" lon="11.79712932819712"><ele>1120.25</ele><time>2026-04-16T09:03:19Z</time></trkpt><trkpt lat="45.95812579962363" lon="11.79715928814947"><ele>1126.0</ele><time>2026-04-16T09:03:20Z</time></trkpt><trkpt lat="45.95802705434005" lon="11.797155077593883"><ele>1126.0</ele><time>2026-04-16T09:03:21Z</time></trkpt><trkpt lat="45.957905095243234" lon="11.797193797234593"><ele>1126.0</ele><time>2026-04-16T09:03:22Z</time></trkpt><trkpt lat="45.95779824003044" lon="11.797275359969415"><ele>1126.0</ele><time>2026-04-16T09:03:23Z</time></trkpt><trkpt lat="45.95770237093934" lon="11.797361146077243"><ele>1126.0</ele><time>2026-04-16T09:03:24Z</time></trkpt><trkpt lat="45.95761024240875" lon="11.797434088634441"><ele>1122.75</ele><time>2026-04-16T09:03:25Z</time></trkpt><trkpt lat="45.957518598588145" lon="11.797484723832657"><ele>1119.5</ele><time>2026-04-16T09:03:26Z</time></trkpt><trkpt lat="45.95741147585544" lon="11.797498581419335"><ele>1116.25</ele><time>2026-04-16T09:03:27Z</time></trkpt><trkpt lat="45.957281915136114" lon="11.79748785491704"><ele>1113.0</ele><time>2026-04-16T09:03:28Z</time></trkpt><trkpt lat="45.95716389469494" lon="11.797440692191586"><ele>1113.0</ele><time>2026-04-16T09:03:29Z</time></trkpt><trkpt lat="45.957062448991884" lon="11.797406335157119"><ele>1113.0</ele><time>2026-04-16T09:03:30Z</time></trkpt><trkpt lat="45.95696353262413" lon="11.797377239160621"><ele>1113.0</ele><time>2026-04-16T09:03:31Z</time></trkpt><trkpt lat="45.956847420124106" lon="11.797430690993535"><ele>1113.0</ele><time>2026-04-16T09:03:32Z</time></trkpt><trkpt lat="45.956722039147465" lon="11.797499084954913"><ele>1111.0</ele><time>2026-04-16T09:03:33Z</time></trkpt><trkpt lat="45.956597018122714" lon="11.797541427028104"><ele>1109.0</ele><time>2026-04-16T09:03:34Z</time></trkpt><trkpt lat="45.956481621590676" lon="11.797542223836821"><ele>1107.0</ele><time>2026-04-16T09:03:35Z</time></trkpt><trkpt lat="45.95636225529124" lon="11.797491245883222"><ele>1105.0</ele><time>2026-04-16T09:03:36Z</time></trkpt><trkpt lat="45.95624931650673" lon="11.797463682598398"><ele>1105.0</ele><time>2026-04-16T09:03:37Z</time></trkpt><trkpt lat="45.95616262579267" lon="11.797416212111463"><ele>1105.0</ele><time>2026-04-16T09:03:38Z</time></trkpt><trkpt lat="45.95606029396267" lon="11.797431092607676"><ele>1105.0</ele><time>2026-04-16T09:03:39Z</time></trkpt><trkpt lat="45.95593562284847" lon="11.797480689280738"><ele>1105.0</ele><time>2026-04-16T09:03:40Z</time></trkpt><trkpt lat="45.95579613886073" lon="11.797539357436563"><ele>1103.25</ele><time>2026-04-16T09:03:41Z</time></trkpt><trkpt lat="45.955666446336515" lon="11.797588192145804"><ele>1101.5</ele><time>2026-04-16T09:03:42Z</time></trkpt><trkpt lat="45.955562871124904" lon="11.797607717876112"><ele>1099.75</ele><time>2026-04-16T09:03:43Z</time></trkpt><trkpt lat="45.955458655728314" lon="11.797627249204938"><ele>1098.0</ele><time>2026-04-16T09:03:44Z</time></trkpt><trkpt lat="45.9553432883113" lon="11.797696904879565"><ele>1108.0</ele><time>2026-04-16T09:03:45Z</time></trkpt><trkpt lat="45.95523214758323" lon="11.797795307313228"><ele>1118.0</ele><time>2026-04-16T09:03:46Z</time></trkpt><trkpt lat="45.95514015081886" lon="11.797875365631814"><ele>1128.0</ele><time>2026-04-16T09:03:47Z</time></trkpt><trkpt lat="45.955034013438684" lon="11.797880270853259"><ele>1138.0</ele><time>2026-04-16T09:03:48Z</time></trkpt><trkpt lat="45.95489518719412" lon="11.797835660964779"><ele>1138.0</ele><time>2026-04-16T09:03:49Z</time></trkpt><trkpt lat="45.95474789709919" lon="11.79775068517523"><ele>1138.0</ele><time>2026-04-16T09:03:50Z</time></trkpt><trkpt lat="45.95461875729974" lon="11.797716119601816"><ele>1138.0</ele><time>2026-04-16T09:03:51Z</time></trkpt><trkpt lat="45.95444816393519" lon="11.79764466719662"><ele>1125.0</ele><time>2026-04-16T09:03:52Z</time></trkpt><trkpt lat="45.95425405375319" lon="11.797562049567443"><ele>1112.0</ele><time>2026-04-16T09:03:53Z</time></trkpt><trkpt lat="45.95407026484804" lon="11.797505066815054"><ele>1099.0</ele><time>2026-04-16T09:03:54Z</time></trkpt><trkpt lat="45.95386648744342" lon="11.797445109253884"><ele>1099.0</ele><time>2026-04-16T09:03:55Z</time></trkpt><trkpt lat="45.95370240948545" lon="11.797386669955866"><ele>1099.0</ele><time>2026-04-16T09:03:56Z</time></trkpt><trkpt lat="45.953585894140474" lon="11.79735328196351"><ele>1099.0</ele><time>2026-04-16T09:03:57Z</time></trkpt><trkpt lat="45.95349119611108" lon="11.797345480629886"><ele>1099.0</ele><time>2026-04-16T09:03:58Z</time></trkpt><trkpt lat="45.953379456350035" lon="11.797373782510876"><ele>1099.25</ele><time>2026-04-16T09:03:59Z</time></trkpt><trkpt lat="45.953252815552965" lon="11.797440978924145"><ele>1099.5</ele><time>2026-04-16T09:04:00Z</time></trkpt><trkpt lat="45.953119908158406" lon="11.797509993032495"><ele>1099.75</ele><time>2026-04-16T09:04:01Z</time></trkpt><trkpt lat="45.95299316579878" lon="11.7975344581378"><ele>1100.0</ele><time>2026-04-16T09:04:02Z</time></trkpt><trkpt lat="45.952868017753595" lon="11.797493376777021"><ele>1100.0</ele><time>2026-04-16T09:04:03Z</time></trkpt><trkpt lat="45.952723873923155" lon="11.797440095112487"><ele>1100.0</ele><time>2026-04-16T09:04:03.999Z</time></trkpt><trkpt lat="45.95255818862839" lon="11.79738990604998"><ele>1100.0</ele><time>2026-04-16T09:04:04.999Z</time></trkpt><trkpt lat="45.952394476510946" lon="11.79733758664921"><ele>1102.3333333333335</ele><time>2026-04-16T09:04:05.999Z</time></trkpt><trkpt lat="45.95225620725323" lon="11.797265021025815"><ele>1104.6666666666667</ele><time>2026-04-16T09:04:06.999Z</time></trkpt><trkpt lat="45.95212579832346" lon="11.797165680755805"><ele>1107.0</ele><time>2026-04-16T09:04:07.999Z</time></trkpt><trkpt lat="45.951980877611035" lon="11.797080548216904"><ele>1107.0</ele><time>2026-04-16T09:04:08.999Z</time></trkpt><trkpt lat="45.95182895389314" lon="11.797029874902147"><ele>1107.0</ele><time>2026-04-16T09:04:09.999Z</time></trkpt><trkpt lat="45.951698891052565" lon="11.796996828072015"><ele>1107.0</ele><time>2026-04-16T09:04:10.999Z</time></trkpt><trkpt lat="45.95159200118373" lon="11.796892583597781"><ele>1107.0</ele><time>2026-04-16T09:04:11.999Z</time></trkpt><trkpt lat="45.95149848655525" lon="11.796754947470918"><ele>1102.25</ele><time>2026-04-16T09:04:12.999Z</time></trkpt><trkpt lat="45.951414135165614" lon="11.796625541572823"><ele>1097.5</ele><time>2026-04-16T09:04:13.999Z</time></trkpt><trkpt lat="45.95130677371989" lon="11.796531538217234"><ele>1092.75</ele><time>2026-04-16T09:04:14.999Z</time></trkpt><trkpt lat="45.95118609368711" lon="11.796475181743174"><ele>1088.0</ele><time>2026-04-16T09:04:15.999Z</time></trkpt><trkpt lat="45.95105650961546" lon="11.796470260972926"><ele>1088.0</ele><time>2026-04-16T09:04:16.999Z</time></trkpt><trkpt lat="45.9509228218608" lon="11.79648858466062"><ele>1088.0</ele><time>2026-04-16T09:04:17.999Z</time></trkpt><trkpt lat="45.950766978709694" lon="11.7965146216657"><ele>1088.0</ele><time>2026-04-16T09:04:18.999Z</time></trkpt><trkpt lat="45.95059723707334" lon="11.796518237590922"><ele>1090.3333333333335</ele><time>2026-04-16T09:04:19.999Z</time></trkpt><trkpt lat="45.95043347850065" lon="11.796443506448673"><ele>1092.6666666666667</ele><time>2026-04-16T09:04:20.999Z</time></trkpt><trkpt lat="45.95025197654842" lon="11.796448487167156"><ele>1095.0</ele><time>2026-04-16T09:04:21.999Z</time></trkpt><trkpt lat="45.95009397991838" lon="11.796421709917375"><ele>1095.0</ele><time>2026-04-16T09:04:22.999Z</time></trkpt><trkpt lat="45.94996412297754" lon="11.796385298978505"><ele>1095.0</ele><time>2026-04-16T09:04:23.999Z</time></trkpt><trkpt lat="45.949836262834815" lon="11.796356237499044"><ele>1095.0</ele><time>2026-04-16T09:04:24.999Z</time></trkpt><trkpt lat="45.94971767607844" lon="11.796323970723321"><ele>1095.0</ele><time>2026-04-16T09:04:25.999Z</time></trkpt><trkpt lat="45.949608280136594" lon="11.79619084718934"><ele>1095.0</ele><time>2026-04-16T09:04:26.999Z</time></trkpt><trkpt lat="45.94949131114173" lon="11.79613861394068"><ele>1095.0</ele><time>2026-04-16T09:04:27.999Z</time></trkpt><trkpt lat="45.9493692169205" lon="11.796111029065678"><ele>1095.0</ele><time>2026-04-16T09:04:28.999Z</time></trkpt><trkpt lat="45.949231481924684" lon="11.796058570354559"><ele>1095.0</ele><time>2026-04-16T09:04:29.999Z</time></trkpt><trkpt lat="45.94912749031208" lon="11.79593978130905"><ele>1097.0</ele><time>2026-04-16T09:04:30.999Z</time></trkpt><trkpt lat="45.94899975025971" lon="11.79583298168074"><ele>1099.0</ele><time>2026-04-16T09:04:31.999Z</time></trkpt><trkpt lat="45.94885516664419" lon="11.795754059606057"><ele>1101.0</ele><time>2026-04-16T09:04:32.999Z</time></trkpt><trkpt lat="45.94868504006199" lon="11.795654983378496"><ele>1101.0</ele><time>2026-04-16T09:04:33.999Z</time></trkpt><trkpt lat="45.948517992760436" lon="11.795518020334573"><ele>1101.0</ele><time>2026-04-16T09:04:34.999Z</time></trkpt><trkpt lat="45.9483615508011" lon="11.795398162516996"><ele>1101.0</ele><time>2026-04-16T09:04:35.999Z</time></trkpt><trkpt lat="45.948217041470755" lon="11.79530002470442"><ele>1104.0</ele><time>2026-04-16T09:04:36.999Z</time></trkpt><trkpt lat="45.948051191162996" lon="11.795250053671325"><ele>1107.0</ele><time>2026-04-16T09:04:37.999Z</time></trkpt><trkpt lat="45.94786743441203" lon="11.795193464946175"><ele>1110.0</ele><time>2026-04-16T09:04:38.999Z</time></trkpt><trkpt lat="45.94769528220348" lon="11.795158176193898"><ele>1110.0</ele><time>2026-04-16T09:04:39.999Z</time></trkpt><trkpt lat="45.94756127358254" lon="11.795114551747577"><ele>1110.0</ele><time>2026-04-16T09:04:40.999Z</time></trkpt><trkpt lat="45.94745478984389" lon="11.795029845789472"><ele>1110.0</ele><time>2026-04-16T09:04:41.999Z</time></trkpt><trkpt lat="45.94734362600153" lon="11.794934757293795"><ele>1110.0</ele><time>2026-04-16T09:04:42.999Z</time></trkpt><trkpt lat="45.947247656755714" lon="11.794801769345039"><ele>1115.3333333333333</ele><time>2026-04-16T09:04:43.999Z</time></trkpt><trkpt lat="45.947109595775345" lon="11.794760209153743"><ele>1120.6666666666665</ele><time>2026-04-16T09:04:44.999Z</time></trkpt><trkpt lat="45.94695387385698" lon="11.794698357481675"><ele>1126.0</ele><time>2026-04-16T09:04:45.999Z</time></trkpt><trkpt lat="45.9467759923964" lon="11.794626804437444"><ele>1131.0</ele><time>2026-04-16T09:04:46.999Z</time></trkpt><trkpt lat="45.94657348313453" lon="11.79461432493765"><ele>1136.0</ele><time>2026-04-16T09:04:47.999Z</time></trkpt><trkpt lat="45.946400801839744" lon="11.794546252741588"><ele>1141.0</ele><time>2026-04-16T09:04:48.999Z</time></trkpt><trkpt lat="45.94623753660602" lon="11.794487035302662"><ele>1141.0</ele><time>2026-04-16T09:04:49.999Z</time></trkpt><trkpt lat="45.946085719339045" lon="11.794435807470274"><ele>1141.0</ele><time>2026-04-16T09:04:50.999Z</time></trkpt><trkpt lat="45.94593853496986" lon="11.794428467191368"><ele>1141.0</ele><time>2026-04-16T09:04:52Z</time></trkpt><trkpt lat="45.94577231587601" lon="11.794402654900143"><ele>1138.0</ele><time>2026-04-16T09:04:53Z</time></trkpt><trkpt lat="45.94559439417684" lon="11.794393802883473"><ele>1135.0</ele><time>2026-04-16T09:04:54Z</time></trkpt><trkpt lat="45.945433176955056" lon="11.794368293315182"><ele>1132.0</ele><time>2026-04-16T09:04:55Z</time></trkpt><trkpt lat="45.94526450887824" lon="11.794281436606202"><ele>1132.0</ele><time>2026-04-16T09:04:56Z</time></trkpt><trkpt lat="45.945090393925824" lon="11.794201013834337"><ele>1132.0</ele><time>2026-04-16T09:04:57Z</time></trkpt><trkpt lat="45.94492518288446" lon="11.794121986866683"><ele>1132.0</ele><time>2026-04-16T09:04:58Z</time></trkpt><trkpt lat="45.94481754354568" lon="11.79404411600891"><ele>1137.75</ele><time>2026-04-16T09:04:59Z</time></trkpt><trkpt lat="45.94473027858892" lon="11.793932659523502"><ele>1143.5</ele><time>2026-04-16T09:05:00Z</time></trkpt><trkpt lat="45.9446322127456" lon="11.793793882962195"><ele>1149.25</ele><time>2026-04-16T09:05:01Z</time></trkpt><trkpt lat="45.94452838834293" lon="11.793653251483843"><ele>1155.0</ele><time>2026-04-16T09:05:02Z</time></trkpt><trkpt lat="45.94439960156319" lon="11.793515658966268"><ele>1156.0</ele><time>2026-04-16T09:05:03Z</time></trkpt><trkpt lat="45.94426085109836" lon="11.793412616732235"><ele>1157.0</ele><time>2026-04-16T09:05:04Z</time></trkpt><trkpt lat="45.944102897864845" lon="11.793334130114673"><ele>1158.0</ele><time>2026-04-16T09:05:05Z</time></trkpt><trkpt lat="45.943921351482636" lon="11.793248927610614"><ele>1158.0</ele><time>2026-04-16T09:05:06Z</time></trkpt><trkpt lat="45.94373572627919" lon="11.79314812437693"><ele>1158.0</ele><time>2026-04-16T09:05:07Z</time></trkpt><trkpt lat="45.943552861136524" lon="11.793082788295747"><ele>1158.0</ele><time>2026-04-16T09:05:08Z</time></trkpt><trkpt lat="45.943391317618975" lon="11.793020260450174"><ele>1158.25</ele><time>2026-04-16T09:05:09Z</time></trkpt><trkpt lat="45.94325741562263" lon="11.792934034217692"><ele>1158.5</ele><time>2026-04-16T09:05:10Z</time></trkpt><trkpt lat="45.9431257756555" lon="11.792811890867924"><ele>1158.75</ele><time>2026-04-16T09:05:11Z</time></trkpt><trkpt lat="45.94301097993778" lon="11.792682049758334"><ele>1159.0</ele><time>2026-04-16T09:05:12Z</time></trkpt><trkpt lat="45.94290692027128" lon="11.792541139721077"><ele>1159.0</ele><time>2026-04-16T09:05:13Z</time></trkpt><trkpt lat="45.94283093326022" lon="11.792412119792798"><ele>1159.0</ele><time>2026-04-16T09:05:14Z</time></trkpt><trkpt lat="45.942755871883314" lon="11.792242300000092"><ele>1159.0</ele><time>2026-04-16T09:05:15Z</time></trkpt><trkpt lat="45.94268895297201" lon="11.792065563539602"><ele>1159.0</ele><time>2026-04-16T09:05:16Z</time></trkpt><trkpt lat="45.94261752785108" lon="11.791866823622623"><ele>1156.0</ele><time>2026-04-16T09:05:17Z</time></trkpt><trkpt lat="45.94254913221574" lon="11.79168533773589"><ele>1153.0</ele><time>2026-04-16T09:05:18Z</time></trkpt><trkpt lat="45.94246100928581" lon="11.791524612438689"><ele>1150.0</ele><time>2026-04-16T09:05:19Z</time></trkpt><trkpt lat="45.9423681328724" lon="11.791364344747382"><ele>1147.0</ele><time>2026-04-16T09:05:20Z</time></trkpt><trkpt lat="45.94227717375483" lon="11.791219948491658"><ele>1151.5</ele><time>2026-04-16T09:05:21Z</time></trkpt><trkpt lat="45.94218988072984" lon="11.791100386197737"><ele>1156.0</ele><time>2026-04-16T09:05:22Z</time></trkpt><trkpt lat="45.94205501089931" lon="11.790994618456159"><ele>1160.5</ele><time>2026-04-16T09:05:23Z</time></trkpt><trkpt lat="45.941914591728676" lon="11.790848463066027"><ele>1165.0</ele><time>2026-04-16T09:05:24Z</time></trkpt><trkpt lat="45.94177153165483" lon="11.790737429289482"><ele>1176.0</ele><time>2026-04-16T09:05:25Z</time></trkpt><trkpt lat="45.94169500214191" lon="11.790558098201101"><ele>1187.0</ele><time>2026-04-16T09:05:26Z</time></trkpt><trkpt lat="45.94158070795598" lon="11.790389040989929"><ele>1198.0</ele><time>2026-04-16T09:05:27Z</time></trkpt><trkpt lat="45.94146919951395" lon="11.790216621804118"><ele>1193.25</ele><time>2026-04-16T09:05:28Z</time></trkpt><trkpt lat="45.9413680314992" lon="11.790073228360678"><ele>1188.5</ele><time>2026-04-16T09:05:29Z</time></trkpt><trkpt lat="45.94134337048958" lon="11.789886474342442"><ele>1183.75</ele><time>2026-04-16T09:05:30Z</time></trkpt><trkpt lat="45.94131243755833" lon="11.789696167180425"><ele>1179.0</ele><time>2026-04-16T09:05:31Z</time></trkpt><trkpt lat="45.94123419059361" lon="11.789513144080988"><ele>1176.3333333333333</ele><time>2026-04-16T09:05:32Z</time></trkpt><trkpt lat="45.94114604262247" lon="11.789310423011669"><ele>1173.6666666666665</ele><time>2026-04-16T09:05:33Z</time></trkpt><trkpt lat="45.94100854604624" lon="11.789133683046048"><ele>1171.0</ele><time>2026-04-16T09:05:34Z</time></trkpt><trkpt lat="45.9408783347181" lon="11.788918540074828"><ele>1175.3333333333333</ele><time>2026-04-16T09:05:35Z</time></trkpt><trkpt lat="45.940744604573865" lon="11.788729695385886"><ele>1179.6666666666667</ele><time>2026-04-16T09:05:36Z</time></trkpt><trkpt lat="45.940593505731506" lon="11.788523520864489"><ele>1184.0</ele><time>2026-04-16T09:05:37Z</time></trkpt><trkpt lat="45.94044453080041" lon="11.788351159246295"><ele>1184.0</ele><time>2026-04-16T09:05:38Z</time></trkpt><trkpt lat="45.940265735332204" lon="11.788208442211237"><ele>1184.0</ele><time>2026-04-16T09:05:39Z</time></trkpt><trkpt lat="45.94008764719019" lon="11.788073465822528"><ele>1184.0</ele><time>2026-04-16T09:05:40Z</time></trkpt><trkpt lat="45.93995393586459" lon="11.787932276066371"><ele>1188.0</ele><time>2026-04-16T09:05:41Z</time></trkpt><trkpt lat="45.93984285304436" lon="11.787740963222603"><ele>1192.0</ele><time>2026-04-16T09:05:42Z</time></trkpt><trkpt lat="45.93970139142263" lon="11.787590186628567"><ele>1196.0</ele><time>2026-04-16T09:05:43Z</time></trkpt><trkpt lat="45.939559212134746" lon="11.787443321537"><ele>1196.0</ele><time>2026-04-16T09:05:44Z</time></trkpt><trkpt lat="45.93940640084402" lon="11.787316605878033"><ele>1196.0</ele><time>2026-04-16T09:05:45Z</time></trkpt><trkpt lat="45.939299816427514" lon="11.787178531296535"><ele>1196.0</ele><time>2026-04-16T09:05:46Z</time></trkpt><trkpt lat="45.93919904721101" lon="11.786987396784419"><ele>1200.0</ele><time>2026-04-16T09:05:47Z</time></trkpt><trkpt lat="45.939089210434396" lon="11.786766768040884"><ele>1204.0</ele><time>2026-04-16T09:05:48Z</time></trkpt><trkpt lat="45.938962110969484" lon="11.786528332158008"><ele>1208.0</ele><time>2026-04-16T09:05:49Z</time></trkpt><trkpt lat="45.9388190969729" lon="11.786287611059363"><ele>1208.0</ele><time>2026-04-16T09:05:50Z</time></trkpt><trkpt lat="45.938704109768274" lon="11.786016815337424"><ele>1208.0</ele><time>2026-04-16T09:05:51Z</time></trkpt><trkpt lat="45.93860254680001" lon="11.785751876895587"><ele>1208.0</ele><time>2026-04-16T09:05:52Z</time></trkpt><trkpt lat="45.93849527273127" lon="11.785492652059547"><ele>1206.0</ele><time>2026-04-16T09:05:53Z</time></trkpt><trkpt lat="45.93839060133154" lon="11.785286476420605"><ele>1204.0</ele><time>2026-04-16T09:05:54Z</time></trkpt><trkpt lat="45.93831130604493" lon="11.785112328158684"><ele>1202.0</ele><time>2026-04-16T09:05:55Z</time></trkpt><trkpt lat="45.938212458612206" lon="11.784958456142382"><ele>1206.25</ele><time>2026-04-16T09:05:56Z</time></trkpt><trkpt lat="45.938078337358796" lon="11.784765816561409"><ele>1210.5</ele><time>2026-04-16T09:05:57Z</time></trkpt><trkpt lat="45.938000544062085" lon="11.784605582359498"><ele>1214.75</ele><time>2026-04-16T09:05:58Z</time></trkpt><trkpt lat="45.93796127833879" lon="11.784439979296929"><ele>1219.0</ele><time>2026-04-16T09:05:59Z</time></trkpt><trkpt lat="45.93791794263237" lon="11.784229632929868"><ele>1219.0</ele><time>2026-04-16T09:06:00Z</time></trkpt><trkpt lat="45.937879072652564" lon="11.783981418477675"><ele>1219.0</ele><time>2026-04-16T09:06:01Z</time></trkpt><trkpt lat="45.93783696329026" lon="11.78370364490283"><ele>1219.0</ele><time>2026-04-16T09:06:02Z</time></trkpt><trkpt lat="45.93778239921763" lon="11.783464366468028"><ele>1218.0</ele><time>2026-04-16T09:06:03Z</time></trkpt><trkpt lat="45.93775218471636" lon="11.783253799587492"><ele>1217.0</ele><time>2026-04-16T09:06:04Z</time></trkpt><trkpt lat="45.9376902291224" lon="11.783072315176057"><ele>1216.0</ele><time>2026-04-16T09:06:05Z</time></trkpt><trkpt lat="45.937562587085964" lon="11.78293244579699"><ele>1226.25</ele><time>2026-04-16T09:06:06Z</time></trkpt><trkpt lat="45.93748830597139" lon="11.782750302217782"><ele>1236.5</ele><time>2026-04-16T09:06:06.999Z</time></trkpt><trkpt lat="45.9374542556634" lon="11.782548592961533"><ele>1246.75</ele><time>2026-04-16T09:06:07.999Z</time></trkpt><trkpt lat="45.937430076247345" lon="11.782364139549744"><ele>1257.0</ele><time>2026-04-16T09:06:08.999Z</time></trkpt><trkpt lat="45.9374121369856" lon="11.782221973730769"><ele>1257.0</ele><time>2026-04-16T09:06:09.999Z</time></trkpt><trkpt lat="45.93744600532844" lon="11.782104849913694"><ele>1257.0</ele><time>2026-04-16T09:06:10.999Z</time></trkpt><trkpt lat="45.93750320999303" lon="11.78200484289312"><ele>1257.0</ele><time>2026-04-16T09:06:11.999Z</time></trkpt><trkpt lat="45.93757324227065" lon="11.781890511747257"><ele>1257.0</ele><time>2026-04-16T09:06:12.999Z</time></trkpt><trkpt lat="45.93762865454472" lon="11.781750823822996"><ele>1257.0</ele><time>2026-04-16T09:06:13.999Z</time></trkpt><trkpt lat="45.937655920504284" lon="11.781607005858138"><ele>1257.0</ele><time>2026-04-16T09:06:14.999Z</time></trkpt><trkpt lat="45.93764973795641" lon="11.781462552849073"><ele>1257.0</ele><time>2026-04-16T09:06:15.999Z</time></trkpt><trkpt lat="45.93760289959618" lon="11.781322052807186"><ele>1257.0</ele><time>2026-04-16T09:06:16.999Z</time></trkpt><trkpt lat="45.93752960074598" lon="11.781193914613622"><ele>1257.0</ele><time>2026-04-16T09:06:17.999Z</time></trkpt><trkpt lat="45.937445067302065" lon="11.78110218527659"><ele>1257.0</ele><time>2026-04-16T09:06:18.999Z</time></trkpt><trkpt lat="45.93734620876725" lon="11.781066526804414"><ele>1257.0</ele><time>2026-04-16T09:06:19.999Z</time></trkpt><trkpt lat="45.937237788534006" lon="11.781069140082801"><ele>1257.0</ele><time>2026-04-16T09:06:20.999Z</time></trkpt><trkpt lat="45.93715257665566" lon="11.781094187240937"><ele>1257.0</ele><time>2026-04-16T09:06:21.999Z</time></trkpt><trkpt lat="45.93707039347119" lon="11.781203975197744"><ele>1257.0</ele><time>2026-04-16T09:06:23.999Z</time></trkpt><trkpt lat="45.93707149420699" lon="11.781300961217681"><ele>1257.0</ele><time>2026-04-16T09:06:24.999Z</time></trkpt><trkpt lat="45.93710450947349" lon="11.781410136907398"><ele>1257.0</ele><time>2026-04-16T09:06:25.999Z</time></trkpt><trkpt lat="45.93714730584321" lon="11.781526017281942"><ele>1257.0</ele><time>2026-04-16T09:06:26.999Z</time></trkpt><trkpt lat="45.937158307740624" lon="11.781637559662544"><ele>1257.0</ele><time>2026-04-16T09:06:27.999Z</time></trkpt><trkpt lat="45.93711740827463" lon="11.781740673482883"><ele>1257.0</ele><time>2026-04-16T09:06:28.999Z</time></trkpt><trkpt lat="45.93705405652077" lon="11.781809330974708"><ele>1257.0</ele><time>2026-04-16T09:06:29.999Z</time></trkpt><trkpt lat="45.93698018864683" lon="11.781790978262007"><ele>1257.0</ele><time>2026-04-16T09:06:30.999Z</time></trkpt><trkpt lat="45.93691649214764" lon="11.781724764882044"><ele>1257.0</ele><time>2026-04-16T09:06:31.999Z</time></trkpt><trkpt lat="45.93688060676981" lon="11.781585623259438"><ele>1257.0</ele><time>2026-04-16T09:06:32.999Z</time></trkpt><trkpt lat="45.936814758745946" lon="11.781443354714394"><ele>1257.0</ele><time>2026-04-16T09:06:33.999Z</time></trkpt><trkpt lat="45.936758727436285" lon="11.781319765396645"><ele>1257.0</ele><time>2026-04-16T09:06:34.999Z</time></trkpt><trkpt lat="45.93669445812848" lon="11.78116767674197"><ele>1257.0</ele><time>2026-04-16T09:06:35.999Z</time></trkpt><trkpt lat="45.93666296446669" lon="11.780998462440314"><ele>1260.2</ele><time>2026-04-16T09:06:36.999Z</time></trkpt><trkpt lat="45.936616010534884" lon="11.780856065336526"><ele>1263.4</ele><time>2026-04-16T09:06:37.999Z</time></trkpt><trkpt lat="45.93660650626587" lon="11.78075079242816"><ele>1266.6</ele><time>2026-04-16T09:06:38.999Z</time></trkpt><trkpt lat="45.93648283146196" lon="11.780711531537476"><ele>1269.8</ele><time>2026-04-16T09:06:40.999Z</time></trkpt><trkpt lat="45.9364147187283" lon="11.780790315977704"><ele>1273.0</ele><time>2026-04-16T09:06:41.999Z</time></trkpt><trkpt lat="45.936394299702044" lon="11.780927679326535"><ele>1273.0</ele><time>2026-04-16T09:06:42.999Z</time></trkpt><trkpt lat="45.93643822847186" lon="11.78109411522507"><ele>1273.0</ele><time>2026-04-16T09:06:43.999Z</time></trkpt><trkpt lat="45.9364409175982" lon="11.781281252680408"><ele>1273.0</ele><time>2026-04-16T09:06:44.999Z</time></trkpt><trkpt lat="45.93643092217587" lon="11.781506824136063"><ele>1273.0</ele><time>2026-04-16T09:06:45.999Z</time></trkpt><trkpt lat="45.936396225994926" lon="11.781669217141898"><ele>1273.0</ele><time>2026-04-16T09:06:46.999Z</time></trkpt><trkpt lat="45.936373303591594" lon="11.781766131884408"><ele>1273.0</ele><time>2026-04-16T09:06:47.999Z</time></trkpt><trkpt lat="45.93634211284577" lon="11.781847170790568"><ele>1273.0</ele><time>2026-04-16T09:06:48.999Z</time></trkpt><trkpt lat="45.93625730385665" lon="11.78187846358931"><ele>1273.0</ele><time>2026-04-16T09:06:49.999Z</time></trkpt><trkpt lat="45.936158296350214" lon="11.781809608620831"><ele>1273.0</ele><time>2026-04-16T09:06:50.999Z</time></trkpt><trkpt lat="45.93603164353243" lon="11.78177084226952"><ele>1276.3333333333333</ele><time>2026-04-16T09:06:51.999Z</time></trkpt><trkpt lat="45.93587558445687" lon="11.781714943024664"><ele>1279.6666666666667</ele><time>2026-04-16T09:06:52.999Z</time></trkpt><trkpt lat="45.93574904092112" lon="11.781617168572389"><ele>1283.0</ele><time>2026-04-16T09:06:53.999Z</time></trkpt><trkpt lat="45.93561899691717" lon="11.781492278583796"><ele>1283.0</ele><time>2026-04-16T09:06:54.999Z</time></trkpt><trkpt lat="45.93550707476266" lon="11.781373605438318"><ele>1283.0</ele><time>2026-04-16T09:06:55.999Z</time></trkpt><trkpt lat="45.935421915609055" lon="11.781301727142623"><ele>1283.0</ele><time>2026-04-16T09:06:56.999Z</time></trkpt><trkpt lat="45.93536599440218" lon="11.78125854178401"><ele>1283.0</ele><time>2026-04-16T09:06:58Z</time></trkpt><trkpt lat="45.935277302183415" lon="11.781340402441117"><ele>1283.0</ele><time>2026-04-16T09:07:00Z</time></trkpt><trkpt lat="45.935244078596625" lon="11.781444178989153"><ele>1283.0</ele><time>2026-04-16T09:07:01Z</time></trkpt><trkpt lat="45.9351982555922" lon="11.781595038158667"><ele>1283.0</ele><time>2026-04-16T09:07:02Z</time></trkpt><trkpt lat="45.935137382667364" lon="11.781719060549849"><ele>1283.0</ele><time>2026-04-16T09:07:03Z</time></trkpt><trkpt lat="45.93508239478074" lon="11.78186256676711"><ele>1283.0</ele><time>2026-04-16T09:07:04Z</time></trkpt><trkpt lat="45.93502300561127" lon="11.782063260911562"><ele>1285.6666666666667</ele><time>2026-04-16T09:07:05Z</time></trkpt><trkpt lat="45.93494970703863" lon="11.782251048640576"><ele>1288.3333333333333</ele><time>2026-04-16T09:07:06Z</time></trkpt><trkpt lat="45.93486869236685" lon="11.782430972182897"><ele>1291.0</ele><time>2026-04-16T09:07:07Z</time></trkpt><trkpt lat="45.93474032034744" lon="11.782563692961597"><ele>1291.6666666666665</ele><time>2026-04-16T09:07:08Z</time></trkpt><trkpt lat="45.93459388376133" lon="11.782700123448816"><ele>1292.3333333333333</ele><time>2026-04-16T09:07:09Z</time></trkpt><trkpt lat="45.93442036588191" lon="11.782854470615444"><ele>1293.0</ele><time>2026-04-16T09:07:10Z</time></trkpt><trkpt lat="45.934252928813606" lon="11.783023071454659"><ele>1291.3333333333333</ele><time>2026-04-16T09:07:11Z</time></trkpt><trkpt lat="45.93408146437626" lon="11.783179290323046"><ele>1289.6666666666665</ele><time>2026-04-16T09:07:12Z</time></trkpt><trkpt lat="45.93389787116137" lon="11.783357568060904"><ele>1288.0</ele><time>2026-04-16T09:07:13Z</time></trkpt><trkpt lat="45.93372123752716" lon="11.78356629476625"><ele>1288.0</ele><time>2026-04-16T09:07:14Z</time></trkpt><trkpt lat="45.933570273424195" lon="11.783797799709701"><ele>1288.0</ele><time>2026-04-16T09:07:15Z</time></trkpt><trkpt lat="45.93342677572978" lon="11.783990460589166"><ele>1288.0</ele><time>2026-04-16T09:07:16Z</time></trkpt><trkpt lat="45.93328084913276" lon="11.784141833926359"><ele>1288.6666666666665</ele><time>2026-04-16T09:07:17Z</time></trkpt><trkpt lat="45.93312266152743" lon="11.78424620876491"><ele>1289.3333333333333</ele><time>2026-04-16T09:07:18Z</time></trkpt><trkpt lat="45.932936784099205" lon="11.784357792899797"><ele>1290.0</ele><time>2026-04-16T09:07:19Z</time></trkpt><trkpt lat="45.932745284144026" lon="11.784496910595342"><ele>1290.0</ele><time>2026-04-16T09:07:20Z</time></trkpt><trkpt lat="45.932573412231115" lon="11.784593392145462"><ele>1290.0</ele><time>2026-04-16T09:07:21Z</time></trkpt><trkpt lat="45.932410077440956" lon="11.7847022311779"><ele>1290.0</ele><time>2026-04-16T09:07:22Z</time></trkpt><trkpt lat="45.93224872448798" lon="11.784855368567904"><ele>1296.0</ele><time>2026-04-16T09:07:23Z</time></trkpt><trkpt lat="45.93210367783685" lon="11.78505340235081"><ele>1302.0</ele><time>2026-04-16T09:07:24Z</time></trkpt><trkpt lat="45.931980517681374" lon="11.785218918786537"><ele>1308.0</ele><time>2026-04-16T09:07:25Z</time></trkpt><trkpt lat="45.93186354475904" lon="11.785411649782368"><ele>1308.0</ele><time>2026-04-16T09:07:26Z</time></trkpt><trkpt lat="45.93178378576659" lon="11.785573222121883"><ele>1308.0</ele><time>2026-04-16T09:07:27Z</time></trkpt><trkpt lat="45.9317210952716" lon="11.785687346830288"><ele>1308.0</ele><time>2026-04-16T09:07:28Z</time></trkpt><trkpt lat="45.931654599461005" lon="11.785765697704445"><ele>1308.0</ele><time>2026-04-16T09:07:29Z</time></trkpt><trkpt lat="45.93156456443454" lon="11.785781441628023"><ele>1308.0</ele><time>2026-04-16T09:07:30Z</time></trkpt><trkpt lat="45.93148069085941" lon="11.785735690178013"><ele>1311.4</ele><time>2026-04-16T09:07:31Z</time></trkpt><trkpt lat="45.93140775864714" lon="11.785654891250333"><ele>1314.8000000000002</ele><time>2026-04-16T09:07:32Z</time></trkpt><trkpt lat="45.93132946035019" lon="11.78555561596592"><ele>1318.2</ele><time>2026-04-16T09:07:33Z</time></trkpt><trkpt lat="45.931240577709545" lon="11.785469408526989"><ele>1321.6</ele><time>2026-04-16T09:07:34Z</time></trkpt><trkpt lat="45.93115955890534" lon="11.785438203627606"><ele>1325.0</ele><time>2026-04-16T09:07:35Z</time></trkpt><trkpt lat="45.93107802365892" lon="11.785454831857342"><ele>1325.0</ele><time>2026-04-16T09:07:36Z</time></trkpt><trkpt lat="45.93097516889403" lon="11.785504497277305"><ele>1325.0</ele><time>2026-04-16T09:07:37Z</time></trkpt><trkpt lat="45.93084439382714" lon="11.785550695634056"><ele>1325.0</ele><time>2026-04-16T09:07:38Z</time></trkpt><trkpt lat="45.93071368948332" lon="11.78559482197713"><ele>1325.0</ele><time>2026-04-16T09:07:39Z</time></trkpt><trkpt lat="45.93059346006696" lon="11.785646244364564"><ele>1326.4</ele><time>2026-04-16T09:07:40Z</time></trkpt><trkpt lat="45.930483137141955" lon="11.785684369721164"><ele>1327.8</ele><time>2026-04-16T09:07:41Z</time></trkpt><trkpt lat="45.93038401669969" lon="11.785716401454108"><ele>1329.1999999999998</ele><time>2026-04-16T09:07:42Z</time></trkpt><trkpt lat="45.93030873489121" lon="11.785740871377724"><ele>1330.6</ele><time>2026-04-16T09:07:43Z</time></trkpt><trkpt lat="45.93023408234609" lon="11.785823192384983"><ele>1332.0</ele><time>2026-04-16T09:07:45Z</time></trkpt><trkpt lat="45.930241319331344" lon="11.785925512706463"><ele>1332.0</ele><time>2026-04-16T09:07:46Z</time></trkpt><trkpt lat="45.93032640452253" lon="11.786020593190463"><ele>1332.0</ele><time>2026-04-16T09:07:47Z</time></trkpt><trkpt lat="45.93044258846559" lon="11.785959286645548"><ele>1332.0</ele><time>2026-04-16T09:07:48Z</time></trkpt><trkpt lat="45.93054003826174" lon="11.78594472544504"><ele>1332.0</ele><time>2026-04-16T09:07:49Z</time></trkpt><trkpt lat="45.930625706457285" lon="11.785934121114972"><ele>1332.0</ele><time>2026-04-16T09:07:50Z</time></trkpt><trkpt lat="45.930705718848515" lon="11.786019095274966"><ele>1335.0</ele><time>2026-04-16T09:07:52Z</time></trkpt><trkpt lat="45.93066867250936" lon="11.78610427226819"><ele>1338.0</ele><time>2026-04-16T09:07:53Z</time></trkpt><trkpt lat="45.930591953250136" lon="11.786138880426911"><ele>1341.0</ele><time>2026-04-16T09:07:54Z</time></trkpt><trkpt lat="45.930502068102676" lon="11.786218173436248"><ele>1344.0</ele><time>2026-04-16T09:07:55Z</time></trkpt><trkpt lat="45.930386845723156" lon="11.786291629754855"><ele>1347.0</ele><time>2026-04-16T09:07:56Z</time></trkpt><trkpt lat="45.93029131894723" lon="11.786374243853377"><ele>1347.0</ele><time>2026-04-16T09:07:57Z</time></trkpt><trkpt lat="45.93015645692531" lon="11.786458313926172"><ele>1347.0</ele><time>2026-04-16T09:07:58Z</time></trkpt><trkpt lat="45.930010630858774" lon="11.786572772762083"><ele>1347.0</ele><time>2026-04-16T09:07:59Z</time></trkpt><trkpt lat="45.92987360876297" lon="11.786703635695858"><ele>1349.6666666666667</ele><time>2026-04-16T09:08:00Z</time></trkpt><trkpt lat="45.92970571519365" lon="11.786813651040692"><ele>1352.3333333333335</ele><time>2026-04-16T09:08:01Z</time></trkpt><trkpt lat="45.92951054582015" lon="11.786860826723267"><ele>1355.0</ele><time>2026-04-16T09:08:02Z</time></trkpt><trkpt lat="45.92935342912006" lon="11.78693978445991"><ele>1360.0</ele><time>2026-04-16T09:08:03Z</time></trkpt><trkpt lat="45.9292175950593" lon="11.78698947127704"><ele>1365.0</ele><time>2026-04-16T09:08:04Z</time></trkpt><trkpt lat="45.92909336743415" lon="11.787096537656952"><ele>1370.0</ele><time>2026-04-16T09:08:05Z</time></trkpt><trkpt lat="45.92895254660214" lon="11.787248677407735"><ele>1370.0</ele><time>2026-04-16T09:08:06Z</time></trkpt><trkpt lat="45.92879566744359" lon="11.78742367402135"><ele>1370.0</ele><time>2026-04-16T09:08:07Z</time></trkpt><trkpt lat="45.92863079448135" lon="11.787588738575378"><ele>1370.0</ele><time>2026-04-16T09:08:08Z</time></trkpt><trkpt lat="45.92851864463597" lon="11.787721456734847"><ele>1370.2</ele><time>2026-04-16T09:08:09Z</time></trkpt><trkpt lat="45.928416171730184" lon="11.787801848391682"><ele>1370.4</ele><time>2026-04-16T09:08:10Z</time></trkpt><trkpt lat="45.928330911884665" lon="11.787884446083398"><ele>1370.6</ele><time>2026-04-16T09:08:11Z</time></trkpt><trkpt lat="45.92824091782527" lon="11.787927790575482"><ele>1370.8</ele><time>2026-04-16T09:08:11.999Z</time></trkpt><trkpt lat="45.92815283433686" lon="11.787961124935446"><ele>1371.0</ele><time>2026-04-16T09:08:12.999Z</time></trkpt><trkpt lat="45.92808092061363" lon="11.787855129138663"><ele>1369.25</ele><time>2026-04-16T09:08:13.999Z</time></trkpt><trkpt lat="45.92801422297967" lon="11.787751110467477"><ele>1367.5</ele><time>2026-04-16T09:08:14.999Z</time></trkpt><trkpt lat="45.927920713566934" lon="11.787649979785622"><ele>1365.75</ele><time>2026-04-16T09:08:15.999Z</time></trkpt><trkpt lat="45.92782648595942" lon="11.787549597825938"><ele>1364.0</ele><time>2026-04-16T09:08:16.999Z</time></trkpt><trkpt lat="45.92770562656205" lon="11.787510372320698"><ele>1366.0</ele><time>2026-04-16T09:08:17.999Z</time></trkpt><trkpt lat="45.92754729799892" lon="11.787506984454284"><ele>1368.0</ele><time>2026-04-16T09:08:18.999Z</time></trkpt><trkpt lat="45.92736595902209" lon="11.787489459655287"><ele>1370.0</ele><time>2026-04-16T09:08:19.999Z</time></trkpt><trkpt lat="45.92720195705183" lon="11.787423468490113"><ele>1370.0</ele><time>2026-04-16T09:08:20.999Z</time></trkpt><trkpt lat="45.92704493878549" lon="11.787399915391473"><ele>1370.0</ele><time>2026-04-16T09:08:21.999Z</time></trkpt><trkpt lat="45.92690282513639" lon="11.787396061662895"><ele>1370.0</ele><time>2026-04-16T09:08:22.999Z</time></trkpt><trkpt lat="45.92673731205332" lon="11.787454571322892"><ele>1369.3333333333335</ele><time>2026-04-16T09:08:23.999Z</time></trkpt><trkpt lat="45.92654222663636" lon="11.787542236138458"><ele>1368.6666666666667</ele><time>2026-04-16T09:08:24.999Z</time></trkpt><trkpt lat="45.92634255691679" lon="11.787616774602501"><ele>1368.0</ele><time>2026-04-16T09:08:25.999Z</time></trkpt><trkpt lat="45.926150060949425" lon="11.787685173815818"><ele>1367.3333333333333</ele><time>2026-04-16T09:08:26.999Z</time></trkpt><trkpt lat="45.9259398611353" lon="11.787732225953052"><ele>1366.6666666666665</ele><time>2026-04-16T09:08:27.999Z</time></trkpt><trkpt lat="45.925736515600306" lon="11.787790334549543"><ele>1366.0</ele><time>2026-04-16T09:08:28.999Z</time></trkpt><trkpt lat="45.92555739887882" lon="11.78783288016406"><ele>1366.0</ele><time>2026-04-16T09:08:29.999Z</time></trkpt><trkpt lat="45.92537793403887" lon="11.787839454599375"><ele>1366.0</ele><time>2026-04-16T09:08:30.999Z</time></trkpt><trkpt lat="45.92518705511739" lon="11.7878155837559"><ele>1366.0</ele><time>2026-04-16T09:08:31.999Z</time></trkpt><trkpt lat="45.92499833929891" lon="11.787804281861199"><ele>1366.3333333333333</ele><time>2026-04-16T09:08:32.999Z</time></trkpt><trkpt lat="45.92484026443689" lon="11.787778874035327"><ele>1366.6666666666667</ele><time>2026-04-16T09:08:33.999Z</time></trkpt><trkpt lat="45.92466196236187" lon="11.787827926129058"><ele>1367.0</ele><time>2026-04-16T09:08:34.999Z</time></trkpt><trkpt lat="45.92446112257242" lon="11.787894513747979"><ele>1367.0</ele><time>2026-04-16T09:08:35.999Z</time></trkpt><trkpt lat="45.92424512319951" lon="11.787961700675929"><ele>1367.0</ele><time>2026-04-16T09:08:36.999Z</time></trkpt><trkpt lat="45.92404717518047" lon="11.788018194730908"><ele>1367.0</ele><time>2026-04-16T09:08:37.999Z</time></trkpt><trkpt lat="45.92387701089711" lon="11.788086376825776"><ele>1366.6666666666667</ele><time>2026-04-16T09:08:38.999Z</time></trkpt><trkpt lat="45.923703528372464" lon="11.788185650203948"><ele>1366.3333333333333</ele><time>2026-04-16T09:08:39.999Z</time></trkpt><trkpt lat="45.92351874766792" lon="11.78833897763578"><ele>1366.0</ele><time>2026-04-16T09:08:40.999Z</time></trkpt><trkpt lat="45.92331861654509" lon="11.788521594365356"><ele>1366.0</ele><time>2026-04-16T09:08:41.999Z</time></trkpt><trkpt lat="45.92314187933466" lon="11.788679871616475"><ele>1366.0</ele><time>2026-04-16T09:08:42.999Z</time></trkpt><trkpt lat="45.92300825283109" lon="11.78879929090266"><ele>1366.0</ele><time>2026-04-16T09:08:43.999Z</time></trkpt><trkpt lat="45.92287062251313" lon="11.788895602463802"><ele>1366.0</ele><time>2026-04-16T09:08:44.999Z</time></trkpt><trkpt lat="45.922729311982266" lon="11.78894974443015"><ele>1366.0</ele><time>2026-04-16T09:08:45.999Z</time></trkpt><trkpt lat="45.92258176562749" lon="11.788971799325626"><ele>1366.0</ele><time>2026-04-16T09:08:46.999Z</time></trkpt><trkpt lat="45.92243063945123" lon="11.788969613370766"><ele>1366.0</ele><time>2026-04-16T09:08:47.999Z</time></trkpt><trkpt lat="45.9222664201103" lon="11.78893817197236"><ele>1370.3333333333333</ele><time>2026-04-16T09:08:48.999Z</time></trkpt><trkpt lat="45.92209835192871" lon="11.788877188771858"><ele>1374.6666666666667</ele><time>2026-04-16T09:08:49.999Z</time></trkpt><trkpt lat="45.921931686817224" lon="11.788841343392873"><ele>1379.0</ele><time>2026-04-16T09:08:50.999Z</time></trkpt><trkpt lat="45.92178351437225" lon="11.788826228332"><ele>1379.0</ele><time>2026-04-16T09:08:51.999Z</time></trkpt><trkpt lat="45.921629411190295" lon="11.788870909585086"><ele>1379.0</ele><time>2026-04-16T09:08:52.999Z</time></trkpt><trkpt lat="45.92148997768345" lon="11.78894593765046"><ele>1379.0</ele><time>2026-04-16T09:08:53.999Z</time></trkpt><trkpt lat="45.92137230695915" lon="11.789036545335735"><ele>1379.0</ele><time>2026-04-16T09:08:54.999Z</time></trkpt><trkpt lat="45.92126122817002" lon="11.789160643022456"><ele>1379.0</ele><time>2026-04-16T09:08:55.999Z</time></trkpt><trkpt lat="45.92115405680661" lon="11.789322065513764"><ele>1379.0</ele><time>2026-04-16T09:08:56.999Z</time></trkpt><trkpt lat="45.92102649536689" lon="11.789488074914487"><ele>1379.0</ele><time>2026-04-16T09:08:57.999Z</time></trkpt><trkpt lat="45.920879356973444" lon="11.789606339921436"><ele>1381.0</ele><time>2026-04-16T09:08:58.999Z</time></trkpt><trkpt lat="45.92070467098078" lon="11.789719685425172"><ele>1383.0</ele><time>2026-04-16T09:08:59.999Z</time></trkpt><trkpt lat="45.92050906391338" lon="11.789863036725404"><ele>1385.0</ele><time>2026-04-16T09:09:00.999Z</time></trkpt><trkpt lat="45.920336404843844" lon="11.79000106968096"><ele>1385.0</ele><time>2026-04-16T09:09:01.999Z</time></trkpt><trkpt lat="45.92016494705391" lon="11.790115088047353"><ele>1385.0</ele><time>2026-04-16T09:09:02.999Z</time></trkpt><trkpt lat="45.920024616069746" lon="11.790181306602657"><ele>1385.0</ele><time>2026-04-16T09:09:04Z</time></trkpt><trkpt lat="45.919890091872276" lon="11.790225969088668"><ele>1388.3333333333335</ele><time>2026-04-16T09:09:05Z</time></trkpt><trkpt lat="45.91973192385031" lon="11.790227662227153"><ele>1391.6666666666667</ele><time>2026-04-16T09:09:06Z</time></trkpt><trkpt lat="45.91954608157848" lon="11.79021233431261"><ele>1395.0</ele><time>2026-04-16T09:09:07Z</time></trkpt><trkpt lat="45.91933702296563" lon="11.790189708635872"><ele>1401.0</ele><time>2026-04-16T09:09:08Z</time></trkpt><trkpt lat="45.919133624171934" lon="11.790214316238053"><ele>1407.0</ele><time>2026-04-16T09:09:09Z</time></trkpt><trkpt lat="45.91890932705899" lon="11.7901915172714"><ele>1413.0</ele><time>2026-04-16T09:09:10Z</time></trkpt><trkpt lat="45.91866900355155" lon="11.790179234166802"><ele>1413.0</ele><time>2026-04-16T09:09:11Z</time></trkpt><trkpt lat="45.91844021304693" lon="11.790183098895502"><ele>1413.0</ele><time>2026-04-16T09:09:12Z</time></trkpt><trkpt lat="45.918216985026675" lon="11.790145925399843"><ele>1410.6666666666667</ele><time>2026-04-16T09:09:13Z</time></trkpt><trkpt lat="45.91801663236921" lon="11.79012995932426"><ele>1408.3333333333335</ele><time>2026-04-16T09:09:14Z</time></trkpt><trkpt lat="45.91784013032956" lon="11.7901035950933"><ele>1406.0</ele><time>2026-04-16T09:09:15Z</time></trkpt><trkpt lat="45.91769283171079" lon="11.790063762651016"><ele>1407.0</ele><time>2026-04-16T09:09:16Z</time></trkpt><trkpt lat="45.91756147541205" lon="11.790047038155818"><ele>1408.0</ele><time>2026-04-16T09:09:17Z</time></trkpt><trkpt lat="45.91743609232692" lon="11.790032425256449"><ele>1409.0</ele><time>2026-04-16T09:09:18Z</time></trkpt><trkpt lat="45.917289008127845" lon="11.790064503928445"><ele>1410.0</ele><time>2026-04-16T09:09:19Z</time></trkpt><trkpt lat="45.91711413276077" lon="11.79008475979453"><ele>1410.0</ele><time>2026-04-16T09:09:20Z</time></trkpt><trkpt lat="45.916927823204816" lon="11.79012840635232"><ele>1410.0</ele><time>2026-04-16T09:09:21Z</time></trkpt><trkpt lat="45.91676445676873" lon="11.790162734813142"><ele>1410.0</ele><time>2026-04-16T09:09:22Z</time></trkpt><trkpt lat="45.91660081396568" lon="11.790185819841303"><ele>1419.3333333333333</ele><time>2026-04-16T09:09:23Z</time></trkpt><trkpt lat="45.916439010421165" lon="11.790192606544702"><ele>1428.6666666666665</ele><time>2026-04-16T09:09:24Z</time></trkpt><trkpt lat="45.91627895617432" lon="11.790191266390545"><ele>1438.0</ele><time>2026-04-16T09:09:25Z</time></trkpt><trkpt lat="45.91612414677935" lon="11.790187682957189"><ele>1432.75</ele><time>2026-04-16T09:09:26Z</time></trkpt><trkpt lat="45.91599718853024" lon="11.79017061457241"><ele>1427.5</ele><time>2026-04-16T09:09:27Z</time></trkpt><trkpt lat="45.91588166676647" lon="11.790105603253789"><ele>1422.25</ele><time>2026-04-16T09:09:28Z</time></trkpt><trkpt lat="45.91576833524927" lon="11.790026711752276"><ele>1417.0</ele><time>2026-04-16T09:09:29Z</time></trkpt><trkpt lat="45.91567190731134" lon="11.789922330401263"><ele>1417.0</ele><time>2026-04-16T09:09:30Z</time></trkpt><trkpt lat="45.91561270185705" lon="11.789785076906249"><ele>1417.0</ele><time>2026-04-16T09:09:31Z</time></trkpt><trkpt lat="45.915538376078885" lon="11.789641804391907"><ele>1417.0</ele><time>2026-04-16T09:09:32Z</time></trkpt><trkpt lat="45.91547076201572" lon="11.789549502842608"><ele>1417.0</ele><time>2026-04-16T09:09:33Z</time></trkpt><trkpt lat="45.91539113956969" lon="11.789481009517468"><ele>1417.0</ele><time>2026-04-16T09:09:34Z</time></trkpt><trkpt lat="45.915292261478605" lon="11.789443892365142"><ele>1417.0</ele><time>2026-04-16T09:09:35Z</time></trkpt><trkpt lat="45.915161434800424" lon="11.78944066368849"><ele>1417.0</ele><time>2026-04-16T09:09:36Z</time></trkpt><trkpt lat="45.915010980290404" lon="11.78945257573757"><ele>1417.0</ele><time>2026-04-16T09:09:37Z</time></trkpt><trkpt lat="45.914881677962285" lon="11.789361001231548"><ele>1417.0</ele><time>2026-04-16T09:09:38Z</time></trkpt><trkpt lat="45.91476974955337" lon="11.789252632330529"><ele>1413.3333333333333</ele><time>2026-04-16T09:09:39Z</time></trkpt><trkpt lat="45.91465905214628" lon="11.789131152080339"><ele>1409.6666666666667</ele><time>2026-04-16T09:09:40Z</time></trkpt><trkpt lat="45.914577440900715" lon="11.788945827686192"><ele>1406.0</ele><time>2026-04-16T09:09:41Z</time></trkpt><trkpt lat="45.91446434738219" lon="11.788730724305768"><ele>1406.0</ele><time>2026-04-16T09:09:42Z</time></trkpt><trkpt lat="45.91435453318745" lon="11.78852423573021"><ele>1406.0</ele><time>2026-04-16T09:09:43Z</time></trkpt><trkpt lat="45.91425612139427" lon="11.788353114297417"><ele>1406.0</ele><time>2026-04-16T09:09:44Z</time></trkpt><trkpt lat="45.9141635551674" lon="11.788205693717497"><ele>1408.3333333333335</ele><time>2026-04-16T09:09:45Z</time></trkpt><trkpt lat="45.91405053120761" lon="11.78807478654075"><ele>1410.6666666666667</ele><time>2026-04-16T09:09:46Z</time></trkpt><trkpt lat="45.91390208117419" lon="11.787945749880311"><ele>1413.0</ele><time>2026-04-16T09:09:47Z</time></trkpt><trkpt lat="45.91372570437415" lon="11.787819159541828"><ele>1409.3333333333333</ele><time>2026-04-16T09:09:48Z</time></trkpt><trkpt lat="45.91354506214109" lon="11.787650762888644"><ele>1405.6666666666665</ele><time>2026-04-16T09:09:49Z</time></trkpt><trkpt lat="45.91335888871478" lon="11.787517780739314"><ele>1402.0</ele><time>2026-04-16T09:09:50Z</time></trkpt><trkpt lat="45.91319986749535" lon="11.78734835572911"><ele>1402.0</ele><time>2026-04-16T09:09:51Z</time></trkpt><trkpt lat="45.913049844541305" lon="11.787123950486974"><ele>1402.0</ele><time>2026-04-16T09:09:52Z</time></trkpt><trkpt lat="45.91285448699913" lon="11.786929427243505"><ele>1399.6666666666665</ele><time>2026-04-16T09:09:53Z</time></trkpt><trkpt lat="45.912669354660956" lon="11.786731511281149"><ele>1397.3333333333333</ele><time>2026-04-16T09:09:54Z</time></trkpt><trkpt lat="45.91249506263056" lon="11.786570778165977"><ele>1395.0</ele><time>2026-04-16T09:09:55Z</time></trkpt><trkpt lat="45.91231108516353" lon="11.786381623549497"><ele>1395.0</ele><time>2026-04-16T09:09:56Z</time></trkpt><trkpt lat="45.91209319323624" lon="11.786195545899941"><ele>1395.0</ele><time>2026-04-16T09:09:57Z</time></trkpt><trkpt lat="45.911868805446815" lon="11.786004814435755"><ele>1389.5</ele><time>2026-04-16T09:09:58Z</time></trkpt><trkpt lat="45.91165620304244" lon="11.785806158528503"><ele>1384.0</ele><time>2026-04-16T09:09:59Z</time></trkpt><trkpt lat="45.911442469281916" lon="11.785587314770675"><ele>1384.0</ele><time>2026-04-16T09:10:00Z</time></trkpt><trkpt lat="45.911230621444545" lon="11.785315383683246"><ele>1384.0</ele><time>2026-04-16T09:10:01Z</time></trkpt><trkpt lat="45.911016535397316" lon="11.785018278386197"><ele>1382.5</ele><time>2026-04-16T09:10:02Z</time></trkpt><trkpt lat="45.910790482213564" lon="11.784726569658911"><ele>1381.0</ele><time>2026-04-16T09:10:03Z</time></trkpt><trkpt lat="45.91061599459483" lon="11.784455785234778"><ele>1382.3333333333333</ele><time>2026-04-16T09:10:04Z</time></trkpt><trkpt lat="45.910498317134014" lon="11.784228776019644"><ele>1383.6666666666667</ele><time>2026-04-16T09:10:05Z</time></trkpt><trkpt lat="45.910406960943845" lon="11.784061154894703"><ele>1385.0</ele><time>2026-04-16T09:10:06Z</time></trkpt><trkpt lat="45.91029836842949" lon="11.783911776696236"><ele>1385.0</ele><time>2026-04-16T09:10:07Z</time></trkpt><trkpt lat="45.910154421107066" lon="11.783846774914148"><ele>1385.0</ele><time>2026-04-16T09:10:08Z</time></trkpt><trkpt lat="45.91000239218416" lon="11.78383290530474"><ele>1385.0</ele><time>2026-04-16T09:10:09Z</time></trkpt><trkpt lat="45.909868841952644" lon="11.78381557911619"><ele>1385.0</ele><time>2026-04-16T09:10:10Z</time></trkpt><trkpt lat="45.909762375153406" lon="11.783770025656437"><ele>1386.75</ele><time>2026-04-16T09:10:11Z</time></trkpt><trkpt lat="45.90967076352211" lon="11.783691841147448"><ele>1388.5</ele><time>2026-04-16T09:10:11.999Z</time></trkpt><trkpt lat="45.909597970359556" lon="11.783563346959317"><ele>1390.25</ele><time>2026-04-16T09:10:12.999Z</time></trkpt><trkpt lat="45.90953981103905" lon="11.783407974972189"><ele>1392.0</ele><time>2026-04-16T09:10:13.999Z</time></trkpt><trkpt lat="45.9094743421778" lon="11.783214499858287"><ele>1396.0</ele><time>2026-04-16T09:10:14.999Z</time></trkpt><trkpt lat="45.909386984630736" lon="11.782994219830702"><ele>1400.0</ele><time>2026-04-16T09:10:15.999Z</time></trkpt><trkpt lat="45.90925727551525" lon="11.782780864736585"><ele>1404.0</ele><time>2026-04-16T09:10:16.999Z</time></trkpt><trkpt lat="45.90912055234786" lon="11.782558982904993"><ele>1409.0</ele><time>2026-04-16T09:10:17.999Z</time></trkpt><trkpt lat="45.9089716711205" lon="11.782370717076192"><ele>1414.0</ele><time>2026-04-16T09:10:18.999Z</time></trkpt><trkpt lat="45.908847306813776" lon="11.782119550017828"><ele>1419.0</ele><time>2026-04-16T09:10:19.999Z</time></trkpt><trkpt lat="45.90871485468635" lon="11.781856722528293"><ele>1422.6666666666667</ele><time>2026-04-16T09:10:20.999Z</time></trkpt><trkpt lat="45.908608065467334" lon="11.781625770123888"><ele>1426.3333333333335</ele><time>2026-04-16T09:10:21.999Z</time></trkpt><trkpt lat="45.908521778633805" lon="11.781454214389882"><ele>1430.0</ele><time>2026-04-16T09:10:22.999Z</time></trkpt><trkpt lat="45.90839092262663" lon="11.781319330766026"><ele>1430.0</ele><time>2026-04-16T09:10:23.999Z</time></trkpt><trkpt lat="45.90823841855355" lon="11.781242141741155"><ele>1430.0</ele><time>2026-04-16T09:10:24.999Z</time></trkpt><trkpt lat="45.90807538212914" lon="11.781160835039225"><ele>1430.0</ele><time>2026-04-16T09:10:25.999Z</time></trkpt><trkpt lat="45.90790412181367" lon="11.781074996680506"><ele>1436.3333333333335</ele><time>2026-04-16T09:10:26.999Z</time></trkpt><trkpt lat="45.90772279365493" lon="11.781004542822831"><ele>1442.6666666666667</ele><time>2026-04-16T09:10:27.999Z</time></trkpt><trkpt lat="45.9075726233902" lon="11.780943969941406"><ele>1449.0</ele><time>2026-04-16T09:10:28.999Z</time></trkpt><trkpt lat="45.90739731854554" lon="11.780950732853581"><ele>1444.3333333333333</ele><time>2026-04-16T09:10:29.999Z</time></trkpt><trkpt lat="45.90723810043772" lon="11.781018406478397"><ele>1439.6666666666665</ele><time>2026-04-16T09:10:30.999Z</time></trkpt><trkpt lat="45.90706224442667" lon="11.781085505683741"><ele>1435.0</ele><time>2026-04-16T09:10:31.999Z</time></trkpt><trkpt lat="45.90686856708643" lon="11.781162823303463"><ele>1439.0</ele><time>2026-04-16T09:10:32.999Z</time></trkpt><trkpt lat="45.9066606491421" lon="11.781206751819688"><ele>1443.0</ele><time>2026-04-16T09:10:33.999Z</time></trkpt><trkpt lat="45.90644162891683" lon="11.781240306963282"><ele>1447.0</ele><time>2026-04-16T09:10:34.999Z</time></trkpt><trkpt lat="45.90622844994485" lon="11.781249477663136"><ele>1447.0</ele><time>2026-04-16T09:10:35.999Z</time></trkpt><trkpt lat="45.90604410468464" lon="11.781319364564165"><ele>1447.0</ele><time>2026-04-16T09:10:36.999Z</time></trkpt><trkpt lat="45.90584830968909" lon="11.781411730273094"><ele>1447.0</ele><time>2026-04-16T09:10:37.999Z</time></trkpt><trkpt lat="45.905681514393976" lon="11.781518902265832"><ele>1444.3333333333333</ele><time>2026-04-16T09:10:38.999Z</time></trkpt><trkpt lat="45.905519179975066" lon="11.781662421862782"><ele>1441.6666666666667</ele><time>2026-04-16T09:10:39.999Z</time></trkpt><trkpt lat="45.90532923481142" lon="11.781814226992356"><ele>1439.0</ele><time>2026-04-16T09:10:40.999Z</time></trkpt><trkpt lat="45.90516755004141" lon="11.781977942104835"><ele>1443.75</ele><time>2026-04-16T09:10:41.999Z</time></trkpt><trkpt lat="45.905055157731724" lon="11.782114375227412"><ele>1448.5</ele><time>2026-04-16T09:10:42.999Z</time></trkpt><trkpt lat="45.90497384979558" lon="11.782240290859066"><ele>1453.25</ele><time>2026-04-16T09:10:43.999Z</time></trkpt><trkpt lat="45.90487542863726" lon="11.782332690060406"><ele>1458.0</ele><time>2026-04-16T09:10:44.999Z</time></trkpt><trkpt lat="45.90477093167705" lon="11.782380243465433"><ele>1458.0</ele><time>2026-04-16T09:10:45.999Z</time></trkpt><trkpt lat="45.90466922383721" lon="11.782405591111532"><ele>1458.0</ele><time>2026-04-16T09:10:46.999Z</time></trkpt><trkpt lat="45.90456149871142" lon="11.782434418094294"><ele>1458.0</ele><time>2026-04-16T09:10:47.999Z</time></trkpt><trkpt lat="45.90444632334159" lon="11.782490480278536"><ele>1458.0</ele><time>2026-04-16T09:10:48.999Z</time></trkpt><trkpt lat="45.90433981501728" lon="11.782589814604034"><ele>1457.0</ele><time>2026-04-16T09:10:49.999Z</time></trkpt><trkpt lat="45.90425108200238" lon="11.782717847491567"><ele>1456.0</ele><time>2026-04-16T09:10:50.999Z</time></trkpt><trkpt lat="45.90417195634223" lon="11.7828679320044"><ele>1455.0</ele><time>2026-04-16T09:10:51.999Z</time></trkpt><trkpt lat="45.90410560012697" lon="11.783020300696696"><ele>1454.0</ele><time>2026-04-16T09:10:52.999Z</time></trkpt><trkpt lat="45.904062120270694" lon="11.78319051233527"><ele>1454.0</ele><time>2026-04-16T09:10:53.999Z</time></trkpt><trkpt lat="45.90403830301386" lon="11.783384376837779"><ele>1454.0</ele><time>2026-04-16T09:10:54.999Z</time></trkpt><trkpt lat="45.90402293434943" lon="11.78354385320825"><ele>1454.0</ele><time>2026-04-16T09:10:55.999Z</time></trkpt><trkpt lat="45.90399617377802" lon="11.783666955673716"><ele>1454.0</ele><time>2026-04-16T09:10:56.999Z</time></trkpt><trkpt lat="45.903954605691226" lon="11.783770592754713"><ele>1454.0</ele><time>2026-04-16T09:10:57.999Z</time></trkpt><trkpt lat="45.90388477162706" lon="11.783827053231668"><ele>1452.2</ele><time>2026-04-16T09:10:58.999Z</time></trkpt><trkpt lat="45.90380800506447" lon="11.783831940624145"><ele>1450.4</ele><time>2026-04-16T09:10:59.999Z</time></trkpt><trkpt lat="45.90371874597012" lon="11.78382351328542"><ele>1448.6</ele><time>2026-04-16T09:11:00.999Z</time></trkpt><trkpt lat="45.90361309811647" lon="11.783792035058724"><ele>1446.8</ele><time>2026-04-16T09:11:01.999Z</time></trkpt><trkpt lat="45.90352148021259" lon="11.78374218793372"><ele>1445.0</ele><time>2026-04-16T09:11:02.999Z</time></trkpt><trkpt lat="45.90344281683651" lon="11.783671328937498"><ele>1445.0</ele><time>2026-04-16T09:11:03.999Z</time></trkpt><trkpt lat="45.90340226045538" lon="11.783560064982176"><ele>1445.0</ele><time>2026-04-16T09:11:04.999Z</time></trkpt><trkpt lat="45.90338216149394" lon="11.78343308956523"><ele>1445.0</ele><time>2026-04-16T09:11:05.999Z</time></trkpt><trkpt lat="45.903360669950075" lon="11.783271351286384"><ele>1445.0</ele><time>2026-04-16T09:11:06.999Z</time></trkpt><trkpt lat="45.903333279308804" lon="11.783067059250202"><ele>1445.0</ele><time>2026-04-16T09:11:07.999Z</time></trkpt><trkpt lat="45.90330734352216" lon="11.78286082141889"><ele>1447.3333333333335</ele><time>2026-04-16T09:11:08.999Z</time></trkpt><trkpt lat="45.90324647408635" lon="11.782644211700628"><ele>1449.6666666666667</ele><time>2026-04-16T09:11:10Z</time></trkpt><trkpt lat="45.90312874376379" lon="11.782409725600822"><ele>1452.0</ele><time>2026-04-16T09:11:11Z</time></trkpt><trkpt lat="45.903008806701145" lon="11.782146268983327"><ele>1452.0</ele><time>2026-04-16T09:11:12Z</time></trkpt><trkpt lat="45.90290124648416" lon="11.781923314096522"><ele>1452.0</ele><time>2026-04-16T09:11:13Z</time></trkpt><trkpt lat="45.90279812166216" lon="11.781740311196959"><ele>1452.0</ele><time>2026-04-16T09:11:14Z</time></trkpt><trkpt lat="45.90267240617406" lon="11.781602703365946"><ele>1447.6666666666667</ele><time>2026-04-16T09:11:15Z</time></trkpt><trkpt lat="45.90253133277199" lon="11.781485248875653"><ele>1443.3333333333335</ele><time>2026-04-16T09:11:16Z</time></trkpt><trkpt lat="45.90235584383748" lon="11.781358405462521"><ele>1439.0</ele><time>2026-04-16T09:11:17Z</time></trkpt><trkpt lat="45.90218456004604" lon="11.781246994425453"><ele>1439.0</ele><time>2026-04-16T09:11:18Z</time></trkpt><trkpt lat="45.90197752508063" lon="11.781143372846342"><ele>1439.0</ele><time>2026-04-16T09:11:19Z</time></trkpt><trkpt lat="45.90175667079451" lon="11.78102695090219"><ele>1438.3333333333335</ele><time>2026-04-16T09:11:20Z</time></trkpt><trkpt lat="45.90155932531531" lon="11.78093262107956"><ele>1437.6666666666667</ele><time>2026-04-16T09:11:21Z</time></trkpt><trkpt lat="45.90138694562347" lon="11.78085241475698"><ele>1437.0</ele><time>2026-04-16T09:11:22Z</time></trkpt><trkpt lat="45.90121711546727" lon="11.780826672528615"><ele>1437.0</ele><time>2026-04-16T09:11:23Z</time></trkpt><trkpt lat="45.90101745110389" lon="11.780824213391766"><ele>1437.0</ele><time>2026-04-16T09:11:24Z</time></trkpt><trkpt lat="45.90077549880973" lon="11.780794167712271"><ele>1437.0</ele><time>2026-04-16T09:11:25Z</time></trkpt><trkpt lat="45.90056913851906" lon="11.78079909740217"><ele>1436.6666666666667</ele><time>2026-04-16T09:11:26Z</time></trkpt><trkpt lat="45.90036628407386" lon="11.780765647723344"><ele>1436.3333333333335</ele><time>2026-04-16T09:11:27Z</time></trkpt><trkpt lat="45.90014761518107" lon="11.780768438417944"><ele>1436.0</ele><time>2026-04-16T09:11:28Z</time></trkpt><trkpt lat="45.89993231066238" lon="11.780745282275088"><ele>1434.6666666666667</ele><time>2026-04-16T09:11:29Z</time></trkpt><trkpt lat="45.89973988416041" lon="11.780737029218006"><ele>1433.3333333333333</ele><time>2026-04-16T09:11:30Z</time></trkpt><trkpt lat="45.89957480297439" lon="11.780737626221148"><ele>1432.0</ele><time>2026-04-16T09:11:31Z</time></trkpt><trkpt lat="45.89942862707719" lon="11.780700004483224"><ele>1432.0</ele><time>2026-04-16T09:11:32Z</time></trkpt><trkpt lat="45.89928301586553" lon="11.780665281427583"><ele>1432.0</ele><time>2026-04-16T09:11:33Z</time></trkpt><trkpt lat="45.89913869682056" lon="11.780626390235682"><ele>1432.0</ele><time>2026-04-16T09:11:34Z</time></trkpt><trkpt lat="45.89901263960354" lon="11.780512792328643"><ele>1432.0</ele><time>2026-04-16T09:11:35Z</time></trkpt><trkpt lat="45.898863742957325" lon="11.780401514936258"><ele>1429.0</ele><time>2026-04-16T09:11:36Z</time></trkpt><trkpt lat="45.89872196184176" lon="11.78026263374275"><ele>1426.0</ele><time>2026-04-16T09:11:37Z</time></trkpt><trkpt lat="45.89858634820535" lon="11.780158797991271"><ele>1423.0</ele><time>2026-04-16T09:11:38Z</time></trkpt><trkpt lat="45.898449971045444" lon="11.780066614497544"><ele>1426.3333333333333</ele><time>2026-04-16T09:11:39Z</time></trkpt><trkpt lat="45.89829958813534" lon="11.780020696242566"><ele>1429.6666666666667</ele><time>2026-04-16T09:11:40Z</time></trkpt><trkpt lat="45.898124493777225" lon="11.780012427588737"><ele>1433.0</ele><time>2026-04-16T09:11:41Z</time></trkpt><trkpt lat="45.89792578822558" lon="11.780051060618042"><ele>1433.0</ele><time>2026-04-16T09:11:42Z</time></trkpt><trkpt lat="45.897732874469924" lon="11.780087493255172"><ele>1433.0</ele><time>2026-04-16T09:11:43Z</time></trkpt><trkpt lat="45.897563038597475" lon="11.78012086392819"><ele>1433.0</ele><time>2026-04-16T09:11:44Z</time></trkpt><trkpt lat="45.89739614792774" lon="11.780127158692917"><ele>1430.3333333333335</ele><time>2026-04-16T09:11:45Z</time></trkpt><trkpt lat="45.89723248327198" lon="11.780101659544288"><ele>1427.6666666666667</ele><time>2026-04-16T09:11:46Z</time></trkpt><trkpt lat="45.897069553190946" lon="11.780071776189558"><ele>1425.0</ele><time>2026-04-16T09:11:47Z</time></trkpt><trkpt lat="45.89691921290725" lon="11.77998387507164"><ele>1425.0</ele><time>2026-04-16T09:11:48Z</time></trkpt><trkpt lat="45.89677420693409" lon="11.779904852309159"><ele>1425.0</ele><time>2026-04-16T09:11:49Z</time></trkpt><trkpt lat="45.8966330347451" lon="11.779851129588698"><ele>1425.0</ele><time>2026-04-16T09:11:50Z</time></trkpt><trkpt lat="45.896493251306225" lon="11.77979044989026"><ele>1425.0</ele><time>2026-04-16T09:11:51Z</time></trkpt><trkpt lat="45.89634412890068" lon="11.779777061211067"><ele>1419.6666666666667</ele><time>2026-04-16T09:11:52Z</time></trkpt><trkpt lat="45.89618316313999" lon="11.779795682960371"><ele>1414.3333333333335</ele><time>2026-04-16T09:11:53Z</time></trkpt><trkpt lat="45.89601631968012" lon="11.779852364171132"><ele>1409.0</ele><time>2026-04-16T09:11:54Z</time></trkpt><trkpt lat="45.89586465220986" lon="11.779907902491807"><ele>1407.5</ele><time>2026-04-16T09:11:55Z</time></trkpt><trkpt lat="45.895732871690676" lon="11.779911488010914"><ele>1406.0</ele><time>2026-04-16T09:11:56Z</time></trkpt><trkpt lat="45.89561511611185" lon="11.779880379351564"><ele>1404.5</ele><time>2026-04-16T09:11:57Z</time></trkpt><trkpt lat="45.8955031981795" lon="11.779831216697685"><ele>1403.0</ele><time>2026-04-16T09:11:58Z</time></trkpt><trkpt lat="45.89540958434349" lon="11.779754769214438"><ele>1403.0</ele><time>2026-04-16T09:11:59Z</time></trkpt><trkpt lat="45.89531419719177" lon="11.779656700670852"><ele>1403.0</ele><time>2026-04-16T09:12:00Z</time></trkpt><trkpt lat="45.895219739893236" lon="11.779532755196351"><ele>1403.0</ele><time>2026-04-16T09:12:01Z</time></trkpt><trkpt lat="45.89512527722649" lon="11.779380698223308"><ele>1403.0</ele><time>2026-04-16T09:12:02Z</time></trkpt><trkpt lat="45.89503396230132" lon="11.779218948007"><ele>1402.75</ele><time>2026-04-16T09:12:03Z</time></trkpt><trkpt lat="45.894958288944444" lon="11.77906534375607"><ele>1402.5</ele><time>2026-04-16T09:12:04Z</time></trkpt><trkpt lat="45.89490060485836" lon="11.778905420089107"><ele>1402.25</ele><time>2026-04-16T09:12:05Z</time></trkpt><trkpt lat="45.89486488340061" lon="11.778730003568105"><ele>1402.0</ele><time>2026-04-16T09:12:05.999Z</time></trkpt><trkpt lat="45.89483348452379" lon="11.778546851191454"><ele>1403.5</ele><time>2026-04-16T09:12:06.999Z</time></trkpt><trkpt lat="45.89481154853935" lon="11.778354635628839"><ele>1405.0</ele><time>2026-04-16T09:12:07.999Z</time></trkpt><trkpt lat="45.89481335081195" lon="11.77816153345203"><ele>1406.5</ele><time>2026-04-16T09:12:08.999Z</time></trkpt><trkpt lat="45.89482457769908" lon="11.777988977054472"><ele>1408.0</ele><time>2026-04-16T09:12:09.999Z</time></trkpt><trkpt lat="45.894847902297144" lon="11.777818135316576"><ele>1405.5</ele><time>2026-04-16T09:12:10.999Z</time></trkpt><trkpt lat="45.89491798046935" lon="11.777617958125825"><ele>1403.0</ele><time>2026-04-16T09:12:11.999Z</time></trkpt><trkpt lat="45.89497756023794" lon="11.777432548266539"><ele>1400.5</ele><time>2026-04-16T09:12:12.999Z</time></trkpt><trkpt lat="45.895010732621984" lon="11.777274804567679"><ele>1398.0</ele><time>2026-04-16T09:12:13.999Z</time></trkpt><trkpt lat="45.895035397575846" lon="11.77714078768972"><ele>1398.0</ele><time>2026-04-16T09:12:14.999Z</time></trkpt><trkpt lat="45.89505019895065" lon="11.776998605078106"><ele>1398.0</ele><time>2026-04-16T09:12:15.999Z</time></trkpt><trkpt lat="45.895009333001454" lon="11.776861166779042"><ele>1398.0</ele><time>2026-04-16T09:12:16.999Z</time></trkpt><trkpt lat="45.89496872146063" lon="11.776730705925063"><ele>1398.0</ele><time>2026-04-16T09:12:17.999Z</time></trkpt><trkpt lat="45.8949105662388" lon="11.776613612711579"><ele>1398.0</ele><time>2026-04-16T09:12:18.999Z</time></trkpt><trkpt lat="45.89485031634132" lon="11.776508577876628"><ele>1396.2</ele><time>2026-04-16T09:12:19.999Z</time></trkpt><trkpt lat="45.894800922598286" lon="11.7764189387315"><ele>1394.4</ele><time>2026-04-16T09:12:20.999Z</time></trkpt><trkpt lat="45.89475557819553" lon="11.7763028928056"><ele>1392.6000000000001</ele><time>2026-04-16T09:12:22.999Z</time></trkpt><trkpt lat="45.89468427536007" lon="11.77620501884452"><ele>1390.8000000000002</ele><time>2026-04-16T09:14:46.999Z</time></trkpt><trkpt lat="45.89458733059552" lon="11.776061335515404"><ele>1389.0</ele><time>2026-04-16T09:14:48.999Z</time></trkpt><trkpt lat="45.89453274253546" lon="11.775959493915233"><ele>1389.4</ele><time>2026-04-16T09:14:49.999Z</time></trkpt><trkpt lat="45.89450010681021" lon="11.775847585999484"><ele>1389.8000000000002</ele><time>2026-04-16T09:14:50.999Z</time></trkpt><trkpt lat="45.894444808827814" lon="11.775751258962881"><ele>1390.1999999999998</ele><time>2026-04-16T09:14:51.999Z</time></trkpt><trkpt lat="45.894364335505095" lon="11.775674378649116"><ele>1390.6</ele><time>2026-04-16T09:14:52.999Z</time></trkpt><trkpt lat="45.89430610590751" lon="11.77557685205828"><ele>1391.0</ele><time>2026-04-16T09:14:53.999Z</time></trkpt><trkpt lat="45.894234080350515" lon="11.775484701237627"><ele>1391.0</ele><time>2026-04-16T09:14:54.999Z</time></trkpt><trkpt lat="45.89414537669101" lon="11.775399545623241"><ele>1391.0</ele><time>2026-04-16T09:14:55.999Z</time></trkpt><trkpt lat="45.89403329108799" lon="11.77532804299467"><ele>1391.0</ele><time>2026-04-16T09:14:56.999Z</time></trkpt><trkpt lat="45.89388723043758" lon="11.775285608206218"><ele>1391.0</ele><time>2026-04-16T09:14:57.999Z</time></trkpt><trkpt lat="45.893752520170985" lon="11.775236424588316"><ele>1389.0</ele><time>2026-04-16T09:14:58.999Z</time></trkpt><trkpt lat="45.89360643662888" lon="11.775153892498986"><ele>1387.0</ele><time>2026-04-16T09:14:59.999Z</time></trkpt><trkpt lat="45.89345397365386" lon="11.775059037626919"><ele>1385.0</ele><time>2026-04-16T09:15:00.999Z</time></trkpt><trkpt lat="45.893309332544796" lon="11.774951748301017"><ele>1392.6666666666667</ele><time>2026-04-16T09:15:01.999Z</time></trkpt><trkpt lat="45.8931531037129" lon="11.774835610590562"><ele>1400.3333333333333</ele><time>2026-04-16T09:15:02.999Z</time></trkpt><trkpt lat="45.8929985954684" lon="11.774740012125871"><ele>1408.0</ele><time>2026-04-16T09:15:03.999Z</time></trkpt><trkpt lat="45.89288834474111" lon="11.774615924044838"><ele>1408.0</ele><time>2026-04-16T09:15:04.999Z</time></trkpt><trkpt lat="45.89276733301259" lon="11.774487477465263"><ele>1408.0</ele><time>2026-04-16T09:15:05.999Z</time></trkpt><trkpt lat="45.892641266228836" lon="11.774339150337532"><ele>1408.0</ele><time>2026-04-16T09:15:06.999Z</time></trkpt><trkpt lat="45.892515466618555" lon="11.774191655891302"><ele>1411.6666666666665</ele><time>2026-04-16T09:15:07.999Z</time></trkpt><trkpt lat="45.89240170857234" lon="11.774059527508955"><ele>1415.3333333333333</ele><time>2026-04-16T09:15:08.999Z</time></trkpt><trkpt lat="45.89227918013502" lon="11.77392346080966"><ele>1419.0</ele><time>2026-04-16T09:15:09.999Z</time></trkpt><trkpt lat="45.89213696313509" lon="11.773812531283978"><ele>1419.0</ele><time>2026-04-16T09:15:10.999Z</time></trkpt><trkpt lat="45.89199263175942" lon="11.773693787073404"><ele>1419.0</ele><time>2026-04-16T09:15:11.999Z</time></trkpt><trkpt lat="45.89186878282467" lon="11.773584325112354"><ele>1419.0</ele><time>2026-04-16T09:15:12.999Z</time></trkpt><trkpt lat="45.89175955026154" lon="11.77350292547782"><ele>1419.0</ele><time>2026-04-16T09:15:13.999Z</time></trkpt><trkpt lat="45.891677944147794" lon="11.773432450902677"><ele>1420.0</ele><time>2026-04-16T09:15:14.999Z</time></trkpt><trkpt lat="45.891614474835706" lon="11.773342867154339"><ele>1421.0</ele><time>2026-04-16T09:15:15.999Z</time></trkpt><trkpt lat="45.8915677720921" lon="11.773229272368729"><ele>1422.0</ele><time>2026-04-16T09:15:16.999Z</time></trkpt><trkpt lat="45.89152297205033" lon="11.773102808799987"><ele>1423.0</ele><time>2026-04-16T09:15:17.999Z</time></trkpt><trkpt lat="45.89146183210895" lon="11.772971711203818"><ele>1424.0</ele><time>2026-04-16T09:15:18.999Z</time></trkpt><trkpt lat="45.89140503356862" lon="11.772804384604186"><ele>1421.2</ele><time>2026-04-16T09:15:19.999Z</time></trkpt><trkpt lat="45.89134693656702" lon="11.772683733011124"><ele>1418.4</ele><time>2026-04-16T09:15:20.999Z</time></trkpt><trkpt lat="45.891274591955174" lon="11.77257821404089"><ele>1415.6</ele><time>2026-04-16T09:15:21.999Z</time></trkpt><trkpt lat="45.891198751850865" lon="11.772496543139438"><ele>1412.8</ele><time>2026-04-16T09:15:22.999Z</time></trkpt><trkpt lat="45.891111981462885" lon="11.772416530621923"><ele>1410.0</ele><time>2026-04-16T09:15:23.999Z</time></trkpt><trkpt lat="45.89102111478975" lon="11.772336758219383"><ele>1410.0</ele><time>2026-04-16T09:15:24.999Z</time></trkpt><trkpt lat="45.89094445325648" lon="11.772235321587305"><ele>1410.0</ele><time>2026-04-16T09:15:25.999Z</time></trkpt><trkpt lat="45.890890667553045" lon="11.772124249754357"><ele>1410.0</ele><time>2026-04-16T09:15:26.999Z</time></trkpt><trkpt lat="45.890872417945225" lon="11.771999135636763"><ele>1410.0</ele><time>2026-04-16T09:15:27.999Z</time></trkpt><trkpt lat="45.8908816523176" lon="11.771861533263841"><ele>1410.0</ele><time>2026-04-16T09:15:28.999Z</time></trkpt><trkpt lat="45.89091467456709" lon="11.771715670202864"><ele>1408.25</ele><time>2026-04-16T09:15:29.999Z</time></trkpt><trkpt lat="45.89098034167812" lon="11.771546869380305"><ele>1406.5</ele><time>2026-04-16T09:15:30.999Z</time></trkpt><trkpt lat="45.89105897474006" lon="11.771353762057105"><ele>1404.75</ele><time>2026-04-16T09:15:31.999Z</time></trkpt><trkpt lat="45.89113199763569" lon="11.77117296932914"><ele>1403.0</ele><time>2026-04-16T09:15:32.999Z</time></trkpt><trkpt lat="45.891214019418506" lon="11.770967073966531"><ele>1407.6666666666667</ele><time>2026-04-16T09:15:33.999Z</time></trkpt><trkpt lat="45.89129562606123" lon="11.770731647910031"><ele>1412.3333333333333</ele><time>2026-04-16T09:15:34.999Z</time></trkpt><trkpt lat="45.891367355561364" lon="11.770482091539014"><ele>1417.0</ele><time>2026-04-16T09:15:35.999Z</time></trkpt><trkpt lat="45.89142286575643" lon="11.77027026402741"><ele>1423.3333333333333</ele><time>2026-04-16T09:15:36.999Z</time></trkpt><trkpt lat="45.89150298672196" lon="11.770081689622868"><ele>1429.6666666666667</ele><time>2026-04-16T09:15:37.999Z</time></trkpt><trkpt lat="45.89160634113842" lon="11.769893001868667"><ele>1436.0</ele><time>2026-04-16T09:15:38.999Z</time></trkpt><trkpt lat="45.89171820902961" lon="11.769709565399477"><ele>1432.6</ele><time>2026-04-16T09:15:39.999Z</time></trkpt><trkpt lat="45.891806474447776" lon="11.769547041080694"><ele>1429.1999999999998</ele><time>2026-04-16T09:15:40.999Z</time></trkpt><trkpt lat="45.891861638473245" lon="11.76940812838151"><ele>1425.8000000000002</ele><time>2026-04-16T09:15:41.999Z</time></trkpt><trkpt lat="45.89189478376044" lon="11.769280121148915"><ele>1422.4</ele><time>2026-04-16T09:15:42.999Z</time></trkpt><trkpt lat="45.89190347366683" lon="11.769152696857194"><ele>1419.0</ele><time>2026-04-16T09:15:43.999Z</time></trkpt><trkpt lat="45.89191190715206" lon="11.769034090533792"><ele>1419.0</ele><time>2026-04-16T09:15:44.999Z</time></trkpt><trkpt lat="45.89184274736473" lon="11.768939449649547"><ele>1419.0</ele><time>2026-04-16T09:15:45.999Z</time></trkpt><trkpt lat="45.89178226158425" lon="11.768885518927405"><ele>1419.0</ele><time>2026-04-16T09:15:46.999Z</time></trkpt><trkpt lat="45.89170552732267" lon="11.768862735958756"><ele>1419.0</ele><time>2026-04-16T09:15:47.999Z</time></trkpt><trkpt lat="45.89162291540237" lon="11.76887285587508"><ele>1419.0</ele><time>2026-04-16T09:15:48.999Z</time></trkpt><trkpt lat="45.891540662641" lon="11.768909685227998"><ele>1419.0</ele><time>2026-04-16T09:15:49.999Z</time></trkpt><trkpt lat="45.89146022630967" lon="11.768985133493189"><ele>1423.25</ele><time>2026-04-16T09:15:50.999Z</time></trkpt><trkpt lat="45.891376807945804" lon="11.769086952394222"><ele>1427.5</ele><time>2026-04-16T09:15:51.999Z</time></trkpt><trkpt lat="45.89126684737443" lon="11.769176091709522"><ele>1431.75</ele><time>2026-04-16T09:15:52.999Z</time></trkpt><trkpt lat="45.891142592326894" lon="11.76930173814524"><ele>1436.0</ele><time>2026-04-16T09:15:53.999Z</time></trkpt><trkpt lat="45.89102325364433" lon="11.769420477784438"><ele>1442.3333333333335</ele><time>2026-04-16T09:15:54.999Z</time></trkpt><trkpt lat="45.890886707766334" lon="11.76955633215232"><ele>1448.6666666666667</ele><time>2026-04-16T09:15:55.999Z</time></trkpt><trkpt lat="45.89074381077534" lon="11.769722822152193"><ele>1455.0</ele><time>2026-04-16T09:15:56.999Z</time></trkpt><trkpt lat="45.890589487172576" lon="11.769846265719854"><ele>1455.0</ele><time>2026-04-16T09:15:57.999Z</time></trkpt><trkpt lat="45.890453413641595" lon="11.769986591808253"><ele>1455.0</ele><time>2026-04-16T09:15:58.999Z</time></trkpt><trkpt lat="45.89031042627731" lon="11.770151434702795"><ele>1455.0</ele><time>2026-04-16T09:15:59.999Z</time></trkpt><trkpt lat="45.89016561863269" lon="11.770324806982956"><ele>1461.0</ele><time>2026-04-16T09:16:00.999Z</time></trkpt><trkpt lat="45.89000967014206" lon="11.770494445027815"><ele>1467.0</ele><time>2026-04-16T09:16:01.999Z</time></trkpt><trkpt lat="45.8898209893203" lon="11.770582326397864"><ele>1473.0</ele><time>2026-04-16T09:16:02.999Z</time></trkpt><trkpt lat="45.889637955596065" lon="11.770662929208255"><ele>1473.0</ele><time>2026-04-16T09:16:03.999Z</time></trkpt><trkpt lat="45.88947678516948" lon="11.77074010124657"><ele>1473.0</ele><time>2026-04-16T09:16:04.999Z</time></trkpt><trkpt lat="45.889301079801136" lon="11.770762721433416"><ele>1473.0</ele><time>2026-04-16T09:16:05.999Z</time></trkpt><trkpt lat="45.889117992744815" lon="11.77074967594192"><ele>1473.6666666666667</ele><time>2026-04-16T09:16:06.999Z</time></trkpt><trkpt lat="45.88892235204226" lon="11.770719473084164"><ele>1474.3333333333335</ele><time>2026-04-16T09:16:07.999Z</time></trkpt><trkpt lat="45.88872279186245" lon="11.770696065376436"><ele>1475.0</ele><time>2026-04-16T09:16:08.999Z</time></trkpt><trkpt lat="45.88853158798777" lon="11.770647847529254"><ele>1478.0</ele><time>2026-04-16T09:16:09.999Z</time></trkpt><trkpt lat="45.888359363587746" lon="11.770644040480075"><ele>1481.0</ele><time>2026-04-16T09:16:10.999Z</time></trkpt><trkpt lat="45.888216476256865" lon="11.770632941460619"><ele>1484.0</ele><time>2026-04-16T09:16:11.999Z</time></trkpt><trkpt lat="45.888086576380424" lon="11.770670117455765"><ele>1487.0</ele><time>2026-04-16T09:16:12.999Z</time></trkpt><trkpt lat="45.887982212295654" lon="11.77073528358503"><ele>1487.0</ele><time>2026-04-16T09:16:13.999Z</time></trkpt><trkpt lat="45.887899809274906" lon="11.770839154237072"><ele>1487.0</ele><time>2026-04-16T09:16:14.999Z</time></trkpt><trkpt lat="45.887842201612955" lon="11.770974722487326"><ele>1487.0</ele><time>2026-04-16T09:16:15.999Z</time></trkpt><trkpt lat="45.88781349662727" lon="11.771127020778179"><ele>1487.0</ele><time>2026-04-16T09:16:16.999Z</time></trkpt><trkpt lat="45.88781505574289" lon="11.771290599377751"><ele>1487.0</ele><time>2026-04-16T09:16:17.999Z</time></trkpt><trkpt lat="45.887841887624546" lon="11.771457797877842"><ele>1490.6666666666667</ele><time>2026-04-16T09:16:18.999Z</time></trkpt><trkpt lat="45.88789050542184" lon="11.771627013400506"><ele>1494.3333333333333</ele><time>2026-04-16T09:16:19.999Z</time></trkpt><trkpt lat="45.88796178580233" lon="11.771830647468875"><ele>1498.0</ele><time>2026-04-16T09:16:20.999Z</time></trkpt><trkpt lat="45.88804317457224" lon="11.772068408729494"><ele>1498.0</ele><time>2026-04-16T09:16:21.999Z</time></trkpt><trkpt lat="45.88812150181635" lon="11.772333542618876"><ele>1498.0</ele><time>2026-04-16T09:16:22.999Z</time></trkpt><trkpt lat="45.88818410362788" lon="11.7725757634715"><ele>1498.0</ele><time>2026-04-16T09:16:23.999Z</time></trkpt><trkpt lat="45.88822598587484" lon="11.772812720695484"><ele>1498.3333333333333</ele><time>2026-04-16T09:16:24.999Z</time></trkpt><trkpt lat="45.88824252049171" lon="11.773080291875269"><ele>1498.6666666666667</ele><time>2026-04-16T09:16:25.999Z</time></trkpt><trkpt lat="45.888238294499324" lon="11.77334589205948"><ele>1499.0</ele><time>2026-04-16T09:16:26.999Z</time></trkpt><trkpt lat="45.88821545066876" lon="11.773648756570445"><ele>1502.0</ele><time>2026-04-16T09:16:27.999Z</time></trkpt><trkpt lat="45.888172016018856" lon="11.773972483462108"><ele>1505.0</ele><time>2026-04-16T09:16:28.999Z</time></trkpt><trkpt lat="45.888120467439414" lon="11.774304852725766"><ele>1506.0</ele><time>2026-04-16T09:16:29.999Z</time></trkpt><trkpt lat="45.88807164704128" lon="11.774588761814238"><ele>1507.0</ele><time>2026-04-16T09:16:30.999Z</time></trkpt><trkpt lat="45.88802609089439" lon="11.774858353740107"><ele>1508.0</ele><time>2026-04-16T09:16:31.999Z</time></trkpt><trkpt lat="45.88800463504507" lon="11.77516312219612"><ele>1508.5</ele><time>2026-04-16T09:16:32.999Z</time></trkpt><trkpt lat="45.88800403614689" lon="11.775503127877249"><ele>1509.0</ele><time>2026-04-16T09:16:33.999Z</time></trkpt><trkpt lat="45.88801009097258" lon="11.77581607620707"><ele>1509.3333333333333</ele><time>2026-04-16T09:16:34.999Z</time></trkpt><trkpt lat="45.88796997345763" lon="11.776111995861804"><ele>1509.6666666666665</ele><time>2026-04-16T09:16:35.999Z</time></trkpt><trkpt lat="45.88794717951893" lon="11.776444600630555"><ele>1510.0</ele><time>2026-04-16T09:16:36.999Z</time></trkpt><trkpt lat="45.88790038806119" lon="11.776760590059009"><ele>1507.3333333333333</ele><time>2026-04-16T09:16:37.999Z</time></trkpt><trkpt lat="45.88786757492977" lon="11.777038248180409"><ele>1504.6666666666667</ele><time>2026-04-16T09:16:38.999Z</time></trkpt><trkpt lat="45.88783687488796" lon="11.777287913395883"><ele>1502.0</ele><time>2026-04-16T09:16:39.999Z</time></trkpt><trkpt lat="45.887783363992064" lon="11.777516772526909"><ele>1501.3333333333335</ele><time>2026-04-16T09:16:40.999Z</time></trkpt><trkpt lat="45.88771622878948" lon="11.777734130865914"><ele>1500.6666666666667</ele><time>2026-04-16T09:16:41.999Z</time></trkpt><trkpt lat="45.88761548378126" lon="11.777907158037513"><ele>1500.0</ele><time>2026-04-16T09:16:42.999Z</time></trkpt><trkpt lat="45.887539121785224" lon="11.778065645750685"><ele>1500.0</ele><time>2026-04-16T09:16:43.999Z</time></trkpt><trkpt lat="45.88745582163892" lon="11.778204237232917"><ele>1500.0</ele><time>2026-04-16T09:16:44.999Z</time></trkpt><trkpt lat="45.88738563443769" lon="11.778404568135082"><ele>1500.0</ele><time>2026-04-16T09:16:45.999Z</time></trkpt><trkpt lat="45.88733496138611" lon="11.778650587535331"><ele>1502.6666666666667</ele><time>2026-04-16T09:16:46.999Z</time></trkpt><trkpt lat="45.887305624306045" lon="11.778910566645697"><ele>1505.3333333333335</ele><time>2026-04-16T09:16:47.999Z</time></trkpt><trkpt lat="45.88729679706571" lon="11.779136924358786"><ele>1508.0</ele><time>2026-04-16T09:16:48.999Z</time></trkpt><trkpt lat="45.88727900335773" lon="11.779354756252186"><ele>1508.6666666666667</ele><time>2026-04-16T09:16:49.999Z</time></trkpt><trkpt lat="45.88722767050933" lon="11.779592955116067"><ele>1509.3333333333333</ele><time>2026-04-16T09:16:50.999Z</time></trkpt><trkpt lat="45.88714937224617" lon="11.77983911999438"><ele>1510.0</ele><time>2026-04-16T09:16:51.999Z</time></trkpt><trkpt lat="45.88707393059366" lon="11.780042257440426"><ele>1509.3333333333333</ele><time>2026-04-16T09:16:52.999Z</time></trkpt><trkpt lat="45.88698558529657" lon="11.780218328992555"><ele>1508.6666666666667</ele><time>2026-04-16T09:16:53.999Z</time></trkpt><trkpt lat="45.886874572300044" lon="11.780375716216712"><ele>1508.0</ele><time>2026-04-16T09:16:54.999Z</time></trkpt><trkpt lat="45.88674219026845" lon="11.780532024325648"><ele>1509.6666666666667</ele><time>2026-04-16T09:16:55.999Z</time></trkpt><trkpt lat="45.88658955069906" lon="11.780697277659913"><ele>1511.3333333333333</ele><time>2026-04-16T09:16:56.999Z</time></trkpt><trkpt lat="45.886456577409255" lon="11.780869555022756"><ele>1513.0</ele><time>2026-04-16T09:16:57.999Z</time></trkpt><trkpt lat="45.88635023532781" lon="11.781043854916787"><ele>1516.0</ele><time>2026-04-16T09:16:58.999Z</time></trkpt><trkpt lat="45.886260474579665" lon="11.781225499361868"><ele>1519.0</ele><time>2026-04-16T09:16:59.999Z</time></trkpt><trkpt lat="45.886186530575586" lon="11.781444796184326"><ele>1522.0</ele><time>2026-04-16T09:17:00.999Z</time></trkpt><trkpt lat="45.886113499102315" lon="11.78171282391122"><ele>1520.0</ele><time>2026-04-16T09:17:01.999Z</time></trkpt><trkpt lat="45.88603304219952" lon="11.781958480868804"><ele>1518.0</ele><time>2026-04-16T09:17:02.999Z</time></trkpt><trkpt lat="45.88592439250282" lon="11.782136605239302"><ele>1516.0</ele><time>2026-04-16T09:17:03.999Z</time></trkpt><trkpt lat="45.88581872269135" lon="11.782318650945205"><ele>1516.0</ele><time>2026-04-16T09:17:04.999Z</time></trkpt><trkpt lat="45.88569218981185" lon="11.782490425055387"><ele>1516.0</ele><time>2026-04-16T09:17:05.999Z</time></trkpt><trkpt lat="45.88558490037383" lon="11.782676566007439"><ele>1516.0</ele><time>2026-04-16T09:17:06.999Z</time></trkpt><trkpt lat="45.885504706778256" lon="11.782881725591883"><ele>1520.0</ele><time>2026-04-16T09:17:07.999Z</time></trkpt><trkpt lat="45.88544169689277" lon="11.78313558357778"><ele>1524.0</ele><time>2026-04-16T09:17:08.999Z</time></trkpt><trkpt lat="45.885377357334406" lon="11.783429745492162"><ele>1528.0</ele><time>2026-04-16T09:17:09.999Z</time></trkpt><trkpt lat="45.885307594270195" lon="11.783715356890195"><ele>1532.0</ele><time>2026-04-16T09:17:10.999Z</time></trkpt><trkpt lat="45.88524915196677" lon="11.783959372911971"><ele>1536.0</ele><time>2026-04-16T09:17:11.999Z</time></trkpt><trkpt lat="45.885209810481065" lon="11.784199622685332"><ele>1540.0</ele><time>2026-04-16T09:17:12.999Z</time></trkpt><trkpt lat="45.88519162224494" lon="11.784473939322412"><ele>1544.0</ele><time>2026-04-16T09:17:13.999Z</time></trkpt><trkpt lat="45.88518750909194" lon="11.784768566022063"><ele>1548.0</ele><time>2026-04-16T09:17:14.999Z</time></trkpt><trkpt lat="45.88518602150507" lon="11.785041955561347"><ele>1552.0</ele><time>2026-04-16T09:17:15.999Z</time></trkpt><trkpt lat="45.88517107108072" lon="11.785345778177446"><ele>1549.3333333333335</ele><time>2026-04-16T09:17:16.999Z</time></trkpt><trkpt lat="45.88513885555149" lon="11.785628786144418"><ele>1546.6666666666665</ele><time>2026-04-16T09:17:17.999Z</time></trkpt><trkpt lat="45.88506078972094" lon="11.785886186177402"><ele>1544.0</ele><time>2026-04-16T09:17:18.999Z</time></trkpt><trkpt lat="45.88501401338314" lon="11.786196433457894"><ele>1544.0</ele><time>2026-04-16T09:17:19.999Z</time></trkpt><trkpt lat="45.88497788871027" lon="11.786520312149634"><ele>1544.0</ele><time>2026-04-16T09:17:20.999Z</time></trkpt><trkpt lat="45.88495695486865" lon="11.786830466178268"><ele>1544.0</ele><time>2026-04-16T09:17:21.999Z</time></trkpt><trkpt lat="45.88491878934682" lon="11.787103637785725"><ele>1548.0</ele><time>2026-04-16T09:17:22.999Z</time></trkpt><trkpt lat="45.884853221771216" lon="11.787368629800199"><ele>1552.0</ele><time>2026-04-16T09:17:23.999Z</time></trkpt><trkpt lat="45.884776731385706" lon="11.787652537387391"><ele>1556.0</ele><time>2026-04-16T09:17:24.999Z</time></trkpt><trkpt lat="45.884693507245416" lon="11.7879098129932"><ele>1559.25</ele><time>2026-04-16T09:17:25.999Z</time></trkpt><trkpt lat="45.884639939228784" lon="11.788101830363178"><ele>1562.5</ele><time>2026-04-16T09:17:26.999Z</time></trkpt><trkpt lat="45.884580019103815" lon="11.788261194230707"><ele>1565.75</ele><time>2026-04-16T09:17:28Z</time></trkpt><trkpt lat="45.88450235832359" lon="11.788383404518765"><ele>1569.0</ele><time>2026-04-16T09:17:29Z</time></trkpt><trkpt lat="45.884406603641395" lon="11.78848515246149"><ele>1571.0</ele><time>2026-04-16T09:17:30Z</time></trkpt><trkpt lat="45.88428030742411" lon="11.788522130676684"><ele>1573.0</ele><time>2026-04-16T09:17:31Z</time></trkpt><trkpt lat="45.88414129600876" lon="11.78856478541515"><ele>1575.0</ele><time>2026-04-16T09:17:32Z</time></trkpt><trkpt lat="45.88399591821056" lon="11.788629735432352"><ele>1577.0</ele><time>2026-04-16T09:17:33Z</time></trkpt><trkpt lat="45.883845274042514" lon="11.78868723682245"><ele>1577.0</ele><time>2026-04-16T09:17:34Z</time></trkpt><trkpt lat="45.88370473475278" lon="11.788789591374245"><ele>1577.0</ele><time>2026-04-16T09:17:35Z</time></trkpt><trkpt lat="45.88357528399487" lon="11.788917467161857"><ele>1577.0</ele><time>2026-04-16T09:17:36Z</time></trkpt><trkpt lat="45.88346089794996" lon="11.789072939069168"><ele>1579.3333333333333</ele><time>2026-04-16T09:17:37Z</time></trkpt><trkpt lat="45.8833552989503" lon="11.789261980583085"><ele>1581.6666666666665</ele><time>2026-04-16T09:17:38Z</time></trkpt><trkpt lat="45.88322968984497" lon="11.789468838960127"><ele>1584.0</ele><time>2026-04-16T09:17:39Z</time></trkpt><trkpt lat="45.88308778831241" lon="11.789651330167528"><ele>1584.0</ele><time>2026-04-16T09:17:40Z</time></trkpt><trkpt lat="45.88294996158446" lon="11.789809842972835"><ele>1584.0</ele><time>2026-04-16T09:17:41Z</time></trkpt><trkpt lat="45.88281708411166" lon="11.789991272445679"><ele>1584.0</ele><time>2026-04-16T09:17:42Z</time></trkpt><trkpt lat="45.88270478883709" lon="11.790204419670939"><ele>1582.3333333333335</ele><time>2026-04-16T09:17:43Z</time></trkpt><trkpt lat="45.88259750859402" lon="11.79044497599048"><ele>1580.6666666666667</ele><time>2026-04-16T09:17:44Z</time></trkpt><trkpt lat="45.882492528221086" lon="11.790696721950109"><ele>1579.0</ele><time>2026-04-16T09:17:45Z</time></trkpt><trkpt lat="45.88239085547478" lon="11.790958354583848"><ele>1586.3333333333335</ele><time>2026-04-16T09:17:46Z</time></trkpt><trkpt lat="45.88230729396518" lon="11.7912068420515"><ele>1593.6666666666665</ele><time>2026-04-16T09:17:47Z</time></trkpt><trkpt lat="45.882227115743255" lon="11.791474657118211"><ele>1601.0</ele><time>2026-04-16T09:17:48Z</time></trkpt><trkpt lat="45.88214567214234" lon="11.791748141772462"><ele>1607.3333333333333</ele><time>2026-04-16T09:17:49Z</time></trkpt><trkpt lat="45.882076775300234" lon="11.791980153949277"><ele>1613.6666666666665</ele><time>2026-04-16T09:17:50Z</time></trkpt><trkpt lat="45.88201872363735" lon="11.792188441216929"><ele>1620.0</ele><time>2026-04-16T09:17:51Z</time></trkpt><trkpt lat="45.88197031363713" lon="11.7923672338731"><ele>1620.0</ele><time>2026-04-16T09:17:52Z</time></trkpt><trkpt lat="45.881923120261106" lon="11.792511661951627"><ele>1620.0</ele><time>2026-04-16T09:17:53Z</time></trkpt><trkpt lat="45.881862117992895" lon="11.792632942500207"><ele>1620.0</ele><time>2026-04-16T09:17:54Z</time></trkpt><trkpt lat="45.881784465624726" lon="11.79271754877816"><ele>1620.0</ele><time>2026-04-16T09:17:55Z</time></trkpt><trkpt lat="45.88170008996052" lon="11.792755778790678"><ele>1620.0</ele><time>2026-04-16T09:17:56Z</time></trkpt><trkpt lat="45.881607810365836" lon="11.79270497381508"><ele>1612.75</ele><time>2026-04-16T09:17:57Z</time></trkpt><trkpt lat="45.881504032565374" lon="11.792667526165417"><ele>1605.5</ele><time>2026-04-16T09:17:58Z</time></trkpt><trkpt lat="45.88139252691236" lon="11.792630908055296"><ele>1598.25</ele><time>2026-04-16T09:17:59Z</time></trkpt><trkpt lat="45.88127347552585" lon="11.792636167467714"><ele>1591.0</ele><time>2026-04-16T09:18:00Z</time></trkpt><trkpt lat="45.881155431714376" lon="11.792656745303953"><ele>1593.8</ele><time>2026-04-16T09:18:01Z</time></trkpt><trkpt lat="45.8810661195514" lon="11.792719899644348"><ele>1596.6</ele><time>2026-04-16T09:18:02Z</time></trkpt><trkpt lat="45.88099439401424" lon="11.792822389611013"><ele>1599.4</ele><time>2026-04-16T09:18:03Z</time></trkpt><trkpt lat="45.88094122682069" lon="11.792958170112193"><ele>1602.2</ele><time>2026-04-16T09:18:04Z</time></trkpt><trkpt lat="45.88091042425794" lon="11.793116796081561"><ele>1605.0</ele><time>2026-04-16T09:18:05Z</time></trkpt><trkpt lat="45.88087141702565" lon="11.793267895547624"><ele>1605.0</ele><time>2026-04-16T09:18:06Z</time></trkpt><trkpt lat="45.880796623748175" lon="11.793390154244145"><ele>1605.0</ele><time>2026-04-16T09:18:07Z</time></trkpt><trkpt lat="45.88069937077443" lon="11.79347332666227"><ele>1605.0</ele><time>2026-04-16T09:18:08Z</time></trkpt><trkpt lat="45.8805790293778" lon="11.793536708180175"><ele>1605.0</ele><time>2026-04-16T09:18:09Z</time></trkpt><trkpt lat="45.88045112358146" lon="11.793610556091041"><ele>1610.25</ele><time>2026-04-16T09:18:10Z</time></trkpt><trkpt lat="45.88032990132243" lon="11.793688711085771"><ele>1615.5</ele><time>2026-04-16T09:18:11Z</time></trkpt><trkpt lat="45.88023970674551" lon="11.793771297407137"><ele>1620.75</ele><time>2026-04-16T09:18:12Z</time></trkpt><trkpt lat="45.88017316945871" lon="11.793891718135145"><ele>1626.0</ele><time>2026-04-16T09:18:13Z</time></trkpt><trkpt lat="45.88011623371435" lon="11.794052986709387"><ele>1623.75</ele><time>2026-04-16T09:18:14Z</time></trkpt><trkpt lat="45.88005562432354" lon="11.794235035344169"><ele>1621.5</ele><time>2026-04-16T09:18:15Z</time></trkpt><trkpt lat="45.87995555321991" lon="11.794369459813476"><ele>1619.25</ele><time>2026-04-16T09:18:16Z</time></trkpt><trkpt lat="45.879849996214105" lon="11.794485777771278"><ele>1617.0</ele><time>2026-04-16T09:18:17Z</time></trkpt><trkpt lat="45.87973496882005" lon="11.79463986866978"><ele>1617.0</ele><time>2026-04-16T09:18:18Z</time></trkpt><trkpt lat="45.87958420267911" lon="11.794792764766127"><ele>1617.0</ele><time>2026-04-16T09:18:19Z</time></trkpt><trkpt lat="45.87945768477166" lon="11.79494265830137"><ele>1617.0</ele><time>2026-04-16T09:18:20Z</time></trkpt><trkpt lat="45.87935378765001" lon="11.795058670056939"><ele>1617.0</ele><time>2026-04-16T09:18:21Z</time></trkpt><trkpt lat="45.879280344314985" lon="11.79515436790144"><ele>1617.0</ele><time>2026-04-16T09:18:22Z</time></trkpt><trkpt lat="45.8792600139683" lon="11.795270372215784"><ele>1617.0</ele><time>2026-04-16T09:18:23Z</time></trkpt><trkpt lat="45.87924953013702" lon="11.795401425324734"><ele>1617.0</ele><time>2026-04-16T09:18:24Z</time></trkpt><trkpt lat="45.879262499295564" lon="11.795555802067467"><ele>1617.0</ele><time>2026-04-16T09:18:25Z</time></trkpt><trkpt lat="45.87928464771124" lon="11.795726828234107"><ele>1617.0</ele><time>2026-04-16T09:18:26Z</time></trkpt><trkpt lat="45.879279974306925" lon="11.795881538665421"><ele>1617.0</ele><time>2026-04-16T09:18:27Z</time></trkpt><trkpt lat="45.879213792328564" lon="11.795996849981252"><ele>1617.0</ele><time>2026-04-16T09:18:28Z</time></trkpt><trkpt lat="45.87912440835111" lon="11.796075208033203"><ele>1617.0</ele><time>2026-04-16T09:18:29Z</time></trkpt><trkpt lat="45.879004665126715" lon="11.796137035278328"><ele>1617.0</ele><time>2026-04-16T09:18:30Z</time></trkpt><trkpt lat="45.878877128489684" lon="11.796252961602535"><ele>1622.6666666666665</ele><time>2026-04-16T09:18:31Z</time></trkpt><trkpt lat="45.878736544433686" lon="11.796378212979416"><ele>1628.3333333333333</ele><time>2026-04-16T09:18:32Z</time></trkpt><trkpt lat="45.87860431772096" lon="11.796548959153167"><ele>1634.0</ele><time>2026-04-16T09:18:33Z</time></trkpt><trkpt lat="45.878454741732575" lon="11.796715935080456"><ele>1635.0</ele><time>2026-04-16T09:18:33.999Z</time></trkpt><trkpt lat="45.878338475114745" lon="11.796839155261175"><ele>1636.0</ele><time>2026-04-16T09:18:34.999Z</time></trkpt><trkpt lat="45.87824902311613" lon="11.796873347426992"><ele>1637.0</ele><time>2026-04-16T09:18:35.999Z</time></trkpt><trkpt lat="45.878182369958566" lon="11.796902480519794"><ele>1638.0</ele><time>2026-04-16T09:18:36.999Z</time></trkpt><trkpt lat="45.87811104451344" lon="11.79686442234337"><ele>1639.0</ele><time>2026-04-16T09:18:37.999Z</time></trkpt><trkpt lat="45.87803179764192" lon="11.796788149491691"><ele>1634.25</ele><time>2026-04-16T09:18:38.999Z</time></trkpt><trkpt lat="45.877930745413956" lon="11.796678307577674"><ele>1629.5</ele><time>2026-04-16T09:18:39.999Z</time></trkpt><trkpt lat="45.87781803792589" lon="11.796558890690486"><ele>1624.75</ele><time>2026-04-16T09:18:40.999Z</time></trkpt><trkpt lat="45.87771667596495" lon="11.796489189838251"><ele>1620.0</ele><time>2026-04-16T09:18:41.999Z</time></trkpt><trkpt lat="45.87761385657745" lon="11.796460716140496"><ele>1618.5</ele><time>2026-04-16T09:18:42.999Z</time></trkpt><trkpt lat="45.87750871528242" lon="11.796481037133775"><ele>1617.0</ele><time>2026-04-16T09:18:43.999Z</time></trkpt><trkpt lat="45.87738548886289" lon="11.796541921431553"><ele>1615.5</ele><time>2026-04-16T09:18:44.999Z</time></trkpt><trkpt lat="45.87723967550728" lon="11.796628220883381"><ele>1614.0</ele><time>2026-04-16T09:18:45.999Z</time></trkpt><trkpt lat="45.877057698700504" lon="11.796711846775288"><ele>1619.0</ele><time>2026-04-16T09:18:46.999Z</time></trkpt><trkpt lat="45.87689602250691" lon="11.796848708364903"><ele>1624.0</ele><time>2026-04-16T09:18:47.999Z</time></trkpt><trkpt lat="45.87674812712244" lon="11.796984725213829"><ele>1629.0</ele><time>2026-04-16T09:18:48.999Z</time></trkpt><trkpt lat="45.87661637057134" lon="11.797096651209454"><ele>1629.0</ele><time>2026-04-16T09:18:49.999Z</time></trkpt><trkpt lat="45.876495292381335" lon="11.797189237691011"><ele>1629.0</ele><time>2026-04-16T09:18:50.999Z</time></trkpt><trkpt lat="45.87639107923706" lon="11.797283502623841"><ele>1629.0</ele><time>2026-04-16T09:18:51.999Z</time></trkpt><trkpt lat="45.87630626910463" lon="11.797347094739235"><ele>1629.0</ele><time>2026-04-16T09:18:52.999Z</time></trkpt><trkpt lat="45.87619978166531" lon="11.797395774948654"><ele>1629.0</ele><time>2026-04-16T09:18:53.999Z</time></trkpt><trkpt lat="45.876103348139885" lon="11.797380853966688"><ele>1629.0</ele><time>2026-04-16T09:18:54.999Z</time></trkpt><trkpt lat="45.87602566301452" lon="11.79736522615264"><ele>1629.0</ele><time>2026-04-16T09:18:55.999Z</time></trkpt><trkpt lat="45.87592943482417" lon="11.797281222017027"><ele>1629.0</ele><time>2026-04-16T09:18:56.999Z</time></trkpt><trkpt lat="45.875817957538516" lon="11.797142939662098"><ele>1629.0</ele><time>2026-04-16T09:18:57.999Z</time></trkpt><trkpt lat="45.875701105422166" lon="11.796911027970937"><ele>1623.4</ele><time>2026-04-16T09:18:59.999Z</time></trkpt><trkpt lat="45.875653562426976" lon="11.796769414693115"><ele>1617.8000000000002</ele><time>2026-04-16T09:19:00.999Z</time></trkpt><trkpt lat="45.8755934056951" lon="11.79662620171586"><ele>1612.1999999999998</ele><time>2026-04-16T09:19:01.999Z</time></trkpt><trkpt lat="45.87551379367916" lon="11.796518797796852"><ele>1606.6</ele><time>2026-04-16T09:19:02.999Z</time></trkpt><trkpt lat="45.87543491375103" lon="11.79642919388142"><ele>1601.0</ele><time>2026-04-16T09:19:03.999Z</time></trkpt><trkpt lat="45.87533671537875" lon="11.796369011797356"><ele>1601.0</ele><time>2026-04-16T09:19:04.999Z</time></trkpt><trkpt lat="45.875227171705056" lon="11.79633033142093"><ele>1601.0</ele><time>2026-04-16T09:19:05.999Z</time></trkpt><trkpt lat="45.87510827487782" lon="11.796297378738617"><ele>1601.0</ele><time>2026-04-16T09:19:06.999Z</time></trkpt><trkpt lat="45.87498982476605" lon="11.796208908340578"><ele>1601.0</ele><time>2026-04-16T09:19:07.999Z</time></trkpt><trkpt lat="45.87486413487248" lon="11.79607594844079"><ele>1602.3333333333333</ele><time>2026-04-16T09:19:08.999Z</time></trkpt><trkpt lat="45.874735955566116" lon="11.795929049401957"><ele>1603.6666666666665</ele><time>2026-04-16T09:19:09.999Z</time></trkpt><trkpt lat="45.87458782376291" lon="11.795792511853849"><ele>1605.0</ele><time>2026-04-16T09:19:10.999Z</time></trkpt><trkpt lat="45.87446922752795" lon="11.79562956480259"><ele>1605.0</ele><time>2026-04-16T09:19:11.999Z</time></trkpt><trkpt lat="45.87433438396284" lon="11.795500857161889"><ele>1605.0</ele><time>2026-04-16T09:19:12.999Z</time></trkpt><trkpt lat="45.87421119105028" lon="11.795322831937003"><ele>1605.0</ele><time>2026-04-16T09:19:13.999Z</time></trkpt><trkpt lat="45.87410578892952" lon="11.795172833840034"><ele>1606.25</ele><time>2026-04-16T09:19:14.999Z</time></trkpt><trkpt lat="45.874009730609025" lon="11.795037480400703"><ele>1607.5</ele><time>2026-04-16T09:19:15.999Z</time></trkpt><trkpt lat="45.87392368598563" lon="11.794918464892822"><ele>1608.75</ele><time>2026-04-16T09:19:16.999Z</time></trkpt><trkpt lat="45.87385066198312" lon="11.794808322792894"><ele>1610.0</ele><time>2026-04-16T09:19:17.999Z</time></trkpt><trkpt lat="45.87379264633972" lon="11.794683861148455"><ele>1610.0</ele><time>2026-04-16T09:19:18.999Z</time></trkpt><trkpt lat="45.873769775933646" lon="11.794546206838474"><ele>1610.0</ele><time>2026-04-16T09:19:19.999Z</time></trkpt><trkpt lat="45.873784834389475" lon="11.794410206219071"><ele>1610.0</ele><time>2026-04-16T09:19:20.999Z</time></trkpt><trkpt lat="45.87383724122297" lon="11.794283957840719"><ele>1610.0</ele><time>2026-04-16T09:19:21.999Z</time></trkpt><trkpt lat="45.87387219509167" lon="11.794128215292266"><ele>1610.0</ele><time>2026-04-16T09:19:22.999Z</time></trkpt><trkpt lat="45.87391591834979" lon="11.793979493801212"><ele>1608.2</ele><time>2026-04-16T09:19:23.999Z</time></trkpt><trkpt lat="45.873930431779215" lon="11.793850671224432"><ele>1606.4</ele><time>2026-04-16T09:19:24.999Z</time></trkpt><trkpt lat="45.873928911680125" lon="11.79371362783024"><ele>1604.6</ele><time>2026-04-16T09:19:25.999Z</time></trkpt><trkpt lat="45.87391927506901" lon="11.793567761329781"><ele>1602.8</ele><time>2026-04-16T09:19:26.999Z</time></trkpt><trkpt lat="45.87388992553937" lon="11.793419517790117"><ele>1601.0</ele><time>2026-04-16T09:19:27.999Z</time></trkpt><trkpt lat="45.87383454318768" lon="11.793278372114465"><ele>1600.5</ele><time>2026-04-16T09:19:28.999Z</time></trkpt><trkpt lat="45.873753554729774" lon="11.793132599275037"><ele>1600.0</ele><time>2026-04-16T09:19:29.999Z</time></trkpt><trkpt lat="45.873662515994674" lon="11.792970942862262"><ele>1599.5</ele><time>2026-04-16T09:19:30.999Z</time></trkpt><trkpt lat="45.87360549546731" lon="11.792778539756593"><ele>1599.0</ele><time>2026-04-16T09:19:31.999Z</time></trkpt><trkpt lat="45.87355502259522" lon="11.792563899223788"><ele>1601.6666666666665</ele><time>2026-04-16T09:19:32.999Z</time></trkpt><trkpt lat="45.87348489066507" lon="11.792360803570881"><ele>1604.3333333333333</ele><time>2026-04-16T09:19:34Z</time></trkpt><trkpt lat="45.87340608736044" lon="11.792131843243665"><ele>1607.0</ele><time>2026-04-16T09:19:35Z</time></trkpt><trkpt lat="45.873322921197136" lon="11.791915723710277"><ele>1602.25</ele><time>2026-04-16T09:19:36Z</time></trkpt><trkpt lat="45.87325725498623" lon="11.791731207791537"><ele>1597.5</ele><time>2026-04-16T09:19:37Z</time></trkpt><trkpt lat="45.87320482323021" lon="11.791572371873851"><ele>1592.75</ele><time>2026-04-16T09:19:38Z</time></trkpt><trkpt lat="45.873136859337706" lon="11.7914223478502"><ele>1588.0</ele><time>2026-04-16T09:19:39Z</time></trkpt><trkpt lat="45.873046952743785" lon="11.791293809681596"><ele>1588.0</ele><time>2026-04-16T09:19:40Z</time></trkpt><trkpt lat="45.87292859886844" lon="11.791160798109145"><ele>1588.0</ele><time>2026-04-16T09:19:41Z</time></trkpt><trkpt lat="45.87280935944093" lon="11.791031603479642"><ele>1588.0</ele><time>2026-04-16T09:19:42Z</time></trkpt><trkpt lat="45.87268009075772" lon="11.790917561543942"><ele>1588.2</ele><time>2026-04-16T09:19:43Z</time></trkpt><trkpt lat="45.87258179357564" lon="11.790808135230066"><ele>1588.4</ele><time>2026-04-16T09:19:44Z</time></trkpt><trkpt lat="45.8724872979867" lon="11.790749152047187"><ele>1588.6000000000001</ele><time>2026-04-16T09:19:45Z</time></trkpt><trkpt lat="45.87241849665237" lon="11.79066223800966"><ele>1588.8000000000002</ele><time>2026-04-16T09:19:46Z</time></trkpt><trkpt lat="45.87236764260747" lon="11.790553836355024"><ele>1589.0</ele><time>2026-04-16T09:19:47Z</time></trkpt><trkpt lat="45.87234755143084" lon="11.790430814294643"><ele>1589.0</ele><time>2026-04-16T09:19:48Z</time></trkpt><trkpt lat="45.87235641209063" lon="11.790307385812447"><ele>1589.0</ele><time>2026-04-16T09:19:49Z</time></trkpt><trkpt lat="45.87239498854263" lon="11.790181699086851"><ele>1589.0</ele><time>2026-04-16T09:19:50Z</time></trkpt><trkpt lat="45.87245205784914" lon="11.790037356372398"><ele>1589.0</ele><time>2026-04-16T09:19:51Z</time></trkpt><trkpt lat="45.872521140212875" lon="11.78984913937749"><ele>1589.0</ele><time>2026-04-16T09:19:52Z</time></trkpt><trkpt lat="45.87258873295427" lon="11.789676928747621"><ele>1579.25</ele><time>2026-04-16T09:19:53Z</time></trkpt><trkpt lat="45.87265097755049" lon="11.789512210127043"><ele>1569.5</ele><time>2026-04-16T09:19:54Z</time></trkpt><trkpt lat="45.87271184704473" lon="11.7893208178797"><ele>1559.75</ele><time>2026-04-16T09:19:55Z</time></trkpt><trkpt lat="45.8727640889868" lon="11.789109977092489"><ele>1550.0</ele><time>2026-04-16T09:19:56Z</time></trkpt><trkpt lat="45.87279779568592" lon="11.788894175452116"><ele>1549.25</ele><time>2026-04-16T09:19:57Z</time></trkpt><trkpt lat="45.872811197924214" lon="11.788696791843552"><ele>1548.5</ele><time>2026-04-16T09:19:58Z</time></trkpt><trkpt lat="45.87279596546069" lon="11.78851143949806"><ele>1547.75</ele><time>2026-04-16T09:19:59Z</time></trkpt><trkpt lat="45.87276359041048" lon="11.788324284926922"><ele>1547.0</ele><time>2026-04-16T09:20:00Z</time></trkpt><trkpt lat="45.87271166629866" lon="11.788115913155522"><ele>1545.3333333333333</ele><time>2026-04-16T09:20:01Z</time></trkpt><trkpt lat="45.87264443297214" lon="11.787888695417458"><ele>1543.6666666666665</ele><time>2026-04-16T09:20:02Z</time></trkpt><trkpt lat="45.87263195776467" lon="11.78766813904324"><ele>1542.0</ele><time>2026-04-16T09:20:03Z</time></trkpt><trkpt lat="45.87260438856327" lon="11.787445734769396"><ele>1548.6666666666665</ele><time>2026-04-16T09:20:04Z</time></trkpt><trkpt lat="45.87257096239363" lon="11.787190761869594"><ele>1555.3333333333333</ele><time>2026-04-16T09:20:05Z</time></trkpt><trkpt lat="45.87251813979883" lon="11.78694282681397"><ele>1562.0</ele><time>2026-04-16T09:20:06Z</time></trkpt><trkpt lat="45.87246577088239" lon="11.786715169967321"><ele>1562.0</ele><time>2026-04-16T09:20:07Z</time></trkpt><trkpt lat="45.872413796547285" lon="11.78649951681613"><ele>1562.0</ele><time>2026-04-16T09:20:08Z</time></trkpt><trkpt lat="45.87235064819623" lon="11.786305089388181"><ele>1562.0</ele><time>2026-04-16T09:20:09Z</time></trkpt><trkpt lat="45.872269043783426" lon="11.786128954495277"><ele>1558.0</ele><time>2026-04-16T09:20:10Z</time></trkpt><trkpt lat="45.87218623928624" lon="11.78596798845862"><ele>1554.0</ele><time>2026-04-16T09:20:11Z</time></trkpt><trkpt lat="45.87210221475681" lon="11.78583351688793"><ele>1550.0</ele><time>2026-04-16T09:20:12Z</time></trkpt><trkpt lat="45.87200541249196" lon="11.785719121733761"><ele>1546.0</ele><time>2026-04-16T09:20:13Z</time></trkpt><trkpt lat="45.87189237238566" lon="11.785623217565558"><ele>1553.3333333333335</ele><time>2026-04-16T09:20:14Z</time></trkpt><trkpt lat="45.87175431943208" lon="11.785548698932446"><ele>1560.6666666666665</ele><time>2026-04-16T09:20:15Z</time></trkpt><trkpt lat="45.87158061226743" lon="11.785489938844377"><ele>1568.0</ele><time>2026-04-16T09:20:16Z</time></trkpt><trkpt lat="45.87140023397378" lon="11.785438457179076"><ele>1568.0</ele><time>2026-04-16T09:20:17Z</time></trkpt><trkpt lat="45.87123830749804" lon="11.785406789235486"><ele>1568.0</ele><time>2026-04-16T09:20:18Z</time></trkpt><trkpt lat="45.87106747438128" lon="11.785406333572823"><ele>1568.0</ele><time>2026-04-16T09:20:19Z</time></trkpt><trkpt lat="45.870882789374704" lon="11.785426212778063"><ele>1566.6666666666665</ele><time>2026-04-16T09:20:20Z</time></trkpt><trkpt lat="45.87070369242582" lon="11.785441346992899"><ele>1565.3333333333335</ele><time>2026-04-16T09:20:21Z</time></trkpt><trkpt lat="45.87051533176372" lon="11.785453625841942"><ele>1564.0</ele><time>2026-04-16T09:20:22Z</time></trkpt><trkpt lat="45.870331179764854" lon="11.785445840588375"><ele>1564.0</ele><time>2026-04-16T09:20:23Z</time></trkpt><trkpt lat="45.870155041333305" lon="11.78542054336506"><ele>1564.0</ele><time>2026-04-16T09:20:24Z</time></trkpt><trkpt lat="45.86998600857727" lon="11.78538639432913"><ele>1564.0</ele><time>2026-04-16T09:20:25Z</time></trkpt><trkpt lat="45.869840469694694" lon="11.785354675363964"><ele>1561.8000000000002</ele><time>2026-04-16T09:20:26Z</time></trkpt><trkpt lat="45.86972102950916" lon="11.785332223614141"><ele>1559.6000000000001</ele><time>2026-04-16T09:20:27Z</time></trkpt><trkpt lat="45.869614689051" lon="11.785315771983578"><ele>1557.4</ele><time>2026-04-16T09:20:28Z</time></trkpt><trkpt lat="45.869514052900534" lon="11.78533434634486"><ele>1555.2</ele><time>2026-04-16T09:20:29Z</time></trkpt><trkpt lat="45.86943159960055" lon="11.785392136507014"><ele>1553.0</ele><time>2026-04-16T09:20:30Z</time></trkpt><trkpt lat="45.869368173844826" lon="11.785478758115199"><ele>1553.0</ele><time>2026-04-16T09:20:31Z</time></trkpt><trkpt lat="45.869315342228646" lon="11.785569935678467"><ele>1553.0</ele><time>2026-04-16T09:20:32Z</time></trkpt><trkpt lat="45.86927906809858" lon="11.785659604094146"><ele>1553.0</ele><time>2026-04-16T09:20:33Z</time></trkpt><trkpt lat="45.86925892616227" lon="11.785820207960153"><ele>1553.0</ele><time>2026-04-16T09:20:35Z</time></trkpt><trkpt lat="45.86928231959757" lon="11.785986430998458"><ele>1553.0</ele><time>2026-04-16T09:20:37Z</time></trkpt><trkpt lat="45.86930417267136" lon="11.786109687329366"><ele>1554.75</ele><time>2026-04-16T09:20:38Z</time></trkpt><trkpt lat="45.86934372522035" lon="11.786263690424537"><ele>1556.5</ele><time>2026-04-16T09:20:39Z</time></trkpt><trkpt lat="45.8693881851973" lon="11.786458312900383"><ele>1558.25</ele><time>2026-04-16T09:20:40Z</time></trkpt><trkpt lat="45.869414715922844" lon="11.786660226653137"><ele>1560.0</ele><time>2026-04-16T09:20:41Z</time></trkpt><trkpt lat="45.86944257214139" lon="11.786867903119134"><ele>1560.4</ele><time>2026-04-16T09:20:42Z</time></trkpt><trkpt lat="45.86948261289409" lon="11.787066776840163"><ele>1560.8</ele><time>2026-04-16T09:20:43Z</time></trkpt><trkpt lat="45.86952180551797" lon="11.78720660372363"><ele>1561.1999999999998</ele><time>2026-04-16T09:20:44Z</time></trkpt><trkpt lat="45.86953629728788" lon="11.787335090727119"><ele>1561.6</ele><time>2026-04-16T09:20:45Z</time></trkpt><trkpt lat="45.869510431246965" lon="11.78745593931279"><ele>1562.0</ele><time>2026-04-16T09:20:46Z</time></trkpt><trkpt lat="45.86942240985726" lon="11.787533026668456"><ele>1562.0</ele><time>2026-04-16T09:20:47Z</time></trkpt><trkpt lat="45.86939322308129" lon="11.787654147154068"><ele>1562.0</ele><time>2026-04-16T09:20:48Z</time></trkpt><trkpt lat="45.8693621002195" lon="11.787804695098544"><ele>1562.0</ele><time>2026-04-16T09:20:49Z</time></trkpt><trkpt lat="45.869349757635185" lon="11.788006208957528"><ele>1562.0</ele><time>2026-04-16T09:20:50Z</time></trkpt><trkpt lat="45.86934553950444" lon="11.78820898669701"><ele>1563.1999999999998</ele><time>2026-04-16T09:20:51Z</time></trkpt><trkpt lat="45.869338074656426" lon="11.788422037909804"><ele>1564.4</ele><time>2026-04-16T09:20:52Z</time></trkpt><trkpt lat="45.86932809525661" lon="11.788587723983028"><ele>1565.6</ele><time>2026-04-16T09:20:53Z</time></trkpt><trkpt lat="45.86929495313386" lon="11.7887125350914"><ele>1566.8000000000002</ele><time>2026-04-16T09:20:54Z</time></trkpt><trkpt lat="45.86927379414973" lon="11.78883708397177"><ele>1568.0</ele><time>2026-04-16T09:20:55Z</time></trkpt><trkpt lat="45.869187484076804" lon="11.788909324427017"><ele>1561.0</ele><time>2026-04-16T09:20:56Z</time></trkpt><trkpt lat="45.86909274480271" lon="11.7889209295618"><ele>1554.0</ele><time>2026-04-16T09:20:57Z</time></trkpt><trkpt lat="45.868995510038815" lon="11.788909499100502"><ele>1547.0</ele><time>2026-04-16T09:20:58Z</time></trkpt><trkpt lat="45.86888282158397" lon="11.788906075730216"><ele>1540.0</ele><time>2026-04-16T09:20:59Z</time></trkpt><trkpt lat="45.86877471827209" lon="11.788931291845671"><ele>1533.0</ele><time>2026-04-16T09:21:00Z</time></trkpt><trkpt lat="45.86868578071031" lon="11.78897083971249"><ele>1533.0</ele><time>2026-04-16T09:21:01Z</time></trkpt><trkpt lat="45.868599304366015" lon="11.788988808169512"><ele>1533.0</ele><time>2026-04-16T09:21:01.999Z</time></trkpt><trkpt lat="45.868493324965556" lon="11.788975449090142"><ele>1533.0</ele><time>2026-04-16T09:21:03.999Z</time></trkpt><trkpt lat="45.86847084252189" lon="11.788889041571652"><ele>1533.0</ele><time>2026-04-16T09:21:04.999Z</time></trkpt><trkpt lat="45.86849091158796" lon="11.788795569854084"><ele>1533.0</ele><time>2026-04-16T09:21:05.999Z</time></trkpt><trkpt lat="45.86854668418968" lon="11.788726239977946"><ele>1533.0</ele><time>2026-04-16T09:21:06.999Z</time></trkpt><trkpt lat="45.868627967253445" lon="11.788701020265567"><ele>1533.0</ele><time>2026-04-16T09:21:07.999Z</time></trkpt><trkpt lat="45.86871267460864" lon="11.788713706172388"><ele>1533.0</ele><time>2026-04-16T09:21:08.999Z</time></trkpt><trkpt lat="45.8688102793935" lon="11.788726381264103"><ele>1533.0</ele><time>2026-04-16T09:21:09.999Z</time></trkpt><trkpt lat="45.86890847683213" lon="11.788725798077879"><ele>1533.0</ele><time>2026-04-16T09:21:10.999Z</time></trkpt><trkpt lat="45.86899790819446" lon="11.78869527847706"><ele>1533.0</ele><time>2026-04-16T09:21:11.999Z</time></trkpt><trkpt lat="45.86906463102904" lon="11.788609642939997"><ele>1531.4</ele><time>2026-04-16T09:21:12.999Z</time></trkpt><trkpt lat="45.86910178321019" lon="11.788493679187553"><ele>1529.8000000000002</ele><time>2026-04-16T09:21:13.999Z</time></trkpt><trkpt lat="45.8691057533685" lon="11.78835087287749"><ele>1528.2</ele><time>2026-04-16T09:21:14.999Z</time></trkpt><trkpt lat="45.86908842743915" lon="11.788196030732227"><ele>1526.6</ele><time>2026-04-16T09:21:15.999Z</time></trkpt><trkpt lat="45.868999383512836" lon="11.788060940153137"><ele>1525.0</ele><time>2026-04-16T09:21:16.999Z</time></trkpt><trkpt lat="45.868884782808884" lon="11.787928619992844"><ele>1525.0</ele><time>2026-04-16T09:21:17.999Z</time></trkpt><trkpt lat="45.868769840449225" lon="11.787785551691947"><ele>1525.0</ele><time>2026-04-16T09:21:18.999Z</time></trkpt><trkpt lat="45.86864702435756" lon="11.78761524736628"><ele>1525.0</ele><time>2026-04-16T09:21:19.999Z</time></trkpt><trkpt lat="45.86854019668915" lon="11.78747200372017"><ele>1518.0</ele><time>2026-04-16T09:21:20.999Z</time></trkpt><trkpt lat="45.868420238068225" lon="11.787391946714612"><ele>1511.0</ele><time>2026-04-16T09:21:21.999Z</time></trkpt><trkpt lat="45.8682746313362" lon="11.787352500325957"><ele>1504.0</ele><time>2026-04-16T09:21:22.999Z</time></trkpt><trkpt lat="45.86809681548333" lon="11.787345240518661"><ele>1504.0</ele><time>2026-04-16T09:21:23.999Z</time></trkpt><trkpt lat="45.867923065278895" lon="11.787342583695573"><ele>1504.0</ele><time>2026-04-16T09:21:24.999Z</time></trkpt><trkpt lat="45.86776665805255" lon="11.787327187974192"><ele>1504.0</ele><time>2026-04-16T09:21:25.999Z</time></trkpt><trkpt lat="45.86763383284425" lon="11.78728924479838"><ele>1501.6</ele><time>2026-04-16T09:21:26.999Z</time></trkpt><trkpt lat="45.86753103259702" lon="11.787262750694332"><ele>1499.2</ele><time>2026-04-16T09:21:27.999Z</time></trkpt><trkpt lat="45.8674393519228" lon="11.787218646483089"><ele>1496.8</ele><time>2026-04-16T09:21:28.999Z</time></trkpt><trkpt lat="45.86736464000394" lon="11.787143576411866"><ele>1494.3999999999999</ele><time>2026-04-16T09:21:29.999Z</time></trkpt><trkpt lat="45.867294637243056" lon="11.78705690865107"><ele>1492.0</ele><time>2026-04-16T09:21:30.999Z</time></trkpt><trkpt lat="45.8672693729772" lon="11.786938955045821"><ele>1494.5</ele><time>2026-04-16T09:21:31.999Z</time></trkpt><trkpt lat="45.86723936662525" lon="11.78674946017021"><ele>1497.0</ele><time>2026-04-16T09:21:33.999Z</time></trkpt><trkpt lat="45.86721395667958" lon="11.786540416068787"><ele>1499.5</ele><time>2026-04-16T09:21:34.999Z</time></trkpt><trkpt lat="45.86721488520007" lon="11.786316890107624"><ele>1502.0</ele><time>2026-04-16T09:21:35.999Z</time></trkpt><trkpt lat="45.86727469823129" lon="11.786134697439824"><ele>1500.25</ele><time>2026-04-16T09:21:36.999Z</time></trkpt><trkpt lat="45.8673394960785" lon="11.785951004246895"><ele>1498.5</ele><time>2026-04-16T09:21:37.999Z</time></trkpt><trkpt lat="45.867433482322525" lon="11.78581043723877"><ele>1496.75</ele><time>2026-04-16T09:21:38.999Z</time></trkpt><trkpt lat="45.867516975566716" lon="11.78566730463266"><ele>1495.0</ele><time>2026-04-16T09:21:40Z</time></trkpt><trkpt lat="45.86756393071549" lon="11.785529334671162"><ele>1495.0</ele><time>2026-04-16T09:21:41Z</time></trkpt><trkpt lat="45.86758845684896" lon="11.785334072937452"><ele>1495.0</ele><time>2026-04-16T09:21:42Z</time></trkpt><trkpt lat="45.86758074119527" lon="11.785112113429562"><ele>1495.0</ele><time>2026-04-16T09:21:43Z</time></trkpt><trkpt lat="45.867570363176824" lon="11.78488106210109"><ele>1495.6</ele><time>2026-04-16T09:21:44Z</time></trkpt><trkpt lat="45.867548613179686" lon="11.78469208319337"><ele>1496.2</ele><time>2026-04-16T09:21:45Z</time></trkpt><trkpt lat="45.86753364669774" lon="11.784547643564082"><ele>1496.8000000000002</ele><time>2026-04-16T09:21:46Z</time></trkpt><trkpt lat="45.867541427449396" lon="11.78440433764987"><ele>1497.4</ele><time>2026-04-16T09:21:47Z</time></trkpt><trkpt lat="45.867606745019295" lon="11.784285134690364"><ele>1498.0</ele><time>2026-04-16T09:21:48Z</time></trkpt><trkpt lat="45.867691013340796" lon="11.784184833846306"><ele>1498.0</ele><time>2026-04-16T09:21:49Z</time></trkpt><trkpt lat="45.86777380420274" lon="11.784062112763328"><ele>1498.0</ele><time>2026-04-16T09:21:50Z</time></trkpt><trkpt lat="45.86784748309127" lon="11.783958894438292"><ele>1498.0</ele><time>2026-04-16T09:21:51Z</time></trkpt><trkpt lat="45.86787323293744" lon="11.783847843175394"><ele>1498.0</ele><time>2026-04-16T09:21:52Z</time></trkpt><trkpt lat="45.86784869420541" lon="11.783731113866008"><ele>1498.0</ele><time>2026-04-16T09:21:53Z</time></trkpt><trkpt lat="45.86778429511369" lon="11.783634062533235"><ele>1498.0</ele><time>2026-04-16T09:21:54Z</time></trkpt><trkpt lat="45.86768722041152" lon="11.783531905670554"><ele>1498.0</ele><time>2026-04-16T09:21:55Z</time></trkpt><trkpt lat="45.8675596485068" lon="11.78339582809501"><ele>1498.0</ele><time>2026-04-16T09:21:56Z</time></trkpt><trkpt lat="45.867429263399174" lon="11.78324579357537"><ele>1498.0</ele><time>2026-04-16T09:21:57Z</time></trkpt><trkpt lat="45.86728732006939" lon="11.783094397325904"><ele>1495.0</ele><time>2026-04-16T09:21:58Z</time></trkpt><trkpt lat="45.867124322374956" lon="11.782921974274137"><ele>1492.0</ele><time>2026-04-16T09:21:59Z</time></trkpt><trkpt lat="45.866983181579975" lon="11.782762604895373"><ele>1489.0</ele><time>2026-04-16T09:22:00Z</time></trkpt><trkpt lat="45.866853374687146" lon="11.782611692732898"><ele>1481.75</ele><time>2026-04-16T09:22:01Z</time></trkpt><trkpt lat="45.86673628649177" lon="11.782484053308627"><ele>1474.5</ele><time>2026-04-16T09:22:02Z</time></trkpt><trkpt lat="45.866644221071255" lon="11.782354720620264"><ele>1467.25</ele><time>2026-04-16T09:22:03Z</time></trkpt><trkpt lat="45.86659260993825" lon="11.782207438124722"><ele>1460.0</ele><time>2026-04-16T09:22:04Z</time></trkpt><trkpt lat="45.86654531043442" lon="11.782076386754868"><ele>1460.0</ele><time>2026-04-16T09:22:05Z</time></trkpt><trkpt lat="45.86656580976255" lon="11.781933462047087"><ele>1460.0</ele><time>2026-04-16T09:22:06Z</time></trkpt><trkpt lat="45.866596409624066" lon="11.781800977122538"><ele>1460.0</ele><time>2026-04-16T09:22:07Z</time></trkpt><trkpt lat="45.86662086939245" lon="11.781647564642807"><ele>1460.0</ele><time>2026-04-16T09:22:08Z</time></trkpt><trkpt lat="45.86664733320817" lon="11.781490023244638"><ele>1460.0</ele><time>2026-04-16T09:22:09Z</time></trkpt><trkpt lat="45.86663225749185" lon="11.781324065141897"><ele>1461.25</ele><time>2026-04-16T09:22:10Z</time></trkpt><trkpt lat="45.866574137000995" lon="11.781145320768756"><ele>1462.5</ele><time>2026-04-16T09:22:11Z</time></trkpt><trkpt lat="45.86651139225513" lon="11.78097073457649"><ele>1463.75</ele><time>2026-04-16T09:22:12Z</time></trkpt><trkpt lat="45.86646657144534" lon="11.780792685467466"><ele>1465.0</ele><time>2026-04-16T09:22:13Z</time></trkpt><trkpt lat="45.866439795872154" lon="11.78057279887059"><ele>1465.0</ele><time>2026-04-16T09:22:14Z</time></trkpt><trkpt lat="45.86641820645834" lon="11.780353659181497"><ele>1465.0</ele><time>2026-04-16T09:22:15Z</time></trkpt><trkpt lat="45.86639975440213" lon="11.780148275133552"><ele>1465.0</ele><time>2026-04-16T09:22:16Z</time></trkpt><trkpt lat="45.866387656835535" lon="11.779977062405315"><ele>1465.0</ele><time>2026-04-16T09:22:17Z</time></trkpt><trkpt lat="45.86638619833903" lon="11.779838292983115"><ele>1464.5</ele><time>2026-04-16T09:22:18Z</time></trkpt><trkpt lat="45.866416137258305" lon="11.779706844213324"><ele>1464.0</ele><time>2026-04-16T09:22:19Z</time></trkpt><trkpt lat="45.86647412980194" lon="11.779551407270073"><ele>1463.5</ele><time>2026-04-16T09:22:20Z</time></trkpt><trkpt lat="45.86652963909298" lon="11.779367730288765"><ele>1463.0</ele><time>2026-04-16T09:22:21Z</time></trkpt><trkpt lat="45.86656066494498" lon="11.779162597618772"><ele>1460.0</ele><time>2026-04-16T09:22:22Z</time></trkpt><trkpt lat="45.86656943509943" lon="11.778910100315024"><ele>1457.0</ele><time>2026-04-16T09:22:23Z</time></trkpt><trkpt lat="45.86656930710046" lon="11.77860908663853"><ele>1454.0</ele><time>2026-04-16T09:22:24Z</time></trkpt><trkpt lat="45.8665671911489" lon="11.778337062264733"><ele>1452.0</ele><time>2026-04-16T09:22:25Z</time></trkpt><trkpt lat="45.86657937420695" lon="11.778130787335122"><ele>1450.0</ele><time>2026-04-16T09:22:26Z</time></trkpt><trkpt lat="45.86660797058807" lon="11.777934540676556"><ele>1448.0</ele><time>2026-04-16T09:22:27Z</time></trkpt><trkpt lat="45.866670133898936" lon="11.777714819943183"><ele>1446.0</ele><time>2026-04-16T09:22:28Z</time></trkpt><trkpt lat="45.86674209649431" lon="11.777482291770248"><ele>1443.6666666666667</ele><time>2026-04-16T09:22:29Z</time></trkpt><trkpt lat="45.866771106868576" lon="11.777229823314645"><ele>1441.3333333333335</ele><time>2026-04-16T09:22:30Z</time></trkpt><trkpt lat="45.86678998948282" lon="11.776983212567156"><ele>1439.0</ele><time>2026-04-16T09:22:31Z</time></trkpt><trkpt lat="45.866835289174496" lon="11.776733706464185"><ele>1445.0</ele><time>2026-04-16T09:22:32Z</time></trkpt><trkpt lat="45.86689957517692" lon="11.776480020698479"><ele>1451.0</ele><time>2026-04-16T09:22:33Z</time></trkpt><trkpt lat="45.866947021888706" lon="11.77624074250006"><ele>1457.0</ele><time>2026-04-16T09:22:34Z</time></trkpt><trkpt lat="45.86696934352409" lon="11.775993865367884"><ele>1457.0</ele><time>2026-04-16T09:22:35Z</time></trkpt><trkpt lat="45.86697281643102" lon="11.775706620352727"><ele>1457.0</ele><time>2026-04-16T09:22:36Z</time></trkpt><trkpt lat="45.866977391490074" lon="11.775424056587605"><ele>1457.0</ele><time>2026-04-16T09:22:37Z</time></trkpt><trkpt lat="45.866979172228866" lon="11.775205522066807"><ele>1456.5</ele><time>2026-04-16T09:22:38Z</time></trkpt><trkpt lat="45.86697881139556" lon="11.775012353965083"><ele>1456.0</ele><time>2026-04-16T09:22:39Z</time></trkpt><trkpt lat="45.866966600643195" lon="11.77484768104605"><ele>1455.5</ele><time>2026-04-16T09:22:40Z</time></trkpt><trkpt lat="45.8669239893959" lon="11.77467232402864"><ele>1455.0</ele><time>2026-04-16T09:22:41Z</time></trkpt><trkpt lat="45.86685588993193" lon="11.774489316656057"><ele>1455.8</ele><time>2026-04-16T09:22:42Z</time></trkpt><trkpt lat="45.86679761959728" lon="11.774345641927203"><ele>1456.6</ele><time>2026-04-16T09:22:43Z</time></trkpt><trkpt lat="45.86672486402335" lon="11.774213241258806"><ele>1457.4</ele><time>2026-04-16T09:22:44Z</time></trkpt><trkpt lat="45.86664894560976" lon="11.774111283909805"><ele>1458.2</ele><time>2026-04-16T09:22:45Z</time></trkpt><trkpt lat="45.866581545022086" lon="11.774033621362392"><ele>1459.0</ele><time>2026-04-16T09:22:46Z</time></trkpt><trkpt lat="45.86651571756323" lon="11.773986513518977"><ele>1453.2</ele><time>2026-04-16T09:22:47Z</time></trkpt><trkpt lat="45.86644488518218" lon="11.773957037491542"><ele>1447.4</ele><time>2026-04-16T09:22:48Z</time></trkpt><trkpt lat="45.86635827583998" lon="11.774016076559311"><ele>1441.6</ele><time>2026-04-16T09:22:49Z</time></trkpt><trkpt lat="45.86630539495729" lon="11.774149546425773"><ele>1435.8</ele><time>2026-04-16T09:22:50Z</time></trkpt><trkpt lat="45.86626084782642" lon="11.77428591156904"><ele>1430.0</ele><time>2026-04-16T09:22:51Z</time></trkpt><trkpt lat="45.86621770871425" lon="11.77444274142121"><ele>1426.0</ele><time>2026-04-16T09:22:52Z</time></trkpt><trkpt lat="45.86613502260424" lon="11.77465406209054"><ele>1422.0</ele><time>2026-04-16T09:22:53Z</time></trkpt><trkpt lat="45.86605257117977" lon="11.774835945834425"><ele>1418.0</ele><time>2026-04-16T09:22:54Z</time></trkpt><trkpt lat="45.86594403786522" lon="11.775049618327962"><ele>1413.0</ele><time>2026-04-16T09:22:55Z</time></trkpt><trkpt lat="45.86581950003996" lon="11.775252061539677"><ele>1408.0</ele><time>2026-04-16T09:22:56Z</time></trkpt><trkpt lat="45.865702839145364" lon="11.77544258694728"><ele>1403.0</ele><time>2026-04-16T09:22:57Z</time></trkpt><trkpt lat="45.86558662367932" lon="11.775642028564468"><ele>1403.0</ele><time>2026-04-16T09:22:58Z</time></trkpt><trkpt lat="45.86546861166186" lon="11.775843287102994"><ele>1403.0</ele><time>2026-04-16T09:22:59Z</time></trkpt><trkpt lat="45.865314759488186" lon="11.776068741789299"><ele>1403.0</ele><time>2026-04-16T09:23:00Z</time></trkpt><trkpt lat="45.86513804594652" lon="11.776301971875782"><ele>1401.6666666666667</ele><time>2026-04-16T09:23:01Z</time></trkpt><trkpt lat="45.86497368448674" lon="11.776516563608864"><ele>1400.3333333333333</ele><time>2026-04-16T09:23:02Z</time></trkpt><trkpt lat="45.86482498424547" lon="11.776734264205965"><ele>1399.0</ele><time>2026-04-16T09:23:03Z</time></trkpt><trkpt lat="45.864690053765095" lon="11.776943056317476"><ele>1395.3333333333333</ele><time>2026-04-16T09:23:04Z</time></trkpt><trkpt lat="45.86457805225797" lon="11.777111017899754"><ele>1391.6666666666667</ele><time>2026-04-16T09:23:05Z</time></trkpt><trkpt lat="45.86447874368176" lon="11.77726706431013"><ele>1388.0</ele><time>2026-04-16T09:23:06Z</time></trkpt><trkpt lat="45.86437474790635" lon="11.777417963236353"><ele>1388.25</ele><time>2026-04-16T09:23:07Z</time></trkpt><trkpt lat="45.864261514698285" lon="11.77754329244252"><ele>1388.5</ele><time>2026-04-16T09:23:08Z</time></trkpt><trkpt lat="45.86414368515387" lon="11.777647029975581"><ele>1388.75</ele><time>2026-04-16T09:23:08.999Z</time></trkpt><trkpt lat="45.864016645829174" lon="11.777713813846013"><ele>1389.0</ele><time>2026-04-16T09:23:09.999Z</time></trkpt><trkpt lat="45.86389348121877" lon="11.777751626849522"><ele>1389.0</ele><time>2026-04-16T09:23:10.999Z</time></trkpt><trkpt lat="45.863790974368854" lon="11.777766388509432"><ele>1389.0</ele><time>2026-04-16T09:23:11.999Z</time></trkpt><trkpt lat="45.863688990840274" lon="11.777734442025652"><ele>1389.0</ele><time>2026-04-16T09:23:12.999Z</time></trkpt><trkpt lat="45.86360455417135" lon="11.777661460295215"><ele>1389.0</ele><time>2026-04-16T09:23:13.999Z</time></trkpt><trkpt lat="45.86353298459943" lon="11.777565369786235"><ele>1389.0</ele><time>2026-04-16T09:23:14.999Z</time></trkpt><trkpt lat="45.86347321436179" lon="11.777419377669585"><ele>1386.75</ele><time>2026-04-16T09:23:15.999Z</time></trkpt><trkpt lat="45.863407610060634" lon="11.777269031474253"><ele>1384.5</ele><time>2026-04-16T09:23:16.999Z</time></trkpt><trkpt lat="45.863318506738004" lon="11.777170703553754"><ele>1382.25</ele><time>2026-04-16T09:23:17.999Z</time></trkpt><trkpt lat="45.863202718792465" lon="11.77712152061774"><ele>1380.0</ele><time>2026-04-16T09:23:18.999Z</time></trkpt><trkpt lat="45.863082716696674" lon="11.7771113168998"><ele>1380.0</ele><time>2026-04-16T09:23:19.999Z</time></trkpt><trkpt lat="45.862979159118815" lon="11.777069660958178"><ele>1380.0</ele><time>2026-04-16T09:23:20.999Z</time></trkpt><trkpt lat="45.8628846359567" lon="11.77697724366603"><ele>1380.0</ele><time>2026-04-16T09:23:21.999Z</time></trkpt><trkpt lat="45.86278700160501" lon="11.776837172694963"><ele>1380.0</ele><time>2026-04-16T09:23:22.999Z</time></trkpt><trkpt lat="45.86266368196784" lon="11.7766716216009"><ele>1376.6666666666667</ele><time>2026-04-16T09:23:23.999Z</time></trkpt><trkpt lat="45.862540086126174" lon="11.776522257858208"><ele>1373.3333333333335</ele><time>2026-04-16T09:23:24.999Z</time></trkpt><trkpt lat="45.86238297723814" lon="11.776352536036853"><ele>1370.0</ele><time>2026-04-16T09:23:25.999Z</time></trkpt><trkpt lat="45.86224290025743" lon="11.776187407833422"><ele>1370.0</ele><time>2026-04-16T09:23:26.999Z</time></trkpt><trkpt lat="45.86214116884018" lon="11.776030274647917"><ele>1370.0</ele><time>2026-04-16T09:23:27.999Z</time></trkpt><trkpt lat="45.86205690810305" lon="11.775905055101429"><ele>1370.0</ele><time>2026-04-16T09:23:28.999Z</time></trkpt><trkpt lat="45.86199280071812" lon="11.775760544354858"><ele>1370.0</ele><time>2026-04-16T09:23:29.999Z</time></trkpt><trkpt lat="45.86193671327397" lon="11.775571136136184"><ele>1366.0</ele><time>2026-04-16T09:23:30.999Z</time></trkpt><trkpt lat="45.86186072910988" lon="11.77537573817607"><ele>1362.0</ele><time>2026-04-16T09:23:31.999Z</time></trkpt><trkpt lat="45.861802230560045" lon="11.775162108319998"><ele>1358.0</ele><time>2026-04-16T09:23:32.999Z</time></trkpt><trkpt lat="45.86177342056612" lon="11.774971922186852"><ele>1358.0</ele><time>2026-04-16T09:23:33.999Z</time></trkpt><trkpt lat="45.861749069873035" lon="11.774806519859393"><ele>1358.0</ele><time>2026-04-16T09:23:34.999Z</time></trkpt><trkpt lat="45.861753582829714" lon="11.774629822933719"><ele>1358.0</ele><time>2026-04-16T09:23:35.999Z</time></trkpt><trkpt lat="45.86178521150094" lon="11.77441623774509"><ele>1358.0</ele><time>2026-04-16T09:23:36.999Z</time></trkpt><trkpt lat="45.86181880272532" lon="11.774155940261613"><ele>1356.5</ele><time>2026-04-16T09:23:37.999Z</time></trkpt><trkpt lat="45.86183042956825" lon="11.773927407813128"><ele>1355.0</ele><time>2026-04-16T09:23:38.999Z</time></trkpt><trkpt lat="45.86183019473036" lon="11.773736105764801"><ele>1353.5</ele><time>2026-04-16T09:23:39.999Z</time></trkpt><trkpt lat="45.86178513735011" lon="11.773529971699023"><ele>1352.0</ele><time>2026-04-16T09:23:40.999Z</time></trkpt><trkpt lat="45.86170862551949" lon="11.773278747482028"><ele>1352.0</ele><time>2026-04-16T09:23:41.999Z</time></trkpt><trkpt lat="45.86163353346866" lon="11.773022123199597"><ele>1352.0</ele><time>2026-04-16T09:23:42.999Z</time></trkpt><trkpt lat="45.86157466767608" lon="11.772805721145458"><ele>1352.0</ele><time>2026-04-16T09:23:43.999Z</time></trkpt><trkpt lat="45.861549561801155" lon="11.772589661373766"><ele>1351.25</ele><time>2026-04-16T09:23:44.999Z</time></trkpt><trkpt lat="45.86151254735858" lon="11.772403996594518"><ele>1350.5</ele><time>2026-04-16T09:23:46Z</time></trkpt><trkpt lat="45.861506716040864" lon="11.772254728234486"><ele>1349.75</ele><time>2026-04-16T09:23:47Z</time></trkpt><trkpt lat="45.86152592991379" lon="11.77211057994179"><ele>1349.0</ele><time>2026-04-16T09:23:48Z</time></trkpt><trkpt lat="45.86157260575276" lon="11.771943199670112"><ele>1347.25</ele><time>2026-04-16T09:23:49Z</time></trkpt><trkpt lat="45.86163394985049" lon="11.771776261996887"><ele>1345.5</ele><time>2026-04-16T09:23:50Z</time></trkpt><trkpt lat="45.86167239759493" lon="11.771629201044279"><ele>1343.75</ele><time>2026-04-16T09:23:51Z</time></trkpt><trkpt lat="45.86168458389788" lon="11.771464085044524"><ele>1342.0</ele><time>2026-04-16T09:23:52Z</time></trkpt><trkpt lat="45.861670479287305" lon="11.771261990352734"><ele>1342.0</ele><time>2026-04-16T09:23:53Z</time></trkpt><trkpt lat="45.86167970341321" lon="11.771075721900676"><ele>1342.0</ele><time>2026-04-16T09:23:54Z</time></trkpt><trkpt lat="45.861725782603344" lon="11.770900060366035"><ele>1342.0</ele><time>2026-04-16T09:23:55Z</time></trkpt><trkpt lat="45.86178462502558" lon="11.770710339318962"><ele>1342.0</ele><time>2026-04-16T09:23:56Z</time></trkpt><trkpt lat="45.861841705024965" lon="11.770529172640176"><ele>1344.3999999999999</ele><time>2026-04-16T09:23:57Z</time></trkpt><trkpt lat="45.86191241961886" lon="11.770368555608197"><ele>1346.8</ele><time>2026-04-16T09:23:58Z</time></trkpt><trkpt lat="45.86198797354591" lon="11.770266628732726"><ele>1349.2</ele><time>2026-04-16T09:23:59Z</time></trkpt><trkpt lat="45.86204770012969" lon="11.770175169909034"><ele>1351.6</ele><time>2026-04-16T09:24:00Z</time></trkpt><trkpt lat="45.862078646997304" lon="11.770061627895036"><ele>1354.0</ele><time>2026-04-16T09:24:01Z</time></trkpt><trkpt lat="45.86209252227471" lon="11.769907447884634"><ele>1354.0</ele><time>2026-04-16T09:24:02Z</time></trkpt><trkpt lat="45.86204024105552" lon="11.769721735430883"><ele>1354.0</ele><time>2026-04-16T09:24:03Z</time></trkpt><trkpt lat="45.861996537487194" lon="11.769531424069823"><ele>1354.0</ele><time>2026-04-16T09:24:04Z</time></trkpt><trkpt lat="45.86195572274274" lon="11.769376945879877"><ele>1354.0</ele><time>2026-04-16T09:24:05Z</time></trkpt><trkpt lat="45.86194516742541" lon="11.76924350129995"><ele>1351.6</ele><time>2026-04-16T09:24:06Z</time></trkpt><trkpt lat="45.8619639604198" lon="11.769119068610243"><ele>1349.2</ele><time>2026-04-16T09:24:07Z</time></trkpt><trkpt lat="45.862013520974536" lon="11.769013882189771"><ele>1346.8</ele><time>2026-04-16T09:24:08Z</time></trkpt><trkpt lat="45.86211079747629" lon="11.768921510122091"><ele>1344.3999999999999</ele><time>2026-04-16T09:24:09Z</time></trkpt><trkpt lat="45.86223391445223" lon="11.768820591314322"><ele>1342.0</ele><time>2026-04-16T09:24:10Z</time></trkpt><trkpt lat="45.86233449628168" lon="11.768727675737736"><ele>1342.0</ele><time>2026-04-16T09:24:11Z</time></trkpt><trkpt lat="45.862386137724044" lon="11.768633791653318"><ele>1342.0</ele><time>2026-04-16T09:24:12Z</time></trkpt><trkpt lat="45.862384538714124" lon="11.76851682841773"><ele>1342.0</ele><time>2026-04-16T09:24:13Z</time></trkpt><trkpt lat="45.862360505169974" lon="11.768392778436008"><ele>1342.0</ele><time>2026-04-16T09:24:14Z</time></trkpt><trkpt lat="45.86224769930826" lon="11.768307688473957"><ele>1342.0</ele><time>2026-04-16T09:24:15Z</time></trkpt><trkpt lat="45.86216472238442" lon="11.76816326474103"><ele>1340.0</ele><time>2026-04-16T09:24:16Z</time></trkpt><trkpt lat="45.862125745281645" lon="11.768019021600029"><ele>1338.0</ele><time>2026-04-16T09:24:17Z</time></trkpt><trkpt lat="45.862146554502054" lon="11.767856443870249"><ele>1336.0</ele><time>2026-04-16T09:24:18Z</time></trkpt><trkpt lat="45.86217282204531" lon="11.767687363982581"><ele>1334.0</ele><time>2026-04-16T09:24:19Z</time></trkpt><trkpt lat="45.86217739558404" lon="11.767558546899519"><ele>1332.0</ele><time>2026-04-16T09:24:20Z</time></trkpt><trkpt lat="45.86214744664183" lon="11.767460123918735"><ele>1332.0</ele><time>2026-04-16T09:24:21Z</time></trkpt><trkpt lat="45.86206561828791" lon="11.767393055664051"><ele>1332.0</ele><time>2026-04-16T09:24:22Z</time></trkpt><trkpt lat="45.861947599040626" lon="11.767356479423364"><ele>1332.0</ele><time>2026-04-16T09:24:23Z</time></trkpt><trkpt lat="45.8617931505582" lon="11.76732435628141"><ele>1332.0</ele><time>2026-04-16T09:24:24Z</time></trkpt><trkpt lat="45.86162755501453" lon="11.767272980143034"><ele>1327.8</ele><time>2026-04-16T09:24:25Z</time></trkpt><trkpt lat="45.861502128110054" lon="11.767161946100629"><ele>1323.6</ele><time>2026-04-16T09:24:26Z</time></trkpt><trkpt lat="45.86141865963993" lon="11.767076025514895"><ele>1319.3999999999999</ele><time>2026-04-16T09:24:27Z</time></trkpt><trkpt lat="45.861366177060965" lon="11.766994778494073"><ele>1315.1999999999998</ele><time>2026-04-16T09:24:28Z</time></trkpt><trkpt lat="45.861326177913334" lon="11.766896329597028"><ele>1311.0</ele><time>2026-04-16T09:24:29Z</time></trkpt><trkpt lat="45.861343477616536" lon="11.766750011639893"><ele>1311.0</ele><time>2026-04-16T09:24:30Z</time></trkpt><trkpt lat="45.86135430995354" lon="11.766592764727442"><ele>1311.0</ele><time>2026-04-16T09:24:31Z</time></trkpt><trkpt lat="45.861414447274264" lon="11.766426283085233"><ele>1311.0</ele><time>2026-04-16T09:24:32Z</time></trkpt><trkpt lat="45.86151570475807" lon="11.766263357504895"><ele>1311.0</ele><time>2026-04-16T09:24:33Z</time></trkpt><trkpt lat="45.861600405758935" lon="11.766056834569733"><ele>1311.6666666666667</ele><time>2026-04-16T09:24:34Z</time></trkpt><trkpt lat="45.86167948056977" lon="11.765816517840422"><ele>1312.3333333333335</ele><time>2026-04-16T09:24:35Z</time></trkpt><trkpt lat="45.86172817052473" lon="11.76560938058102"><ele>1313.0</ele><time>2026-04-16T09:24:36Z</time></trkpt><trkpt lat="45.861789683925025" lon="11.765438222192493"><ele>1313.0</ele><time>2026-04-16T09:24:37Z</time></trkpt><trkpt lat="45.86188762613796" lon="11.765315923494882"><ele>1313.0</ele><time>2026-04-16T09:24:38Z</time></trkpt><trkpt lat="45.86200733758073" lon="11.76518895549012"><ele>1313.0</ele><time>2026-04-16T09:24:39Z</time></trkpt><trkpt lat="45.86214880829149" lon="11.765020706843769"><ele>1306.6666666666667</ele><time>2026-04-16T09:24:40Z</time></trkpt><trkpt lat="45.862311623392316" lon="11.764868052886301"><ele>1300.3333333333333</ele><time>2026-04-16T09:24:41Z</time></trkpt><trkpt lat="45.86243890556713" lon="11.764710105042598"><ele>1294.0</ele><time>2026-04-16T09:24:42Z</time></trkpt><trkpt lat="45.86254336948679" lon="11.7645936433579"><ele>1293.8000000000002</ele><time>2026-04-16T09:24:43Z</time></trkpt><trkpt lat="45.862635330979195" lon="11.764522937545571"><ele>1293.6000000000001</ele><time>2026-04-16T09:24:44Z</time></trkpt><trkpt lat="45.862725142227006" lon="11.76448232095424"><ele>1293.4</ele><time>2026-04-16T09:24:45Z</time></trkpt><trkpt lat="45.862813876873666" lon="11.764497353220824"><ele>1293.2</ele><time>2026-04-16T09:24:46Z</time></trkpt><trkpt lat="45.86288362309637" lon="11.764559839473389"><ele>1293.0</ele><time>2026-04-16T09:24:47Z</time></trkpt><trkpt lat="45.86291625602165" lon="11.764667688477536"><ele>1293.0</ele><time>2026-04-16T09:24:48Z</time></trkpt><trkpt lat="45.862971318600735" lon="11.764754444522701"><ele>1293.0</ele><time>2026-04-16T09:24:49Z</time></trkpt><trkpt lat="45.86301476498593" lon="11.764883799214296"><ele>1293.0</ele><time>2026-04-16T09:24:50Z</time></trkpt><trkpt lat="45.8630803294514" lon="11.764963066195525"><ele>1293.0</ele><time>2026-04-16T09:24:51Z</time></trkpt><trkpt lat="45.863171804486825" lon="11.76497045250479"><ele>1293.0</ele><time>2026-04-16T09:24:52Z</time></trkpt><trkpt lat="45.86326600974954" lon="11.764901164732056"><ele>1293.0</ele><time>2026-04-16T09:24:53Z</time></trkpt><trkpt lat="45.86337052077395" lon="11.764776119204821"><ele>1293.0</ele><time>2026-04-16T09:24:54Z</time></trkpt><trkpt lat="45.86349287109049" lon="11.76464894919516"><ele>1293.0</ele><time>2026-04-16T09:24:55Z</time></trkpt><trkpt lat="45.86363024442359" lon="11.76460721502109"><ele>1293.0</ele><time>2026-04-16T09:24:56Z</time></trkpt><trkpt lat="45.863768348811575" lon="11.764551596698048"><ele>1291.2</ele><time>2026-04-16T09:24:57Z</time></trkpt><trkpt lat="45.86387748606126" lon="11.764523651573233"><ele>1289.4</ele><time>2026-04-16T09:24:58Z</time></trkpt><trkpt lat="45.86397346401958" lon="11.76452547527656"><ele>1287.6000000000001</ele><time>2026-04-16T09:24:59Z</time></trkpt><trkpt lat="45.864037823506195" lon="11.76461323205086"><ele>1285.8000000000002</ele><time>2026-04-16T09:25:00Z</time></trkpt><trkpt lat="45.86412418271012" lon="11.76466081584492"><ele>1284.0</ele><time>2026-04-16T09:25:01Z</time></trkpt><trkpt lat="45.864197094910985" lon="11.764725457947673"><ele>1285.6</ele><time>2026-04-16T09:25:02Z</time></trkpt><trkpt lat="45.86430387437093" lon="11.764699467063092"><ele>1287.2</ele><time>2026-04-16T09:25:03Z</time></trkpt><trkpt lat="45.86440631668343" lon="11.764617087004778"><ele>1288.8</ele><time>2026-04-16T09:25:03.999Z</time></trkpt><trkpt lat="45.86447233330787" lon="11.764529844042588"><ele>1290.3999999999999</ele><time>2026-04-16T09:25:04.999Z</time></trkpt><trkpt lat="45.86450522674972" lon="11.764438387981404"><ele>1292.0</ele><time>2026-04-16T09:25:05.999Z</time></trkpt><trkpt lat="45.86449548862079" lon="11.764310544594696"><ele>1293.0</ele><time>2026-04-16T09:25:06.999Z</time></trkpt><trkpt lat="45.86446396144326" lon="11.764169265551168"><ele>1294.0</ele><time>2026-04-16T09:25:07.999Z</time></trkpt><trkpt lat="45.86437318678402" lon="11.764054935988229"><ele>1295.0</ele><time>2026-04-16T09:25:08.999Z</time></trkpt><trkpt lat="45.86429616990951" lon="11.763941108467515"><ele>1296.0</ele><time>2026-04-16T09:25:09.999Z</time></trkpt><trkpt lat="45.86422621982154" lon="11.763825902540455"><ele>1297.0</ele><time>2026-04-16T09:25:10.999Z</time></trkpt><trkpt lat="45.86415736351497" lon="11.763709856871595"><ele>1293.25</ele><time>2026-04-16T09:25:11.999Z</time></trkpt><trkpt lat="45.86408156056605" lon="11.76358070361964"><ele>1289.5</ele><time>2026-04-16T09:25:12.999Z</time></trkpt><trkpt lat="45.863984215092074" lon="11.763490898056384"><ele>1285.75</ele><time>2026-04-16T09:25:13.999Z</time></trkpt><trkpt lat="45.86386397290993" lon="11.763453063591054"><ele>1282.0</ele><time>2026-04-16T09:25:14.999Z</time></trkpt><trkpt lat="45.86372345032085" lon="11.763446864883607"><ele>1282.0</ele><time>2026-04-16T09:25:15.999Z</time></trkpt><trkpt lat="45.863598996348564" lon="11.763444150173074"><ele>1282.0</ele><time>2026-04-16T09:25:16.999Z</time></trkpt><trkpt lat="45.86351550256124" lon="11.76339933957355"><ele>1282.0</ele><time>2026-04-16T09:25:17.999Z</time></trkpt><trkpt lat="45.8634408593055" lon="11.763350946433667"><ele>1282.0</ele><time>2026-04-16T09:25:18.999Z</time></trkpt><trkpt lat="45.863376589293914" lon="11.76323647213176"><ele>1282.0</ele><time>2026-04-16T09:25:19.999Z</time></trkpt><trkpt lat="45.86330480562544" lon="11.763094980710989"><ele>1278.25</ele><time>2026-04-16T09:25:20.999Z</time></trkpt><trkpt lat="45.86323420038039" lon="11.762929375911982"><ele>1274.5</ele><time>2026-04-16T09:25:21.999Z</time></trkpt><trkpt lat="45.86319237252661" lon="11.762755549565316"><ele>1270.75</ele><time>2026-04-16T09:25:22.999Z</time></trkpt><trkpt lat="45.86317136933095" lon="11.762535751381082"><ele>1267.0</ele><time>2026-04-16T09:25:23.999Z</time></trkpt><trkpt lat="45.8631304392499" lon="11.762337543800308"><ele>1267.0</ele><time>2026-04-16T09:25:24.999Z</time></trkpt><trkpt lat="45.86309635610123" lon="11.762175648176429"><ele>1267.0</ele><time>2026-04-16T09:25:25.999Z</time></trkpt><trkpt lat="45.863024373675835" lon="11.762059565695793"><ele>1267.0</ele><time>2026-04-16T09:25:26.999Z</time></trkpt><trkpt lat="45.86289288165706" lon="11.761997672242458"><ele>1267.0</ele><time>2026-04-16T09:25:27.999Z</time></trkpt><trkpt lat="45.86272928174362" lon="11.761908899743831"><ele>1268.5</ele><time>2026-04-16T09:25:28.999Z</time></trkpt><trkpt lat="45.8626157597359" lon="11.761833414184816"><ele>1270.0</ele><time>2026-04-16T09:25:29.999Z</time></trkpt><trkpt lat="45.862515559984395" lon="11.761715822945975"><ele>1271.5</ele><time>2026-04-16T09:25:30.999Z</time></trkpt><trkpt lat="45.86243105977636" lon="11.761584599733808"><ele>1273.0</ele><time>2026-04-16T09:25:31.999Z</time></trkpt><trkpt lat="45.86234630413838" lon="11.761492754006433"><ele>1267.75</ele><time>2026-04-16T09:25:32.999Z</time></trkpt><trkpt lat="45.86224021703563" lon="11.761448867299594"><ele>1262.5</ele><time>2026-04-16T09:25:33.999Z</time></trkpt><trkpt lat="45.86210951175267" lon="11.761463402059439"><ele>1257.25</ele><time>2026-04-16T09:25:34.999Z</time></trkpt><trkpt lat="45.861964682583505" lon="11.761493911257809"><ele>1252.0</ele><time>2026-04-16T09:25:35.999Z</time></trkpt><trkpt lat="45.861857567042804" lon="11.76150164422611"><ele>1250.0</ele><time>2026-04-16T09:25:36.999Z</time></trkpt><trkpt lat="45.8617775069089" lon="11.761483211488663"><ele>1248.0</ele><time>2026-04-16T09:25:37.999Z</time></trkpt><trkpt lat="45.86170081993572" lon="11.761468320813504"><ele>1246.0</ele><time>2026-04-16T09:25:38.999Z</time></trkpt><trkpt lat="45.86163580833341" lon="11.76137371414324"><ele>1244.0</ele><time>2026-04-16T09:25:39.999Z</time></trkpt><trkpt lat="45.861608945838356" lon="11.761208561483038"><ele>1242.0</ele><time>2026-04-16T09:25:40.999Z</time></trkpt><trkpt lat="45.861531981304445" lon="11.761076421260722"><ele>1246.0</ele><time>2026-04-16T09:25:41.999Z</time></trkpt><trkpt lat="45.86144971003504" lon="11.760999954860365"><ele>1250.0</ele><time>2026-04-16T09:25:42.999Z</time></trkpt><trkpt lat="45.861331633705284" lon="11.760975858488228"><ele>1254.0</ele><time>2026-04-16T09:25:43.999Z</time></trkpt><trkpt lat="45.861213655015895" lon="11.76096367266038"><ele>1258.0</ele><time>2026-04-16T09:25:44.999Z</time></trkpt><trkpt lat="45.861081560813176" lon="11.760963281282933"><ele>1255.0</ele><time>2026-04-16T09:25:45.999Z</time></trkpt><trkpt lat="45.860934529508704" lon="11.76098906513626"><ele>1252.0</ele><time>2026-04-16T09:25:46.999Z</time></trkpt><trkpt lat="45.860796313854785" lon="11.761023717282034"><ele>1249.0</ele><time>2026-04-16T09:25:47.999Z</time></trkpt><trkpt lat="45.86069640607688" lon="11.761015471330827"><ele>1246.0</ele><time>2026-04-16T09:25:48.999Z</time></trkpt><trkpt lat="45.86060714957637" lon="11.760994703546215"><ele>1246.0</ele><time>2026-04-16T09:25:49.999Z</time></trkpt><trkpt lat="45.86053244368267" lon="11.76092185754867"><ele>1246.0</ele><time>2026-04-16T09:25:50.999Z</time></trkpt><trkpt lat="45.86045245858229" lon="11.760819723398122"><ele>1246.0</ele><time>2026-04-16T09:25:52Z</time></trkpt><trkpt lat="45.86034752703816" lon="11.760682058651202"><ele>1246.0</ele><time>2026-04-16T09:25:53Z</time></trkpt><trkpt lat="45.860234707600554" lon="11.760563979434156"><ele>1246.0</ele><time>2026-04-16T09:25:54Z</time></trkpt><trkpt lat="45.860161366880334" lon="11.760431726952003"><ele>1246.0</ele><time>2026-04-16T09:25:55Z</time></trkpt><trkpt lat="45.86009950428255" lon="11.760287135538787"><ele>1246.0</ele><time>2026-04-16T09:25:56Z</time></trkpt><trkpt lat="45.86002841930554" lon="11.760068545764124"><ele>1246.0</ele><time>2026-04-16T09:25:57Z</time></trkpt><trkpt lat="45.85994976172191" lon="11.75981127012641"><ele>1245.0</ele><time>2026-04-16T09:25:58Z</time></trkpt><trkpt lat="45.85981528477464" lon="11.759584630889766"><ele>1244.0</ele><time>2026-04-16T09:25:59Z</time></trkpt><trkpt lat="45.859699665057896" lon="11.759277007933086"><ele>1244.0</ele><time>2026-04-16T09:26:00Z</time></trkpt><trkpt lat="45.85956529344334" lon="11.758993829280955"><ele>1244.0</ele><time>2026-04-16T09:26:01Z</time></trkpt><trkpt lat="45.85942691398462" lon="11.758775043246857"><ele>1244.0</ele><time>2026-04-16T09:26:02Z</time></trkpt><trkpt lat="45.85929964881035" lon="11.758559370722683"><ele>1238.25</ele><time>2026-04-16T09:26:03Z</time></trkpt><trkpt lat="45.85918419462927" lon="11.758352872684748"><ele>1232.5</ele><time>2026-04-16T09:26:04Z</time></trkpt><trkpt lat="45.85910925130259" lon="11.758181020938018"><ele>1226.75</ele><time>2026-04-16T09:26:05Z</time></trkpt><trkpt lat="45.85906593402233" lon="11.75807138309062"><ele>1221.0</ele><time>2026-04-16T09:26:06Z</time></trkpt><trkpt lat="45.8590284531733" lon="11.757958790496872"><ele>1221.0</ele><time>2026-04-16T09:26:07Z</time></trkpt><trkpt lat="45.85901280960784" lon="11.75781730383707"><ele>1221.0</ele><time>2026-04-16T09:26:08Z</time></trkpt><trkpt lat="45.8590359120564" lon="11.757634808215451"><ele>1221.0</ele><time>2026-04-16T09:26:09Z</time></trkpt><trkpt lat="45.85902230475116" lon="11.757423802953088"><ele>1221.0</ele><time>2026-04-16T09:26:10Z</time></trkpt><trkpt lat="45.858972959749906" lon="11.75720577133257"><ele>1221.5</ele><time>2026-04-16T09:26:11Z</time></trkpt><trkpt lat="45.85893812860315" lon="11.756990024244718"><ele>1222.0</ele><time>2026-04-16T09:26:12Z</time></trkpt><trkpt lat="45.858906203751225" lon="11.756785106867571"><ele>1222.5</ele><time>2026-04-16T09:26:13Z</time></trkpt><trkpt lat="45.858884054902646" lon="11.756581965772993"><ele>1223.0</ele><time>2026-04-16T09:26:14Z</time></trkpt><trkpt lat="45.858876413447284" lon="11.756351874722192"><ele>1224.6666666666667</ele><time>2026-04-16T09:26:15Z</time></trkpt><trkpt lat="45.858875438263894" lon="11.756109777038581"><ele>1226.3333333333333</ele><time>2026-04-16T09:26:16Z</time></trkpt><trkpt lat="45.85886642637256" lon="11.755886017404256"><ele>1228.0</ele><time>2026-04-16T09:26:17Z</time></trkpt><trkpt lat="45.85883137157102" lon="11.755664332677952"><ele>1229.3333333333333</ele><time>2026-04-16T09:26:18Z</time></trkpt><trkpt lat="45.85877525460125" lon="11.755377799254253"><ele>1230.6666666666667</ele><time>2026-04-16T09:26:19Z</time></trkpt><trkpt lat="45.858713076789684" lon="11.75511062758373"><ele>1232.0</ele><time>2026-04-16T09:26:20Z</time></trkpt><trkpt lat="45.85866679083073" lon="11.754827437382202"><ele>1231.6666666666667</ele><time>2026-04-16T09:26:21Z</time></trkpt><trkpt lat="45.85863228802247" lon="11.754495681138552"><ele>1231.3333333333333</ele><time>2026-04-16T09:26:22Z</time></trkpt><trkpt lat="45.858581907735015" lon="11.754200991692919"><ele>1231.0</ele><time>2026-04-16T09:26:23Z</time></trkpt><trkpt lat="45.858529762658826" lon="11.753873380069239"><ele>1231.0</ele><time>2026-04-16T09:26:24Z</time></trkpt><trkpt lat="45.858485682304206" lon="11.753580597812496"><ele>1231.0</ele><time>2026-04-16T09:26:25Z</time></trkpt><trkpt lat="45.85846094788939" lon="11.753345281762813"><ele>1231.0</ele><time>2026-04-16T09:26:26Z</time></trkpt><trkpt lat="45.85842268164644" lon="11.753175681989068"><ele>1216.3333333333333</ele><time>2026-04-16T09:26:27Z</time></trkpt><trkpt lat="45.85839158163242" lon="11.752960927859531"><ele>1201.6666666666667</ele><time>2026-04-16T09:26:28Z</time></trkpt><trkpt lat="45.85838532277547" lon="11.75273442928975"><ele>1187.0</ele><time>2026-04-16T09:26:29Z</time></trkpt><trkpt lat="45.85838966992256" lon="11.752480037286558"><ele>1185.75</ele><time>2026-04-16T09:26:30Z</time></trkpt><trkpt lat="45.85839323759092" lon="11.752250439021429"><ele>1184.5</ele><time>2026-04-16T09:26:31Z</time></trkpt><trkpt lat="45.858409942059026" lon="11.75204867851217"><ele>1183.25</ele><time>2026-04-16T09:26:32Z</time></trkpt><trkpt lat="45.85845688819155" lon="11.751857360583397"><ele>1182.0</ele><time>2026-04-16T09:26:33Z</time></trkpt><trkpt lat="45.858523296346945" lon="11.751651584920976"><ele>1186.75</ele><time>2026-04-16T09:26:34Z</time></trkpt><trkpt lat="45.8585892685793" lon="11.751450875496069"><ele>1191.5</ele><time>2026-04-16T09:26:35Z</time></trkpt><trkpt lat="45.858641085102924" lon="11.75129011109481"><ele>1196.25</ele><time>2026-04-16T09:26:36Z</time></trkpt><trkpt lat="45.85867015206013" lon="11.75113478606148"><ele>1201.0</ele><time>2026-04-16T09:26:37Z</time></trkpt><trkpt lat="45.85866284535672" lon="11.750955479509603"><ele>1201.0</ele><time>2026-04-16T09:26:38Z</time></trkpt><trkpt lat="45.85863855693536" lon="11.750739231109094"><ele>1201.0</ele><time>2026-04-16T09:26:39Z</time></trkpt><trkpt lat="45.8586268973551" lon="11.750506903868443"><ele>1201.0</ele><time>2026-04-16T09:26:40Z</time></trkpt><trkpt lat="45.85863453579104" lon="11.750295324955289"><ele>1199.75</ele><time>2026-04-16T09:26:41Z</time></trkpt><trkpt lat="45.85866012240282" lon="11.750094041608094"><ele>1198.5</ele><time>2026-04-16T09:26:42Z</time></trkpt><trkpt lat="45.858688504133276" lon="11.74991613166991"><ele>1197.25</ele><time>2026-04-16T09:26:43Z</time></trkpt><trkpt lat="45.858702461228376" lon="11.749765910949632"><ele>1196.0</ele><time>2026-04-16T09:26:44Z</time></trkpt><trkpt lat="45.85868865054699" lon="11.74961684632096"><ele>1196.0</ele><time>2026-04-16T09:26:45Z</time></trkpt><trkpt lat="45.85864991949703" lon="11.749483569631158"><ele>1196.0</ele><time>2026-04-16T09:26:46Z</time></trkpt><trkpt lat="45.85859895631267" lon="11.749374980604639"><ele>1196.0</ele><time>2026-04-16T09:26:47Z</time></trkpt><trkpt lat="45.85854662954623" lon="11.74923207492675"><ele>1196.0</ele><time>2026-04-16T09:26:48Z</time></trkpt><trkpt lat="45.85848248851847" lon="11.749096510687806"><ele>1196.0</ele><time>2026-04-16T09:26:49Z</time></trkpt><trkpt lat="45.85844490657371" lon="11.7489395471917"><ele>1185.0</ele><time>2026-04-16T09:26:50Z</time></trkpt><trkpt lat="45.858421079403364" lon="11.74874678977291"><ele>1174.0</ele><time>2026-04-16T09:26:51Z</time></trkpt><trkpt lat="45.858396501804336" lon="11.74852649935719"><ele>1163.0</ele><time>2026-04-16T09:26:52Z</time></trkpt><trkpt lat="45.85837514034788" lon="11.748296398296352"><ele>1162.0</ele><time>2026-04-16T09:26:53Z</time></trkpt><trkpt lat="45.858370299479105" lon="11.748092393331232"><ele>1161.0</ele><time>2026-04-16T09:26:54Z</time></trkpt><trkpt lat="45.858383688001815" lon="11.747890161054993"><ele>1160.0</ele><time>2026-04-16T09:26:55Z</time></trkpt><trkpt lat="45.85841448950675" lon="11.747640378300718"><ele>1157.6666666666667</ele><time>2026-04-16T09:26:56Z</time></trkpt><trkpt lat="45.858438148785666" lon="11.747363137178116"><ele>1155.3333333333333</ele><time>2026-04-16T09:26:57Z</time></trkpt><trkpt lat="45.85845089812614" lon="11.7470937433603"><ele>1153.0</ele><time>2026-04-16T09:26:58Z</time></trkpt><trkpt lat="45.858477812449394" lon="11.746787044300929"><ele>1157.6666666666665</ele><time>2026-04-16T09:26:59Z</time></trkpt><trkpt lat="45.85851226044308" lon="11.746505175663332"><ele>1162.3333333333333</ele><time>2026-04-16T09:27:00Z</time></trkpt><trkpt lat="45.858516680735136" lon="11.746223339993511"><ele>1167.0</ele><time>2026-04-16T09:27:01Z</time></trkpt><trkpt lat="45.85850971254076" lon="11.745951329904544"><ele>1167.0</ele><time>2026-04-16T09:27:02Z</time></trkpt><trkpt lat="45.85851751201906" lon="11.745691924020655"><ele>1167.0</ele><time>2026-04-16T09:27:02.999Z</time></trkpt><trkpt lat="45.858544908880496" lon="11.745419177695734"><ele>1167.0</ele><time>2026-04-16T09:27:03.999Z</time></trkpt><trkpt lat="45.85857567275956" lon="11.745167000008927"><ele>1163.6</ele><time>2026-04-16T09:27:04.999Z</time></trkpt><trkpt lat="45.85858695499456" lon="11.744973526225099"><ele>1160.2</ele><time>2026-04-16T09:27:05.999Z</time></trkpt><trkpt lat="45.85859666864156" lon="11.74484436051993"><ele>1156.8</ele><time>2026-04-16T09:27:06.999Z</time></trkpt><trkpt lat="45.858618553978005" lon="11.744735541729208"><ele>1153.4</ele><time>2026-04-16T09:27:07.999Z</time></trkpt><trkpt lat="45.8586663978916" lon="11.744634995259148"><ele>1150.0</ele><time>2026-04-16T09:27:08.999Z</time></trkpt><trkpt lat="45.858738467727726" lon="11.7445709082595"><ele>1150.0</ele><time>2026-04-16T09:27:09.999Z</time></trkpt><trkpt lat="45.85881942551952" lon="11.744539023181733"><ele>1150.0</ele><time>2026-04-16T09:27:10.999Z</time></trkpt><trkpt lat="45.85891699373399" lon="11.744525447372384"><ele>1150.0</ele><time>2026-04-16T09:27:11.999Z</time></trkpt><trkpt lat="45.859053059078306" lon="11.74450693876894"><ele>1150.0</ele><time>2026-04-16T09:27:12.999Z</time></trkpt><trkpt lat="45.859196910458046" lon="11.74447657633083"><ele>1148.0</ele><time>2026-04-16T09:27:13.999Z</time></trkpt><trkpt lat="45.85934279384798" lon="11.744428264335712"><ele>1146.0</ele><time>2026-04-16T09:27:14.999Z</time></trkpt><trkpt lat="45.85951315318646" lon="11.74434812938451"><ele>1144.0</ele><time>2026-04-16T09:27:15.999Z</time></trkpt><trkpt lat="45.8596709106959" lon="11.744270827583849"><ele>1141.6000000000001</ele><time>2026-04-16T09:27:16.999Z</time></trkpt><trkpt lat="45.85979297443125" lon="11.744227446230989"><ele>1139.2</ele><time>2026-04-16T09:27:17.999Z</time></trkpt><trkpt lat="45.85989187123736" lon="11.744202247506092"><ele>1136.8000000000002</ele><time>2026-04-16T09:27:18.999Z</time></trkpt><trkpt lat="45.85998383219494" lon="11.744219259200882"><ele>1134.4</ele><time>2026-04-16T09:27:19.999Z</time></trkpt><trkpt lat="45.86006465964032" lon="11.744279915476822"><ele>1132.0</ele><time>2026-04-16T09:27:20.999Z</time></trkpt><trkpt lat="45.86012708261998" lon="11.744360566455612"><ele>1134.5</ele><time>2026-04-16T09:27:21.999Z</time></trkpt><trkpt lat="45.860178612202866" lon="11.744443849383464"><ele>1137.0</ele><time>2026-04-16T09:27:22.999Z</time></trkpt><trkpt lat="45.86022917913205" lon="11.744519154751307"><ele>1139.5</ele><time>2026-04-16T09:27:23.999Z</time></trkpt><trkpt lat="45.86034634659754" lon="11.744548654666872"><ele>1142.0</ele><time>2026-04-16T09:27:25.999Z</time></trkpt><trkpt lat="45.86039934937804" lon="11.744494504795668"><ele>1144.5</ele><time>2026-04-16T09:27:26.999Z</time></trkpt><trkpt lat="45.86042541404091" lon="11.744406965966913"><ele>1147.0</ele><time>2026-04-16T09:27:27.999Z</time></trkpt><trkpt lat="45.86042648423824" lon="11.74430590782777"><ele>1148.8</ele><time>2026-04-16T09:27:28.999Z</time></trkpt><trkpt lat="45.86040265159663" lon="11.744191719505611"><ele>1150.6</ele><time>2026-04-16T09:27:29.999Z</time></trkpt><trkpt lat="45.86036970274899" lon="11.744063328655237"><ele>1152.3999999999999</ele><time>2026-04-16T09:27:30.999Z</time></trkpt><trkpt lat="45.86034306048938" lon="11.743924522953558"><ele>1154.2</ele><time>2026-04-16T09:27:31.999Z</time></trkpt><trkpt lat="45.860305068202294" lon="11.74377903567723"><ele>1156.0</ele><time>2026-04-16T09:27:32.999Z</time></trkpt><trkpt lat="45.860267596622414" lon="11.743641622331335"><ele>1157.25</ele><time>2026-04-16T09:27:33.999Z</time></trkpt><trkpt lat="45.86020943624015" lon="11.743446163227667"><ele>1158.5</ele><time>2026-04-16T09:27:34.999Z</time></trkpt><trkpt lat="45.86015531239663" lon="11.743254173659018"><ele>1159.75</ele><time>2026-04-16T09:27:35.999Z</time></trkpt><trkpt lat="45.86010285699286" lon="11.74308152024566"><ele>1161.0</ele><time>2026-04-16T09:27:36.999Z</time></trkpt><trkpt lat="45.86003936293476" lon="11.742911098311874"><ele>1151.0</ele><time>2026-04-16T09:27:37.999Z</time></trkpt><trkpt lat="45.85995060271863" lon="11.74274721928303"><ele>1141.0</ele><time>2026-04-16T09:27:38.999Z</time></trkpt><trkpt lat="45.85982565551202" lon="11.74260067822785"><ele>1131.0</ele><time>2026-04-16T09:27:39.999Z</time></trkpt><trkpt lat="45.85970019294474" lon="11.742465418127436"><ele>1131.0</ele><time>2026-04-16T09:27:40.999Z</time></trkpt><trkpt lat="45.85959221693143" lon="11.742341330863491"><ele>1131.0</ele><time>2026-04-16T09:27:41.999Z</time></trkpt><trkpt lat="45.859504556834054" lon="11.74220729262204"><ele>1131.0</ele><time>2026-04-16T09:27:42.999Z</time></trkpt><trkpt lat="45.85943480205824" lon="11.7420598896377"><ele>1131.0</ele><time>2026-04-16T09:27:43.999Z</time></trkpt><trkpt lat="45.85937624534587" lon="11.74188935850424"><ele>1131.2</ele><time>2026-04-16T09:27:44.999Z</time></trkpt><trkpt lat="45.85933105878698" lon="11.741735495194662"><ele>1131.3999999999999</ele><time>2026-04-16T09:27:45.999Z</time></trkpt><trkpt lat="45.859278739902884" lon="11.741577902647721"><ele>1131.6</ele><time>2026-04-16T09:27:46.999Z</time></trkpt><trkpt lat="45.8592027200167" lon="11.741477596244408"><ele>1131.8</ele><time>2026-04-16T09:27:47.999Z</time></trkpt><trkpt lat="45.85914494362607" lon="11.741389831055631"><ele>1132.0</ele><time>2026-04-16T09:27:48.999Z</time></trkpt><trkpt lat="45.859118614909505" lon="11.741280938424552"><ele>1128.4</ele><time>2026-04-16T09:27:49.999Z</time></trkpt><trkpt lat="45.85910996310801" lon="11.741154357622143"><ele>1124.8000000000002</ele><time>2026-04-16T09:27:50.999Z</time></trkpt><trkpt lat="45.859124884419096" lon="11.7410202933331"><ele>1121.2</ele><time>2026-04-16T09:27:51.999Z</time></trkpt><trkpt lat="45.859122476719875" lon="11.740881204729694"><ele>1117.6000000000001</ele><time>2026-04-16T09:27:52.999Z</time></trkpt><trkpt lat="45.859088938410885" lon="11.740743754224304"><ele>1114.0</ele><time>2026-04-16T09:27:53.999Z</time></trkpt><trkpt lat="45.85899088416217" lon="11.740653128110699"><ele>1114.0</ele><time>2026-04-16T09:27:54.999Z</time></trkpt><trkpt lat="45.85888246760747" lon="11.740561539041892"><ele>1114.0</ele><time>2026-04-16T09:27:55.999Z</time></trkpt><trkpt lat="45.858760045331344" lon="11.740475549762268"><ele>1114.0</ele><time>2026-04-16T09:27:56.999Z</time></trkpt><trkpt lat="45.858672999546314" lon="11.740385885215263"><ele>1114.0</ele><time>2026-04-16T09:27:58Z</time></trkpt><trkpt lat="45.858592972069" lon="11.740263771283342"><ele>1116.75</ele><time>2026-04-16T09:27:59Z</time></trkpt><trkpt lat="45.858503431292945" lon="11.740093122592741"><ele>1119.5</ele><time>2026-04-16T09:28:00Z</time></trkpt><trkpt lat="45.858428804266026" lon="11.739924208101055"><ele>1122.25</ele><time>2026-04-16T09:28:01Z</time></trkpt><trkpt lat="45.85835191920516" lon="11.739757667425494"><ele>1125.0</ele><time>2026-04-16T09:28:02Z</time></trkpt><trkpt lat="45.85828660665735" lon="11.739611849714159"><ele>1120.0</ele><time>2026-04-16T09:28:03Z</time></trkpt><trkpt lat="45.8582474497574" lon="11.739475658510521"><ele>1115.0</ele><time>2026-04-16T09:28:04Z</time></trkpt><trkpt lat="45.8582305057886" lon="11.73931241984561"><ele>1110.0</ele><time>2026-04-16T09:28:05Z</time></trkpt><trkpt lat="45.858214384158785" lon="11.739133429698404"><ele>1105.0</ele><time>2026-04-16T09:28:06Z</time></trkpt><trkpt lat="45.85817573089478" lon="11.738958120839648"><ele>1105.0</ele><time>2026-04-16T09:28:07Z</time></trkpt><trkpt lat="45.85811758379355" lon="11.738785713481683"><ele>1105.0</ele><time>2026-04-16T09:28:08Z</time></trkpt><trkpt lat="45.8580722775969" lon="11.738648661830089"><ele>1105.0</ele><time>2026-04-16T09:28:09Z</time></trkpt><trkpt lat="45.85805364136402" lon="11.738548779999809"><ele>1105.0</ele><time>2026-04-16T09:28:10Z</time></trkpt><trkpt lat="45.858045770587445" lon="11.738421995703536"><ele>1105.0</ele><time>2026-04-16T09:28:11Z</time></trkpt><trkpt lat="45.858076859736215" lon="11.738290161865223"><ele>1104.75</ele><time>2026-04-16T09:28:12Z</time></trkpt><trkpt lat="45.85809088281553" lon="11.7381206972977"><ele>1104.5</ele><time>2026-04-16T09:28:13Z</time></trkpt><trkpt lat="45.85812606988484" lon="11.737942737116738"><ele>1104.25</ele><time>2026-04-16T09:28:14Z</time></trkpt><trkpt lat="45.858137305798664" lon="11.737780496266037"><ele>1104.0</ele><time>2026-04-16T09:28:15Z</time></trkpt><trkpt lat="45.858158041040184" lon="11.737632246954258"><ele>1101.75</ele><time>2026-04-16T09:28:16Z</time></trkpt><trkpt lat="45.85819864680028" lon="11.737514527571074"><ele>1099.5</ele><time>2026-04-16T09:28:17Z</time></trkpt><trkpt lat="45.858282016984084" lon="11.73742102930003"><ele>1097.25</ele><time>2026-04-16T09:28:18Z</time></trkpt><trkpt lat="45.8583889530802" lon="11.737315110239138"><ele>1095.0</ele><time>2026-04-16T09:28:19Z</time></trkpt><trkpt lat="45.85849354661701" lon="11.737192195280068"><ele>1099.0</ele><time>2026-04-16T09:28:20Z</time></trkpt><trkpt lat="45.858553523750444" lon="11.737049531875149"><ele>1103.0</ele><time>2026-04-16T09:28:21Z</time></trkpt><trkpt lat="45.858569927748874" lon="11.73689431228684"><ele>1107.0</ele><time>2026-04-16T09:28:22Z</time></trkpt><trkpt lat="45.858563577566535" lon="11.73674557328529"><ele>1111.0</ele><time>2026-04-16T09:28:23Z</time></trkpt><trkpt lat="45.85854617555043" lon="11.736567723827605"><ele>1111.0</ele><time>2026-04-16T09:28:24Z</time></trkpt><trkpt lat="45.858521557514024" lon="11.736375804480971"><ele>1111.0</ele><time>2026-04-16T09:28:25Z</time></trkpt><trkpt lat="45.85848552743512" lon="11.736187748098684"><ele>1111.0</ele><time>2026-04-16T09:28:26Z</time></trkpt><trkpt lat="45.858465055008594" lon="11.73603830656115"><ele>1111.0</ele><time>2026-04-16T09:28:27Z</time></trkpt><trkpt lat="45.85846104157017" lon="11.735900991535239"><ele>1110.5</ele><time>2026-04-16T09:28:28Z</time></trkpt><trkpt lat="45.85847049103515" lon="11.735765300835649"><ele>1110.0</ele><time>2026-04-16T09:28:29Z</time></trkpt><trkpt lat="45.85851683895868" lon="11.735580574598483"><ele>1109.5</ele><time>2026-04-16T09:28:30Z</time></trkpt><trkpt lat="45.858569133513086" lon="11.735364742648912"><ele>1109.0</ele><time>2026-04-16T09:28:31Z</time></trkpt><trkpt lat="45.85861536621316" lon="11.735164774574416"><ele>1106.6666666666667</ele><time>2026-04-16T09:28:32Z</time></trkpt><trkpt lat="45.858668421200285" lon="11.734963141995932"><ele>1104.3333333333333</ele><time>2026-04-16T09:28:33Z</time></trkpt><trkpt lat="45.858729982444935" lon="11.734758997813481"><ele>1102.0</ele><time>2026-04-16T09:28:34Z</time></trkpt><trkpt lat="45.858781258168264" lon="11.73453679090459"><ele>1098.5</ele><time>2026-04-16T09:28:35Z</time></trkpt><trkpt lat="45.85884213665652" lon="11.734331537517999"><ele>1095.0</ele><time>2026-04-16T09:28:36Z</time></trkpt><trkpt lat="45.858879142409094" lon="11.734126204647092"><ele>1091.5</ele><time>2026-04-16T09:28:37Z</time></trkpt><trkpt lat="45.858901086857536" lon="11.733922236016484"><ele>1088.0</ele><time>2026-04-16T09:28:38Z</time></trkpt><trkpt lat="45.8589275108731" lon="11.733769050057532"><ele>1088.0</ele><time>2026-04-16T09:28:39Z</time></trkpt><trkpt lat="45.85895052948408" lon="11.733637951169774"><ele>1088.0</ele><time>2026-04-16T09:28:40Z</time></trkpt><trkpt lat="45.8590000873402" lon="11.733535411356492"><ele>1088.0</ele><time>2026-04-16T09:28:41Z</time></trkpt><trkpt lat="45.859075521568336" lon="11.733441323778184"><ele>1088.0</ele><time>2026-04-16T09:28:42Z</time></trkpt><trkpt lat="45.859154919886834" lon="11.733349410449271"><ele>1088.0</ele><time>2026-04-16T09:28:43Z</time></trkpt><trkpt lat="45.85920813540409" lon="11.733256855251447"><ele>1085.8</ele><time>2026-04-16T09:28:44Z</time></trkpt><trkpt lat="45.85921568129419" lon="11.733131914724156"><ele>1083.6</ele><time>2026-04-16T09:28:45Z</time></trkpt><trkpt lat="45.85918594400007" lon="11.733007757432627"><ele>1081.4</ele><time>2026-04-16T09:28:46Z</time></trkpt><trkpt lat="45.85912671340233" lon="11.73289882371721"><ele>1079.2</ele><time>2026-04-16T09:28:47Z</time></trkpt><trkpt lat="45.859027811306106" lon="11.73276588038656"><ele>1077.0</ele><time>2026-04-16T09:28:48Z</time></trkpt><trkpt lat="45.858927887588074" lon="11.732577683349803"><ele>1076.8</ele><time>2026-04-16T09:28:49Z</time></trkpt><trkpt lat="45.858834311020594" lon="11.732455847915524"><ele>1076.6</ele><time>2026-04-16T09:28:50Z</time></trkpt><trkpt lat="45.858761554284655" lon="11.732355702191658"><ele>1076.3999999999999</ele><time>2026-04-16T09:28:51Z</time></trkpt><trkpt lat="45.85870259118314" lon="11.732280081184289"><ele>1076.2</ele><time>2026-04-16T09:28:52Z</time></trkpt><trkpt lat="45.858622032374086" lon="11.732280185447454"><ele>1076.0</ele><time>2026-04-16T09:28:53Z</time></trkpt><trkpt lat="45.8585591035513" lon="11.73227740891713"><ele>1074.0</ele><time>2026-04-16T09:28:54Z</time></trkpt><trkpt lat="45.85844601696424" lon="11.732320905604412"><ele>1072.0</ele><time>2026-04-16T09:28:56Z</time></trkpt><trkpt lat="45.858373465966274" lon="11.732473781060378"><ele>1070.0</ele><time>2026-04-16T09:28:58Z</time></trkpt><trkpt lat="45.858366072550716" lon="11.732579862441828"><ele>1068.0</ele><time>2026-04-16T09:28:59Z</time></trkpt><trkpt lat="45.85837129717625" lon="11.732709540066237"><ele>1066.0</ele><time>2026-04-16T09:29:00Z</time></trkpt><trkpt lat="45.85837239947359" lon="11.732850599858107"><ele>1064.8</ele><time>2026-04-16T09:29:01Z</time></trkpt><trkpt lat="45.858367338980685" lon="11.732966739343926"><ele>1063.6</ele><time>2026-04-16T09:29:01.999Z</time></trkpt><trkpt lat="45.858337367916484" lon="11.733060253675703"><ele>1062.4</ele><time>2026-04-16T09:29:02.999Z</time></trkpt><trkpt lat="45.85826953117074" lon="11.733143277991202"><ele>1061.2</ele><time>2026-04-16T09:29:03.999Z</time></trkpt><trkpt lat="45.85816229930781" lon="11.733159438752367"><ele>1060.0</ele><time>2026-04-16T09:29:04.999Z</time></trkpt><trkpt lat="45.85805898267172" lon="11.733219283087626"><ele>1060.0</ele><time>2026-04-16T09:29:05.999Z</time></trkpt><trkpt lat="45.85797586487443" lon="11.733295903365596"><ele>1060.0</ele><time>2026-04-16T09:29:06.999Z</time></trkpt><trkpt lat="45.85790366126991" lon="11.733367482469449"><ele>1060.0</ele><time>2026-04-16T09:29:07.999Z</time></trkpt><trkpt lat="45.85783565130628" lon="11.733418037143208"><ele>1060.0</ele><time>2026-04-16T09:29:08.999Z</time></trkpt><trkpt lat="45.857779260857825" lon="11.733484618479197"><ele>1060.0</ele><time>2026-04-16T09:29:09.999Z</time></trkpt><trkpt lat="45.8577080107252" lon="11.733549108507098"><ele>1060.0</ele><time>2026-04-16T09:29:10.999Z</time></trkpt><trkpt lat="45.857630264780624" lon="11.733602527176837"><ele>1059.8333333333333</ele><time>2026-04-16T09:29:11.999Z</time></trkpt><trkpt lat="45.857556194962356" lon="11.733622157035391"><ele>1059.6666666666665</ele><time>2026-04-16T09:29:12.999Z</time></trkpt><trkpt lat="45.85748812929592" lon="11.733635348287835"><ele>1059.5</ele><time>2026-04-16T09:29:13.999Z</time></trkpt><trkpt lat="45.857420755440586" lon="11.733611206544733"><ele>1059.3333333333333</ele><time>2026-04-16T09:29:14.999Z</time></trkpt><trkpt lat="45.85734657495928" lon="11.733572057237257"><ele>1059.1666666666667</ele><time>2026-04-16T09:29:15.999Z</time></trkpt><trkpt lat="45.85727476972453" lon="11.733494344375409"><ele>1059.0</ele><time>2026-04-16T09:29:16.999Z</time></trkpt><trkpt lat="45.857198455631355" lon="11.733475795723507"><ele>1059.0</ele><time>2026-04-16T09:29:17.999Z</time></trkpt><trkpt lat="45.85712993239117" lon="11.733470042956952"><ele>1059.0</ele><time>2026-04-16T09:29:18.999Z</time></trkpt><trkpt lat="45.85706569771877" lon="11.733509769625766"><ele>1059.0</ele><time>2026-04-16T09:29:19.999Z</time></trkpt><trkpt lat="45.857017850794136" lon="11.733574683509826"><ele>1059.0</ele><time>2026-04-16T09:29:20.999Z</time></trkpt><trkpt lat="45.85697724942164" lon="11.73367192135059"><ele>1059.0</ele><time>2026-04-16T09:29:21.999Z</time></trkpt><trkpt lat="45.85693153846397" lon="11.733766007972038"><ele>1059.0</ele><time>2026-04-16T09:29:22.999Z</time></trkpt><trkpt lat="45.8568878883706" lon="11.733879243936338"><ele>1059.4285714285713</ele><time>2026-04-16T09:29:23.999Z</time></trkpt><trkpt lat="45.85682711303357" lon="11.733956760423032"><ele>1059.8571428571427</ele><time>2026-04-16T09:29:24.999Z</time></trkpt><trkpt lat="45.856779562720206" lon="11.73402625382879"><ele>1060.2857142857142</ele><time>2026-04-16T09:29:25.999Z</time></trkpt><trkpt lat="45.856725401816" lon="11.734078529654328"><ele>1060.7142857142858</ele><time>2026-04-16T09:29:26.999Z</time></trkpt><trkpt lat="45.85665444107714" lon="11.734087747702748"><ele>1061.1428571428573</ele><time>2026-04-16T09:29:27.999Z</time></trkpt><trkpt lat="45.85658508580769" lon="11.734124324054953"><ele>1061.5714285714287</ele><time>2026-04-16T09:29:28.999Z</time></trkpt><trkpt lat="45.85651744148379" lon="11.734178657469942"><ele>1062.0</ele><time>2026-04-16T09:29:29.999Z</time></trkpt><trkpt lat="45.8564558885447" lon="11.734252099387831"><ele>1062.0</ele><time>2026-04-16T09:29:30.999Z</time></trkpt><trkpt lat="45.856401468052596" lon="11.73436633095008"><ele>1062.0</ele><time>2026-04-16T09:29:31.999Z</time></trkpt><trkpt lat="45.85636192329931" lon="11.734491010454299"><ele>1062.0</ele><time>2026-04-16T09:29:32.999Z</time></trkpt><trkpt lat="45.85632947817347" lon="11.734623402956199"><ele>1062.0</ele><time>2026-04-16T09:29:33.999Z</time></trkpt><trkpt lat="45.8562584589198" lon="11.734725835738114"><ele>1062.0</ele><time>2026-04-16T09:29:34.999Z</time></trkpt><trkpt lat="45.85619174803229" lon="11.734832243905922"><ele>1060.8333333333333</ele><time>2026-04-16T09:29:35.999Z</time></trkpt><trkpt lat="45.85613312630518" lon="11.73491511234432"><ele>1059.6666666666667</ele><time>2026-04-16T09:29:36.999Z</time></trkpt><trkpt lat="45.85607742503966" lon="11.73498537030298"><ele>1058.5</ele><time>2026-04-16T09:29:37.999Z</time></trkpt><trkpt lat="45.85602794027708" lon="11.735061104158838"><ele>1057.3333333333335</ele><time>2026-04-16T09:29:38.999Z</time></trkpt><trkpt lat="45.85595552418448" lon="11.73508877192511"><ele>1056.1666666666667</ele><time>2026-04-16T09:29:39.999Z</time></trkpt><trkpt lat="45.855867750813744" lon="11.735053882482525"><ele>1055.0</ele><time>2026-04-16T09:29:40.999Z</time></trkpt><trkpt lat="45.85577233455594" lon="11.735042914881229"><ele>1055.0</ele><time>2026-04-16T09:29:41.999Z</time></trkpt><trkpt lat="45.855676143045685" lon="11.735028423051086"><ele>1055.0</ele><time>2026-04-16T09:29:42.999Z</time></trkpt><trkpt lat="45.85558304000998" lon="11.73499621171527"><ele>1055.0</ele><time>2026-04-16T09:29:43.999Z</time></trkpt><trkpt lat="45.855505565988395" lon="11.73493019492649"><ele>1055.0</ele><time>2026-04-16T09:29:44.999Z</time></trkpt><trkpt lat="45.85542434117353" lon="11.734839181323371"><ele>1055.0</ele><time>2026-04-16T09:29:45.999Z</time></trkpt><trkpt lat="45.855333394049225" lon="11.7347783692001"><ele>1055.0</ele><time>2026-04-16T09:29:46.999Z</time></trkpt><trkpt lat="45.8552665560339" lon="11.734708906268112"><ele>1055.0</ele><time>2026-04-16T09:29:47.999Z</time></trkpt><trkpt lat="45.855190526350846" lon="11.734639665052866"><ele>1055.0</ele><time>2026-04-16T09:29:48.999Z</time></trkpt><trkpt lat="45.855099582018596" lon="11.734585989987636"><ele>1055.0</ele><time>2026-04-16T09:29:49.999Z</time></trkpt><trkpt lat="45.85501423926352" lon="11.734548013547448"><ele>1055.0</ele><time>2026-04-16T09:29:50.999Z</time></trkpt><trkpt lat="45.854926924740994" lon="11.734527798794453"><ele>1055.0</ele><time>2026-04-16T09:29:51.999Z</time></trkpt><trkpt lat="45.854836097235975" lon="11.734552667966168"><ele>1053.6666666666667</ele><time>2026-04-16T09:29:52.999Z</time></trkpt><trkpt lat="45.85476156730871" lon="11.734611816979859"><ele>1052.3333333333335</ele><time>2026-04-16T09:29:53.999Z</time></trkpt><trkpt lat="45.85469683017256" lon="11.734665192709496"><ele>1051.0</ele><time>2026-04-16T09:29:54.999Z</time></trkpt><trkpt lat="45.854645337452524" lon="11.734768042766952"><ele>1049.6666666666667</ele><time>2026-04-16T09:29:55.999Z</time></trkpt><trkpt lat="45.854592303640274" lon="11.734852629342065"><ele>1048.3333333333333</ele><time>2026-04-16T09:29:56.999Z</time></trkpt><trkpt lat="45.854517721034554" lon="11.734911025295938"><ele>1047.0</ele><time>2026-04-16T09:29:57.999Z</time></trkpt><trkpt lat="45.85444353959728" lon="11.734993159135916"><ele>1047.0</ele><time>2026-04-16T09:29:58.999Z</time></trkpt><trkpt lat="45.85437539449997" lon="11.734997671047953"><ele>1047.0</ele><time>2026-04-16T09:29:59.999Z</time></trkpt><trkpt lat="45.854299799440284" lon="11.73501323365346"><ele>1047.0</ele><time>2026-04-16T09:30:00.999Z</time></trkpt><trkpt lat="45.85420148504153" lon="11.735025465453349"><ele>1047.0</ele><time>2026-04-16T09:30:01.999Z</time></trkpt><trkpt lat="45.854107514333585" lon="11.735051548990574"><ele>1047.0</ele><time>2026-04-16T09:30:02.999Z</time></trkpt><trkpt lat="45.85402132996974" lon="11.735107903669507"><ele>1047.0</ele><time>2026-04-16T09:30:04Z</time></trkpt><trkpt lat="45.8539544217699" lon="11.73518304438928"><ele>1044.5</ele><time>2026-04-16T09:30:05Z</time></trkpt><trkpt lat="45.85392391003831" lon="11.735308442106717"><ele>1042.0</ele><time>2026-04-16T09:30:06Z</time></trkpt><trkpt lat="45.85387829312255" lon="11.735409288891882"><ele>1039.5</ele><time>2026-04-16T09:30:07Z</time></trkpt><trkpt lat="45.85382648425967" lon="11.735484119709048"><ele>1037.0</ele><time>2026-04-16T09:30:08Z</time></trkpt><trkpt lat="45.853766083293664" lon="11.735539460108274"><ele>1034.5</ele><time>2026-04-16T09:30:09Z</time></trkpt><trkpt lat="45.85367763875307" lon="11.7355677120463"><ele>1032.0</ele><time>2026-04-16T09:30:10Z</time></trkpt><trkpt lat="45.853568925973065" lon="11.735635243146177"><ele>1036.25</ele><time>2026-04-16T09:30:11Z</time></trkpt><trkpt lat="45.85344450066005" lon="11.735667760106825"><ele>1040.5</ele><time>2026-04-16T09:30:12Z</time></trkpt><trkpt lat="45.85334499240949" lon="11.735763412928195"><ele>1044.75</ele><time>2026-04-16T09:30:13Z</time></trkpt><trkpt lat="45.85325557138785" lon="11.735848126507792"><ele>1049.0</ele><time>2026-04-16T09:30:14Z</time></trkpt><trkpt lat="45.853165022445104" lon="11.735936885512603"><ele>1049.0</ele><time>2026-04-16T09:30:15Z</time></trkpt><trkpt lat="45.85307716919569" lon="11.736018697040956"><ele>1049.0</ele><time>2026-04-16T09:30:16Z</time></trkpt><trkpt lat="45.852988218670546" lon="11.73609709431175"><ele>1049.0</ele><time>2026-04-16T09:30:17Z</time></trkpt><trkpt lat="45.85291301009937" lon="11.736168309206562"><ele>1049.0</ele><time>2026-04-16T09:30:18Z</time></trkpt><trkpt lat="45.852826502363264" lon="11.736228549119902"><ele>1049.0</ele><time>2026-04-16T09:30:19Z</time></trkpt><trkpt lat="45.85276515454937" lon="11.736285292865375"><ele>1047.8</ele><time>2026-04-16T09:30:20Z</time></trkpt><trkpt lat="45.852685407727634" lon="11.736359998546618"><ele>1046.6000000000001</ele><time>2026-04-16T09:30:21Z</time></trkpt><trkpt lat="45.85262021288621" lon="11.73645348539542"><ele>1045.4</ele><time>2026-04-16T09:30:22Z</time></trkpt><trkpt lat="45.8525470472465" lon="11.736523089922658"><ele>1044.2</ele><time>2026-04-16T09:30:23Z</time></trkpt><trkpt lat="45.85249108969401" lon="11.736628749324387"><ele>1043.0</ele><time>2026-04-16T09:30:24Z</time></trkpt><trkpt lat="45.8524582918722" lon="11.736742776624215"><ele>1043.0</ele><time>2026-04-16T09:30:25Z</time></trkpt><trkpt lat="45.85245615276664" lon="11.736874633310261"><ele>1043.0</ele><time>2026-04-16T09:30:26Z</time></trkpt><trkpt lat="45.85246704998095" lon="11.736993642942734"><ele>1043.0</ele><time>2026-04-16T09:30:27Z</time></trkpt><trkpt lat="45.85247777633875" lon="11.73712475011922"><ele>1043.0</ele><time>2026-04-16T09:30:28Z</time></trkpt><trkpt lat="45.85248157985784" lon="11.73727206997274"><ele>1043.0</ele><time>2026-04-16T09:30:29Z</time></trkpt><trkpt lat="45.85248439331407" lon="11.737398852432756"><ele>1042.0</ele><time>2026-04-16T09:30:30Z</time></trkpt><trkpt lat="45.85248065408669" lon="11.737509965660669"><ele>1041.0</ele><time>2026-04-16T09:30:31Z</time></trkpt><trkpt lat="45.85246702801796" lon="11.737614386407975"><ele>1040.0</ele><time>2026-04-16T09:30:32Z</time></trkpt><trkpt lat="45.85242189234596" lon="11.737695732247149"><ele>1039.0</ele><time>2026-04-16T09:30:33Z</time></trkpt><trkpt lat="45.85236401266018" lon="11.73777864672313"><ele>1038.0</ele><time>2026-04-16T09:30:34Z</time></trkpt><trkpt lat="45.85229837088503" lon="11.73787342190859"><ele>1037.0</ele><time>2026-04-16T09:30:35Z</time></trkpt><trkpt lat="45.85221783259391" lon="11.737973941142084"><ele>1035.0</ele><time>2026-04-16T09:30:36Z</time></trkpt><trkpt lat="45.85212380968376" lon="11.738059883667898"><ele>1033.0</ele><time>2026-04-16T09:30:37Z</time></trkpt><trkpt lat="45.852039356110694" lon="11.73812878939925"><ele>1031.0</ele><time>2026-04-16T09:30:38Z</time></trkpt><trkpt lat="45.851961202407736" lon="11.73818381250639"><ele>1029.0</ele><time>2026-04-16T09:30:39Z</time></trkpt><trkpt lat="45.85188907581807" lon="11.738238937731905"><ele>1027.0</ele><time>2026-04-16T09:30:40Z</time></trkpt><trkpt lat="45.85182467166901" lon="11.738287421381994"><ele>1026.3333333333333</ele><time>2026-04-16T09:30:41Z</time></trkpt><trkpt lat="45.85177196190189" lon="11.738359987141898"><ele>1025.6666666666665</ele><time>2026-04-16T09:30:42Z</time></trkpt><trkpt lat="45.85174190064358" lon="11.738469625064436"><ele>1025.0</ele><time>2026-04-16T09:30:43Z</time></trkpt><trkpt lat="45.85173525335591" lon="11.738605367191845"><ele>1024.3333333333333</ele><time>2026-04-16T09:30:44Z</time></trkpt><trkpt lat="45.85175909214144" lon="11.73872846121959"><ele>1023.6666666666666</ele><time>2026-04-16T09:30:45Z</time></trkpt><trkpt lat="45.85180174908349" lon="11.738842818987782"><ele>1023.0</ele><time>2026-04-16T09:30:46Z</time></trkpt><trkpt lat="45.851868071277735" lon="11.738950726547978"><ele>1023.0</ele><time>2026-04-16T09:30:47Z</time></trkpt><trkpt lat="45.85194603313045" lon="11.73905153960318"><ele>1023.0</ele><time>2026-04-16T09:30:48Z</time></trkpt><trkpt lat="45.85202140365701" lon="11.739151586664812"><ele>1023.0</ele><time>2026-04-16T09:30:49Z</time></trkpt><trkpt lat="45.852081894973594" lon="11.73926980682385"><ele>1023.0</ele><time>2026-04-16T09:30:50Z</time></trkpt><trkpt lat="45.85212498262742" lon="11.739373060722551"><ele>1023.0</ele><time>2026-04-16T09:30:51Z</time></trkpt><trkpt lat="45.85216780823931" lon="11.739469170504506"><ele>1022.1666666666666</ele><time>2026-04-16T09:30:52Z</time></trkpt><trkpt lat="45.85221725081785" lon="11.739568532834861"><ele>1021.3333333333333</ele><time>2026-04-16T09:30:53Z</time></trkpt><trkpt lat="45.85225217754336" lon="11.73966991021575"><ele>1020.5</ele><time>2026-04-16T09:30:54Z</time></trkpt><trkpt lat="45.85224860288169" lon="11.7397843696366"><ele>1019.6666666666666</ele><time>2026-04-16T09:30:55Z</time></trkpt><trkpt lat="45.85225050573427" lon="11.739905044526864"><ele>1018.8333333333333</ele><time>2026-04-16T09:30:56Z</time></trkpt><trkpt lat="45.852209229591914" lon="11.740036289283282"><ele>1018.0</ele><time>2026-04-16T09:30:57Z</time></trkpt><trkpt lat="45.85217300734791" lon="11.740170861503765"><ele>1016.3333333333333</ele><time>2026-04-16T09:30:58Z</time></trkpt><trkpt lat="45.85213025464732" lon="11.740307157882887"><ele>1014.6666666666666</ele><time>2026-04-16T09:30:59Z</time></trkpt><trkpt lat="45.85208899879957" lon="11.74042244791039"><ele>1013.0</ele><time>2026-04-16T09:31:00Z</time></trkpt><trkpt lat="45.852046726171864" lon="11.740528315089989"><ele>1011.3333333333333</ele><time>2026-04-16T09:31:01Z</time></trkpt><trkpt lat="45.852002204081394" lon="11.740621816034553"><ele>1009.6666666666666</ele><time>2026-04-16T09:31:01.999Z</time></trkpt><trkpt lat="45.85194712537708" lon="11.740717023084777"><ele>1008.0</ele><time>2026-04-16T09:31:02.999Z</time></trkpt><trkpt lat="45.8518802002622" lon="11.740818271113215"><ele>1008.0</ele><time>2026-04-16T09:31:03.999Z</time></trkpt><trkpt lat="45.85179909596833" lon="11.740911244209258"><ele>1008.0</ele><time>2026-04-16T09:31:04.999Z</time></trkpt><trkpt lat="45.851731150317924" lon="11.74101109453024"><ele>1008.0</ele><time>2026-04-16T09:31:05.999Z</time></trkpt><trkpt lat="45.8516755519741" lon="11.74113121584539"><ele>1008.0</ele><time>2026-04-16T09:31:06.999Z</time></trkpt><trkpt lat="45.85162853171575" lon="11.741248142539078"><ele>1008.0</ele><time>2026-04-16T09:31:07.999Z</time></trkpt><trkpt lat="45.85158900832945" lon="11.74135654637797"><ele>1006.6666666666666</ele><time>2026-04-16T09:31:08.999Z</time></trkpt><trkpt lat="45.85155107265884" lon="11.741463842907105"><ele>1005.3333333333333</ele><time>2026-04-16T09:31:09.999Z</time></trkpt><trkpt lat="45.85151753255888" lon="11.741559640548305"><ele>1004.0</ele><time>2026-04-16T09:31:10.999Z</time></trkpt><trkpt lat="45.85146588040582" lon="11.741714573992626"><ele>1002.6666666666666</ele><time>2026-04-16T09:31:12.999Z</time></trkpt><trkpt lat="45.8514344673903" lon="11.741795051665656"><ele>1001.3333333333333</ele><time>2026-04-16T09:31:13.999Z</time></trkpt><trkpt lat="45.851392721168125" lon="11.741874905799822"><ele>1000.0</ele><time>2026-04-16T09:31:14.999Z</time></trkpt><trkpt lat="45.851354107013115" lon="11.741965292854882"><ele>1000.0</ele><time>2026-04-16T09:31:15.999Z</time></trkpt><trkpt lat="45.851298416409676" lon="11.742074530815398"><ele>1000.0</ele><time>2026-04-16T09:31:16.999Z</time></trkpt><trkpt lat="45.85122752039598" lon="11.742175085278639"><ele>1000.0</ele><time>2026-04-16T09:31:17.999Z</time></trkpt><trkpt lat="45.85116324663588" lon="11.742286146739751"><ele>1000.0</ele><time>2026-04-16T09:31:18.999Z</time></trkpt><trkpt lat="45.85109768782669" lon="11.742380246278952"><ele>1000.0</ele><time>2026-04-16T09:31:19.999Z</time></trkpt><trkpt lat="45.851017793141956" lon="11.74246158640384"><ele>999.0</ele><time>2026-04-16T09:31:20.999Z</time></trkpt><trkpt lat="45.85092181782017" lon="11.742525412209439"><ele>998.0</ele><time>2026-04-16T09:31:21.999Z</time></trkpt><trkpt lat="45.85080792004131" lon="11.742607575319596"><ele>997.0</ele><time>2026-04-16T09:31:22.999Z</time></trkpt><trkpt lat="45.850708233507056" lon="11.742678276685638"><ele>996.0</ele><time>2026-04-16T09:31:23.999Z</time></trkpt><trkpt lat="45.85062395965203" lon="11.742755369785781"><ele>995.0</ele><time>2026-04-16T09:31:24.999Z</time></trkpt><trkpt lat="45.85054674638596" lon="11.742789934591423"><ele>995.0000000000001</ele><time>2026-04-16T09:31:25.999Z</time></trkpt><trkpt lat="45.85049017228299" lon="11.742852471688572"><ele>995.0</ele><time>2026-04-16T09:31:26.999Z</time></trkpt><trkpt lat="45.85042218852803" lon="11.742852756901405"><ele>995.0</ele><time>2026-04-16T09:31:27.999Z</time></trkpt><trkpt lat="45.850355552935554" lon="11.742865871516539"><ele>995.0</ele><time>2026-04-16T09:31:28.999Z</time></trkpt><trkpt lat="45.850271918141225" lon="11.74285079374549"><ele>995.0000000000001</ele><time>2026-04-16T09:31:29.999Z</time></trkpt><trkpt lat="45.850176521199515" lon="11.742783939219972"><ele>995.0</ele><time>2026-04-16T09:31:30.999Z</time></trkpt><trkpt lat="45.85005547001023" lon="11.742722364696538"><ele>996.8</ele><time>2026-04-16T09:31:31.999Z</time></trkpt><trkpt lat="45.84993336869108" lon="11.742698082696288"><ele>998.6</ele><time>2026-04-16T09:31:32.999Z</time></trkpt><trkpt lat="45.849824257331136" lon="11.742712485049246"><ele>1000.4000000000001</ele><time>2026-04-16T09:31:33.999Z</time></trkpt><trkpt lat="45.84972216089495" lon="11.742748246244043"><ele>1002.2</ele><time>2026-04-16T09:31:34.999Z</time></trkpt><trkpt lat="45.849620535232575" lon="11.742792423222266"><ele>1004.0</ele><time>2026-04-16T09:31:35.999Z</time></trkpt><trkpt lat="45.84951569096754" lon="11.742821621856312"><ele>1004.0</ele><time>2026-04-16T09:31:36.999Z</time></trkpt><trkpt lat="45.84941659841452" lon="11.742862446721134"><ele>1004.0000000000001</ele><time>2026-04-16T09:31:37.999Z</time></trkpt><trkpt lat="45.84932190605828" lon="11.742882845880125"><ele>1004.0000000000001</ele><time>2026-04-16T09:31:38.999Z</time></trkpt><trkpt lat="45.849223593791336" lon="11.742900325579395"><ele>1004.0</ele><time>2026-04-16T09:31:39.999Z</time></trkpt><trkpt lat="45.84911965498081" lon="11.742921153275741"><ele>1004.0</ele><time>2026-04-16T09:31:40.999Z</time></trkpt><trkpt lat="45.849021152668506" lon="11.742964962272206"><ele>1006.2</ele><time>2026-04-16T09:31:41.999Z</time></trkpt><trkpt lat="45.84894427447246" lon="11.743039634411675"><ele>1008.4000000000001</ele><time>2026-04-16T09:31:42.999Z</time></trkpt><trkpt lat="45.84885524239058" lon="11.743112339175738"><ele>1010.6</ele><time>2026-04-16T09:31:43.999Z</time></trkpt><trkpt lat="45.848771810330625" lon="11.743194635877266"><ele>1012.8</ele><time>2026-04-16T09:31:44.999Z</time></trkpt><trkpt lat="45.8486809072356" lon="11.743280420230633"><ele>1015.0</ele><time>2026-04-16T09:31:45.999Z</time></trkpt><trkpt lat="45.848598457838264" lon="11.743372839540465"><ele>1015.0</ele><time>2026-04-16T09:31:46.999Z</time></trkpt><trkpt lat="45.848520025259766" lon="11.743459775275399"><ele>1015.0</ele><time>2026-04-16T09:31:47.999Z</time></trkpt><trkpt lat="45.84844215859353" lon="11.743540221932609"><ele>1015.0</ele><time>2026-04-16T09:31:48.999Z</time></trkpt><trkpt lat="45.84836007368981" lon="11.7436097624194"><ele>1015.0</ele><time>2026-04-16T09:31:49.999Z</time></trkpt><trkpt lat="45.84826397203138" lon="11.743662135147105"><ele>1015.0</ele><time>2026-04-16T09:31:50.999Z</time></trkpt><trkpt lat="45.84816352905875" lon="11.74371619737339"><ele>1012.6</ele><time>2026-04-16T09:31:51.999Z</time></trkpt><trkpt lat="45.848078259531334" lon="11.743756065434614"><ele>1010.2</ele><time>2026-04-16T09:31:52.999Z</time></trkpt><trkpt lat="45.84798994562173" lon="11.743831996517867"><ele>1007.8</ele><time>2026-04-16T09:31:53.999Z</time></trkpt><trkpt lat="45.847896967728495" lon="11.743895536954394"><ele>1005.4</ele><time>2026-04-16T09:31:54.999Z</time></trkpt><trkpt lat="45.84780769055756" lon="11.743950131207393"><ele>1003.0</ele><time>2026-04-16T09:31:55.999Z</time></trkpt><trkpt lat="45.84772950332425" lon="11.743996091341407"><ele>1002.9999999999999</ele><time>2026-04-16T09:31:56.999Z</time></trkpt><trkpt lat="45.84765340404281" lon="11.744037455765394"><ele>1003.0</ele><time>2026-04-16T09:31:57.999Z</time></trkpt><trkpt lat="45.8475757927517" lon="11.744066678433327"><ele>1003.0</ele><time>2026-04-16T09:31:58.999Z</time></trkpt><trkpt lat="45.847499377160666" lon="11.74402085718865"><ele>1003.0</ele><time>2026-04-16T09:31:59.999Z</time></trkpt><trkpt lat="45.84743378022188" lon="11.743994913160906"><ele>1002.9999999999999</ele><time>2026-04-16T09:32:00.999Z</time></trkpt><trkpt lat="45.84740107116486" lon="11.743875983933904"><ele>1003.0</ele><time>2026-04-16T09:32:01.999Z</time></trkpt><trkpt lat="45.84736206285222" lon="11.74376225917501"><ele>1004.2</ele><time>2026-04-16T09:32:02.999Z</time></trkpt><trkpt lat="45.84731167224622" lon="11.743617880751664"><ele>1005.4</ele><time>2026-04-16T09:32:03.999Z</time></trkpt><trkpt lat="45.84725587389795" lon="11.743492092210467"><ele>1006.6000000000001</ele><time>2026-04-16T09:32:04.999Z</time></trkpt><trkpt lat="45.847193730234885" lon="11.743378161295414"><ele>1007.8000000000001</ele><time>2026-04-16T09:32:05.999Z</time></trkpt><trkpt lat="45.847114119986344" lon="11.743306580061098"><ele>1009.0</ele><time>2026-04-16T09:32:06.999Z</time></trkpt><trkpt lat="45.84703831151473" lon="11.743236983966966"><ele>1010.3333333333333</ele><time>2026-04-16T09:32:07.999Z</time></trkpt><trkpt lat="45.84696791336286" lon="11.74319213063563"><ele>1011.6666666666666</ele><time>2026-04-16T09:32:08.999Z</time></trkpt><trkpt lat="45.84691023767511" lon="11.743147799151306"><ele>1013.0</ele><time>2026-04-16T09:32:10Z</time></trkpt><trkpt lat="45.84682088598387" lon="11.743176139422134"><ele>1014.3333333333333</ele><time>2026-04-16T09:32:11Z</time></trkpt><trkpt lat="45.846727777309034" lon="11.743198966566043"><ele>1015.6666666666666</ele><time>2026-04-16T09:32:12Z</time></trkpt><trkpt lat="45.84664251595292" lon="11.743254636330475"><ele>1017.0</ele><time>2026-04-16T09:32:13Z</time></trkpt><trkpt lat="45.84657505633238" lon="11.743337798441893"><ele>1017.0</ele><time>2026-04-16T09:32:14Z</time></trkpt><trkpt lat="45.84652574633797" lon="11.743445419213554"><ele>1017.0</ele><time>2026-04-16T09:32:15Z</time></trkpt><trkpt lat="45.846489771489445" lon="11.7435841167369"><ele>1017.0</ele><time>2026-04-16T09:32:16Z</time></trkpt><trkpt lat="45.84644111116073" lon="11.743690833763871"><ele>1017.0</ele><time>2026-04-16T09:32:17Z</time></trkpt><trkpt lat="45.84638529120728" lon="11.743813688135068"><ele>1017.0</ele><time>2026-04-16T09:32:18Z</time></trkpt><trkpt lat="45.846325768719524" lon="11.74392177186256"><ele>1015.0</ele><time>2026-04-16T09:32:19Z</time></trkpt><trkpt lat="45.84625990700723" lon="11.744026718158763"><ele>1013.0</ele><time>2026-04-16T09:32:20Z</time></trkpt><trkpt lat="45.84618362718233" lon="11.74413509206032"><ele>1011.0</ele><time>2026-04-16T09:32:21Z</time></trkpt><trkpt lat="45.8461093469172" lon="11.744231099589202"><ele>1009.0</ele><time>2026-04-16T09:32:22Z</time></trkpt><trkpt lat="45.8460300338471" lon="11.744320036220964"><ele>1007.0</ele><time>2026-04-16T09:32:23Z</time></trkpt><trkpt lat="45.845955723232024" lon="11.744398992483916"><ele>1007.0</ele><time>2026-04-16T09:32:24Z</time></trkpt><trkpt lat="45.84587531816578" lon="11.744472617525545"><ele>1007.0</ele><time>2026-04-16T09:32:25Z</time></trkpt><trkpt lat="45.84576311201458" lon="11.744556171965105"><ele>1007.0</ele><time>2026-04-16T09:32:26Z</time></trkpt><trkpt lat="45.8456120581415" lon="11.744654238155189"><ele>1007.0</ele><time>2026-04-16T09:32:27Z</time></trkpt><trkpt lat="45.84543259232967" lon="11.744753188461564"><ele>1007.0</ele><time>2026-04-16T09:32:28Z</time></trkpt><trkpt lat="45.84527487307419" lon="11.744859969652438"><ele>1007.0</ele><time>2026-04-16T09:32:29Z</time></trkpt><trkpt lat="45.84511611100745" lon="11.744996567993162"><ele>1007.0</ele><time>2026-04-16T09:32:30Z</time></trkpt><trkpt lat="45.84503368638544" lon="11.745105721645594"><ele>1008.6</ele><time>2026-04-16T09:32:31Z</time></trkpt><trkpt lat="45.84495184518767" lon="11.745182357168481"><ele>1010.2</ele><time>2026-04-16T09:32:32Z</time></trkpt><trkpt lat="45.84486103204606" lon="11.745229145757893"><ele>1011.8</ele><time>2026-04-16T09:32:33Z</time></trkpt><trkpt lat="45.84477161045903" lon="11.745172342929534"><ele>1013.4</ele><time>2026-04-16T09:32:34Z</time></trkpt><trkpt lat="45.84466651782168" lon="11.745130912076796"><ele>1015.0</ele><time>2026-04-16T09:32:35Z</time></trkpt><trkpt lat="45.84453819562986" lon="11.745038129686469"><ele>1015.0</ele><time>2026-04-16T09:32:36Z</time></trkpt><trkpt lat="45.84441933007975" lon="11.744924392057328"><ele>1015.0</ele><time>2026-04-16T09:32:37Z</time></trkpt><trkpt lat="45.84429925372595" lon="11.744751656629196"><ele>1015.0</ele><time>2026-04-16T09:32:38Z</time></trkpt><trkpt lat="45.844165666807335" lon="11.744610013776782"><ele>1017.6666666666666</ele><time>2026-04-16T09:32:39Z</time></trkpt><trkpt lat="45.84401126226209" lon="11.744421801914967"><ele>1020.3333333333333</ele><time>2026-04-16T09:32:40Z</time></trkpt><trkpt lat="45.843868981625086" lon="11.744227693554414"><ele>1023.0</ele><time>2026-04-16T09:32:41Z</time></trkpt><trkpt lat="45.84373793306016" lon="11.744057035548083"><ele>1023.0</ele><time>2026-04-16T09:32:42Z</time></trkpt><trkpt lat="45.843614536370275" lon="11.74386597590953"><ele>1023.0</ele><time>2026-04-16T09:32:43Z</time></trkpt><trkpt lat="45.84351815247469" lon="11.743610900961862"><ele>1023.0</ele><time>2026-04-16T09:32:44Z</time></trkpt><trkpt lat="45.843398819229414" lon="11.743406346440555"><ele>1019.75</ele><time>2026-04-16T09:32:45Z</time></trkpt><trkpt lat="45.843293138600025" lon="11.74324418818859"><ele>1016.5</ele><time>2026-04-16T09:32:46Z</time></trkpt><trkpt lat="45.84320045108826" lon="11.743100356097006"><ele>1013.25</ele><time>2026-04-16T09:32:47Z</time></trkpt><trkpt lat="45.843118173334766" lon="11.742971293295037"><ele>1010.0</ele><time>2026-04-16T09:32:48Z</time></trkpt><trkpt lat="45.84305411112819" lon="11.742873455558119"><ele>1010.0</ele><time>2026-04-16T09:32:49Z</time></trkpt><trkpt lat="45.84301863488269" lon="11.742769100555233"><ele>1010.0</ele><time>2026-04-16T09:32:50Z</time></trkpt><trkpt lat="45.843014326614735" lon="11.742650487470845"><ele>1010.0</ele><time>2026-04-16T09:32:51Z</time></trkpt><trkpt lat="45.843023116138966" lon="11.742512009641686"><ele>1010.0</ele><time>2026-04-16T09:32:52Z</time></trkpt><trkpt lat="45.84302506265272" lon="11.74235617314408"><ele>1010.0</ele><time>2026-04-16T09:32:53Z</time></trkpt><trkpt lat="45.84304322609458" lon="11.742151098982278"><ele>1014.3333333333334</ele><time>2026-04-16T09:32:54Z</time></trkpt><trkpt lat="45.84302734317453" lon="11.74192785186929"><ele>1018.6666666666667</ele><time>2026-04-16T09:32:55Z</time></trkpt><trkpt lat="45.84299109538322" lon="11.741701834186891"><ele>1023.0</ele><time>2026-04-16T09:32:56Z</time></trkpt><trkpt lat="45.84295290930704" lon="11.741496332164301"><ele>1025.3333333333333</ele><time>2026-04-16T09:32:57Z</time></trkpt><trkpt lat="45.84291362251265" lon="11.741257278125095"><ele>1027.6666666666665</ele><time>2026-04-16T09:32:58Z</time></trkpt><trkpt lat="45.84288536441626" lon="11.741028541899917"><ele>1030.0</ele><time>2026-04-16T09:32:59Z</time></trkpt><trkpt lat="45.84285396169232" lon="11.740835591846825"><ele>1031.6</ele><time>2026-04-16T09:33:00Z</time></trkpt><trkpt lat="45.84280736081548" lon="11.740690630789434"><ele>1033.2</ele><time>2026-04-16T09:33:01Z</time></trkpt><trkpt lat="45.84276120363895" lon="11.740580203103198"><ele>1034.8</ele><time>2026-04-16T09:33:02Z</time></trkpt><trkpt lat="45.84269203514182" lon="11.74051690204843"><ele>1036.4</ele><time>2026-04-16T09:33:03Z</time></trkpt><trkpt lat="45.84261400755312" lon="11.740472527430239"><ele>1038.0</ele><time>2026-04-16T09:33:04Z</time></trkpt><trkpt lat="45.84250461269945" lon="11.740505363254508"><ele>1029.5</ele><time>2026-04-16T09:33:05Z</time></trkpt><trkpt lat="45.84238952864595" lon="11.740510377332331"><ele>1021.0</ele><time>2026-04-16T09:33:05.999Z</time></trkpt><trkpt lat="45.84228555775675" lon="11.740543428868683"><ele>1012.5</ele><time>2026-04-16T09:33:06.999Z</time></trkpt><trkpt lat="45.84218562054582" lon="11.740471125214302"><ele>1004.0</ele><time>2026-04-16T09:33:07.999Z</time></trkpt><trkpt lat="45.842044764112906" lon="11.74039033535289"><ele>1004.0</ele><time>2026-04-16T09:33:08.999Z</time></trkpt><trkpt lat="45.841908321979915" lon="11.740305200540751"><ele>1004.0</ele><time>2026-04-16T09:33:09.999Z</time></trkpt><trkpt lat="45.84178604561695" lon="11.740200092128065"><ele>1004.0</ele><time>2026-04-16T09:33:10.999Z</time></trkpt><trkpt lat="45.84168376790613" lon="11.740089531116913"><ele>1004.0</ele><time>2026-04-16T09:33:11.999Z</time></trkpt><trkpt lat="45.84159554337584" lon="11.73996900064977"><ele>1005.0</ele><time>2026-04-16T09:33:12.999Z</time></trkpt><trkpt lat="45.84151542965559" lon="11.739820268886747"><ele>1006.0</ele><time>2026-04-16T09:33:13.999Z</time></trkpt><trkpt lat="45.8414341448425" lon="11.739653781907467"><ele>1007.0</ele><time>2026-04-16T09:33:14.999Z</time></trkpt><trkpt lat="45.84133925764905" lon="11.7394208170637"><ele>1004.5</ele><time>2026-04-16T09:33:15.999Z</time></trkpt><trkpt lat="45.84125304206451" lon="11.739228795993565"><ele>1002.0</ele><time>2026-04-16T09:33:16.999Z</time></trkpt><trkpt lat="45.84115376001631" lon="11.73911012154081"><ele>999.5</ele><time>2026-04-16T09:33:17.999Z</time></trkpt><trkpt lat="45.84103044794296" lon="11.73900452942331"><ele>997.0</ele><time>2026-04-16T09:33:18.999Z</time></trkpt><trkpt lat="45.840896906394036" lon="11.738881858433997"><ele>997.0</ele><time>2026-04-16T09:33:19.999Z</time></trkpt><trkpt lat="45.84076916583694" lon="11.738780885039155"><ele>997.0</ele><time>2026-04-16T09:33:20.999Z</time></trkpt><trkpt lat="45.84067869802319" lon="11.738670778247304"><ele>997.0</ele><time>2026-04-16T09:33:21.999Z</time></trkpt><trkpt lat="45.84061470547504" lon="11.73851307406844"><ele>997.0</ele><time>2026-04-16T09:33:22.999Z</time></trkpt><trkpt lat="45.84053450173827" lon="11.738316739168502"><ele>1003.0</ele><time>2026-04-16T09:33:23.999Z</time></trkpt><trkpt lat="45.84043764742509" lon="11.738079706316826"><ele>1009.0</ele><time>2026-04-16T09:33:24.999Z</time></trkpt><trkpt lat="45.840333951941616" lon="11.737881487709956"><ele>1015.0</ele><time>2026-04-16T09:33:25.999Z</time></trkpt><trkpt lat="45.84022424490011" lon="11.737699815089707"><ele>1011.0</ele><time>2026-04-16T09:33:26.999Z</time></trkpt><trkpt lat="45.84008588899672" lon="11.737561934012087"><ele>1007.0</ele><time>2026-04-16T09:33:27.999Z</time></trkpt><trkpt lat="45.839946528446966" lon="11.737420040816527"><ele>1003.0</ele><time>2026-04-16T09:33:28.999Z</time></trkpt><trkpt lat="45.83976278905086" lon="11.737318999974047"><ele>1003.0</ele><time>2026-04-16T09:33:29.999Z</time></trkpt><trkpt lat="45.83959243485051" lon="11.737135261354469"><ele>1003.0</ele><time>2026-04-16T09:33:30.999Z</time></trkpt><trkpt lat="45.83942800992001" lon="11.736960130107567"><ele>1003.0</ele><time>2026-04-16T09:33:31.999Z</time></trkpt><trkpt lat="45.839297706256204" lon="11.736828747156654"><ele>1001.5</ele><time>2026-04-16T09:33:32.999Z</time></trkpt><trkpt lat="45.83917768659146" lon="11.736769541799223"><ele>1000.0</ele><time>2026-04-16T09:33:33.999Z</time></trkpt><trkpt lat="45.8390552688195" lon="11.736738837815784"><ele>998.5</ele><time>2026-04-16T09:33:34.999Z</time></trkpt><trkpt lat="45.838915154004276" lon="11.736742762483434"><ele>997.0</ele><time>2026-04-16T09:33:35.999Z</time></trkpt><trkpt lat="45.838736658604226" lon="11.736730030281517"><ele>997.0</ele><time>2026-04-16T09:33:36.999Z</time></trkpt><trkpt lat="45.83852251537267" lon="11.736728040621683"><ele>997.0</ele><time>2026-04-16T09:33:37.999Z</time></trkpt><trkpt lat="45.83834226755966" lon="11.736725027206427"><ele>997.0</ele><time>2026-04-16T09:33:38.999Z</time></trkpt><trkpt lat="45.838179850949366" lon="11.736722967479967"><ele>997.75</ele><time>2026-04-16T09:33:39.999Z</time></trkpt><trkpt lat="45.838060145990525" lon="11.736718503022132"><ele>998.5</ele><time>2026-04-16T09:33:40.999Z</time></trkpt><trkpt lat="45.83794770431101" lon="11.73670099181078"><ele>999.25</ele><time>2026-04-16T09:33:41.999Z</time></trkpt><trkpt lat="45.83784282008837" lon="11.736661326420657"><ele>1000.0</ele><time>2026-04-16T09:33:42.999Z</time></trkpt><trkpt lat="45.8377455673192" lon="11.73657420087248"><ele>1001.0</ele><time>2026-04-16T09:33:43.999Z</time></trkpt><trkpt lat="45.837627060774416" lon="11.736464214365673"><ele>1002.0</ele><time>2026-04-16T09:33:44.999Z</time></trkpt><trkpt lat="45.83750879026883" lon="11.73636175080411"><ele>1003.0</ele><time>2026-04-16T09:33:45.999Z</time></trkpt><trkpt lat="45.837341143850246" lon="11.736283725886851"><ele>1003.0</ele><time>2026-04-16T09:33:46.999Z</time></trkpt><trkpt lat="45.83715590538098" lon="11.736234913144658"><ele>1003.0</ele><time>2026-04-16T09:33:47.999Z</time></trkpt><trkpt lat="45.836986324386054" lon="11.736110051419123"><ele>1003.0</ele><time>2026-04-16T09:33:48.999Z</time></trkpt><trkpt lat="45.83682431272021" lon="11.736014440358087"><ele>1002.6666666666666</ele><time>2026-04-16T09:33:49.999Z</time></trkpt><trkpt lat="45.836651329752" lon="11.735945899446346"><ele>1002.3333333333333</ele><time>2026-04-16T09:33:50.999Z</time></trkpt><trkpt lat="45.83648480765924" lon="11.735903156810082"><ele>1002.0</ele><time>2026-04-16T09:33:51.999Z</time></trkpt><trkpt lat="45.83634259273447" lon="11.735855049216804"><ele>1002.0</ele><time>2026-04-16T09:33:52.999Z</time></trkpt><trkpt lat="45.83619259937467" lon="11.735788693338192"><ele>1002.0</ele><time>2026-04-16T09:33:53.999Z</time></trkpt><trkpt lat="45.83606921571602" lon="11.735682189384853"><ele>1002.0</ele><time>2026-04-16T09:33:54.999Z</time></trkpt><trkpt lat="45.83597087876469" lon="11.735524078649268"><ele>1002.0</ele><time>2026-04-16T09:33:55.999Z</time></trkpt><trkpt lat="45.835828759346484" lon="11.735373137153488"><ele>1004.0</ele><time>2026-04-16T09:33:56.999Z</time></trkpt><trkpt lat="45.83569164887865" lon="11.735185245801041"><ele>1006.0</ele><time>2026-04-16T09:33:57.999Z</time></trkpt><trkpt lat="45.83552984656316" lon="11.735017365079447"><ele>1008.0</ele><time>2026-04-16T09:33:58.999Z</time></trkpt><trkpt lat="45.83536092107172" lon="11.734877073993971"><ele>1008.0</ele><time>2026-04-16T09:33:59.999Z</time></trkpt><trkpt lat="45.8352568334555" lon="11.734736121487952"><ele>1008.0</ele><time>2026-04-16T09:34:00.999Z</time></trkpt><trkpt lat="45.8351593494812" lon="11.73461689992584"><ele>1008.0</ele><time>2026-04-16T09:34:01.999Z</time></trkpt><trkpt lat="45.83509296613009" lon="11.734482441769975"><ele>1008.0</ele><time>2026-04-16T09:34:02.999Z</time></trkpt><trkpt lat="45.835062346326204" lon="11.734325986470838"><ele>1010.8</ele><time>2026-04-16T09:34:03.999Z</time></trkpt><trkpt lat="45.83501757280694" lon="11.734170396696426"><ele>1013.5999999999999</ele><time>2026-04-16T09:34:04.999Z</time></trkpt><trkpt lat="45.83499473121325" lon="11.734046495233668"><ele>1016.4000000000001</ele><time>2026-04-16T09:34:05.999Z</time></trkpt><trkpt lat="45.83493856099696" lon="11.73396247835807"><ele>1019.2</ele><time>2026-04-16T09:34:06.999Z</time></trkpt><trkpt lat="45.834837650090186" lon="11.733950990643647"><ele>1022.0</ele><time>2026-04-16T09:34:07.999Z</time></trkpt><trkpt lat="45.83474290701703" lon="11.733951187772696"><ele>1022.0</ele><time>2026-04-16T09:34:08.999Z</time></trkpt><trkpt lat="45.83463443176756" lon="11.733972605039773"><ele>1022.0</ele><time>2026-04-16T09:34:09.999Z</time></trkpt><trkpt lat="45.8345240495182" lon="11.734007148396675"><ele>1022.0</ele><time>2026-04-16T09:34:10.999Z</time></trkpt><trkpt lat="45.834425245412575" lon="11.734045538687331"><ele>1022.0</ele><time>2026-04-16T09:34:11.999Z</time></trkpt><trkpt lat="45.834329008282566" lon="11.734145009558077"><ele>1022.0</ele><time>2026-04-16T09:34:12.999Z</time></trkpt><trkpt lat="45.83422975225581" lon="11.734286972391963"><ele>1022.0</ele><time>2026-04-16T09:34:13.999Z</time></trkpt><trkpt lat="45.83413866921509" lon="11.73441829732371"><ele>1022.0</ele><time>2026-04-16T09:34:14.999Z</time></trkpt><trkpt lat="45.83403003754803" lon="11.734569258518928"><ele>1022.0</ele><time>2026-04-16T09:34:16Z</time></trkpt><trkpt lat="45.83390747347393" lon="11.734726094563703"><ele>1022.0</ele><time>2026-04-16T09:34:17Z</time></trkpt><trkpt lat="45.83377971684273" lon="11.734862521359627"><ele>1022.0</ele><time>2026-04-16T09:34:18Z</time></trkpt><trkpt lat="45.833654435463295" lon="11.734954280987273"><ele>1022.0</ele><time>2026-04-16T09:34:19Z</time></trkpt><trkpt lat="45.833529552814305" lon="11.735010786400226"><ele>1022.0</ele><time>2026-04-16T09:34:20Z</time></trkpt><trkpt lat="45.83338427943776" lon="11.735060633688969"><ele>1022.0</ele><time>2026-04-16T09:34:21Z</time></trkpt><trkpt lat="45.83321396554191" lon="11.735109568171438"><ele>1021.4000000000001</ele><time>2026-04-16T09:34:22Z</time></trkpt><trkpt lat="45.83307430771794" lon="11.735139476298771"><ele>1020.8000000000001</ele><time>2026-04-16T09:34:23Z</time></trkpt><trkpt lat="45.832965504299644" lon="11.735155165422515"><ele>1020.2</ele><time>2026-04-16T09:34:24Z</time></trkpt><trkpt lat="45.83288001760809" lon="11.735177411052629"><ele>1019.6</ele><time>2026-04-16T09:34:25Z</time></trkpt><trkpt lat="45.832810353967005" lon="11.735249148636743"><ele>1019.0</ele><time>2026-04-16T09:34:26Z</time></trkpt><trkpt lat="45.83276004717212" lon="11.735372056468094"><ele>1019.6</ele><time>2026-04-16T09:34:27Z</time></trkpt><trkpt lat="45.83272312189813" lon="11.73551795904354"><ele>1020.2</ele><time>2026-04-16T09:34:28Z</time></trkpt><trkpt lat="45.83266033389569" lon="11.735673632277061"><ele>1020.8000000000001</ele><time>2026-04-16T09:34:29Z</time></trkpt><trkpt lat="45.832589917488946" lon="11.735793342170261"><ele>1021.4000000000001</ele><time>2026-04-16T09:34:30Z</time></trkpt><trkpt lat="45.832512021691784" lon="11.73585898708196"><ele>1022.0</ele><time>2026-04-16T09:34:31Z</time></trkpt><trkpt lat="45.83242783413259" lon="11.735896141795633"><ele>1022.0</ele><time>2026-04-16T09:34:32Z</time></trkpt><trkpt lat="45.832328619185155" lon="11.735908487351274"><ele>1022.0</ele><time>2026-04-16T09:34:33Z</time></trkpt><trkpt lat="45.832187151856836" lon="11.735935723413125"><ele>1022.0</ele><time>2026-04-16T09:34:34Z</time></trkpt><trkpt lat="45.83205646552562" lon="11.735934724853017"><ele>1022.0</ele><time>2026-04-16T09:34:35Z</time></trkpt><trkpt lat="45.831947606143025" lon="11.735920772795954"><ele>1022.0000000000001</ele><time>2026-04-16T09:34:36Z</time></trkpt><trkpt lat="45.831870757693025" lon="11.735945987351933"><ele>1022.0</ele><time>2026-04-16T09:34:37Z</time></trkpt><trkpt lat="45.831794694405" lon="11.736001291512672"><ele>1022.0</ele><time>2026-04-16T09:34:38Z</time></trkpt><trkpt lat="45.83173119172769" lon="11.736087056661574"><ele>1022.0</ele><time>2026-04-16T09:34:39Z</time></trkpt><trkpt lat="45.83168881677792" lon="11.736196623495973"><ele>1022.0000000000001</ele><time>2026-04-16T09:34:40Z</time></trkpt><trkpt lat="45.831664412333744" lon="11.736329967881678"><ele>1022.0</ele><time>2026-04-16T09:34:41Z</time></trkpt><trkpt lat="45.8316226565891" lon="11.736478710447342"><ele>1021.4000000000001</ele><time>2026-04-16T09:34:42Z</time></trkpt><trkpt lat="45.83158237834136" lon="11.73662490595041"><ele>1020.8000000000001</ele><time>2026-04-16T09:34:43Z</time></trkpt><trkpt lat="45.83153914136772" lon="11.736771510285397"><ele>1020.2</ele><time>2026-04-16T09:34:44Z</time></trkpt><trkpt lat="45.83145540255354" lon="11.736852015705274"><ele>1019.6</ele><time>2026-04-16T09:34:45Z</time></trkpt><trkpt lat="45.83136552179218" lon="11.736892297325118"><ele>1019.0</ele><time>2026-04-16T09:34:46Z</time></trkpt><trkpt lat="45.83126078748916" lon="11.736893942123572"><ele>1022.0</ele><time>2026-04-16T09:34:47Z</time></trkpt><trkpt lat="45.831125550650384" lon="11.736886105696897"><ele>1025.0</ele><time>2026-04-16T09:34:48Z</time></trkpt><trkpt lat="45.8309802089749" lon="11.736912425562073"><ele>1028.0</ele><time>2026-04-16T09:34:49Z</time></trkpt><trkpt lat="45.83084250422564" lon="11.736940589233557"><ele>1031.0</ele><time>2026-04-16T09:34:50Z</time></trkpt><trkpt lat="45.83068508157689" lon="11.736991457763462"><ele>1031.0</ele><time>2026-04-16T09:34:51Z</time></trkpt><trkpt lat="45.830524593089805" lon="11.736998709194767"><ele>1031.0</ele><time>2026-04-16T09:34:52Z</time></trkpt><trkpt lat="45.830353299093" lon="11.736961326846965"><ele>1031.0</ele><time>2026-04-16T09:34:53Z</time></trkpt><trkpt lat="45.8301700618924" lon="11.736918216649084"><ele>1028.6666666666667</ele><time>2026-04-16T09:34:54Z</time></trkpt><trkpt lat="45.829986766781445" lon="11.73688664868066"><ele>1026.3333333333333</ele><time>2026-04-16T09:34:55Z</time></trkpt><trkpt lat="45.82977973468898" lon="11.736861324557443"><ele>1024.0</ele><time>2026-04-16T09:34:56Z</time></trkpt><trkpt lat="45.829559587679086" lon="11.736842904148462"><ele>1016.3333333333333</ele><time>2026-04-16T09:34:57Z</time></trkpt><trkpt lat="45.82934814933086" lon="11.736772423345995"><ele>1008.6666666666667</ele><time>2026-04-16T09:34:58Z</time></trkpt><trkpt lat="45.82916093277521" lon="11.736724093563783"><ele>1001.0</ele><time>2026-04-16T09:34:59Z</time></trkpt><trkpt lat="45.82898287245474" lon="11.736704259717438"><ele>1001.0</ele><time>2026-04-16T09:35:00Z</time></trkpt><trkpt lat="45.82880376996223" lon="11.736716896950778"><ele>1001.0</ele><time>2026-04-16T09:35:01Z</time></trkpt><trkpt lat="45.82867494935425" lon="11.736737933389056"><ele>1001.0</ele><time>2026-04-16T09:35:02Z</time></trkpt><trkpt lat="45.82857251419165" lon="11.73675562953206"><ele>1001.0</ele><time>2026-04-16T09:35:03Z</time></trkpt><trkpt lat="45.828470550179894" lon="11.736797090830285"><ele>1001.25</ele><time>2026-04-16T09:35:04Z</time></trkpt><trkpt lat="45.82837432922732" lon="11.736883702873648"><ele>1001.5</ele><time>2026-04-16T09:35:05Z</time></trkpt><trkpt lat="45.828297029492816" lon="11.736998791134265"><ele>1001.75</ele><time>2026-04-16T09:35:06Z</time></trkpt><trkpt lat="45.82823507561751" lon="11.73715201661499"><ele>1002.0</ele><time>2026-04-16T09:35:07Z</time></trkpt><trkpt lat="45.828178984366" lon="11.737345381527236"><ele>1002.0</ele><time>2026-04-16T09:35:08Z</time></trkpt><trkpt lat="45.82814586252628" lon="11.737552741700837"><ele>1002.0</ele><time>2026-04-16T09:35:09Z</time></trkpt><trkpt lat="45.828134791606956" lon="11.737771545504172"><ele>1002.0</ele><time>2026-04-16T09:35:09.999Z</time></trkpt><trkpt lat="45.82814213040217" lon="11.737995565418936"><ele>1001.0</ele><time>2026-04-16T09:35:10.999Z</time></trkpt><trkpt lat="45.828159174026844" lon="11.738196825608552"><ele>1000.0</ele><time>2026-04-16T09:35:11.999Z</time></trkpt><trkpt lat="45.828200527751534" lon="11.738412101107713"><ele>999.0</ele><time>2026-04-16T09:35:12.999Z</time></trkpt><trkpt lat="45.828262991388335" lon="11.738634493333452"><ele>996.5</ele><time>2026-04-16T09:35:13.999Z</time></trkpt><trkpt lat="45.828325156017165" lon="11.73882432177992"><ele>994.0</ele><time>2026-04-16T09:35:14.999Z</time></trkpt><trkpt lat="45.82836763361559" lon="11.73900332801011"><ele>991.5</ele><time>2026-04-16T09:35:15.999Z</time></trkpt><trkpt lat="45.828383114266636" lon="11.73915343046112"><ele>989.0</ele><time>2026-04-16T09:35:16.999Z</time></trkpt><trkpt lat="45.82838645395261" lon="11.73929349774895"><ele>987.6</ele><time>2026-04-16T09:35:17.999Z</time></trkpt><trkpt lat="45.82836423640553" lon="11.73943068927591"><ele>986.2</ele><time>2026-04-16T09:35:18.999Z</time></trkpt><trkpt lat="45.82831365502312" lon="11.739549362563295"><ele>984.8000000000001</ele><time>2026-04-16T09:35:19.999Z</time></trkpt><trkpt lat="45.82822873832238" lon="11.739653120291715"><ele>983.4000000000001</ele><time>2026-04-16T09:35:20.999Z</time></trkpt><trkpt lat="45.828163141413455" lon="11.739803267322804"><ele>982.0</ele><time>2026-04-16T09:35:21.999Z</time></trkpt><trkpt lat="45.828107519354525" lon="11.739944628028134"><ele>982.0</ele><time>2026-04-16T09:35:22.999Z</time></trkpt><trkpt lat="45.828090158657375" lon="11.740091510503515"><ele>982.0</ele><time>2026-04-16T09:35:23.999Z</time></trkpt><trkpt lat="45.828103095794816" lon="11.740229627027965"><ele>982.0</ele><time>2026-04-16T09:35:24.999Z</time></trkpt><trkpt lat="45.82812963120973" lon="11.740365665913933"><ele>982.0</ele><time>2026-04-16T09:35:25.999Z</time></trkpt><trkpt lat="45.8281628971509" lon="11.740486813034536"><ele>982.0</ele><time>2026-04-16T09:35:26.999Z</time></trkpt><trkpt lat="45.82821520792536" lon="11.740567958793536"><ele>980.0</ele><time>2026-04-16T09:35:27.999Z</time></trkpt><trkpt lat="45.82829603236684" lon="11.740628868203125"><ele>978.0</ele><time>2026-04-16T09:35:28.999Z</time></trkpt><trkpt lat="45.828407963331806" lon="11.740663284480425"><ele>976.0</ele><time>2026-04-16T09:35:29.999Z</time></trkpt><trkpt lat="45.82855748904373" lon="11.740685455292809"><ele>974.0</ele><time>2026-04-16T09:35:30.999Z</time></trkpt><trkpt lat="45.82871605329632" lon="11.740698424249272"><ele>974.0</ele><time>2026-04-16T09:35:31.999Z</time></trkpt><trkpt lat="45.82885871717555" lon="11.740716516306215"><ele>974.0</ele><time>2026-04-16T09:35:32.999Z</time></trkpt><trkpt lat="45.82902337704677" lon="11.740727092087702"><ele>974.0</ele><time>2026-04-16T09:35:33.999Z</time></trkpt><trkpt lat="45.829204244871825" lon="11.740749375378924"><ele>977.75</ele><time>2026-04-16T09:35:34.999Z</time></trkpt><trkpt lat="45.829363392621374" lon="11.740772336473764"><ele>981.5</ele><time>2026-04-16T09:35:35.999Z</time></trkpt><trkpt lat="45.82948846160436" lon="11.740769538518183"><ele>985.25</ele><time>2026-04-16T09:35:36.999Z</time></trkpt><trkpt lat="45.829582059098364" lon="11.740760965536472"><ele>989.0</ele><time>2026-04-16T09:35:37.999Z</time></trkpt><trkpt lat="45.8296555587591" lon="11.740777779445619"><ele>989.0000000000001</ele><time>2026-04-16T09:35:38.999Z</time></trkpt><trkpt lat="45.8297188894523" lon="11.74083900019537"><ele>989.0</ele><time>2026-04-16T09:35:39.999Z</time></trkpt><trkpt lat="45.82975959121917" lon="11.740928234491987"><ele>989.0</ele><time>2026-04-16T09:35:40.999Z</time></trkpt><trkpt lat="45.82976881643378" lon="11.741032259791169"><ele>989.0</ele><time>2026-04-16T09:35:41.999Z</time></trkpt><trkpt lat="45.8297339556894" lon="11.741133045042854"><ele>989.0000000000001</ele><time>2026-04-16T09:35:42.999Z</time></trkpt><trkpt lat="45.82969249534958" lon="11.741270524235603"><ele>989.0</ele><time>2026-04-16T09:35:43.999Z</time></trkpt><trkpt lat="45.82959057821739" lon="11.741430263190685"><ele>990.0</ele><time>2026-04-16T09:35:44.999Z</time></trkpt><trkpt lat="45.82951866464852" lon="11.741629028953417"><ele>991.0</ele><time>2026-04-16T09:35:45.999Z</time></trkpt><trkpt lat="45.8294613200981" lon="11.741873386741622"><ele>992.0</ele><time>2026-04-16T09:35:46.999Z</time></trkpt><trkpt lat="45.82939198218333" lon="11.742147493125866"><ele>994.3333333333334</ele><time>2026-04-16T09:35:47.999Z</time></trkpt><trkpt lat="45.82932703192885" lon="11.742382909243954"><ele>996.6666666666667</ele><time>2026-04-16T09:35:48.999Z</time></trkpt><trkpt lat="45.82925548634834" lon="11.74259559934379"><ele>999.0</ele><time>2026-04-16T09:35:49.999Z</time></trkpt><trkpt lat="45.82917759765496" lon="11.742802580655079"><ele>990.25</ele><time>2026-04-16T09:35:50.999Z</time></trkpt><trkpt lat="45.829117316765945" lon="11.74299291894792"><ele>981.5</ele><time>2026-04-16T09:35:51.999Z</time></trkpt><trkpt lat="45.82907922918931" lon="11.743168716495877"><ele>972.75</ele><time>2026-04-16T09:35:52.999Z</time></trkpt><trkpt lat="45.82904552437575" lon="11.743365007146359"><ele>964.0</ele><time>2026-04-16T09:35:53.999Z</time></trkpt><trkpt lat="45.829012132630936" lon="11.743593400424283"><ele>963.3333333333333</ele><time>2026-04-16T09:35:54.999Z</time></trkpt><trkpt lat="45.828996167779614" lon="11.74383752808644"><ele>962.6666666666667</ele><time>2026-04-16T09:35:55.999Z</time></trkpt><trkpt lat="45.828984744046856" lon="11.744072917539281"><ele>962.0</ele><time>2026-04-16T09:35:56.999Z</time></trkpt><trkpt lat="45.82897654620657" lon="11.744257905962856"><ele>958.4000000000001</ele><time>2026-04-16T09:35:57.999Z</time></trkpt><trkpt lat="45.82897279437433" lon="11.74439015851408"><ele>954.8000000000001</ele><time>2026-04-16T09:35:58.999Z</time></trkpt><trkpt lat="45.82897559935712" lon="11.744514100266331"><ele>951.2</ele><time>2026-04-16T09:35:59.999Z</time></trkpt><trkpt lat="45.828999483977356" lon="11.744633529384906"><ele>947.6</ele><time>2026-04-16T09:36:00.999Z</time></trkpt><trkpt lat="45.82904963708479" lon="11.744739965102621"><ele>944.0</ele><time>2026-04-16T09:36:01.999Z</time></trkpt><trkpt lat="45.829124299729955" lon="11.744836280968402"><ele>944.0</ele><time>2026-04-16T09:36:02.999Z</time></trkpt><trkpt lat="45.829219679672434" lon="11.744927449213062"><ele>944.0</ele><time>2026-04-16T09:36:03.999Z</time></trkpt><trkpt lat="45.829336995107106" lon="11.745018922400726"><ele>944.0</ele><time>2026-04-16T09:36:04.999Z</time></trkpt><trkpt lat="45.82945537393124" lon="11.745089343524265"><ele>944.0</ele><time>2026-04-16T09:36:05.999Z</time></trkpt><trkpt lat="45.82956663723965" lon="11.74514198445941"><ele>945.0</ele><time>2026-04-16T09:36:06.999Z</time></trkpt><trkpt lat="45.829664944543225" lon="11.74516720348116"><ele>946.0000000000001</ele><time>2026-04-16T09:36:07.999Z</time></trkpt><trkpt lat="45.8297532431322" lon="11.745203330859058"><ele>947.0000000000001</ele><time>2026-04-16T09:36:08.999Z</time></trkpt><trkpt lat="45.82983138979315" lon="11.745212980840426"><ele>948.0</ele><time>2026-04-16T09:36:09.999Z</time></trkpt><trkpt lat="45.82993935920572" lon="11.745220771694873"><ele>949.0</ele><time>2026-04-16T09:36:11.999Z</time></trkpt><trkpt lat="45.82995808692063" lon="11.745352790992325"><ele>945.6</ele><time>2026-04-16T09:36:13.999Z</time></trkpt><trkpt lat="45.82986002172847" lon="11.745427740211836"><ele>942.2</ele><time>2026-04-16T09:36:15.999Z</time></trkpt><trkpt lat="45.82978974336565" lon="11.7454019526748"><ele>938.8000000000001</ele><time>2026-04-16T09:36:16.999Z</time></trkpt><trkpt lat="45.82971773223838" lon="11.745310108396122"><ele>935.4000000000001</ele><time>2026-04-16T09:36:17.999Z</time></trkpt><trkpt lat="45.82962240063168" lon="11.74528109016577"><ele>932.0</ele><time>2026-04-16T09:36:18.999Z</time></trkpt><trkpt lat="45.82951538070053" lon="11.745276090320043"><ele>932.0</ele><time>2026-04-16T09:36:19.999Z</time></trkpt><trkpt lat="45.82940084827885" lon="11.745278941850977"><ele>932.0</ele><time>2026-04-16T09:36:20.999Z</time></trkpt><trkpt lat="45.82925022823903" lon="11.745275918233999"><ele>932.0</ele><time>2026-04-16T09:36:22Z</time></trkpt><trkpt lat="45.82913074603096" lon="11.745258253294244"><ele>932.0</ele><time>2026-04-16T09:36:23Z</time></trkpt><trkpt lat="45.82902476009371" lon="11.745203355880188"><ele>934.4000000000001</ele><time>2026-04-16T09:36:24Z</time></trkpt><trkpt lat="45.828927933038784" lon="11.745128648038838"><ele>936.8000000000001</ele><time>2026-04-16T09:36:25Z</time></trkpt><trkpt lat="45.82882609531037" lon="11.74503741533453"><ele>939.2</ele><time>2026-04-16T09:36:26Z</time></trkpt><trkpt lat="45.8287355105103" lon="11.744937801442621"><ele>941.6</ele><time>2026-04-16T09:36:27Z</time></trkpt><trkpt lat="45.828675502977084" lon="11.744831772505313"><ele>944.0</ele><time>2026-04-16T09:36:28Z</time></trkpt><trkpt lat="45.82861278472255" lon="11.744722104008847"><ele>944.0</ele><time>2026-04-16T09:36:29Z</time></trkpt><trkpt lat="45.82856254200661" lon="11.74456829215319"><ele>944.0</ele><time>2026-04-16T09:36:30Z</time></trkpt><trkpt lat="45.82852818290999" lon="11.744377684037675"><ele>944.0</ele><time>2026-04-16T09:36:31Z</time></trkpt><trkpt lat="45.82848355960633" lon="11.744209637655711"><ele>944.0</ele><time>2026-04-16T09:36:32Z</time></trkpt><trkpt lat="45.828457257417696" lon="11.744032622454052"><ele>938.75</ele><time>2026-04-16T09:36:33Z</time></trkpt><trkpt lat="45.828461180023766" lon="11.743833102680595"><ele>933.5</ele><time>2026-04-16T09:36:34Z</time></trkpt><trkpt lat="45.82845624449991" lon="11.743641781748376"><ele>928.25</ele><time>2026-04-16T09:36:35Z</time></trkpt><trkpt lat="45.8284664387312" lon="11.743450925408252"><ele>923.0</ele><time>2026-04-16T09:36:36Z</time></trkpt><trkpt lat="45.82846171711044" lon="11.743241307423688"><ele>923.0</ele><time>2026-04-16T09:36:37Z</time></trkpt><trkpt lat="45.82846770541033" lon="11.743059348755262"><ele>923.0</ele><time>2026-04-16T09:36:38Z</time></trkpt><trkpt lat="45.82845942827016" lon="11.742912839450122"><ele>923.0</ele><time>2026-04-16T09:36:39Z</time></trkpt><trkpt lat="45.828434024460215" lon="11.742776340290252"><ele>923.0</ele><time>2026-04-16T09:36:40Z</time></trkpt><trkpt lat="45.82835686316107" lon="11.742633001581998"><ele>923.5999999999999</ele><time>2026-04-16T09:36:41Z</time></trkpt><trkpt lat="45.8282990841891" lon="11.74254200054732"><ele>924.1999999999999</ele><time>2026-04-16T09:36:42Z</time></trkpt><trkpt lat="45.82821144765948" lon="11.742493224606953"><ele>924.8</ele><time>2026-04-16T09:36:43Z</time></trkpt><trkpt lat="45.82811966085874" lon="11.742483283206615"><ele>925.4</ele><time>2026-04-16T09:36:44Z</time></trkpt><trkpt lat="45.828020981136596" lon="11.74246938069078"><ele>926.0</ele><time>2026-04-16T09:36:45Z</time></trkpt><trkpt lat="45.827896704012836" lon="11.742508735873672"><ele>926.0</ele><time>2026-04-16T09:36:46Z</time></trkpt><trkpt lat="45.827768792619786" lon="11.742547643804794"><ele>926.0</ele><time>2026-04-16T09:36:47Z</time></trkpt><trkpt lat="45.827619766384046" lon="11.742565947485842"><ele>926.0</ele><time>2026-04-16T09:36:48Z</time></trkpt><trkpt lat="45.827453497083816" lon="11.742586542148416"><ele>926.0</ele><time>2026-04-16T09:36:49Z</time></trkpt><trkpt lat="45.827313902182276" lon="11.742579783033456"><ele>922.0</ele><time>2026-04-16T09:36:50Z</time></trkpt><trkpt lat="45.82718200144881" lon="11.742555770385998"><ele>918.0</ele><time>2026-04-16T09:36:51Z</time></trkpt><trkpt lat="45.82708766149139" lon="11.74253138806729"><ele>914.0</ele><time>2026-04-16T09:36:52Z</time></trkpt><trkpt lat="45.82698045728547" lon="11.742475163062718"><ele>910.0</ele><time>2026-04-16T09:36:53Z</time></trkpt><trkpt lat="45.826879264697936" lon="11.742392254612367"><ele>909.0</ele><time>2026-04-16T09:36:54Z</time></trkpt><trkpt lat="45.82678360757028" lon="11.74230412729315"><ele>908.0</ele><time>2026-04-16T09:36:55Z</time></trkpt><trkpt lat="45.826696826494434" lon="11.742204689144064"><ele>907.0</ele><time>2026-04-16T09:36:56Z</time></trkpt><trkpt lat="45.82662815875223" lon="11.742093549895152"><ele>906.0</ele><time>2026-04-16T09:36:57Z</time></trkpt><trkpt lat="45.82657472059366" lon="11.741965598980002"><ele>905.0</ele><time>2026-04-16T09:36:58Z</time></trkpt><trkpt lat="45.826510912819465" lon="11.74181800532385"><ele>905.0</ele><time>2026-04-16T09:36:59Z</time></trkpt><trkpt lat="45.82643520261918" lon="11.741631935413098"><ele>905.0</ele><time>2026-04-16T09:37:00Z</time></trkpt><trkpt lat="45.82638779613194" lon="11.74145675133032"><ele>905.0</ele><time>2026-04-16T09:37:01Z</time></trkpt><trkpt lat="45.82632835490987" lon="11.741294628667495"><ele>905.0</ele><time>2026-04-16T09:37:02Z</time></trkpt><trkpt lat="45.8262759647053" lon="11.741111665413486"><ele>907.3333333333334</ele><time>2026-04-16T09:37:03Z</time></trkpt><trkpt lat="45.82623376851925" lon="11.740896236646"><ele>909.6666666666667</ele><time>2026-04-16T09:37:04Z</time></trkpt><trkpt lat="45.82619944429204" lon="11.740641037090462"><ele>912.0</ele><time>2026-04-16T09:37:05Z</time></trkpt><trkpt lat="45.82616263054901" lon="11.740372875396067"><ele>911.0</ele><time>2026-04-16T09:37:06Z</time></trkpt><trkpt lat="45.826149632064705" lon="11.7401317295511"><ele>910.0</ele><time>2026-04-16T09:37:07Z</time></trkpt><trkpt lat="45.82612285546885" lon="11.739901776180918"><ele>909.0</ele><time>2026-04-16T09:37:08Z</time></trkpt><trkpt lat="45.82612881053087" lon="11.73967590780484"><ele>909.0</ele><time>2026-04-16T09:37:09Z</time></trkpt><trkpt lat="45.8261254173288" lon="11.739499420823561"><ele>909.0000000000001</ele><time>2026-04-16T09:37:10Z</time></trkpt><trkpt lat="45.826113133817024" lon="11.739377642513514"><ele>909.0000000000001</ele><time>2026-04-16T09:37:11Z</time></trkpt><trkpt lat="45.826063725175395" lon="11.73923741638552"><ele>909.0</ele><time>2026-04-16T09:37:12Z</time></trkpt><trkpt lat="45.82599314709414" lon="11.739114959453783"><ele>909.0</ele><time>2026-04-16T09:37:13Z</time></trkpt><trkpt lat="45.82589908047393" lon="11.738966593947481"><ele>900.5</ele><time>2026-04-16T09:37:14Z</time></trkpt><trkpt lat="45.825820465764146" lon="11.738781894040555"><ele>892.0</ele><time>2026-04-16T09:37:14.999Z</time></trkpt><trkpt lat="45.8257710063702" lon="11.738611443011228"><ele>883.5</ele><time>2026-04-16T09:37:15.999Z</time></trkpt><trkpt lat="45.8257101507816" lon="11.738456063116873"><ele>875.0</ele><time>2026-04-16T09:37:16.999Z</time></trkpt><trkpt lat="45.82562627081872" lon="11.738351226679818"><ele>875.0</ele><time>2026-04-16T09:37:17.999Z</time></trkpt><trkpt lat="45.82552620541602" lon="11.738265991074462"><ele>875.0</ele><time>2026-04-16T09:37:18.999Z</time></trkpt><trkpt lat="45.825417479544015" lon="11.738201296359364"><ele>875.0</ele><time>2026-04-16T09:37:19.999Z</time></trkpt><trkpt lat="45.82532477231664" lon="11.738136389640866"><ele>875.0</ele><time>2026-04-16T09:37:20.999Z</time></trkpt><trkpt lat="45.8252510045083" lon="11.738024742595435"><ele>875.0</ele><time>2026-04-16T09:37:21.999Z</time></trkpt><trkpt lat="45.825192639146074" lon="11.737885065403487"><ele>870.75</ele><time>2026-04-16T09:37:22.999Z</time></trkpt><trkpt lat="45.8251434964441" lon="11.73771805382218"><ele>866.5</ele><time>2026-04-16T09:37:23.999Z</time></trkpt><trkpt lat="45.8250734785422" lon="11.737562033973079"><ele>862.25</ele><time>2026-04-16T09:37:24.999Z</time></trkpt><trkpt lat="45.82496903615349" lon="11.737419876149922"><ele>858.0</ele><time>2026-04-16T09:37:25.999Z</time></trkpt><trkpt lat="45.82485005533237" lon="11.73730444339816"><ele>858.0</ele><time>2026-04-16T09:37:26.999Z</time></trkpt><trkpt lat="45.82469008169555" lon="11.737154585260704"><ele>858.0</ele><time>2026-04-16T09:37:27.999Z</time></trkpt><trkpt lat="45.82454671498815" lon="11.737043717817555"><ele>858.0</ele><time>2026-04-16T09:37:28.999Z</time></trkpt><trkpt lat="45.82443669646963" lon="11.736961683583331"><ele>858.0</ele><time>2026-04-16T09:37:29.999Z</time></trkpt><trkpt lat="45.82434322981853" lon="11.73690590372032"><ele>858.0</ele><time>2026-04-16T09:37:30.999Z</time></trkpt><trkpt lat="45.824254082174036" lon="11.736881214453872"><ele>858.0</ele><time>2026-04-16T09:37:31.999Z</time></trkpt><trkpt lat="45.82415954095125" lon="11.736903549009371"><ele>858.0</ele><time>2026-04-16T09:37:32.999Z</time></trkpt><trkpt lat="45.824061009029045" lon="11.736973694828514"><ele>858.0</ele><time>2026-04-16T09:37:33.999Z</time></trkpt><trkpt lat="45.82393513472819" lon="11.737034456267644"><ele>857.6666666666666</ele><time>2026-04-16T09:37:34.999Z</time></trkpt><trkpt lat="45.82385779875865" lon="11.737110115215502"><ele>857.3333333333333</ele><time>2026-04-16T09:37:35.999Z</time></trkpt><trkpt lat="45.82380309472135" lon="11.737179720638412"><ele>857.0</ele><time>2026-04-16T09:37:36.999Z</time></trkpt><trkpt lat="45.823787348442195" lon="11.737282383583187"><ele>856.6666666666666</ele><time>2026-04-16T09:37:37.999Z</time></trkpt><trkpt lat="45.82380025702846" lon="11.737392062346176"><ele>856.3333333333333</ele><time>2026-04-16T09:37:38.999Z</time></trkpt><trkpt lat="45.82384105532632" lon="11.737498107569747"><ele>856.0</ele><time>2026-04-16T09:37:39.999Z</time></trkpt><trkpt lat="45.823912449283036" lon="11.737587369963236"><ele>856.0</ele><time>2026-04-16T09:37:40.999Z</time></trkpt><trkpt lat="45.824000173898575" lon="11.737665820416531"><ele>856.0</ele><time>2026-04-16T09:37:41.999Z</time></trkpt><trkpt lat="45.82409981923802" lon="11.737764129461443"><ele>856.0</ele><time>2026-04-16T09:37:42.999Z</time></trkpt><trkpt lat="45.824212526002874" lon="11.737909779843358"><ele>856.0</ele><time>2026-04-16T09:37:43.999Z</time></trkpt><trkpt lat="45.82429750234912" lon="11.738066249123724"><ele>855.1999999999999</ele><time>2026-04-16T09:37:44.999Z</time></trkpt><trkpt lat="45.82434624188023" lon="11.73819998849839"><ele>854.3999999999999</ele><time>2026-04-16T09:37:45.999Z</time></trkpt><trkpt lat="45.824369141468495" lon="11.738329036036834"><ele>853.6</ele><time>2026-04-16T09:37:46.999Z</time></trkpt><trkpt lat="45.82436509827732" lon="11.738456480323798"><ele>852.8</ele><time>2026-04-16T09:37:47.999Z</time></trkpt><trkpt lat="45.82433608976426" lon="11.738593615855727"><ele>852.0</ele><time>2026-04-16T09:37:48.999Z</time></trkpt><trkpt lat="45.82430128960776" lon="11.738767683227678"><ele>853.5</ele><time>2026-04-16T09:37:49.999Z</time></trkpt><trkpt lat="45.82423458563047" lon="11.738970332178171"><ele>855.0</ele><time>2026-04-16T09:37:50.999Z</time></trkpt><trkpt lat="45.8242170677987" lon="11.739177383301623"><ele>856.5</ele><time>2026-04-16T09:37:51.999Z</time></trkpt><trkpt lat="45.82419101096539" lon="11.739376874089405"><ele>858.0</ele><time>2026-04-16T09:37:52.999Z</time></trkpt><trkpt lat="45.82417146683693" lon="11.73960712748689"><ele>858.0</ele><time>2026-04-16T09:37:53.999Z</time></trkpt><trkpt lat="45.82414740538376" lon="11.739895233127934"><ele>858.0</ele><time>2026-04-16T09:37:54.999Z</time></trkpt><trkpt lat="45.824096895370516" lon="11.740148034191346"><ele>858.0</ele><time>2026-04-16T09:37:55.999Z</time></trkpt><trkpt lat="45.82403596502922" lon="11.740414603522213"><ele>855.0</ele><time>2026-04-16T09:37:56.999Z</time></trkpt><trkpt lat="45.82399555631116" lon="11.74068838738533"><ele>852.0</ele><time>2026-04-16T09:37:57.999Z</time></trkpt><trkpt lat="45.823982175548124" lon="11.740933115852418"><ele>849.0</ele><time>2026-04-16T09:37:58.999Z</time></trkpt><trkpt lat="45.82395901248015" lon="11.741160031239485"><ele>848.5</ele><time>2026-04-16T09:37:59.999Z</time></trkpt><trkpt lat="45.82393443944243" lon="11.741349084067535"><ele>848.0</ele><time>2026-04-16T09:38:00.999Z</time></trkpt><trkpt lat="45.8239070102091" lon="11.741500574557852"><ele>847.5</ele><time>2026-04-16T09:38:01.999Z</time></trkpt><trkpt lat="45.823858630604846" lon="11.741654932855186"><ele>847.0</ele><time>2026-04-16T09:38:02.999Z</time></trkpt><trkpt lat="45.82377177519132" lon="11.741771874300747"><ele>845.5</ele><time>2026-04-16T09:38:03.999Z</time></trkpt><trkpt lat="45.82367884164222" lon="11.741936079720555"><ele>844.0</ele><time>2026-04-16T09:38:04.999Z</time></trkpt><trkpt lat="45.82359781833444" lon="11.7421123833895"><ele>842.5</ele><time>2026-04-16T09:38:05.999Z</time></trkpt><trkpt lat="45.82352297110851" lon="11.742301581474386"><ele>841.0</ele><time>2026-04-16T09:38:06.999Z</time></trkpt><trkpt lat="45.82345591533506" lon="11.742448180524926"><ele>845.0</ele><time>2026-04-16T09:38:07.999Z</time></trkpt><trkpt lat="45.823395889912014" lon="11.74254906268742"><ele>849.0</ele><time>2026-04-16T09:38:08.999Z</time></trkpt><trkpt lat="45.82331912983827" lon="11.742631305672967"><ele>852.9999999999999</ele><time>2026-04-16T09:38:09.999Z</time></trkpt><trkpt lat="45.82324223200186" lon="11.742678873416754"><ele>857.0</ele><time>2026-04-16T09:38:10.999Z</time></trkpt><trkpt lat="45.82313184182293" lon="11.742666843674664"><ele>861.0</ele><time>2026-04-16T09:38:11.999Z</time></trkpt><trkpt lat="45.82301246596655" lon="11.742697198835977"><ele>861.0</ele><time>2026-04-16T09:38:12.999Z</time></trkpt><trkpt lat="45.82289673945999" lon="11.742688395192156"><ele>861.0</ele><time>2026-04-16T09:38:13.999Z</time></trkpt><trkpt lat="45.82279274947033" lon="11.742684006250432"><ele>861.0</ele><time>2026-04-16T09:38:14.999Z</time></trkpt><trkpt lat="45.822669732407576" lon="11.742618794372286"><ele>861.0</ele><time>2026-04-16T09:38:15.999Z</time></trkpt><trkpt lat="45.82253265222938" lon="11.74252996785129"><ele>859.75</ele><time>2026-04-16T09:38:16.999Z</time></trkpt><trkpt lat="45.82238511685248" lon="11.74242952605423"><ele>858.5</ele><time>2026-04-16T09:38:17.999Z</time></trkpt><trkpt lat="45.82226028776478" lon="11.742339533184825"><ele>857.25</ele><time>2026-04-16T09:38:18.999Z</time></trkpt><trkpt lat="45.82217653494275" lon="11.742252952138138"><ele>856.0</ele><time>2026-04-16T09:38:19.999Z</time></trkpt><trkpt lat="45.822046494317995" lon="11.742255676804314"><ele>856.0</ele><time>2026-04-16T09:38:20.999Z</time></trkpt><trkpt lat="45.821922047679735" lon="11.742269888066296"><ele>855.9999999999999</ele><time>2026-04-16T09:38:21.999Z</time></trkpt><trkpt lat="45.821826761045436" lon="11.742272685169317"><ele>855.9999999999999</ele><time>2026-04-16T09:38:22.999Z</time></trkpt><trkpt lat="45.82173040870878" lon="11.742237764162457"><ele>856.0</ele><time>2026-04-16T09:38:23.999Z</time></trkpt><trkpt lat="45.82164671751689" lon="11.742148113138532"><ele>856.0</ele><time>2026-04-16T09:38:24.999Z</time></trkpt><trkpt lat="45.82154601070184" lon="11.742041191596748"><ele>854.4</ele><time>2026-04-16T09:38:25.999Z</time></trkpt><trkpt lat="45.8214428671553" lon="11.741973263469319"><ele>852.8</ele><time>2026-04-16T09:38:26.999Z</time></trkpt><trkpt lat="45.821358127733895" lon="11.741926836785645"><ele>851.1999999999999</ele><time>2026-04-16T09:38:28Z</time></trkpt><trkpt lat="45.82127214469506" lon="11.74193966007313"><ele>849.5999999999999</ele><time>2026-04-16T09:38:29Z</time></trkpt><trkpt lat="45.821183772468515" lon="11.742015890743748"><ele>848.0</ele><time>2026-04-16T09:38:30Z</time></trkpt><trkpt lat="45.82108884989391" lon="11.742098347739802"><ele>848.0</ele><time>2026-04-16T09:38:31Z</time></trkpt><trkpt lat="45.82099038741437" lon="11.742122505551603"><ele>848.0</ele><time>2026-04-16T09:38:32Z</time></trkpt><trkpt lat="45.820908882441756" lon="11.742103454837315"><ele>848.0</ele><time>2026-04-16T09:38:33Z</time></trkpt><trkpt lat="45.820814464077735" lon="11.7420492752048"><ele>848.0</ele><time>2026-04-16T09:38:34Z</time></trkpt><trkpt lat="45.820694086877225" lon="11.741959121179738"><ele>848.0</ele><time>2026-04-16T09:38:35Z</time></trkpt><trkpt lat="45.820541832399535" lon="11.74188330426955"><ele>845.0</ele><time>2026-04-16T09:38:36Z</time></trkpt><trkpt lat="45.82041507694405" lon="11.741817950438072"><ele>842.0</ele><time>2026-04-16T09:38:37Z</time></trkpt><trkpt lat="45.82029053421601" lon="11.741810660012373"><ele>839.0</ele><time>2026-04-16T09:38:38Z</time></trkpt><trkpt lat="45.8201834489223" lon="11.741788849928515"><ele>836.0</ele><time>2026-04-16T09:38:39Z</time></trkpt><trkpt lat="45.82008991446911" lon="11.74178055783962"><ele>836.0</ele><time>2026-04-16T09:38:40Z</time></trkpt><trkpt lat="45.82001293548936" lon="11.741678368450621"><ele>836.0</ele><time>2026-04-16T09:38:41Z</time></trkpt><trkpt lat="45.81994685773784" lon="11.741534660065783"><ele>836.0</ele><time>2026-04-16T09:38:42Z</time></trkpt><trkpt lat="45.819856043366165" lon="11.741368719272677"><ele>836.0</ele><time>2026-04-16T09:38:43Z</time></trkpt><trkpt lat="45.81976134505542" lon="11.74123179171353"><ele>836.0</ele><time>2026-04-16T09:38:44Z</time></trkpt><trkpt lat="45.819672327234656" lon="11.741112695614225"><ele>836.0</ele><time>2026-04-16T09:38:45Z</time></trkpt><trkpt lat="45.81955333864221" lon="11.741044040625368"><ele>836.0</ele><time>2026-04-16T09:38:46Z</time></trkpt><trkpt lat="45.81940969259234" lon="11.741006016709978"><ele>836.0</ele><time>2026-04-16T09:38:47Z</time></trkpt><trkpt lat="45.81924669934043" lon="11.740984658130927"><ele>834.25</ele><time>2026-04-16T09:38:48Z</time></trkpt><trkpt lat="45.819111470847915" lon="11.74095899860103"><ele>832.5</ele><time>2026-04-16T09:38:49Z</time></trkpt><trkpt lat="45.819013023356455" lon="11.740857969518533"><ele>830.75</ele><time>2026-04-16T09:38:50Z</time></trkpt><trkpt lat="45.818920505967014" lon="11.740846332536325"><ele>829.0</ele><time>2026-04-16T09:38:51Z</time></trkpt><trkpt lat="45.81881834515431" lon="11.741069009256751"><ele>824.6666666666666</ele><time>2026-04-16T09:38:52Z</time></trkpt><trkpt lat="45.818719197528914" lon="11.741203410584232"><ele>820.3333333333333</ele><time>2026-04-16T09:38:53Z</time></trkpt><trkpt lat="45.81860195862055" lon="11.74137303026784"><ele>816.0</ele><time>2026-04-16T09:38:54Z</time></trkpt><trkpt lat="45.81848575027936" lon="11.741529797943375"><ele>816.8333333333334</ele><time>2026-04-16T09:38:55Z</time></trkpt><trkpt lat="45.81839472124589" lon="11.7416271712426"><ele>817.6666666666667</ele><time>2026-04-16T09:38:56Z</time></trkpt><trkpt lat="45.818327328970334" lon="11.74170212256768"><ele>818.5</ele><time>2026-04-16T09:38:57Z</time></trkpt><trkpt lat="45.81825902364421" lon="11.741759098912961"><ele>819.3333333333334</ele><time>2026-04-16T09:38:58Z</time></trkpt><trkpt lat="45.81819124719888" lon="11.741775688182667"><ele>820.1666666666667</ele><time>2026-04-16T09:38:59Z</time></trkpt><trkpt lat="45.81812870487293" lon="11.741754385215778"><ele>821.0</ele><time>2026-04-16T09:39:00Z</time></trkpt><trkpt lat="45.81804816794497" lon="11.741637315259469"><ele>821.0</ele><time>2026-04-16T09:39:02Z</time></trkpt><trkpt lat="45.81800770806276" lon="11.74154891596459"><ele>821.0</ele><time>2026-04-16T09:39:03Z</time></trkpt><trkpt lat="45.81793255041693" lon="11.741438087966637"><ele>821.0</ele><time>2026-04-16T09:39:04Z</time></trkpt><trkpt lat="45.81783983837247" lon="11.741330224591955"><ele>821.0</ele><time>2026-04-16T09:39:05Z</time></trkpt><trkpt lat="45.81771901711062" lon="11.741261700217743"><ele>821.0</ele><time>2026-04-16T09:39:06Z</time></trkpt><trkpt lat="45.81760256572713" lon="11.741230911032808"><ele>819.8</ele><time>2026-04-16T09:39:07Z</time></trkpt><trkpt lat="45.81751809489607" lon="11.74117708399282"><ele>818.5999999999999</ele><time>2026-04-16T09:39:08Z</time></trkpt><trkpt lat="45.81742243550883" lon="11.741168697083014"><ele>817.4</ele><time>2026-04-16T09:39:09Z</time></trkpt><trkpt lat="45.81733969363996" lon="11.74123405200314"><ele>816.2</ele><time>2026-04-16T09:39:10Z</time></trkpt><trkpt lat="45.817276207579496" lon="11.741325046210285"><ele>815.0</ele><time>2026-04-16T09:39:11Z</time></trkpt><trkpt lat="45.817211477796604" lon="11.741464588320097"><ele>815.0</ele><time>2026-04-16T09:39:12Z</time></trkpt><trkpt lat="45.81715589066445" lon="11.741622940461712"><ele>815.0</ele><time>2026-04-16T09:39:13Z</time></trkpt><trkpt lat="45.81708239869863" lon="11.741784020265845"><ele>815.0</ele><time>2026-04-16T09:39:14Z</time></trkpt><trkpt lat="45.81700980239915" lon="11.741941342784392"><ele>815.0</ele><time>2026-04-16T09:39:15Z</time></trkpt><trkpt lat="45.81694704038298" lon="11.742034180077072"><ele>809.8</ele><time>2026-04-16T09:39:16Z</time></trkpt><trkpt lat="45.81688482772446" lon="11.742098464757499"><ele>804.6</ele><time>2026-04-16T09:39:16.999Z</time></trkpt><trkpt lat="45.81680742487251" lon="11.742131616444263"><ele>799.4000000000001</ele><time>2026-04-16T09:39:17.999Z</time></trkpt><trkpt lat="45.8167289659409" lon="11.742127265411996"><ele>794.2</ele><time>2026-04-16T09:39:18.999Z</time></trkpt><trkpt lat="45.81663537472929" lon="11.742094295804064"><ele>789.0</ele><time>2026-04-16T09:39:19.999Z</time></trkpt><trkpt lat="45.81648796350558" lon="11.742071199869509"><ele>789.0</ele><time>2026-04-16T09:39:20.999Z</time></trkpt><trkpt lat="45.81633555716236" lon="11.74205366773592"><ele>789.0</ele><time>2026-04-16T09:39:21.999Z</time></trkpt><trkpt lat="45.81621033428206" lon="11.742047031177655"><ele>789.0</ele><time>2026-04-16T09:39:22.999Z</time></trkpt><trkpt lat="45.81611600310325" lon="11.742043000194894"><ele>789.0</ele><time>2026-04-16T09:39:23.999Z</time></trkpt><trkpt lat="45.81603417108587" lon="11.742016386000579"><ele>786.75</ele><time>2026-04-16T09:39:24.999Z</time></trkpt><trkpt lat="45.81595812755355" lon="11.741989600830806"><ele>784.5</ele><time>2026-04-16T09:39:25.999Z</time></trkpt><trkpt lat="45.81592739309519" lon="11.741841250634273"><ele>782.25</ele><time>2026-04-16T09:39:26.999Z</time></trkpt><trkpt lat="45.81585240400859" lon="11.741668442265677"><ele>780.0</ele><time>2026-04-16T09:39:27.999Z</time></trkpt><trkpt lat="45.81579031767382" lon="11.741506970956614"><ele>785.0</ele><time>2026-04-16T09:39:28.999Z</time></trkpt><trkpt lat="45.815753809496485" lon="11.74137404572419"><ele>790.0</ele><time>2026-04-16T09:39:29.999Z</time></trkpt><trkpt lat="45.8157292942735" lon="11.741239511065286"><ele>795.0</ele><time>2026-04-16T09:39:30.999Z</time></trkpt><trkpt lat="45.81577966404637" lon="11.741077749160008"><ele>800.0</ele><time>2026-04-16T09:39:31.999Z</time></trkpt><trkpt lat="45.81578590830972" lon="11.740887468469284"><ele>801.3333333333334</ele><time>2026-04-16T09:39:32.999Z</time></trkpt><trkpt lat="45.81575152375633" lon="11.740699382489153"><ele>802.6666666666667</ele><time>2026-04-16T09:39:33.999Z</time></trkpt><trkpt lat="45.815734047639395" lon="11.740428226390137"><ele>804.0</ele><time>2026-04-16T09:39:34.999Z</time></trkpt><trkpt lat="45.81569309018728" lon="11.740220079465084"><ele>803.2</ele><time>2026-04-16T09:39:35.999Z</time></trkpt><trkpt lat="45.81567560149244" lon="11.740068340545044"><ele>802.4000000000001</ele><time>2026-04-16T09:39:36.999Z</time></trkpt><trkpt lat="45.81564542831784" lon="11.739958021063902"><ele>801.6</ele><time>2026-04-16T09:39:37.999Z</time></trkpt><trkpt lat="45.815583734802146" lon="11.73986741291501"><ele>800.8</ele><time>2026-04-16T09:39:38.999Z</time></trkpt><trkpt lat="45.81548841876718" lon="11.739810367128612"><ele>800.0</ele><time>2026-04-16T09:39:39.999Z</time></trkpt><trkpt lat="45.815371054845826" lon="11.739780623730919"><ele>800.0</ele><time>2026-04-16T09:39:40.999Z</time></trkpt><trkpt lat="45.81524247829143" lon="11.739794275475292"><ele>800.0</ele><time>2026-04-16T09:39:41.999Z</time></trkpt><trkpt lat="45.81511797281285" lon="11.739838027627503"><ele>800.0</ele><time>2026-04-16T09:39:42.999Z</time></trkpt><trkpt lat="45.815020195621415" lon="11.739911988151432"><ele>800.0</ele><time>2026-04-16T09:39:43.999Z</time></trkpt><trkpt lat="45.81492828737068" lon="11.740007907120232"><ele>796.3333333333334</ele><time>2026-04-16T09:39:44.999Z</time></trkpt><trkpt lat="45.81484811599207" lon="11.74017663891059"><ele>792.6666666666667</ele><time>2026-04-16T09:39:45.999Z</time></trkpt><trkpt lat="45.81474531505768" lon="11.740396875900416"><ele>789.0</ele><time>2026-04-16T09:39:46.999Z</time></trkpt><trkpt lat="45.81464545367486" lon="11.740578411716434"><ele>786.5</ele><time>2026-04-16T09:39:47.999Z</time></trkpt><trkpt lat="45.81455433256033" lon="11.740751355888912"><ele>784.0</ele><time>2026-04-16T09:39:48.999Z</time></trkpt><trkpt lat="45.8144674861525" lon="11.740899194651858"><ele>781.5</ele><time>2026-04-16T09:39:49.999Z</time></trkpt><trkpt lat="45.81437253377728" lon="11.741001419279986"><ele>779.0</ele><time>2026-04-16T09:39:50.999Z</time></trkpt><trkpt lat="45.81427451332345" lon="11.741074198856582"><ele>777.0</ele><time>2026-04-16T09:39:51.999Z</time></trkpt><trkpt lat="45.814169719882834" lon="11.74112135964306"><ele>775.0</ele><time>2026-04-16T09:39:52.999Z</time></trkpt><trkpt lat="45.81403047759719" lon="11.741172965118913"><ele>773.0</ele><time>2026-04-16T09:39:53.999Z</time></trkpt><trkpt lat="45.81388596982274" lon="11.741210777038663"><ele>771.0</ele><time>2026-04-16T09:39:54.999Z</time></trkpt><trkpt lat="45.81376856012961" lon="11.741225958953436"><ele>771.0</ele><time>2026-04-16T09:39:55.999Z</time></trkpt><trkpt lat="45.81364583126496" lon="11.741222935068475"><ele>771.0</ele><time>2026-04-16T09:39:56.999Z</time></trkpt><trkpt lat="45.81351859123463" lon="11.741191266065577"><ele>771.0</ele><time>2026-04-16T09:39:57.999Z</time></trkpt><trkpt lat="45.81340561837927" lon="11.74115088497935"><ele>771.0</ele><time>2026-04-16T09:39:58.999Z</time></trkpt><trkpt lat="45.8132953488613" lon="11.741098506080254"><ele>778.0</ele><time>2026-04-16T09:39:59.999Z</time></trkpt><trkpt lat="45.813158749371915" lon="11.741005264831745"><ele>785.0</ele><time>2026-04-16T09:40:00.999Z</time></trkpt><trkpt lat="45.81300043693611" lon="11.740888931543047"><ele>792.0</ele><time>2026-04-16T09:40:01.999Z</time></trkpt><trkpt lat="45.8128292727258" lon="11.740764205855841"><ele>792.0</ele><time>2026-04-16T09:40:02.999Z</time></trkpt><trkpt lat="45.812657588722416" lon="11.740661090108274"><ele>792.0</ele><time>2026-04-16T09:40:03.999Z</time></trkpt><trkpt lat="45.81250922856558" lon="11.74058281941534"><ele>792.0</ele><time>2026-04-16T09:40:04.999Z</time></trkpt><trkpt lat="45.81235772308099" lon="11.740515590029137"><ele>792.2</ele><time>2026-04-16T09:40:05.999Z</time></trkpt><trkpt lat="45.81222311438876" lon="11.740491795472236"><ele>792.4000000000001</ele><time>2026-04-16T09:40:06.999Z</time></trkpt><trkpt lat="45.81212059629343" lon="11.74048879207659"><ele>792.5999999999999</ele><time>2026-04-16T09:40:07.999Z</time></trkpt><trkpt lat="45.81202300417502" lon="11.74053768770684"><ele>792.8</ele><time>2026-04-16T09:40:08.999Z</time></trkpt><trkpt lat="45.811932518301326" lon="11.74059089472813"><ele>793.0</ele><time>2026-04-16T09:40:09.999Z</time></trkpt><trkpt lat="45.81184994826549" lon="11.740666235018026"><ele>790.5</ele><time>2026-04-16T09:40:10.999Z</time></trkpt><trkpt lat="45.81177033287648" lon="11.740789054494"><ele>788.0</ele><time>2026-04-16T09:40:11.999Z</time></trkpt><trkpt lat="45.811686376519106" lon="11.74093455017455"><ele>785.5</ele><time>2026-04-16T09:40:12.999Z</time></trkpt><trkpt lat="45.811606674253774" lon="11.741076982524426"><ele>783.0</ele><time>2026-04-16T09:40:13.999Z</time></trkpt><trkpt lat="45.81154201303977" lon="11.741193274064175"><ele>781.5999999999999</ele><time>2026-04-16T09:40:14.999Z</time></trkpt><trkpt lat="45.81148491363992" lon="11.741302153039063"><ele>780.1999999999999</ele><time>2026-04-16T09:40:15.999Z</time></trkpt><trkpt lat="45.81144472778878" lon="11.741425179076856"><ele>778.8</ele><time>2026-04-16T09:40:16.999Z</time></trkpt><trkpt lat="45.81143025787629" lon="11.741574651630081"><ele>777.4</ele><time>2026-04-16T09:40:17.999Z</time></trkpt><trkpt lat="45.81143116807619" lon="11.741735943928937"><ele>776.0</ele><time>2026-04-16T09:40:18.999Z</time></trkpt><trkpt lat="45.8114502113159" lon="11.741888734684668"><ele>774.5</ele><time>2026-04-16T09:40:19.999Z</time></trkpt><trkpt lat="45.811487115872005" lon="11.742034087458148"><ele>773.0</ele><time>2026-04-16T09:40:20.999Z</time></trkpt><trkpt lat="45.81154440366218" lon="11.742185183026185"><ele>771.5</ele><time>2026-04-16T09:40:21.999Z</time></trkpt><trkpt lat="45.81161401151984" lon="11.742333372571084"><ele>770.0</ele><time>2026-04-16T09:40:22.999Z</time></trkpt><trkpt lat="45.8116747571736" lon="11.742474839412179"><ele>770.0</ele><time>2026-04-16T09:40:23.999Z</time></trkpt><trkpt lat="45.811732602621824" lon="11.742612959958846"><ele>770.0</ele><time>2026-04-16T09:40:24.999Z</time></trkpt><trkpt lat="45.81178514447485" lon="11.742746786313285"><ele>770.0</ele><time>2026-04-16T09:40:25.999Z</time></trkpt><trkpt lat="45.811815324835116" lon="11.742885629275039"><ele>770.0</ele><time>2026-04-16T09:40:26.999Z</time></trkpt><trkpt lat="45.81182992538725" lon="11.743008344170173"><ele>770.0</ele><time>2026-04-16T09:40:27.999Z</time></trkpt><trkpt lat="45.81182729359337" lon="11.74312366808456"><ele>769.0</ele><time>2026-04-16T09:40:28.999Z</time></trkpt><trkpt lat="45.811807904727345" lon="11.743237806013724"><ele>768.0</ele><time>2026-04-16T09:40:29.999Z</time></trkpt><trkpt lat="45.81176793599303" lon="11.74337684687146"><ele>767.0</ele><time>2026-04-16T09:40:30.999Z</time></trkpt><trkpt lat="45.811710965317815" lon="11.743539285409867"><ele>766.0</ele><time>2026-04-16T09:40:31.999Z</time></trkpt><trkpt lat="45.81168618993412" lon="11.743687936273979"><ele>765.0</ele><time>2026-04-16T09:40:32.999Z</time></trkpt><trkpt lat="45.81167661341615" lon="11.743843596462101"><ele>763.2</ele><time>2026-04-16T09:40:34Z</time></trkpt><trkpt lat="45.81168979157995" lon="11.744020760197099"><ele>761.4</ele><time>2026-04-16T09:40:35Z</time></trkpt><trkpt lat="45.81170364469623" lon="11.74418283365433"><ele>759.5999999999999</ele><time>2026-04-16T09:40:36Z</time></trkpt><trkpt lat="45.81171975466579" lon="11.744320980341843"><ele>757.8</ele><time>2026-04-16T09:40:37Z</time></trkpt><trkpt lat="45.81174996735494" lon="11.744435787491762"><ele>756.0</ele><time>2026-04-16T09:40:38Z</time></trkpt><trkpt lat="45.81179543611179" lon="11.744531889347037"><ele>755.5</ele><time>2026-04-16T09:40:39Z</time></trkpt><trkpt lat="45.81185072197143" lon="11.744608208743417"><ele>755.0</ele><time>2026-04-16T09:40:40Z</time></trkpt><trkpt lat="45.81191058948147" lon="11.74467293709297"><ele>754.5</ele><time>2026-04-16T09:40:41Z</time></trkpt><trkpt lat="45.81196960402794" lon="11.744723339322343"><ele>754.0</ele><time>2026-04-16T09:40:42Z</time></trkpt><trkpt lat="45.812028467468465" lon="11.744769645753468"><ele>753.5</ele><time>2026-04-16T09:40:43Z</time></trkpt><trkpt lat="45.81211470227524" lon="11.744824910824434"><ele>753.0</ele><time>2026-04-16T09:40:45Z</time></trkpt><trkpt lat="45.812191283616826" lon="11.744893811990318"><ele>753.0</ele><time>2026-04-16T09:40:47Z</time></trkpt><trkpt lat="45.81224161877772" lon="11.744976651618344"><ele>753.0</ele><time>2026-04-16T09:40:49Z</time></trkpt><trkpt lat="45.812303782244726" lon="11.744957410387201"><ele>753.0</ele><time>2026-04-16T09:56:36.001Z</time></trkpt><trkpt lat="45.8124267891843" lon="11.745020295445798"><ele>753.0</ele><time>2026-04-16T09:56:38.001Z</time></trkpt><trkpt lat="45.81249769964564" lon="11.74507640434196"><ele>753.0</ele><time>2026-04-16T09:56:39.001Z</time></trkpt><trkpt lat="45.812565930509464" lon="11.74511815457444"><ele>753.0</ele><time>2026-04-16T09:56:40.001Z</time></trkpt><trkpt lat="45.81262811265032" lon="11.745199465832128"><ele>748.8</ele><time>2026-04-16T09:56:41.001Z</time></trkpt><trkpt lat="45.81270900442324" lon="11.745258568843521"><ele>744.5999999999999</ele><time>2026-04-16T09:56:42.001Z</time></trkpt><trkpt lat="45.81279193859622" lon="11.745319164167428"><ele>740.4000000000001</ele><time>2026-04-16T09:56:43.001Z</time></trkpt><trkpt lat="45.812876676260174" lon="11.745380692515983"><ele>736.2</ele><time>2026-04-16T09:56:44.001Z</time></trkpt><trkpt lat="45.8129717947458" lon="11.74544611196183"><ele>732.0</ele><time>2026-04-16T09:56:45.001Z</time></trkpt><trkpt lat="45.81307412704983" lon="11.745500881923876"><ele>732.0</ele><time>2026-04-16T09:56:46.001Z</time></trkpt><trkpt lat="45.81319069760503" lon="11.745514379128474"><ele>732.0</ele><time>2026-04-16T09:56:47.001Z</time></trkpt><trkpt lat="45.81332705109551" lon="11.745547276193783"><ele>732.0</ele><time>2026-04-16T09:56:48.001Z</time></trkpt><trkpt lat="45.81346404737639" lon="11.745567545218275"><ele>732.0</ele><time>2026-04-16T09:56:49.002Z</time></trkpt><trkpt lat="45.813590680905804" lon="11.745596226531173"><ele>730.4000000000001</ele><time>2026-04-16T09:56:50.002Z</time></trkpt><trkpt lat="45.813707566576355" lon="11.745667620519542"><ele>728.8000000000001</ele><time>2026-04-16T09:56:51.002Z</time></trkpt><trkpt lat="45.81382127643113" lon="11.745719157459241"><ele>727.2</ele><time>2026-04-16T09:56:52.002Z</time></trkpt><trkpt lat="45.813925370929816" lon="11.745735039537985"><ele>725.6</ele><time>2026-04-16T09:56:53.002Z</time></trkpt><trkpt lat="45.814015514636516" lon="11.74574390633884"><ele>724.0</ele><time>2026-04-16T09:56:54.002Z</time></trkpt><trkpt lat="45.81409501575078" lon="11.745761381112686"><ele>724.0</ele><time>2026-04-16T09:56:55.002Z</time></trkpt><trkpt lat="45.814166059609576" lon="11.745758880224527"><ele>724.0</ele><time>2026-04-16T09:56:56.002Z</time></trkpt><trkpt lat="45.81424082644919" lon="11.745813104204885"><ele>724.0</ele><time>2026-04-16T09:56:58.002Z</time></trkpt><trkpt lat="45.81421345465342" lon="11.745933130623174"><ele>724.0</ele><time>2026-04-16T09:57:00.002Z</time></trkpt><trkpt lat="45.814144233547836" lon="11.745959713565213"><ele>724.0</ele><time>2026-04-16T09:57:01.002Z</time></trkpt><trkpt lat="45.814060607516886" lon="11.745928151890649"><ele>724.0</ele><time>2026-04-16T09:57:02.002Z</time></trkpt><trkpt lat="45.81396653971739" lon="11.745866197437126"><ele>724.0</ele><time>2026-04-16T09:57:03.002Z</time></trkpt><trkpt lat="45.81388506567173" lon="11.745827226311418"><ele>724.0</ele><time>2026-04-16T09:57:04.002Z</time></trkpt><trkpt lat="45.81378740564362" lon="11.745801802356842"><ele>724.0</ele><time>2026-04-16T09:57:05.002Z</time></trkpt><trkpt lat="45.81367077231085" lon="11.74576500588434"><ele>724.0</ele><time>2026-04-16T09:57:06.002Z</time></trkpt><trkpt lat="45.81355253932072" lon="11.745722458498298"><ele>724.0</ele><time>2026-04-16T09:57:07.002Z</time></trkpt><trkpt lat="45.8134367134677" lon="11.745713615219124"><ele>726.0</ele><time>2026-04-16T09:57:08.002Z</time></trkpt><trkpt lat="45.81331404086894" lon="11.745736809327274"><ele>728.0</ele><time>2026-04-16T09:57:09.002Z</time></trkpt><trkpt lat="45.81319642728234" lon="11.745789716225728"><ele>730.0</ele><time>2026-04-16T09:57:10.002Z</time></trkpt><trkpt lat="45.81308837393068" lon="11.745864431507192"><ele>732.0</ele><time>2026-04-16T09:57:11.002Z</time></trkpt><trkpt lat="45.81297617935658" lon="11.745905750314858"><ele>732.0</ele><time>2026-04-16T09:57:12.002Z</time></trkpt><trkpt lat="45.81287216642847" lon="11.745915528318791"><ele>732.0</ele><time>2026-04-16T09:57:13.002Z</time></trkpt><trkpt lat="45.81277043325037" lon="11.745910723691207"><ele>732.0</ele><time>2026-04-16T09:57:14.002Z</time></trkpt><trkpt lat="45.81267244752004" lon="11.745893628411432"><ele>732.0</ele><time>2026-04-16T09:57:15.002Z</time></trkpt><trkpt lat="45.812555043238596" lon="11.745872394929632"><ele>732.0</ele><time>2026-04-16T09:57:16.002Z</time></trkpt><trkpt lat="45.81242021694448" lon="11.74585054148054"><ele>730.3333333333334</ele><time>2026-04-16T09:57:17.002Z</time></trkpt><trkpt lat="45.81224439808334" lon="11.745838648009341"><ele>728.6666666666667</ele><time>2026-04-16T09:57:18.002Z</time></trkpt><trkpt lat="45.81202554661926" lon="11.745840907931209"><ele>727.0</ele><time>2026-04-16T09:57:19.002Z</time></trkpt><trkpt lat="45.81180466065987" lon="11.745846376861898"><ele>724.0</ele><time>2026-04-16T09:57:20.002Z</time></trkpt><trkpt lat="45.81161583251496" lon="11.745850505087127"><ele>721.0</ele><time>2026-04-16T09:57:21.002Z</time></trkpt><trkpt lat="45.81143720403077" lon="11.745862546046387"><ele>718.0</ele><time>2026-04-16T09:57:22.001Z</time></trkpt><trkpt lat="45.81127132508749" lon="11.745873014899516"><ele>718.0</ele><time>2026-04-16T09:57:23.001Z</time></trkpt><trkpt lat="45.811108219160154" lon="11.745887624593847"><ele>718.0</ele><time>2026-04-16T09:57:24.001Z</time></trkpt><trkpt lat="45.81094091974656" lon="11.745921334471323"><ele>718.0</ele><time>2026-04-16T09:57:25.001Z</time></trkpt><trkpt lat="45.81078317431283" lon="11.745940732242596"><ele>716.4</ele><time>2026-04-16T09:57:26.001Z</time></trkpt><trkpt lat="45.810646600397696" lon="11.745933598107014"><ele>714.8</ele><time>2026-04-16T09:57:27.001Z</time></trkpt><trkpt lat="45.81053556251011" lon="11.745920921589656"><ele>713.2</ele><time>2026-04-16T09:57:28.001Z</time></trkpt><trkpt lat="45.81043598238687" lon="11.745919720231944"><ele>711.6</ele><time>2026-04-16T09:57:29.001Z</time></trkpt><trkpt lat="45.81034931479717" lon="11.745864411882883"><ele>710.0</ele><time>2026-04-16T09:57:30.001Z</time></trkpt><trkpt lat="45.81027243686762" lon="11.745785652141045"><ele>710.0</ele><time>2026-04-16T09:57:31.001Z</time></trkpt><trkpt lat="45.81019757212657" lon="11.745669570152002"><ele>710.0</ele><time>2026-04-16T09:57:32.001Z</time></trkpt><trkpt lat="45.810137984910384" lon="11.74553712758563"><ele>710.0</ele><time>2026-04-16T09:57:33.001Z</time></trkpt><trkpt lat="45.8100932520881" lon="11.745400458219331"><ele>710.0</ele><time>2026-04-16T09:57:34.001Z</time></trkpt><trkpt lat="45.81008303718089" lon="11.745262411866326"><ele>710.0</ele><time>2026-04-16T09:57:35.001Z</time></trkpt><trkpt lat="45.8100923070251" lon="11.745109275258297"><ele>708.4</ele><time>2026-04-16T09:57:36.001Z</time></trkpt><trkpt lat="45.8101130578332" lon="11.744949654228083"><ele>706.8</ele><time>2026-04-16T09:57:37.001Z</time></trkpt><trkpt lat="45.810128173136086" lon="11.744778936756706"><ele>705.2</ele><time>2026-04-16T09:57:38.001Z</time></trkpt><trkpt lat="45.8101297742184" lon="11.744632403639304"><ele>703.6</ele><time>2026-04-16T09:57:39.001Z</time></trkpt><trkpt lat="45.81010630075519" lon="11.744485742188035"><ele>702.0</ele><time>2026-04-16T09:57:40.001Z</time></trkpt><trkpt lat="45.81000976053837" lon="11.74436670173315"><ele>702.0</ele><time>2026-04-16T09:57:41.001Z</time></trkpt><trkpt lat="45.809908189635365" lon="11.744249042208896"><ele>702.0</ele><time>2026-04-16T09:57:42.001Z</time></trkpt><trkpt lat="45.80980656553608" lon="11.74414532328243"><ele>702.0</ele><time>2026-04-16T09:57:43.001Z</time></trkpt><trkpt lat="45.8097261494519" lon="11.744043465245497"><ele>702.0</ele><time>2026-04-16T09:57:44.001Z</time></trkpt><trkpt lat="45.80967376397902" lon="11.74392374957795"><ele>702.0</ele><time>2026-04-16T09:57:45.001Z</time></trkpt><trkpt lat="45.80964594813498" lon="11.743773438812022"><ele>702.0</ele><time>2026-04-16T09:57:46.001Z</time></trkpt><trkpt lat="45.809658891216905" lon="11.743589208666403"><ele>702.0</ele><time>2026-04-16T09:57:47.001Z</time></trkpt><trkpt lat="45.80963048209958" lon="11.74342952883593"><ele>702.0</ele><time>2026-04-16T09:57:48.001Z</time></trkpt><trkpt lat="45.80959574635979" lon="11.743304183325831"><ele>702.0</ele><time>2026-04-16T09:57:49.001Z</time></trkpt><trkpt lat="45.80952763655306" lon="11.743227325757188"><ele>704.5</ele><time>2026-04-16T09:57:50.001Z</time></trkpt><trkpt lat="45.809435749386225" lon="11.743183259810408"><ele>707.0</ele><time>2026-04-16T09:57:51.001Z</time></trkpt><trkpt lat="45.80932264821937" lon="11.743192433610197"><ele>709.5</ele><time>2026-04-16T09:57:52.001Z</time></trkpt><trkpt lat="45.8091777440569" lon="11.743221876102348"><ele>712.0</ele><time>2026-04-16T09:57:53.001Z</time></trkpt><trkpt lat="45.80904463443965" lon="11.743258401489788"><ele>705.3333333333334</ele><time>2026-04-16T09:57:54.001Z</time></trkpt><trkpt lat="45.80888526466727" lon="11.7433225588507"><ele>698.6666666666666</ele><time>2026-04-16T09:57:55.001Z</time></trkpt><trkpt lat="45.80870386671884" lon="11.743413218906948"><ele>692.0</ele><time>2026-04-16T09:57:56.001Z</time></trkpt><trkpt lat="45.808542038287996" lon="11.743503725910076"><ele>684.3333333333333</ele><time>2026-04-16T09:57:57.001Z</time></trkpt><trkpt lat="45.80840491842972" lon="11.74360311712309"><ele>676.6666666666666</ele><time>2026-04-16T09:57:58.001Z</time></trkpt><trkpt lat="45.808280145816404" lon="11.74374206832432"><ele>669.0</ele><time>2026-04-16T09:57:59.001Z</time></trkpt><trkpt lat="45.80815009251133" lon="11.743910614141528"><ele>669.0</ele><time>2026-04-16T09:58:00.001Z</time></trkpt><trkpt lat="45.80800005860376" lon="11.744086564126988"><ele>669.0</ele><time>2026-04-16T09:58:01.001Z</time></trkpt><trkpt lat="45.80784469832128" lon="11.744264937207273"><ele>669.0</ele><time>2026-04-16T09:58:02.001Z</time></trkpt><trkpt lat="45.807715817315206" lon="11.744413221586846"><ele>667.0</ele><time>2026-04-16T09:58:03.001Z</time></trkpt><trkpt lat="45.80761552694276" lon="11.744538868691379"><ele>665.0</ele><time>2026-04-16T09:58:04.001Z</time></trkpt><trkpt lat="45.80752194362994" lon="11.744633793774668"><ele>663.0</ele><time>2026-04-16T09:58:05.001Z</time></trkpt><trkpt lat="45.807413663449644" lon="11.744705648256042"><ele>661.0</ele><time>2026-04-16T09:58:06.001Z</time></trkpt><trkpt lat="45.80728990611582" lon="11.744745577075726"><ele>661.0</ele><time>2026-04-16T09:58:07.001Z</time></trkpt><trkpt lat="45.80717044688607" lon="11.74477547132427"><ele>661.0</ele><time>2026-04-16T09:58:08.001Z</time></trkpt><trkpt lat="45.80705079028561" lon="11.744768637216206"><ele>661.0</ele><time>2026-04-16T09:58:09.001Z</time></trkpt><trkpt lat="45.80694808253051" lon="11.744746327995411"><ele>661.0</ele><time>2026-04-16T09:58:10.001Z</time></trkpt><trkpt lat="45.806851944313244" lon="11.744713355885233"><ele>661.0</ele><time>2026-04-16T09:58:11.001Z</time></trkpt><trkpt lat="45.806746565987794" lon="11.74464681974944"><ele>660.25</ele><time>2026-04-16T09:58:12.001Z</time></trkpt><trkpt lat="45.806640874087115" lon="11.744560057908574"><ele>659.5</ele><time>2026-04-16T09:58:13.001Z</time></trkpt><trkpt lat="45.80655383937338" lon="11.744457530547368"><ele>658.75</ele><time>2026-04-16T09:58:14.001Z</time></trkpt><trkpt lat="45.806483544561765" lon="11.744313222718887"><ele>658.0</ele><time>2026-04-16T09:58:15.001Z</time></trkpt><trkpt lat="45.80640123575997" lon="11.744163895539927"><ele>658.0</ele><time>2026-04-16T09:58:16.001Z</time></trkpt><trkpt lat="45.80632939464573" lon="11.743992013606247"><ele>658.0</ele><time>2026-04-16T09:58:17.001Z</time></trkpt><trkpt lat="45.806260843126374" lon="11.743819422888544"><ele>658.0</ele><time>2026-04-16T09:58:18.001Z</time></trkpt><trkpt lat="45.806190192048696" lon="11.743669815708442"><ele>658.0</ele><time>2026-04-16T09:58:19.001Z</time></trkpt><trkpt lat="45.806144565277755" lon="11.743513388475002"><ele>659.5</ele><time>2026-04-16T09:58:20.001Z</time></trkpt><trkpt lat="45.80613514606708" lon="11.74335193531125"><ele>661.0</ele><time>2026-04-16T09:58:21.001Z</time></trkpt><trkpt lat="45.80612957266391" lon="11.743192298012715"><ele>662.5</ele><time>2026-04-16T09:58:22.001Z</time></trkpt><trkpt lat="45.80615474353348" lon="11.743021352107489"><ele>664.0</ele><time>2026-04-16T09:58:23.001Z</time></trkpt><trkpt lat="45.806192430054686" lon="11.742847629890816"><ele>664.3333333333334</ele><time>2026-04-16T09:58:24.001Z</time></trkpt><trkpt lat="45.80623268259425" lon="11.742703175872025"><ele>664.6666666666667</ele><time>2026-04-16T09:58:25.001Z</time></trkpt><trkpt lat="45.80626533214267" lon="11.742577762578657"><ele>665.0</ele><time>2026-04-16T09:58:26.001Z</time></trkpt><trkpt lat="45.80628435874927" lon="11.742474167256528"><ele>665.3333333333334</ele><time>2026-04-16T09:58:27.001Z</time></trkpt><trkpt lat="45.80626053689155" lon="11.742379147371718"><ele>665.6666666666666</ele><time>2026-04-16T09:58:28.001Z</time></trkpt><trkpt lat="45.80620278915721" lon="11.742323476812079"><ele>666.0</ele><time>2026-04-16T09:58:29.001Z</time></trkpt><trkpt lat="45.80613648366472" lon="11.742339934757316"><ele>666.0</ele><time>2026-04-16T09:58:30.001Z</time></trkpt><trkpt lat="45.80607416799899" lon="11.742359518474942"><ele>666.0</ele><time>2026-04-16T09:58:31.001Z</time></trkpt><trkpt lat="45.806050499398225" lon="11.742528396025063"><ele>666.0</ele><time>2026-04-16T09:58:32.001Z</time></trkpt><trkpt lat="45.80601644470897" lon="11.74270319865065"><ele>666.0</ele><time>2026-04-16T09:58:33.001Z</time></trkpt><trkpt lat="45.80597260809653" lon="11.74290815015309"><ele>654.6666666666666</ele><time>2026-04-16T09:58:34.001Z</time></trkpt><trkpt lat="45.80591738677482" lon="11.743093960746634"><ele>643.3333333333333</ele><time>2026-04-16T09:58:35.001Z</time></trkpt><trkpt lat="45.80584159070923" lon="11.74329972462984"><ele>632.0</ele><time>2026-04-16T09:58:36.001Z</time></trkpt><trkpt lat="45.80577175834823" lon="11.743524107758711"><ele>632.6666666666666</ele><time>2026-04-16T09:58:37.002Z</time></trkpt><trkpt lat="45.80571561530158" lon="11.743751367686894"><ele>633.3333333333334</ele><time>2026-04-16T09:58:38.002Z</time></trkpt><trkpt lat="45.80567406985088" lon="11.743982289443531"><ele>634.0</ele><time>2026-04-16T09:58:39.002Z</time></trkpt><trkpt lat="45.805651844172594" lon="11.744211695590133"><ele>631.75</ele><time>2026-04-16T09:58:40.002Z</time></trkpt><trkpt lat="45.8056465001313" lon="11.744422611750851"><ele>629.5</ele><time>2026-04-16T09:58:41.002Z</time></trkpt><trkpt lat="45.80567065746532" lon="11.74463184329664"><ele>627.25</ele><time>2026-04-16T09:58:42.002Z</time></trkpt><trkpt lat="45.80571917033958" lon="11.744841444784763"><ele>625.0</ele><time>2026-04-16T09:58:43.002Z</time></trkpt><trkpt lat="45.805768929587295" lon="11.745050093169294"><ele>623.5</ele><time>2026-04-16T09:58:44.002Z</time></trkpt><trkpt lat="45.80582286234311" lon="11.745247576352476"><ele>622.0</ele><time>2026-04-16T09:58:45.002Z</time></trkpt><trkpt lat="45.80580779477349" lon="11.745432989212208"><ele>620.5</ele><time>2026-04-16T09:58:46.002Z</time></trkpt><trkpt lat="45.80577145430173" lon="11.745601872349217"><ele>619.0</ele><time>2026-04-16T09:58:47.002Z</time></trkpt><trkpt lat="45.80575773738403" lon="11.74580226014154"><ele>619.0</ele><time>2026-04-16T09:58:48.002Z</time></trkpt><trkpt lat="45.805719659384245" lon="11.746012048074967"><ele>619.0</ele><time>2026-04-16T09:58:49.002Z</time></trkpt><trkpt lat="45.80570944299041" lon="11.746235280811018"><ele>619.0</ele><time>2026-04-16T09:58:50.002Z</time></trkpt><trkpt lat="45.805720243909256" lon="11.746434663265843"><ele>619.0</ele><time>2026-04-16T09:58:51.002Z</time></trkpt><trkpt lat="45.805734248948916" lon="11.746654363163033"><ele>611.3333333333334</ele><time>2026-04-16T09:58:52.002Z</time></trkpt><trkpt lat="45.805769941239824" lon="11.746880142114636"><ele>603.6666666666666</ele><time>2026-04-16T09:58:53.002Z</time></trkpt><trkpt lat="45.80581387890054" lon="11.747081837791875"><ele>596.0</ele><time>2026-04-16T09:58:54.002Z</time></trkpt><trkpt lat="45.80587141549431" lon="11.74727879727855"><ele>596.0</ele><time>2026-04-16T09:58:55.002Z</time></trkpt><trkpt lat="45.805940930828406" lon="11.747484023878048"><ele>596.0</ele><time>2026-04-16T09:58:56.002Z</time></trkpt><trkpt lat="45.80601433084214" lon="11.74766837433105"><ele>596.0</ele><time>2026-04-16T09:58:57.002Z</time></trkpt><trkpt lat="45.80607727684355" lon="11.747801140756684"><ele>596.0</ele><time>2026-04-16T09:58:58.002Z</time></trkpt><trkpt lat="45.80614163380445" lon="11.747903877093407"><ele>596.5</ele><time>2026-04-16T09:58:59.002Z</time></trkpt><trkpt lat="45.80622598749131" lon="11.747994519106813"><ele>597.0</ele><time>2026-04-16T09:59:00.002Z</time></trkpt><trkpt lat="45.8063125158386" lon="11.748076234818058"><ele>597.5</ele><time>2026-04-16T09:59:01.002Z</time></trkpt><trkpt lat="45.80639107010442" lon="11.748128749955473"><ele>598.0</ele><time>2026-04-16T09:59:02.002Z</time></trkpt><trkpt lat="45.80643449927769" lon="11.748195340312781"><ele>598.5</ele><time>2026-04-16T09:59:03.002Z</time></trkpt><trkpt lat="45.80644723448306" lon="11.748289921271303"><ele>599.0</ele><time>2026-04-16T09:59:04.002Z</time></trkpt><trkpt lat="45.80641373097297" lon="11.748379693822779"><ele>599.0</ele><time>2026-04-16T09:59:05.002Z</time></trkpt><trkpt lat="45.80634213260536" lon="11.748410623304151"><ele>599.0</ele><time>2026-04-16T09:59:06.002Z</time></trkpt><trkpt lat="45.80625814236193" lon="11.748367173874202"><ele>599.0</ele><time>2026-04-16T09:59:07.002Z</time></trkpt><trkpt lat="45.80615898715643" lon="11.748277320820563"><ele>599.0</ele><time>2026-04-16T09:59:08.002Z</time></trkpt><trkpt lat="45.806055431039795" lon="11.748141910549498"><ele>599.0</ele><time>2026-04-16T09:59:09.002Z</time></trkpt><trkpt lat="45.80594159367776" lon="11.748035539131786"><ele>598.25</ele><time>2026-04-16T09:59:10.002Z</time></trkpt><trkpt lat="45.80584587992309" lon="11.747908674214608"><ele>597.5</ele><time>2026-04-16T09:59:11.002Z</time></trkpt><trkpt lat="45.80574095880498" lon="11.747776616493963"><ele>596.75</ele><time>2026-04-16T09:59:12.002Z</time></trkpt><trkpt lat="45.80564923556582" lon="11.747621722963823"><ele>596.0</ele><time>2026-04-16T09:59:13.002Z</time></trkpt><trkpt lat="45.80556712074761" lon="11.747416765574608"><ele>596.0</ele><time>2026-04-16T09:59:14.002Z</time></trkpt><trkpt lat="45.80548440262716" lon="11.747197122385689"><ele>596.0</ele><time>2026-04-16T09:59:15.002Z</time></trkpt><trkpt lat="45.80540408234493" lon="11.746977343266668"><ele>596.0</ele><time>2026-04-16T09:59:16.002Z</time></trkpt><trkpt lat="45.80530032531475" lon="11.746754630403746"><ele>602.0</ele><time>2026-04-16T09:59:17.002Z</time></trkpt><trkpt lat="45.80519507664933" lon="11.746551709540396"><ele>608.0</ele><time>2026-04-16T09:59:18.002Z</time></trkpt><trkpt lat="45.80510661835275" lon="11.746335909215903"><ele>614.0</ele><time>2026-04-16T09:59:19.002Z</time></trkpt><trkpt lat="45.80503942001912" lon="11.746077314760429"><ele>604.6666666666666</ele><time>2026-04-16T09:59:20.002Z</time></trkpt><trkpt lat="45.80498348935574" lon="11.745798900591792"><ele>595.3333333333334</ele><time>2026-04-16T09:59:21.002Z</time></trkpt><trkpt lat="45.804934232709655" lon="11.745557713303928"><ele>586.0</ele><time>2026-04-16T09:59:22.002Z</time></trkpt><trkpt lat="45.80486934867324" lon="11.745340453362989"><ele>588.3333333333334</ele><time>2026-04-16T09:59:23.002Z</time></trkpt><trkpt lat="45.80477604714294" lon="11.745142355488056"><ele>590.6666666666666</ele><time>2026-04-16T09:59:24.002Z</time></trkpt><trkpt lat="45.80467054815897" lon="11.744963445934207"><ele>593.0</ele><time>2026-04-16T09:59:25.002Z</time></trkpt><trkpt lat="45.804594450385956" lon="11.744790127779016"><ele>593.0</ele><time>2026-04-16T09:59:26.002Z</time></trkpt><trkpt lat="45.80453531354158" lon="11.744603462418254"><ele>593.0</ele><time>2026-04-16T09:59:27.002Z</time></trkpt><trkpt lat="45.80448964693733" lon="11.744391054001623"><ele>593.0</ele><time>2026-04-16T09:59:28.002Z</time></trkpt><trkpt lat="45.804476510657054" lon="11.744165612252583"><ele>594.0</ele><time>2026-04-16T09:59:29.002Z</time></trkpt><trkpt lat="45.8044764579654" lon="11.743977273859153"><ele>595.0</ele><time>2026-04-16T09:59:30.002Z</time></trkpt><trkpt lat="45.8044674892093" lon="11.743832872600104"><ele>596.0</ele><time>2026-04-16T09:59:31.002Z</time></trkpt><trkpt lat="45.8043826469384" lon="11.743662917504333"><ele>597.0</ele><time>2026-04-16T09:59:33.002Z</time></trkpt><trkpt lat="45.80429130635813" lon="11.743631814705212"><ele>588.75</ele><time>2026-04-16T09:59:34.002Z</time></trkpt><trkpt lat="45.80418454573234" lon="11.743652001067263"><ele>580.5</ele><time>2026-04-16T09:59:35.002Z</time></trkpt><trkpt lat="45.804042592842094" lon="11.743611831171096"><ele>572.25</ele><time>2026-04-16T09:59:36.002Z</time></trkpt><trkpt lat="45.80391024279913" lon="11.74381506828437"><ele>564.0</ele><time>2026-04-16T09:59:37.002Z</time></trkpt><trkpt lat="45.803782121746686" lon="11.743870342422138"><ele>564.0</ele><time>2026-04-16T09:59:38.001Z</time></trkpt><trkpt lat="45.80364057323459" lon="11.743939446101608"><ele>564.0</ele><time>2026-04-16T09:59:39.001Z</time></trkpt><trkpt lat="45.803505246312774" lon="11.74401305162702"><ele>564.0</ele><time>2026-04-16T09:59:40.001Z</time></trkpt><trkpt lat="45.80338643882843" lon="11.743990802321516"><ele>564.0</ele><time>2026-04-16T09:59:41.001Z</time></trkpt><trkpt lat="45.80327973738452" lon="11.743966429129193"><ele>561.5</ele><time>2026-04-16T09:59:42.001Z</time></trkpt><trkpt lat="45.80315858785927" lon="11.743907330653453"><ele>559.0</ele><time>2026-04-16T09:59:43.001Z</time></trkpt><trkpt lat="45.80300891485591" lon="11.74384727461093"><ele>556.5</ele><time>2026-04-16T09:59:44.001Z</time></trkpt><trkpt lat="45.80290073986797" lon="11.743781626136307"><ele>554.0</ele><time>2026-04-16T09:59:45.001Z</time></trkpt><trkpt lat="45.80283570960405" lon="11.743748873616173"><ele>554.0</ele><time>2026-04-16T09:59:46.001Z</time></trkpt><trkpt lat="45.80271311207632" lon="11.74377551730036"><ele>554.0</ele><time>2026-04-16T09:59:48.001Z</time></trkpt><trkpt lat="45.80268521274019" lon="11.743890838553488"><ele>554.0</ele><time>2026-04-16T09:59:49.001Z</time></trkpt><trkpt lat="45.802690462771906" lon="11.743994710255036"><ele>554.0</ele><time>2026-04-16T09:59:50.001Z</time></trkpt><trkpt lat="45.802750309404914" lon="11.744084954839584"><ele>554.0</ele><time>2026-04-16T09:59:51.001Z</time></trkpt><trkpt lat="45.80284432867103" lon="11.744138643507393"><ele>554.0</ele><time>2026-04-16T09:59:52.001Z</time></trkpt><trkpt lat="45.80296553247715" lon="11.744192452351658"><ele>554.0</ele><time>2026-04-16T09:59:53.001Z</time></trkpt><trkpt lat="45.80307610719338" lon="11.744274424159105"><ele>554.0</ele><time>2026-04-16T09:59:54.001Z</time></trkpt><trkpt lat="45.803166900396626" lon="11.744391157968678"><ele>554.0</ele><time>2026-04-16T09:59:55.001Z</time></trkpt><trkpt lat="45.80326605242769" lon="11.744506793512327"><ele>554.8</ele><time>2026-04-16T09:59:56.001Z</time></trkpt><trkpt lat="45.80336729850417" lon="11.744580281344613"><ele>555.5999999999999</ele><time>2026-04-16T09:59:57.001Z</time></trkpt><trkpt lat="45.80344838907515" lon="11.74462869688848"><ele>556.4</ele><time>2026-04-16T09:59:58.001Z</time></trkpt><trkpt lat="45.8035319488969" lon="11.744621792875373"><ele>557.1999999999999</ele><time>2026-04-16T09:59:59.001Z</time></trkpt><trkpt lat="45.80362718187546" lon="11.744558694918947"><ele>558.0</ele><time>2026-04-16T10:00:00.001Z</time></trkpt><trkpt lat="45.80371498960214" lon="11.744460864083797"><ele>558.0</ele><time>2026-04-16T10:00:01.001Z</time></trkpt><trkpt lat="45.80379343682072" lon="11.744437026195182"><ele>558.0</ele><time>2026-04-16T10:00:02.001Z</time></trkpt><trkpt lat="45.80386638816264" lon="11.744442373696813"><ele>558.0</ele><time>2026-04-16T10:00:03.001Z</time></trkpt><trkpt lat="45.80391352581379" lon="11.744539635029895"><ele>558.0</ele><time>2026-04-16T10:00:04.001Z</time></trkpt><trkpt lat="45.80393149811741" lon="11.744682758345494"><ele>558.0</ele><time>2026-04-16T10:00:05.001Z</time></trkpt><trkpt lat="45.80391217025669" lon="11.744862191664211"><ele>558.0</ele><time>2026-04-16T10:00:06.001Z</time></trkpt><trkpt lat="45.80388936801363" lon="11.745077399899193"><ele>558.0</ele><time>2026-04-16T10:00:07.001Z</time></trkpt><trkpt lat="45.8038272660414" lon="11.745259714266888"><ele>558.0</ele><time>2026-04-16T10:00:08.001Z</time></trkpt><trkpt lat="45.80375184361198" lon="11.745440622371802"><ele>558.0</ele><time>2026-04-16T10:00:09.001Z</time></trkpt><trkpt lat="45.8037239595889" lon="11.745608865716283"><ele>555.5</ele><time>2026-04-16T10:00:10.001Z</time></trkpt><trkpt lat="45.80373838825806" lon="11.745798810989966"><ele>553.0</ele><time>2026-04-16T10:00:11.001Z</time></trkpt><trkpt lat="45.80378621337343" lon="11.746006222778192"><ele>550.5</ele><time>2026-04-16T10:00:12.001Z</time></trkpt><trkpt lat="45.80387477814524" lon="11.746194299490133"><ele>548.0</ele><time>2026-04-16T10:00:13.001Z</time></trkpt><trkpt lat="45.803963443009856" lon="11.746368494546047"><ele>547.75</ele><time>2026-04-16T10:00:14.001Z</time></trkpt><trkpt lat="45.80404673943803" lon="11.746498531951858"><ele>547.5</ele><time>2026-04-16T10:00:15.001Z</time></trkpt><trkpt lat="45.80412962937645" lon="11.746614062544653"><ele>547.25</ele><time>2026-04-16T10:00:16.001Z</time></trkpt><trkpt lat="45.80422430949865" lon="11.746732282741664"><ele>547.0</ele><time>2026-04-16T10:00:17.001Z</time></trkpt><trkpt lat="45.80435103097635" lon="11.746889884692049"><ele>547.0</ele><time>2026-04-16T10:00:18.001Z</time></trkpt><trkpt lat="45.80448071096849" lon="11.747109093455427"><ele>547.0</ele><time>2026-04-16T10:00:19.001Z</time></trkpt><trkpt lat="45.80459895534431" lon="11.747305227294147"><ele>547.0</ele><time>2026-04-16T10:00:20.001Z</time></trkpt><trkpt lat="45.804700840518265" lon="11.7475133176837"><ele>538.6666666666667</ele><time>2026-04-16T10:00:21.001Z</time></trkpt><trkpt lat="45.80479705536639" lon="11.747760649573644"><ele>530.3333333333334</ele><time>2026-04-16T10:00:22.001Z</time></trkpt><trkpt lat="45.80488225956079" lon="11.748028635042918"><ele>522.0</ele><time>2026-04-16T10:00:23.001Z</time></trkpt><trkpt lat="45.80498316580156" lon="11.748318751965272"><ele>514.0</ele><time>2026-04-16T10:00:24.001Z</time></trkpt><trkpt lat="45.8050569059322" lon="11.748597834673825"><ele>506.0</ele><time>2026-04-16T10:00:25.001Z</time></trkpt><trkpt lat="45.80513583528085" lon="11.748878114936772"><ele>498.0</ele><time>2026-04-16T10:00:26.001Z</time></trkpt><trkpt lat="45.80521616656557" lon="11.749177720806463"><ele>504.0</ele><time>2026-04-16T10:00:27.001Z</time></trkpt><trkpt lat="45.80529413935252" lon="11.74944601095945"><ele>510.0</ele><time>2026-04-16T10:00:28.001Z</time></trkpt><trkpt lat="45.805343987223104" lon="11.74962383487339"><ele>516.0</ele><time>2026-04-16T10:00:29.001Z</time></trkpt><trkpt lat="45.80537852827666" lon="11.749770802663805"><ele>522.0</ele><time>2026-04-16T10:00:30.001Z</time></trkpt><trkpt lat="45.80539913630445" lon="11.749923294569244"><ele>522.0</ele><time>2026-04-16T10:00:31.001Z</time></trkpt><trkpt lat="45.80544162075807" lon="11.750057966508002"><ele>522.0</ele><time>2026-04-16T10:00:32.001Z</time></trkpt><trkpt lat="45.80549561158704" lon="11.750174176819485"><ele>522.0</ele><time>2026-04-16T10:00:33.001Z</time></trkpt><trkpt lat="45.80560831076331" lon="11.75027724117582"><ele>522.0</ele><time>2026-04-16T10:00:34.001Z</time></trkpt><trkpt lat="45.80574777138512" lon="11.750390933001901"><ele>523.0</ele><time>2026-04-16T10:00:35.002Z</time></trkpt><trkpt lat="45.805903965935855" lon="11.750520034945952"><ele>524.0</ele><time>2026-04-16T10:00:36.002Z</time></trkpt><trkpt lat="45.806031407609126" lon="11.750652718336966"><ele>525.0</ele><time>2026-04-16T10:00:37.002Z</time></trkpt><trkpt lat="45.8061371436129" lon="11.7508003377491"><ele>525.0</ele><time>2026-04-16T10:00:38.002Z</time></trkpt><trkpt lat="45.80624253704864" lon="11.750984472331375"><ele>525.0</ele><time>2026-04-16T10:00:39.002Z</time></trkpt><trkpt lat="45.806368541056116" lon="11.751176192755812"><ele>525.0</ele><time>2026-04-16T10:00:40.002Z</time></trkpt><trkpt lat="45.80645551260878" lon="11.751350593722425"><ele>517.25</ele><time>2026-04-16T10:00:41.002Z</time></trkpt><trkpt lat="45.806519951856636" lon="11.751486902595104"><ele>509.5</ele><time>2026-04-16T10:00:42.002Z</time></trkpt><trkpt lat="45.80656452988797" lon="11.75161635967211"><ele>501.75</ele><time>2026-04-16T10:00:43.002Z</time></trkpt><trkpt lat="45.8066286298519" lon="11.7517452588548"><ele>494.0</ele><time>2026-04-16T10:00:44.002Z</time></trkpt><trkpt lat="45.806735917204506" lon="11.751855878521397"><ele>487.25</ele><time>2026-04-16T10:00:45.002Z</time></trkpt><trkpt lat="45.80687016256283" lon="11.752000670957829"><ele>480.5</ele><time>2026-04-16T10:00:46.002Z</time></trkpt><trkpt lat="45.80701156180398" lon="11.75210000217276"><ele>473.75</ele><time>2026-04-16T10:00:47.002Z</time></trkpt><trkpt lat="45.807104223545856" lon="11.752199285707178"><ele>467.0</ele><time>2026-04-16T10:00:48.002Z</time></trkpt><trkpt lat="45.80721409651081" lon="11.752287888266583"><ele>467.0</ele><time>2026-04-16T10:00:49.002Z</time></trkpt><trkpt lat="45.807351220864675" lon="11.752337064953638"><ele>467.0</ele><time>2026-04-16T10:00:50.002Z</time></trkpt><trkpt lat="45.80753172592434" lon="11.752360526439244"><ele>467.0</ele><time>2026-04-16T10:00:51.002Z</time></trkpt><trkpt lat="45.80773020518311" lon="11.752363776542813"><ele>467.3333333333333</ele><time>2026-04-16T10:00:52.002Z</time></trkpt><trkpt lat="45.80791102186553" lon="11.752390866592014"><ele>467.66666666666663</ele><time>2026-04-16T10:00:53.002Z</time></trkpt><trkpt lat="45.80809558799256" lon="11.752416867562822"><ele>468.0</ele><time>2026-04-16T10:00:54.002Z</time></trkpt><trkpt lat="45.80829498037123" lon="11.75242439495099"><ele>464.33333333333337</ele><time>2026-04-16T10:00:55.002Z</time></trkpt><trkpt lat="45.80850465250217" lon="11.752416475757995"><ele>460.6666666666667</ele><time>2026-04-16T10:00:56.002Z</time></trkpt><trkpt lat="45.808697469860675" lon="11.75240076718833"><ele>457.0</ele><time>2026-04-16T10:00:57.002Z</time></trkpt><trkpt lat="45.80889207352191" lon="11.752373759059708"><ele>457.0</ele><time>2026-04-16T10:00:58.002Z</time></trkpt><trkpt lat="45.80906947141029" lon="11.752336858888988"><ele>457.0</ele><time>2026-04-16T10:00:59.002Z</time></trkpt><trkpt lat="45.80923660392672" lon="11.752287870385642"><ele>457.0</ele><time>2026-04-16T10:01:00.002Z</time></trkpt><trkpt lat="45.809371592767086" lon="11.752265361507046"><ele>452.25</ele><time>2026-04-16T10:01:01.002Z</time></trkpt><trkpt lat="45.80949712192664" lon="11.752226657671837"><ele>447.5</ele><time>2026-04-16T10:01:02.002Z</time></trkpt><trkpt lat="45.8096232661643" lon="11.752170189166803"><ele>442.75</ele><time>2026-04-16T10:01:03.002Z</time></trkpt><trkpt lat="45.809769453473734" lon="11.752026666067286"><ele>438.0</ele><time>2026-04-16T10:01:04.002Z</time></trkpt><trkpt lat="45.80989870066246" lon="11.751931256800052"><ele>438.0</ele><time>2026-04-16T10:01:05.002Z</time></trkpt><trkpt lat="45.8100303891907" lon="11.751883600441145"><ele>438.0</ele><time>2026-04-16T10:01:06.002Z</time></trkpt><trkpt lat="45.81016544191019" lon="11.751886791101429"><ele>438.0</ele><time>2026-04-16T10:01:07.002Z</time></trkpt><trkpt lat="45.810308174535834" lon="11.751843857005879"><ele>438.0</ele><time>2026-04-16T10:01:08.002Z</time></trkpt><trkpt lat="45.810444986179604" lon="11.751816142370421"><ele>440.8333333333333</ele><time>2026-04-16T10:01:09.002Z</time></trkpt><trkpt lat="45.81052127685908" lon="11.751759723413144"><ele>443.66666666666663</ele><time>2026-04-16T10:01:10.002Z</time></trkpt><trkpt lat="45.8106099464152" lon="11.751746793384429"><ele>446.5</ele><time>2026-04-16T10:01:11.002Z</time></trkpt><trkpt lat="45.81069361580498" lon="11.751752971822837"><ele>449.3333333333333</ele><time>2026-04-16T10:01:13.002Z</time></trkpt><trkpt lat="45.81073265015672" lon="11.751828899364279"><ele>452.16666666666663</ele><time>2026-04-16T10:01:14.002Z</time></trkpt><trkpt lat="45.810696821711545" lon="11.75191187322811"><ele>455.0</ele><time>2026-04-16T10:01:15.002Z</time></trkpt><trkpt lat="45.810619017967845" lon="11.751955298206019"><ele>450.75</ele><time>2026-04-16T10:01:16.002Z</time></trkpt><trkpt lat="45.810505185638945" lon="11.75192437958178"><ele>446.5</ele><time>2026-04-16T10:01:17.002Z</time></trkpt><trkpt lat="45.810386808586706" lon="11.751945076283718"><ele>442.25</ele><time>2026-04-16T10:01:18.002Z</time></trkpt><trkpt lat="45.8102689339656" lon="11.75198290930881"><ele>438.0</ele><time>2026-04-16T10:01:19.002Z</time></trkpt><trkpt lat="45.810134813753834" lon="11.75201006665011"><ele>438.0</ele><time>2026-04-16T10:01:20.002Z</time></trkpt><trkpt lat="45.810020545033645" lon="11.752032550601301"><ele>438.0</ele><time>2026-04-16T10:01:21.002Z</time></trkpt><trkpt lat="45.80990810333543" lon="11.752117965748182"><ele>438.0</ele><time>2026-04-16T10:01:22.002Z</time></trkpt><trkpt lat="45.80978771592106" lon="11.752272158767223"><ele>438.0</ele><time>2026-04-16T10:01:23.002Z</time></trkpt><trkpt lat="45.809689729405285" lon="11.75242924717672"><ele>438.0</ele><time>2026-04-16T10:01:24.002Z</time></trkpt><trkpt lat="45.809566273110306" lon="11.752540402291642"><ele>438.0</ele><time>2026-04-16T10:01:25.002Z</time></trkpt><trkpt lat="45.80944421573164" lon="11.752613658002707"><ele>438.0</ele><time>2026-04-16T10:01:26.002Z</time></trkpt><trkpt lat="45.809305857484084" lon="11.75266465472822"><ele>438.0</ele><time>2026-04-16T10:01:27.002Z</time></trkpt><trkpt lat="45.80911807169129" lon="11.752732783666614"><ele>430.33333333333337</ele><time>2026-04-16T10:01:28.002Z</time></trkpt><trkpt lat="45.80892615731146" lon="11.752838433638269"><ele>422.6666666666667</ele><time>2026-04-16T10:01:29.002Z</time></trkpt><trkpt lat="45.8087123354494" lon="11.752945785093617"><ele>415.0</ele><time>2026-04-16T10:01:30.002Z</time></trkpt><trkpt lat="45.80851033294924" lon="11.75301546725202"><ele>417.0</ele><time>2026-04-16T10:01:31.002Z</time></trkpt><trkpt lat="45.80831200634892" lon="11.753076375282813"><ele>419.0</ele><time>2026-04-16T10:01:32.002Z</time></trkpt><trkpt lat="45.80808993499052" lon="11.753134331620085"><ele>421.0</ele><time>2026-04-16T10:01:33.002Z</time></trkpt><trkpt lat="45.807875127297564" lon="11.753179127816086"><ele>421.0</ele><time>2026-04-16T10:01:34.002Z</time></trkpt><trkpt lat="45.80769003100528" lon="11.753209899279742"><ele>421.0</ele><time>2026-04-16T10:01:35.002Z</time></trkpt><trkpt lat="45.807530679237324" lon="11.753219323231324"><ele>421.0</ele><time>2026-04-16T10:01:36.002Z</time></trkpt><trkpt lat="45.80738227125316" lon="11.753232811572602"><ele>423.25</ele><time>2026-04-16T10:01:37.002Z</time></trkpt><trkpt lat="45.80723237681067" lon="11.753303623023076"><ele>425.5</ele><time>2026-04-16T10:01:38.002Z</time></trkpt><trkpt lat="45.80709280152229" lon="11.753373499259899"><ele>427.75</ele><time>2026-04-16T10:01:39.002Z</time></trkpt><trkpt lat="45.806968316355906" lon="11.753381662868053"><ele>430.0</ele><time>2026-04-16T10:01:40.002Z</time></trkpt><trkpt lat="45.80684541246126" lon="11.753357483154744"><ele>425.0</ele><time>2026-04-16T10:01:41.002Z</time></trkpt><trkpt lat="45.80670029975842" lon="11.753300876827794"><ele>420.0</ele><time>2026-04-16T10:01:42.002Z</time></trkpt><trkpt lat="45.80657778194505" lon="11.753247516261915"><ele>415.0</ele><time>2026-04-16T10:01:43.002Z</time></trkpt><trkpt lat="45.80646268320573" lon="11.753169887417588"><ele>410.0</ele><time>2026-04-16T10:01:44.002Z</time></trkpt><trkpt lat="45.80633413531468" lon="11.75307199141904"><ele>410.0</ele><time>2026-04-16T10:01:45.002Z</time></trkpt><trkpt lat="45.80616659269813" lon="11.75293308599953"><ele>410.0</ele><time>2026-04-16T10:01:46.002Z</time></trkpt><trkpt lat="45.805976867893534" lon="11.75277367023288"><ele>410.0</ele><time>2026-04-16T10:01:47.002Z</time></trkpt><trkpt lat="45.80580269805675" lon="11.752627893050109"><ele>415.0</ele><time>2026-04-16T10:01:48.002Z</time></trkpt><trkpt lat="45.805597441049834" lon="11.752459488622288"><ele>420.0</ele><time>2026-04-16T10:01:49.002Z</time></trkpt><trkpt lat="45.805375105317474" lon="11.752277071840377"><ele>420.0</ele><time>2026-04-16T10:01:50.002Z</time></trkpt><trkpt lat="45.80519738261184" lon="11.752131258078267"><ele>420.0</ele><time>2026-04-16T10:01:51.002Z</time></trkpt><trkpt lat="45.80502572604965" lon="11.751991365189845"><ele>420.0</ele><time>2026-04-16T10:01:52.002Z</time></trkpt><trkpt lat="45.804867066023036" lon="11.751862260760092"><ele>418.75</ele><time>2026-04-16T10:01:53.001Z</time></trkpt><trkpt lat="45.80471806256372" lon="11.751739073068707"><ele>417.5</ele><time>2026-04-16T10:01:54.001Z</time></trkpt><trkpt lat="45.804603269959024" lon="11.75163719711954"><ele>416.25</ele><time>2026-04-16T10:01:55.001Z</time></trkpt><trkpt lat="45.8044884499946" lon="11.751531626956911"><ele>415.0</ele><time>2026-04-16T10:01:56.001Z</time></trkpt><trkpt lat="45.80439725865376" lon="11.751422555165192"><ele>410.5</ele><time>2026-04-16T10:01:57.001Z</time></trkpt><trkpt lat="45.804321920272066" lon="11.751308224221475"><ele>406.0</ele><time>2026-04-16T10:01:58.001Z</time></trkpt><trkpt lat="45.80426532786525" lon="11.751172648952535"><ele>401.5</ele><time>2026-04-16T10:01:59.001Z</time></trkpt><trkpt lat="45.80418962169027" lon="11.750969156421661"><ele>397.0</ele><time>2026-04-16T10:02:00.001Z</time></trkpt><trkpt lat="45.804087572657735" lon="11.750747073782785"><ele>397.0</ele><time>2026-04-16T10:02:01.001Z</time></trkpt><trkpt lat="45.803980378779336" lon="11.750522517941615"><ele>397.0</ele><time>2026-04-16T10:02:02.001Z</time></trkpt><trkpt lat="45.80386403880673" lon="11.750281277148318"><ele>397.0</ele><time>2026-04-16T10:02:03.001Z</time></trkpt><trkpt lat="45.80373116709072" lon="11.750009662770115"><ele>395.0</ele><time>2026-04-16T10:02:04.001Z</time></trkpt><trkpt lat="45.80360408305582" lon="11.749758228807016"><ele>393.0</ele><time>2026-04-16T10:02:05.001Z</time></trkpt><trkpt lat="45.80347794892276" lon="11.749525983477959"><ele>391.0</ele><time>2026-04-16T10:02:06.001Z</time></trkpt><trkpt lat="45.803357043846894" lon="11.749331395240281"><ele>391.0</ele><time>2026-04-16T10:02:07.001Z</time></trkpt><trkpt lat="45.80325890616836" lon="11.74917722349719"><ele>391.0</ele><time>2026-04-16T10:02:08.001Z</time></trkpt><trkpt lat="45.80317436361604" lon="11.749045775407161"><ele>391.0</ele><time>2026-04-16T10:02:09.001Z</time></trkpt><trkpt lat="45.80307604597105" lon="11.74893066895763"><ele>391.0</ele><time>2026-04-16T10:02:10.001Z</time></trkpt><trkpt lat="45.80299058227626" lon="11.748810461603204"><ele>391.0</ele><time>2026-04-16T10:02:11.001Z</time></trkpt><trkpt lat="45.802878181351744" lon="11.7487802292053"><ele>391.0</ele><time>2026-04-16T10:02:12.001Z</time></trkpt><trkpt lat="45.80275985399021" lon="11.748777668934654"><ele>391.0</ele><time>2026-04-16T10:02:13.001Z</time></trkpt><trkpt lat="45.80259400492513" lon="11.748758647646026"><ele>391.0</ele><time>2026-04-16T10:02:14.001Z</time></trkpt><trkpt lat="45.802431717312366" lon="11.748751708932145"><ele>382.0</ele><time>2026-04-16T10:02:15.001Z</time></trkpt><trkpt lat="45.802281106419734" lon="11.748733967059517"><ele>373.0</ele><time>2026-04-16T10:02:16.001Z</time></trkpt><trkpt lat="45.802148678885075" lon="11.748698048733505"><ele>364.0</ele><time>2026-04-16T10:02:17.001Z</time></trkpt><trkpt lat="45.80202827760407" lon="11.748639479241053"><ele>355.0</ele><time>2026-04-16T10:02:18.001Z</time></trkpt><trkpt lat="45.80191731900763" lon="11.748572163587971"><ele>357.25</ele><time>2026-04-16T10:02:19.001Z</time></trkpt><trkpt lat="45.8018201297455" lon="11.748482118585505"><ele>359.5</ele><time>2026-04-16T10:02:20.001Z</time></trkpt><trkpt lat="45.801704612648024" lon="11.748357999690324"><ele>361.75</ele><time>2026-04-16T10:02:21.001Z</time></trkpt><trkpt lat="45.80156181826486" lon="11.748186095094448"><ele>364.0</ele><time>2026-04-16T10:02:22.001Z</time></trkpt><trkpt lat="45.80142035009324" lon="11.748019028578865"><ele>364.0</ele><time>2026-04-16T10:02:23.001Z</time></trkpt><trkpt lat="45.80128829134664" lon="11.747857696498263"><ele>364.0</ele><time>2026-04-16T10:02:24.001Z</time></trkpt><trkpt lat="45.801143301984716" lon="11.747689695258677"><ele>364.0</ele><time>2026-04-16T10:02:25.001Z</time></trkpt><trkpt lat="45.80100578764983" lon="11.74752648055606"><ele>360.0</ele><time>2026-04-16T10:02:26.001Z</time></trkpt><trkpt lat="45.800901127407506" lon="11.747395704353863"><ele>356.0</ele><time>2026-04-16T10:02:27.001Z</time></trkpt><trkpt lat="45.80081969444863" lon="11.747277801867071"><ele>352.0</ele><time>2026-04-16T10:02:28.001Z</time></trkpt><trkpt lat="45.8007631276496" lon="11.747158023134032"><ele>348.0</ele><time>2026-04-16T10:02:29.001Z</time></trkpt><trkpt lat="45.80072133470537" lon="11.747033352050599"><ele>348.0</ele><time>2026-04-16T10:02:30.001Z</time></trkpt><trkpt lat="45.80067100873311" lon="11.746933212581434"><ele>348.0</ele><time>2026-04-16T10:02:31.001Z</time></trkpt><trkpt lat="45.80060005668907" lon="11.746884391495184"><ele>348.0</ele><time>2026-04-16T10:02:32.001Z</time></trkpt><trkpt lat="45.8005112781772" lon="11.746920158435529"><ele>348.0</ele><time>2026-04-16T10:02:33.001Z</time></trkpt><trkpt lat="45.80046977378103" lon="11.747043861306459"><ele>348.0</ele><time>2026-04-16T10:02:34.001Z</time></trkpt><trkpt lat="45.80047701177291" lon="11.747150513657482"><ele>348.0</ele><time>2026-04-16T10:02:35.001Z</time></trkpt><trkpt lat="45.800527634091196" lon="11.747251489605626"><ele>348.0</ele><time>2026-04-16T10:02:36.001Z</time></trkpt><trkpt lat="45.80062089387909" lon="11.747373715639704"><ele>348.0</ele><time>2026-04-16T10:02:37.001Z</time></trkpt><trkpt lat="45.80075319321525" lon="11.747538207166036"><ele>348.0</ele><time>2026-04-16T10:02:38.001Z</time></trkpt><trkpt lat="45.80085226710367" lon="11.747711855255154"><ele>353.3333333333333</ele><time>2026-04-16T10:02:39.001Z</time></trkpt><trkpt lat="45.80097770913004" lon="11.747933013057493"><ele>358.66666666666663</ele><time>2026-04-16T10:02:40.001Z</time></trkpt><trkpt lat="45.801088462864044" lon="11.748188825461815"><ele>364.0</ele><time>2026-04-16T10:02:41.001Z</time></trkpt><trkpt lat="45.80119752589593" lon="11.748416355179558"><ele>351.3333333333333</ele><time>2026-04-16T10:02:42.001Z</time></trkpt><trkpt lat="45.80132531419212" lon="11.748664904017023"><ele>338.6666666666667</ele><time>2026-04-16T10:02:43.001Z</time></trkpt><trkpt lat="45.80142996073698" lon="11.748881911387508"><ele>326.0</ele><time>2026-04-16T10:02:44.001Z</time></trkpt><trkpt lat="45.80152773569205" lon="11.749044275580143"><ele>326.0</ele><time>2026-04-16T10:02:45.001Z</time></trkpt><trkpt lat="45.80161875195174" lon="11.749179651893629"><ele>326.0</ele><time>2026-04-16T10:02:46.001Z</time></trkpt><trkpt lat="45.80172560811013" lon="11.749308794705952"><ele>326.0</ele><time>2026-04-16T10:02:47.001Z</time></trkpt><trkpt lat="45.80186746534269" lon="11.7494334972293"><ele>326.0</ele><time>2026-04-16T10:02:48.001Z</time></trkpt><trkpt lat="45.80204507146947" lon="11.749534046417692"><ele>324.25</ele><time>2026-04-16T10:02:49.001Z</time></trkpt><trkpt lat="45.80221644429832" lon="11.749623503612536"><ele>322.5</ele><time>2026-04-16T10:02:50.001Z</time></trkpt><trkpt lat="45.80233536398334" lon="11.749706043521435"><ele>320.75</ele><time>2026-04-16T10:02:51.001Z</time></trkpt><trkpt lat="45.80243915340923" lon="11.749794049053257"><ele>319.0</ele><time>2026-04-16T10:02:52.001Z</time></trkpt><trkpt lat="45.80253080394046" lon="11.749894582686599"><ele>319.0</ele><time>2026-04-16T10:02:53.001Z</time></trkpt><trkpt lat="45.80259329972" lon="11.750039585984572"><ele>319.0</ele><time>2026-04-16T10:02:54.001Z</time></trkpt><trkpt lat="45.80264394567458" lon="11.750245797909406"><ele>319.0</ele><time>2026-04-16T10:02:55.001Z</time></trkpt><trkpt lat="45.80271118171799" lon="11.750487644561133"><ele>320.0</ele><time>2026-04-16T10:02:56.002Z</time></trkpt><trkpt lat="45.802783022918874" lon="11.750757279656733"><ele>321.0</ele><time>2026-04-16T10:02:57.002Z</time></trkpt><trkpt lat="45.80287453376653" lon="11.75103667208088"><ele>322.0</ele><time>2026-04-16T10:02:58.002Z</time></trkpt><trkpt lat="45.802982113931904" lon="11.751331140247338"><ele>322.0</ele><time>2026-04-16T10:02:59.002Z</time></trkpt><trkpt lat="45.80308802890883" lon="11.75163522327501"><ele>322.0</ele><time>2026-04-16T10:03:00.002Z</time></trkpt><trkpt lat="45.80318098958147" lon="11.751900689884796"><ele>322.0</ele><time>2026-04-16T10:03:01.002Z</time></trkpt><trkpt lat="45.80326326503516" lon="11.752151693381348"><ele>315.0</ele><time>2026-04-16T10:03:02.002Z</time></trkpt><trkpt lat="45.80334210202741" lon="11.752391388469828"><ele>308.0</ele><time>2026-04-16T10:03:03.002Z</time></trkpt><trkpt lat="45.80344366611723" lon="11.752606501448987"><ele>301.0</ele><time>2026-04-16T10:03:04.002Z</time></trkpt><trkpt lat="45.8035816819405" lon="11.752866178822803"><ele>301.0</ele><time>2026-04-16T10:03:05.002Z</time></trkpt><trkpt lat="45.803747291202285" lon="11.753139431719328"><ele>301.0</ele><time>2026-04-16T10:03:06.002Z</time></trkpt><trkpt lat="45.80390751468721" lon="11.753385495614564"><ele>286.0</ele><time>2026-04-16T10:03:07.002Z</time></trkpt><trkpt lat="45.80406450659004" lon="11.753654231699024"><ele>271.0</ele><time>2026-04-16T10:03:08.002Z</time></trkpt><trkpt lat="45.80420714618947" lon="11.753898982836345"><ele>272.3333333333333</ele><time>2026-04-16T10:03:09.002Z</time></trkpt><trkpt lat="45.80434546723134" lon="11.754127625675137"><ele>273.6666666666667</ele><time>2026-04-16T10:03:10.002Z</time></trkpt><trkpt lat="45.80449866266805" lon="11.754349167766517"><ele>275.0</ele><time>2026-04-16T10:03:11.002Z</time></trkpt><trkpt lat="45.80468375474179" lon="11.75458033012932"><ele>275.0</ele><time>2026-04-16T10:03:12.002Z</time></trkpt><trkpt lat="45.8048586223212" lon="11.754802178724928"><ele>275.0</ele><time>2026-04-16T10:03:13.002Z</time></trkpt><trkpt lat="45.80501573069227" lon="11.755014063160138"><ele>275.0</ele><time>2026-04-16T10:03:14.002Z</time></trkpt><trkpt lat="45.80514813789338" lon="11.755195683633922"><ele>271.33333333333337</ele><time>2026-04-16T10:03:15.002Z</time></trkpt><trkpt lat="45.805268007106264" lon="11.755366551753111"><ele>267.6666666666667</ele><time>2026-04-16T10:03:16.002Z</time></trkpt><trkpt lat="45.80540328396255" lon="11.755525715275295"><ele>264.0</ele><time>2026-04-16T10:03:17.002Z</time></trkpt><trkpt lat="45.80557180128912" lon="11.75566973867961"><ele>264.0</ele><time>2026-04-16T10:03:18.002Z</time></trkpt><trkpt lat="45.80575785499383" lon="11.75581544985218"><ele>264.0</ele><time>2026-04-16T10:03:19.002Z</time></trkpt><trkpt lat="45.80594792800321" lon="11.75597245793846"><ele>264.0</ele><time>2026-04-16T10:03:20.002Z</time></trkpt><trkpt lat="45.806142972188084" lon="11.756100401980516"><ele>255.33333333333331</ele><time>2026-04-16T10:03:21.002Z</time></trkpt><trkpt lat="45.80631914876261" lon="11.75621992315833"><ele>246.66666666666666</ele><time>2026-04-16T10:03:22.002Z</time></trkpt><trkpt lat="45.80648255578297" lon="11.756326112544482"><ele>238.0</ele><time>2026-04-16T10:03:23.002Z</time></trkpt><trkpt lat="45.80665535300309" lon="11.756413114565918"><ele>239.66666666666666</ele><time>2026-04-16T10:03:24.002Z</time></trkpt><trkpt lat="45.80685394768997" lon="11.756468616159461"><ele>241.33333333333331</ele><time>2026-04-16T10:03:25.002Z</time></trkpt><trkpt lat="45.8070425140476" lon="11.75652145065292"><ele>243.0</ele><time>2026-04-16T10:03:26.002Z</time></trkpt><trkpt lat="45.80725608441911" lon="11.756541132269113"><ele>243.0</ele><time>2026-04-16T10:03:27.002Z</time></trkpt><trkpt lat="45.807444885413545" lon="11.756600178403"><ele>243.0</ele><time>2026-04-16T10:03:28.002Z</time></trkpt><trkpt lat="45.807565829954605" lon="11.75661914078147"><ele>243.0</ele><time>2026-04-16T10:03:29.002Z</time></trkpt><trkpt lat="45.80764271304152" lon="11.756592916466987"><ele>243.0</ele><time>2026-04-16T10:03:30.002Z</time></trkpt><trkpt lat="45.80774792916099" lon="11.756637831374814"><ele>243.0</ele><time>2026-04-16T10:03:32.002Z</time></trkpt><trkpt lat="45.80777935185846" lon="11.756794670523856"><ele>243.0</ele><time>2026-04-16T10:03:34.002Z</time></trkpt><trkpt lat="45.80773560326639" lon="11.756875945781244"><ele>243.0</ele><time>2026-04-16T10:03:35.002Z</time></trkpt><trkpt lat="45.807651818351765" lon="11.7568926298211"><ele>243.0</ele><time>2026-04-16T10:03:36.002Z</time></trkpt><trkpt lat="45.80756099819504" lon="11.756797596096568"><ele>243.0</ele><time>2026-04-16T10:03:37.002Z</time></trkpt><trkpt lat="45.80744924981085" lon="11.756770060341076"><ele>243.0</ele><time>2026-04-16T10:03:38.002Z</time></trkpt><trkpt lat="45.80733260474663" lon="11.756758221165297"><ele>243.0</ele><time>2026-04-16T10:03:39.002Z</time></trkpt><trkpt lat="45.80716293670434" lon="11.756750917372978"><ele>243.0</ele><time>2026-04-16T10:03:40.002Z</time></trkpt><trkpt lat="45.807005221843305" lon="11.756749351004201"><ele>243.0</ele><time>2026-04-16T10:03:41.002Z</time></trkpt><trkpt lat="45.806837566327495" lon="11.756745956475209"><ele>241.33333333333331</ele><time>2026-04-16T10:03:42.002Z</time></trkpt><trkpt lat="45.80662443504281" lon="11.756749083949764"><ele>239.66666666666666</ele><time>2026-04-16T10:03:43.002Z</time></trkpt><trkpt lat="45.80641221455283" lon="11.75671955115418"><ele>238.0</ele><time>2026-04-16T10:03:44.002Z</time></trkpt><trkpt lat="45.80618896484893" lon="11.756692823077"><ele>233.33333333333331</ele><time>2026-04-16T10:03:45.002Z</time></trkpt><trkpt lat="45.80597040547227" lon="11.756669802420044"><ele>228.66666666666669</ele><time>2026-04-16T10:03:46.002Z</time></trkpt><trkpt lat="45.80575763567871" lon="11.756608537724153"><ele>224.0</ele><time>2026-04-16T10:03:47.002Z</time></trkpt><trkpt lat="45.80553836723421" lon="11.756548113746035"><ele>224.0</ele><time>2026-04-16T10:03:48.002Z</time></trkpt><trkpt lat="45.80533894938819" lon="11.756468140754322"><ele>224.0</ele><time>2026-04-16T10:03:49.002Z</time></trkpt><trkpt lat="45.80514864494925" lon="11.756395806562015"><ele>224.0</ele><time>2026-04-16T10:03:50.002Z</time></trkpt><trkpt lat="45.80498733479775" lon="11.756336032032538"><ele>220.25</ele><time>2026-04-16T10:03:51.002Z</time></trkpt><trkpt lat="45.80485341319345" lon="11.7562856232689"><ele>216.5</ele><time>2026-04-16T10:03:52.002Z</time></trkpt><trkpt lat="45.80472538004923" lon="11.756260155599238"><ele>212.75</ele><time>2026-04-16T10:03:53.002Z</time></trkpt><trkpt lat="45.80459484439497" lon="11.756290876087784"><ele>209.0</ele><time>2026-04-16T10:03:54.001Z</time></trkpt><trkpt lat="45.80445448017214" lon="11.756359655349058"><ele>206.33333333333334</ele><time>2026-04-16T10:03:55.001Z</time></trkpt><trkpt lat="45.80431449191399" lon="11.75653765419761"><ele>203.66666666666669</ele><time>2026-04-16T10:03:56.001Z</time></trkpt><trkpt lat="45.80416026429896" lon="11.756709447615279"><ele>201.0</ele><time>2026-04-16T10:03:57.001Z</time></trkpt><trkpt lat="45.80400506617606" lon="11.756818088075972"><ele>198.66666666666669</ele><time>2026-04-16T10:03:58.001Z</time></trkpt><trkpt lat="45.803809750919946" lon="11.75692886180385"><ele>196.33333333333334</ele><time>2026-04-16T10:03:59.001Z</time></trkpt><trkpt lat="45.80363164138034" lon="11.757041808103084"><ele>194.0</ele><time>2026-04-16T10:04:00.001Z</time></trkpt><trkpt lat="45.803458507216114" lon="11.757157945037997"><ele>193.66666666666669</ele><time>2026-04-16T10:04:01.001Z</time></trkpt><trkpt lat="45.80330685457925" lon="11.7572561899775"><ele>193.33333333333331</ele><time>2026-04-16T10:04:02.001Z</time></trkpt><trkpt lat="45.80315938724049" lon="11.757350407280924"><ele>193.0</ele><time>2026-04-16T10:04:03.001Z</time></trkpt><trkpt lat="45.80300752489985" lon="11.757450914649267"><ele>193.0</ele><time>2026-04-16T10:04:04.001Z</time></trkpt><trkpt lat="45.80284892799194" lon="11.75755861192392"><ele>193.0</ele><time>2026-04-16T10:04:05.001Z</time></trkpt><trkpt lat="45.80269303488017" lon="11.757663566088896"><ele>193.0</ele><time>2026-04-16T10:04:06.001Z</time></trkpt><trkpt lat="45.80255196016036" lon="11.757755706022525"><ele>192.0</ele><time>2026-04-16T10:04:07.001Z</time></trkpt><trkpt lat="45.80242836076901" lon="11.75783146584016"><ele>191.0</ele><time>2026-04-16T10:04:08.001Z</time></trkpt><trkpt lat="45.80230749279125" lon="11.757866253432844"><ele>190.0</ele><time>2026-04-16T10:04:09.001Z</time></trkpt><trkpt lat="45.80219303222112" lon="11.757893915506925"><ele>189.0</ele><time>2026-04-16T10:04:10.001Z</time></trkpt><trkpt lat="45.80208052758753" lon="11.757894487851594"><ele>189.0</ele><time>2026-04-16T10:04:11.001Z</time></trkpt><trkpt lat="45.8019615280965" lon="11.757860763562338"><ele>189.0</ele><time>2026-04-16T10:04:12.001Z</time></trkpt><trkpt lat="45.801833058991015" lon="11.75783279984195"><ele>189.0</ele><time>2026-04-16T10:04:13.001Z</time></trkpt><trkpt lat="45.80170187694617" lon="11.757891422968463"><ele>189.0</ele><time>2026-04-16T10:04:14.001Z</time></trkpt><trkpt lat="45.80157562741706" lon="11.757918178268397"><ele>188.6</ele><time>2026-04-16T10:04:15.001Z</time></trkpt><trkpt lat="45.801469445991266" lon="11.75792700645337"><ele>188.2</ele><time>2026-04-16T10:04:16.001Z</time></trkpt><trkpt lat="45.80137976665994" lon="11.757899531858376"><ele>187.79999999999998</ele><time>2026-04-16T10:04:17.001Z</time></trkpt><trkpt lat="45.80132330827863" lon="11.757799038832104"><ele>187.39999999999998</ele><time>2026-04-16T10:04:18.001Z</time></trkpt><trkpt lat="45.801221067987306" lon="11.75767964304342"><ele>187.0</ele><time>2026-04-16T10:04:19.001Z</time></trkpt><trkpt lat="45.80109038665921" lon="11.757542232128515"><ele>186.0</ele><time>2026-04-16T10:04:20.001Z</time></trkpt><trkpt lat="45.80093995336814" lon="11.75740488080447"><ele>185.0</ele><time>2026-04-16T10:04:21.001Z</time></trkpt><trkpt lat="45.800794854557566" lon="11.757272582230502"><ele>184.0</ele><time>2026-04-16T10:04:22.001Z</time></trkpt><trkpt lat="45.80067053746356" lon="11.757158318501583"><ele>184.0</ele><time>2026-04-16T10:04:23.001Z</time></trkpt><trkpt lat="45.80056177482023" lon="11.75705481655211"><ele>184.0</ele><time>2026-04-16T10:04:24.001Z</time></trkpt><trkpt lat="45.80046827650423" lon="11.756949331575887"><ele>184.0</ele><time>2026-04-16T10:04:25.001Z</time></trkpt><trkpt lat="45.80040310420936" lon="11.756843545291964"><ele>184.0</ele><time>2026-04-16T10:04:26.001Z</time></trkpt><trkpt lat="45.80034406330414" lon="11.756714980939089"><ele>184.0</ele><time>2026-04-16T10:04:27.001Z</time></trkpt><trkpt lat="45.800279538990424" lon="11.756612623364614"><ele>184.0</ele><time>2026-04-16T10:04:28.001Z</time></trkpt><trkpt lat="45.80023183510341" lon="11.756547811129726"><ele>184.0</ele><time>2026-04-16T10:04:29.001Z</time></trkpt><trkpt lat="45.800142671097255" lon="11.756519500449498"><ele>184.0</ele><time>2026-04-16T10:04:30.001Z</time></trkpt><trkpt lat="45.80001200159623" lon="11.75650603134645"><ele>184.0</ele><time>2026-04-16T10:04:31.001Z</time></trkpt><trkpt lat="45.799862736879305" lon="11.75648372615555"><ele>184.0</ele><time>2026-04-16T10:04:32.001Z</time></trkpt><trkpt lat="45.79974610016337" lon="11.756464536797754"><ele>184.0</ele><time>2026-04-16T10:04:33.001Z</time></trkpt><trkpt lat="45.79964524942115" lon="11.756438052308443"><ele>184.0</ele><time>2026-04-16T10:04:34.001Z</time></trkpt><trkpt lat="45.79952978459507" lon="11.756421490578992"><ele>184.0</ele><time>2026-04-16T10:04:35.001Z</time></trkpt><trkpt lat="45.7994117870195" lon="11.756411842772362"><ele>182.75</ele><time>2026-04-16T10:04:36.001Z</time></trkpt><trkpt lat="45.799282541770815" lon="11.756444594662385"><ele>181.5</ele><time>2026-04-16T10:04:37.001Z</time></trkpt><trkpt lat="45.799155903055784" lon="11.756484078850518"><ele>180.25</ele><time>2026-04-16T10:04:38.001Z</time></trkpt><trkpt lat="45.79904976938067" lon="11.75652594440252"><ele>179.0</ele><time>2026-04-16T10:04:39.001Z</time></trkpt><trkpt lat="45.79894327415735" lon="11.75656250286174"><ele>179.0</ele><time>2026-04-16T10:04:40.001Z</time></trkpt><trkpt lat="45.79881312221391" lon="11.756566702902942"><ele>179.0</ele><time>2026-04-16T10:04:41.001Z</time></trkpt><trkpt lat="45.798655214380226" lon="11.756597196334253"><ele>179.0</ele><time>2026-04-16T10:04:42.001Z</time></trkpt><trkpt lat="45.79851588206825" lon="11.756628858431869"><ele>179.0</ele><time>2026-04-16T10:04:43.001Z</time></trkpt><trkpt lat="45.7983700973026" lon="11.75666248144164"><ele>178.0</ele><time>2026-04-16T10:04:44.001Z</time></trkpt><trkpt lat="45.7982327336717" lon="11.756693519792076"><ele>177.0</ele><time>2026-04-16T10:04:45.001Z</time></trkpt><trkpt lat="45.798107888728175" lon="11.756721051672406"><ele>176.0</ele><time>2026-04-16T10:04:46.001Z</time></trkpt><trkpt lat="45.79798946796964" lon="11.756752632751908"><ele>175.0</ele><time>2026-04-16T10:04:47.001Z</time></trkpt><trkpt lat="45.79786020865743" lon="11.75679730282136"><ele>175.4</ele><time>2026-04-16T10:04:48.001Z</time></trkpt><trkpt lat="45.79773627928671" lon="11.756885497955707"><ele>175.8</ele><time>2026-04-16T10:04:49.001Z</time></trkpt><trkpt lat="45.79764354465621" lon="11.756949693544568"><ele>176.2</ele><time>2026-04-16T10:04:50.001Z</time></trkpt><trkpt lat="45.79756178064689" lon="11.757021619684041"><ele>176.6</ele><time>2026-04-16T10:04:51.001Z</time></trkpt><trkpt lat="45.797478117073474" lon="11.757108232705225"><ele>177.0</ele><time>2026-04-16T10:04:52.001Z</time></trkpt><trkpt lat="45.79738806298236" lon="11.75717761035754"><ele>176.2</ele><time>2026-04-16T10:04:53.001Z</time></trkpt><trkpt lat="45.797315378222564" lon="11.757255390694608"><ele>175.39999999999998</ele><time>2026-04-16T10:04:54.001Z</time></trkpt><trkpt lat="45.79723214825306" lon="11.757302310647985"><ele>174.60000000000002</ele><time>2026-04-16T10:04:55.001Z</time></trkpt><trkpt lat="45.79713690581525" lon="11.757341744175383"><ele>173.8</ele><time>2026-04-16T10:04:56.001Z</time></trkpt><trkpt lat="45.79705665895699" lon="11.757383373604299"><ele>173.0</ele><time>2026-04-16T10:04:57.001Z</time></trkpt><trkpt lat="45.79697370224653" lon="11.75742612629756"><ele>173.0</ele><time>2026-04-16T10:04:59.001Z</time></trkpt><trkpt lat="45.79691487693978" lon="11.75736106996233"><ele>173.0</ele><time>2026-04-16T10:05:01.001Z</time></trkpt><trkpt lat="45.796906899053916" lon="11.757172913824736"><ele>173.0</ele><time>2026-04-16T10:05:03.001Z</time></trkpt><trkpt lat="45.79685056155556" lon="11.757031400118139"><ele>173.0</ele><time>2026-04-16T10:05:05.001Z</time></trkpt><trkpt lat="45.79681371051539" lon="11.75694039625124"><ele>173.0</ele><time>2026-04-16T10:05:06.001Z</time></trkpt><trkpt lat="45.796769700361295" lon="11.75683439579254"><ele>172.8</ele><time>2026-04-16T10:05:07.001Z</time></trkpt><trkpt lat="45.79671392096121" lon="11.756712467248413"><ele>172.60000000000002</ele><time>2026-04-16T10:05:08.001Z</time></trkpt><trkpt lat="45.79666798584126" lon="11.756594088529901"><ele>172.39999999999998</ele><time>2026-04-16T10:05:09.001Z</time></trkpt><trkpt lat="45.796634604129316" lon="11.756471325942234"><ele>172.2</ele><time>2026-04-16T10:05:10.001Z</time></trkpt><trkpt lat="45.796593659151796" lon="11.756321626398027"><ele>172.0</ele><time>2026-04-16T10:05:11.001Z</time></trkpt><trkpt lat="45.79653168194117" lon="11.756177590682926"><ele>172.2</ele><time>2026-04-16T10:05:12.001Z</time></trkpt><trkpt lat="45.79647801879488" lon="11.756023691260674"><ele>172.39999999999998</ele><time>2026-04-16T10:05:13.001Z</time></trkpt><trkpt lat="45.796421819379866" lon="11.755890744350756"><ele>172.60000000000002</ele><time>2026-04-16T10:05:14.001Z</time></trkpt><trkpt lat="45.79637398991566" lon="11.755778768901072"><ele>172.8</ele><time>2026-04-16T10:05:15.001Z</time></trkpt><trkpt lat="45.79634249841057" lon="11.755664441379894"><ele>173.0</ele><time>2026-04-16T10:05:16.001Z</time></trkpt><trkpt lat="45.79630056856652" lon="11.755564273271824"><ele>173.0</ele><time>2026-04-16T10:05:17.001Z</time></trkpt><trkpt lat="45.79624680814646" lon="11.755479025944716"><ele>173.0</ele><time>2026-04-16T10:05:18.001Z</time></trkpt><trkpt lat="45.79620439633486" lon="11.755375704917649"><ele>173.0</ele><time>2026-04-16T10:05:19.001Z</time></trkpt><trkpt lat="45.796164707274365" lon="11.755241471264002"><ele>173.0</ele><time>2026-04-16T10:05:20.001Z</time></trkpt><trkpt lat="45.796108631814555" lon="11.75510893364553"><ele>173.0</ele><time>2026-04-16T10:05:21.001Z</time></trkpt><trkpt lat="45.796051872241414" lon="11.754967062536636"><ele>172.25</ele><time>2026-04-16T10:05:22.001Z</time></trkpt><trkpt lat="45.79599669687889" lon="11.75482733560782"><ele>171.5</ele><time>2026-04-16T10:05:23.001Z</time></trkpt><trkpt lat="45.795944453354046" lon="11.754691362905826"><ele>170.75</ele><time>2026-04-16T10:05:24.001Z</time></trkpt><trkpt lat="45.79587571372803" lon="11.754550920350844"><ele>170.0</ele><time>2026-04-16T10:05:25.001Z</time></trkpt><trkpt lat="45.795838549000926" lon="11.75437051140295"><ele>169.66666666666666</ele><time>2026-04-16T10:05:26.001Z</time></trkpt><trkpt lat="45.795792167429894" lon="11.75417170941879"><ele>169.33333333333334</ele><time>2026-04-16T10:05:27.001Z</time></trkpt><trkpt lat="45.79574493230756" lon="11.753944689785278"><ele>169.0</ele><time>2026-04-16T10:05:28.001Z</time></trkpt><trkpt lat="45.79570143185961" lon="11.753734280735324"><ele>169.0</ele><time>2026-04-16T10:05:29.001Z</time></trkpt><trkpt lat="45.79565900454274" lon="11.753546333484914"><ele>169.0</ele><time>2026-04-16T10:05:30.001Z</time></trkpt><trkpt lat="45.795619804058504" lon="11.753372679660348"><ele>169.0</ele><time>2026-04-16T10:05:31.001Z</time></trkpt><trkpt lat="45.79558231360042" lon="11.75320952022388"><ele>169.0</ele><time>2026-04-16T10:05:32.001Z</time></trkpt><trkpt lat="45.79553599495152" lon="11.753053994507486"><ele>168.5</ele><time>2026-04-16T10:05:33.001Z</time></trkpt><trkpt lat="45.79549824883525" lon="11.75288778638842"><ele>168.0</ele><time>2026-04-16T10:05:34.001Z</time></trkpt><trkpt lat="45.79545417841512" lon="11.752714249693417"><ele>167.5</ele><time>2026-04-16T10:05:35.001Z</time></trkpt><trkpt lat="45.7954117636045" lon="11.752525519569437"><ele>167.0</ele><time>2026-04-16T10:05:36.001Z</time></trkpt><trkpt lat="45.79537719449216" lon="11.752360813069439"><ele>166.5</ele><time>2026-04-16T10:05:37.001Z</time></trkpt><trkpt lat="45.79533251537962" lon="11.752171160007927"><ele>166.0</ele><time>2026-04-16T10:05:38.001Z</time></trkpt><trkpt lat="45.795289327518915" lon="11.75198614145387"><ele>165.5</ele><time>2026-04-16T10:05:39.001Z</time></trkpt><trkpt lat="45.79524807635636" lon="11.751819097967816"><ele>165.0</ele><time>2026-04-16T10:05:40.001Z</time></trkpt><trkpt lat="45.79519648865351" lon="11.751657227854164"><ele>164.25</ele><time>2026-04-16T10:05:41.001Z</time></trkpt><trkpt lat="45.79513621836361" lon="11.751484054918159"><ele>163.5</ele><time>2026-04-16T10:05:42.001Z</time></trkpt><trkpt lat="45.79507420380147" lon="11.75129988680012"><ele>162.75</ele><time>2026-04-16T10:05:43.001Z</time></trkpt><trkpt lat="45.7950020566006" lon="11.75110913598938"><ele>162.0</ele><time>2026-04-16T10:05:44.001Z</time></trkpt><trkpt lat="45.79492732946479" lon="11.750907242043974"><ele>161.66666666666666</ele><time>2026-04-16T10:05:45.001Z</time></trkpt><trkpt lat="45.794865279430766" lon="11.750691217195138"><ele>161.33333333333331</ele><time>2026-04-16T10:05:46.001Z</time></trkpt><trkpt lat="45.79481513174138" lon="11.750484093114185"><ele>161.0</ele><time>2026-04-16T10:05:47.001Z</time></trkpt><trkpt lat="45.79477073373938" lon="11.75029626192729"><ele>161.25</ele><time>2026-04-16T10:05:48.001Z</time></trkpt><trkpt lat="45.79473153086407" lon="11.750120800961092"><ele>161.5</ele><time>2026-04-16T10:05:49.001Z</time></trkpt><trkpt lat="45.79469235590682" lon="11.749950697849718"><ele>161.75</ele><time>2026-04-16T10:05:50.001Z</time></trkpt><trkpt lat="45.79465664483234" lon="11.749780893789813"><ele>162.0</ele><time>2026-04-16T10:05:51.001Z</time></trkpt><trkpt lat="45.79462133617405" lon="11.749603471159658"><ele>162.0</ele><time>2026-04-16T10:05:52.001Z</time></trkpt><trkpt lat="45.79458318264526" lon="11.749422836193657"><ele>162.0</ele><time>2026-04-16T10:05:53.001Z</time></trkpt><trkpt lat="45.794548349082305" lon="11.749230859195636"><ele>162.0</ele><time>2026-04-16T10:05:54.001Z</time></trkpt><trkpt lat="45.79451791202824" lon="11.749016794780037"><ele>162.0</ele><time>2026-04-16T10:05:55.001Z</time></trkpt><trkpt lat="45.79449127650434" lon="11.748798354641744"><ele>162.0</ele><time>2026-04-16T10:05:56.001Z</time></trkpt><trkpt lat="45.794473541738625" lon="11.748593624922536"><ele>162.0</ele><time>2026-04-16T10:05:57.001Z</time></trkpt><trkpt lat="45.79445992038316" lon="11.748380995580243"><ele>162.0</ele><time>2026-04-16T10:05:58.001Z</time></trkpt><trkpt lat="45.794447769280424" lon="11.748169678310003"><ele>162.0</ele><time>2026-04-16T10:05:59.001Z</time></trkpt><trkpt lat="45.79443637645198" lon="11.74795610231463"><ele>161.33333333333334</ele><time>2026-04-16T10:06:00.001Z</time></trkpt><trkpt lat="45.79442450131982" lon="11.747737177409082"><ele>160.66666666666669</ele><time>2026-04-16T10:06:01.001Z</time></trkpt><trkpt lat="45.79441071849315" lon="11.747504548936462"><ele>160.0</ele><time>2026-04-16T10:06:02.001Z</time></trkpt><trkpt lat="45.79441483010398" lon="11.747270928860216"><ele>160.0</ele><time>2026-04-16T10:06:03.001Z</time></trkpt><trkpt lat="45.794402935296375" lon="11.747041892294655"><ele>160.0</ele><time>2026-04-16T10:06:04.001Z</time></trkpt><trkpt lat="45.79439011416245" lon="11.746795019092334"><ele>160.0</ele><time>2026-04-16T10:06:05.001Z</time></trkpt><trkpt lat="45.79437453358876" lon="11.746479376324139"><ele>160.5</ele><time>2026-04-16T10:06:06.001Z</time></trkpt><trkpt lat="45.79435673769703" lon="11.746117747414717"><ele>161.0</ele><time>2026-04-16T10:06:07.001Z</time></trkpt><trkpt lat="45.79433786295157" lon="11.745733174478001"><ele>161.5</ele><time>2026-04-16T10:06:08.001Z</time></trkpt><trkpt lat="45.794318067932444" lon="11.745329850968595"><ele>162.0</ele><time>2026-04-16T10:06:09.001Z</time></trkpt><trkpt lat="45.794282364256475" lon="11.744900010761482"><ele>163.5</ele><time>2026-04-16T10:06:10.001Z</time></trkpt><trkpt lat="45.79427227571238" lon="11.744520446648036"><ele>165.0</ele><time>2026-04-16T10:06:11.001Z</time></trkpt><trkpt lat="45.79425227819449" lon="11.744169863864693"><ele>165.0</ele><time>2026-04-16T10:06:12.001Z</time></trkpt><trkpt lat="45.794237368797496" lon="11.743842634849274"><ele>165.0</ele><time>2026-04-16T10:06:13.001Z</time></trkpt><trkpt lat="45.7942237130661" lon="11.743528273751052"><ele>165.0</ele><time>2026-04-16T10:06:14.001Z</time></trkpt><trkpt lat="45.7942072114969" lon="11.743231479434321"><ele>165.66666666666666</ele><time>2026-04-16T10:06:15.001Z</time></trkpt><trkpt lat="45.79419570050478" lon="11.742961615055"><ele>166.33333333333331</ele><time>2026-04-16T10:06:16.001Z</time></trkpt><trkpt lat="45.794200888374654" lon="11.742710208703222"><ele>167.0</ele><time>2026-04-16T10:06:17.001Z</time></trkpt><trkpt lat="45.79422634900674" lon="11.742463774567813"><ele>167.33333333333331</ele><time>2026-04-16T10:06:18.001Z</time></trkpt><trkpt lat="45.794281411298954" lon="11.742220662231063"><ele>167.66666666666666</ele><time>2026-04-16T10:06:19.001Z</time></trkpt><trkpt lat="45.79435974630793" lon="11.742023217567167"><ele>168.0</ele><time>2026-04-16T10:06:20.001Z</time></trkpt><trkpt lat="45.79444581142134" lon="11.741821894790121"><ele>168.33333333333334</ele><time>2026-04-16T10:06:21.001Z</time></trkpt><trkpt lat="45.79457077831141" lon="11.741604574949465"><ele>168.66666666666669</ele><time>2026-04-16T10:06:22.001Z</time></trkpt><trkpt lat="45.79471564874048" lon="11.741386752763031"><ele>169.0</ele><time>2026-04-16T10:06:23.001Z</time></trkpt><trkpt lat="45.79482383958447" lon="11.741135565903656"><ele>168.66666666666669</ele><time>2026-04-16T10:06:24.001Z</time></trkpt><trkpt lat="45.794917446363485" lon="11.740950704172446"><ele>168.33333333333334</ele><time>2026-04-16T10:06:25.001Z</time></trkpt><trkpt lat="45.7949960510867" lon="11.740710934885328"><ele>168.0</ele><time>2026-04-16T10:06:26.001Z</time></trkpt><trkpt lat="45.795066465737385" lon="11.740422016480482"><ele>166.5</ele><time>2026-04-16T10:06:27.001Z</time></trkpt><trkpt lat="45.79513253975618" lon="11.740089277387353"><ele>165.0</ele><time>2026-04-16T10:06:28.001Z</time></trkpt><trkpt lat="45.79518931184062" lon="11.739719772070083"><ele>173.5</ele><time>2026-04-16T10:06:29.001Z</time></trkpt><trkpt lat="45.7952396710341" lon="11.739352211830251"><ele>182.0</ele><time>2026-04-16T10:06:30.001Z</time></trkpt><trkpt lat="45.795304392080254" lon="11.738952389221222"><ele>179.0</ele><time>2026-04-16T10:06:31.001Z</time></trkpt><trkpt lat="45.795385434313104" lon="11.738535787286281"><ele>176.0</ele><time>2026-04-16T10:06:32.001Z</time></trkpt><trkpt lat="45.795466120222244" lon="11.73816195203429"><ele>176.0</ele><time>2026-04-16T10:06:33.001Z</time></trkpt><trkpt lat="45.7955343302435" lon="11.737841498395591"><ele>176.0</ele><time>2026-04-16T10:06:34.001Z</time></trkpt><trkpt lat="45.79558930080324" lon="11.737568535972045"><ele>176.0</ele><time>2026-04-16T10:06:35.001Z</time></trkpt><trkpt lat="45.795633022456066" lon="11.737342545794187"><ele>174.0</ele><time>2026-04-16T10:06:36.001Z</time></trkpt><trkpt lat="45.79567470829889" lon="11.737142169707326"><ele>172.0</ele><time>2026-04-16T10:06:37.001Z</time></trkpt><trkpt lat="45.79572991990369" lon="11.736946476137412"><ele>170.0</ele><time>2026-04-16T10:06:38.001Z</time></trkpt><trkpt lat="45.79581081725156" lon="11.73674167007612"><ele>171.0</ele><time>2026-04-16T10:06:39.001Z</time></trkpt><trkpt lat="45.79590145321673" lon="11.73654090419685"><ele>172.0</ele><time>2026-04-16T10:06:40.001Z</time></trkpt><trkpt lat="45.79598112316063" lon="11.736390316302524"><ele>173.0</ele><time>2026-04-16T10:06:41.001Z</time></trkpt><trkpt lat="45.796074655873" lon="11.736264620052266"><ele>174.0</ele><time>2026-04-16T10:06:42.001Z</time></trkpt><trkpt lat="45.79618540159012" lon="11.736170420386543"><ele>174.0</ele><time>2026-04-16T10:06:43.001Z</time></trkpt><trkpt lat="45.79633048285301" lon="11.73608820506304"><ele>174.0</ele><time>2026-04-16T10:06:44.001Z</time></trkpt><trkpt lat="45.79649334244927" lon="11.735975518866471"><ele>174.0</ele><time>2026-04-16T10:06:45.001Z</time></trkpt><trkpt lat="45.79663933407728" lon="11.735829616849273"><ele>173.66666666666666</ele><time>2026-04-16T10:06:46.001Z</time></trkpt><trkpt lat="45.79678072718868" lon="11.73563656307294"><ele>173.33333333333331</ele><time>2026-04-16T10:06:47.001Z</time></trkpt><trkpt lat="45.79693797108389" lon="11.735421293817042"><ele>173.0</ele><time>2026-04-16T10:06:48.001Z</time></trkpt><trkpt lat="45.79710165589402" lon="11.73521375995066"><ele>173.0</ele><time>2026-04-16T10:06:49.001Z</time></trkpt><trkpt lat="45.7974289285131" lon="11.73523569142114"><ele>173.0</ele><time>2026-04-16T10:06:50.001Z</time></trkpt><trkpt lat="45.79760965060123" lon="11.735080901583592"><ele>172.5</ele><time>2026-04-16T10:06:51.001Z</time></trkpt><trkpt lat="45.797741576382364" lon="11.734952714703818"><ele>172.0</ele><time>2026-04-16T10:06:52.001Z</time></trkpt><trkpt lat="45.797843185969384" lon="11.734832585512287"><ele>171.5</ele><time>2026-04-16T10:06:53.001Z</time></trkpt><trkpt lat="45.79793162054143" lon="11.734658934241816"><ele>171.0</ele><time>2026-04-16T10:06:54.001Z</time></trkpt><trkpt lat="45.798016967468236" lon="11.734442396517254"><ele>169.0</ele><time>2026-04-16T10:06:55.001Z</time></trkpt><trkpt lat="45.798098755596335" lon="11.73423222335105"><ele>167.0</ele><time>2026-04-16T10:06:56.001Z</time></trkpt><trkpt lat="45.798184139378826" lon="11.734059408655314"><ele>165.0</ele><time>2026-04-16T10:06:57.001Z</time></trkpt><trkpt lat="45.79827453113702" lon="11.733917594068771"><ele>163.0</ele><time>2026-04-16T10:06:58.001Z</time></trkpt><trkpt lat="45.7983723657378" lon="11.733781981087835"><ele>163.0</ele><time>2026-04-16T10:06:59.001Z</time></trkpt><trkpt lat="45.798495148018134" lon="11.733638668381598"><ele>163.0</ele><time>2026-04-16T10:07:00.001Z</time></trkpt><trkpt lat="45.79864877103066" lon="11.733490444606764"><ele>163.0</ele><time>2026-04-16T10:07:01.001Z</time></trkpt><trkpt lat="45.79880599224358" lon="11.733366921060995"><ele>163.33333333333334</ele><time>2026-04-16T10:07:02.001Z</time></trkpt><trkpt lat="45.79894590971882" lon="11.733238379072482"><ele>163.66666666666666</ele><time>2026-04-16T10:07:03.001Z</time></trkpt><trkpt lat="45.799085263203416" lon="11.733054949938962"><ele>164.0</ele><time>2026-04-16T10:07:04.001Z</time></trkpt><trkpt lat="45.79922763520804" lon="11.732819594377913"><ele>165.33333333333331</ele><time>2026-04-16T10:07:05.001Z</time></trkpt><trkpt lat="45.79936801766305" lon="11.73255283119893"><ele>166.66666666666666</ele><time>2026-04-16T10:07:06.001Z</time></trkpt><trkpt lat="45.799496872614746" lon="11.732317074153622"><ele>168.0</ele><time>2026-04-16T10:07:07.001Z</time></trkpt><trkpt lat="45.799618952739095" lon="11.732109058582639"><ele>168.0</ele><time>2026-04-16T10:07:08.001Z</time></trkpt><trkpt lat="45.7997668499926" lon="11.73191932291105"><ele>168.0</ele><time>2026-04-16T10:07:09.001Z</time></trkpt><trkpt lat="45.799912461522446" lon="11.731758385872395"><ele>168.0</ele><time>2026-04-16T10:07:10.001Z</time></trkpt><trkpt lat="45.800040467222345" lon="11.731607446298048"><ele>168.60000000000002</ele><time>2026-04-16T10:07:11.001Z</time></trkpt><trkpt lat="45.80013802421355" lon="11.731494242382789"><ele>169.20000000000002</ele><time>2026-04-16T10:07:12.001Z</time></trkpt><trkpt lat="45.80021418024953" lon="11.731404400312073"><ele>169.8</ele><time>2026-04-16T10:07:13.001Z</time></trkpt><trkpt lat="45.80026031187313" lon="11.73133754433047"><ele>170.4</ele><time>2026-04-16T10:07:14.001Z</time></trkpt><trkpt lat="45.80024967770004" lon="11.731187842132165"><ele>171.0</ele><time>2026-04-16T10:07:16.001Z</time></trkpt><trkpt lat="45.800196569984415" lon="11.731119376421786"><ele>169.0</ele><time>2026-04-16T10:07:17.001Z</time></trkpt><trkpt lat="45.800099714238264" lon="11.73102119309647"><ele>167.0</ele><time>2026-04-16T10:07:18.001Z</time></trkpt><trkpt lat="45.79999226700666" lon="11.730862868553217"><ele>165.0</ele><time>2026-04-16T10:07:19.001Z</time></trkpt><trkpt lat="45.799902109501666" lon="11.730728004228757"><ele>163.0</ele><time>2026-04-16T10:07:20.001Z</time></trkpt><trkpt lat="45.799816768710336" lon="11.730605971337294"><ele>163.0</ele><time>2026-04-16T10:07:21.001Z</time></trkpt><trkpt lat="45.799740425868514" lon="11.730480322407312"><ele>163.0</ele><time>2026-04-16T10:07:22.001Z</time></trkpt><trkpt lat="45.799676363149565" lon="11.730357927499856"><ele>163.0</ele><time>2026-04-16T10:07:23.001Z</time></trkpt><trkpt lat="45.799618463188146" lon="11.730245357375287"><ele>163.0</ele><time>2026-04-16T10:07:24.001Z</time></trkpt><trkpt lat="45.799581608050836" lon="11.730159631307536"><ele>163.0</ele><time>2026-04-16T10:07:25.001Z</time></trkpt><trkpt lat="45.79954533545707" lon="11.730078073560838"><ele>163.0</ele><time>2026-04-16T10:07:26.001Z</time></trkpt><trkpt lat="45.79950956803488" lon="11.729964931750317"><ele>163.0</ele><time>2026-04-16T10:07:27.001Z</time></trkpt><trkpt lat="45.79945641279186" lon="11.729785474853568"><ele>163.0</ele><time>2026-04-16T10:07:28.001Z</time></trkpt><trkpt lat="45.79938370589834" lon="11.729572695255811"><ele>163.0</ele><time>2026-04-16T10:07:29.001Z</time></trkpt><trkpt lat="45.79931902492534" lon="11.729394896189833"><ele>162.66666666666669</ele><time>2026-04-16T10:07:30.001Z</time></trkpt><trkpt lat="45.799242992484544" lon="11.729190754919365"><ele>162.33333333333334</ele><time>2026-04-16T10:07:31.001Z</time></trkpt><trkpt lat="45.7991593836826" lon="11.728966346376396"><ele>162.0</ele><time>2026-04-16T10:07:32.001Z</time></trkpt><trkpt lat="45.799080295708556" lon="11.728738327066363"><ele>162.66666666666666</ele><time>2026-04-16T10:07:33.001Z</time></trkpt><trkpt lat="45.79901354333032" lon="11.728529288872569"><ele>163.33333333333331</ele><time>2026-04-16T10:07:34.001Z</time></trkpt><trkpt lat="45.79894085079882" lon="11.728321404256492"><ele>164.0</ele><time>2026-04-16T10:07:35.001Z</time></trkpt><trkpt lat="45.79887570108006" lon="11.728131008961157"><ele>164.0</ele><time>2026-04-16T10:07:36.001Z</time></trkpt><trkpt lat="45.79881674488773" lon="11.72795068749053"><ele>164.0</ele><time>2026-04-16T10:07:37.001Z</time></trkpt><trkpt lat="45.79875464896695" lon="11.727775280656216"><ele>164.0</ele><time>2026-04-16T10:07:38.001Z</time></trkpt><trkpt lat="45.798694100601736" lon="11.727599676977308"><ele>164.0</ele><time>2026-04-16T10:07:39.001Z</time></trkpt><trkpt lat="45.79864641604224" lon="11.727451491020874"><ele>163.83333333333331</ele><time>2026-04-16T10:07:40.001Z</time></trkpt><trkpt lat="45.79862697958402" lon="11.72735203501166"><ele>163.66666666666666</ele><time>2026-04-16T10:07:41.001Z</time></trkpt><trkpt lat="45.79861201009442" lon="11.72726192720873"><ele>163.5</ele><time>2026-04-16T10:07:42.001Z</time></trkpt><trkpt lat="45.798605058028144" lon="11.727158217495173"><ele>163.33333333333334</ele><time>2026-04-16T10:07:43.001Z</time></trkpt><trkpt lat="45.79861098295801" lon="11.727033472458356"><ele>163.16666666666669</ele><time>2026-04-16T10:07:44.001Z</time></trkpt><trkpt lat="45.798592985716176" lon="11.726917621484304"><ele>163.0</ele><time>2026-04-16T10:07:45.001Z</time></trkpt><trkpt lat="45.79853766292329" lon="11.726813673905333"><ele>162.60000000000002</ele><time>2026-04-16T10:07:46.001Z</time></trkpt><trkpt lat="45.798479975945966" lon="11.726698863280637"><ele>162.20000000000002</ele><time>2026-04-16T10:07:47.001Z</time></trkpt><trkpt lat="45.798453619383025" lon="11.726549147664517"><ele>161.8</ele><time>2026-04-16T10:07:48.001Z</time></trkpt><trkpt lat="45.7984474021543" lon="11.726385983185066"><ele>161.4</ele><time>2026-04-16T10:07:49.001Z</time></trkpt><trkpt lat="45.798451408990346" lon="11.726214982787052"><ele>161.0</ele><time>2026-04-16T10:07:50.001Z</time></trkpt><trkpt lat="45.79848222960103" lon="11.72601037652655"><ele>161.33333333333331</ele><time>2026-04-16T10:07:51.001Z</time></trkpt><trkpt lat="45.79852499212847" lon="11.725808053518074"><ele>161.66666666666666</ele><time>2026-04-16T10:07:52.001Z</time></trkpt><trkpt lat="45.79857900691993" lon="11.725606084985513"><ele>162.0</ele><time>2026-04-16T10:07:53.001Z</time></trkpt><trkpt lat="45.79864150161253" lon="11.7253774117291"><ele>161.0</ele><time>2026-04-16T10:07:54.001Z</time></trkpt><trkpt lat="45.79869284346442" lon="11.725170608666154"><ele>160.0</ele><time>2026-04-16T10:07:55.001Z</time></trkpt><trkpt lat="45.798738010257175" lon="11.725003165682722"><ele>159.0</ele><time>2026-04-16T10:07:56.001Z</time></trkpt><trkpt lat="45.79879977676864" lon="11.724853736184258"><ele>158.0</ele><time>2026-04-16T10:07:57.001Z</time></trkpt><trkpt lat="45.79888922501665" lon="11.724717998690895"><ele>158.0</ele><time>2026-04-16T10:07:58.001Z</time></trkpt><trkpt lat="45.79902778166909" lon="11.724611798101169"><ele>158.0</ele><time>2026-04-16T10:07:59.001Z</time></trkpt><trkpt lat="45.79919164088444" lon="11.72445884710394"><ele>158.0</ele><time>2026-04-16T10:08:00.001Z</time></trkpt><trkpt lat="45.7993853543282" lon="11.724311388968738"><ele>157.66666666666666</ele><time>2026-04-16T10:08:01.001Z</time></trkpt><trkpt lat="45.799553552272336" lon="11.724184581229757"><ele>157.33333333333334</ele><time>2026-04-16T10:08:02.001Z</time></trkpt><trkpt lat="45.799709676552894" lon="11.724054425001684"><ele>157.0</ele><time>2026-04-16T10:08:03.001Z</time></trkpt><trkpt lat="45.799868758551945" lon="11.723924498344973"><ele>157.0</ele><time>2026-04-16T10:08:04.001Z</time></trkpt><trkpt lat="45.800023801628576" lon="11.72378786885991"><ele>157.0</ele><time>2026-04-16T10:08:05.001Z</time></trkpt><trkpt lat="45.8001740453355" lon="11.723648159707853"><ele>157.0</ele><time>2026-04-16T10:08:06.001Z</time></trkpt><trkpt lat="45.80031883575819" lon="11.723504887053263"><ele>155.0</ele><time>2026-04-16T10:08:07.001Z</time></trkpt><trkpt lat="45.800458894219084" lon="11.723355964741145"><ele>153.0</ele><time>2026-04-16T10:08:08.001Z</time></trkpt><trkpt lat="45.800600120845395" lon="11.72320444519296"><ele>151.0</ele><time>2026-04-16T10:08:09.001Z</time></trkpt><trkpt lat="45.80075433635531" lon="11.723019038211838"><ele>151.0</ele><time>2026-04-16T10:08:10.001Z</time></trkpt><trkpt lat="45.80091931534367" lon="11.722818748536636"><ele>151.0</ele><time>2026-04-16T10:08:11.001Z</time></trkpt><trkpt lat="45.80107200173571" lon="11.722638329389856"><ele>151.0</ele><time>2026-04-16T10:08:12.001Z</time></trkpt><trkpt lat="45.80121113404647" lon="11.722476355959193"><ele>150.66666666666669</ele><time>2026-04-16T10:08:13.001Z</time></trkpt><trkpt lat="45.801349825782786" lon="11.722319375858465"><ele>150.33333333333334</ele><time>2026-04-16T10:08:14.001Z</time></trkpt><trkpt lat="45.80148514887108" lon="11.72215575252621"><ele>150.0</ele><time>2026-04-16T10:08:15.001Z</time></trkpt><trkpt lat="45.80159994618388" lon="11.722020326848874"><ele>150.0</ele><time>2026-04-16T10:08:16.001Z</time></trkpt><trkpt lat="45.801694182616224" lon="11.721915729800994"><ele>150.0</ele><time>2026-04-16T10:08:17.001Z</time></trkpt><trkpt lat="45.80178266130532" lon="11.721817546048689"><ele>150.0</ele><time>2026-04-16T10:08:18.001Z</time></trkpt><trkpt lat="45.80186569457968" lon="11.721719431019398"><ele>150.0</ele><time>2026-04-16T10:08:19.001Z</time></trkpt><trkpt lat="45.801938866377355" lon="11.72161837550274"><ele>150.0</ele><time>2026-04-16T10:08:20Z</time></trkpt><trkpt lat="45.801998935814865" lon="11.721490318220216"><ele>150.75</ele><time>2026-04-16T10:08:21Z</time></trkpt><trkpt lat="45.802034623400615" lon="11.721316503511254"><ele>151.5</ele><time>2026-04-16T10:08:22Z</time></trkpt><trkpt lat="45.802054297552424" lon="11.721104537809815"><ele>152.25</ele><time>2026-04-16T10:08:23Z</time></trkpt><trkpt lat="45.8020818908191" lon="11.720908746836852"><ele>153.0</ele><time>2026-04-16T10:08:24Z</time></trkpt><trkpt lat="45.80212719080804" lon="11.720747954256868"><ele>149.75</ele><time>2026-04-16T10:08:25Z</time></trkpt><trkpt lat="45.80219279797147" lon="11.720622951758152"><ele>146.5</ele><time>2026-04-16T10:08:26Z</time></trkpt><trkpt lat="45.80227716200808" lon="11.72051521906298"><ele>143.25</ele><time>2026-04-16T10:08:27Z</time></trkpt><trkpt lat="45.80239787175888" lon="11.720404088522676"><ele>140.0</ele><time>2026-04-16T10:08:28Z</time></trkpt><trkpt lat="45.802547795793444" lon="11.720278168375298"><ele>138.66666666666666</ele><time>2026-04-16T10:08:29Z</time></trkpt><trkpt lat="45.80269640015867" lon="11.720139173299275"><ele>137.33333333333334</ele><time>2026-04-16T10:08:30Z</time></trkpt><trkpt lat="45.80285073193748" lon="11.719997482320629"><ele>136.0</ele><time>2026-04-16T10:08:31Z</time></trkpt><trkpt lat="45.8030252573716" lon="11.719849965403126"><ele>136.0</ele><time>2026-04-16T10:08:32Z</time></trkpt><trkpt lat="45.80319533980766" lon="11.719740447352892"><ele>136.0</ele><time>2026-04-16T10:08:33Z</time></trkpt><trkpt lat="45.80338274911218" lon="11.719628297817124"><ele>136.0</ele><time>2026-04-16T10:08:34Z</time></trkpt><trkpt lat="45.803574883142" lon="11.719528601679857"><ele>136.33333333333334</ele><time>2026-04-16T10:08:35Z</time></trkpt><trkpt lat="45.80374578508594" lon="11.719433517867584"><ele>136.66666666666666</ele><time>2026-04-16T10:08:36Z</time></trkpt><trkpt lat="45.80389344462961" lon="11.719319710592092"><ele>137.0</ele><time>2026-04-16T10:08:37Z</time></trkpt><trkpt lat="45.804021136186655" lon="11.719185234965833"><ele>137.0</ele><time>2026-04-16T10:08:38Z</time></trkpt><trkpt lat="45.80414025264876" lon="11.719046144343992"><ele>137.0</ele><time>2026-04-16T10:08:39Z</time></trkpt><trkpt lat="45.80424308641321" lon="11.71891504096078"><ele>137.0</ele><time>2026-04-16T10:08:40Z</time></trkpt><trkpt lat="45.80434798572721" lon="11.718814677475983"><ele>137.0</ele><time>2026-04-16T10:08:41Z</time></trkpt><trkpt lat="45.80445217469396" lon="11.718725242018772"><ele>134.75</ele><time>2026-04-16T10:08:42Z</time></trkpt><trkpt lat="45.8045562973337" lon="11.718649782782233"><ele>132.5</ele><time>2026-04-16T10:08:43Z</time></trkpt><trkpt lat="45.80465814879863" lon="11.718576061106132"><ele>130.25</ele><time>2026-04-16T10:08:44Z</time></trkpt><trkpt lat="45.80475819444479" lon="11.718501646937138"><ele>128.0</ele><time>2026-04-16T10:08:45Z</time></trkpt><trkpt lat="45.80485894327694" lon="11.718427458941678"><ele>127.99999999999999</ele><time>2026-04-16T10:08:46Z</time></trkpt><trkpt lat="45.80494011014497" lon="11.7183640824563"><ele>128.0</ele><time>2026-04-16T10:08:47Z</time></trkpt><trkpt lat="45.80502611116419" lon="11.718310508529692"><ele>128.0</ele><time>2026-04-16T10:08:49Z</time></trkpt><trkpt lat="45.805070327572196" lon="11.718238705738468"><ele>128.0</ele><time>2026-04-16T10:09:09Z</time></trkpt><trkpt lat="45.80516001435557" lon="11.718287695282447"><ele>127.99999999999999</ele><time>2026-04-16T10:09:10Z</time></trkpt><trkpt lat="45.8052443194408" lon="11.718277200518024"><ele>128.0</ele><time>2026-04-16T10:09:11Z</time></trkpt><trkpt lat="45.80535878291929" lon="11.7182666073982"><ele>129.25</ele><time>2026-04-16T10:09:12Z</time></trkpt><trkpt lat="45.80546840326972" lon="11.718262150392528"><ele>130.5</ele><time>2026-04-16T10:09:13Z</time></trkpt><trkpt lat="45.80561828563763" lon="11.718245671106656"><ele>131.75</ele><time>2026-04-16T10:09:14Z</time></trkpt><trkpt lat="45.805784264037676" lon="11.718225958186537"><ele>133.0</ele><time>2026-04-16T10:09:15Z</time></trkpt><trkpt lat="45.80598539295854" lon="11.718205920506584"><ele>132.0</ele><time>2026-04-16T10:09:16Z</time></trkpt><trkpt lat="45.806193079819536" lon="11.718188567821167"><ele>131.0</ele><time>2026-04-16T10:09:17Z</time></trkpt><trkpt lat="45.80642938932863" lon="11.718170615892323"><ele>130.0</ele><time>2026-04-16T10:09:18Z</time></trkpt><trkpt lat="45.806674396155714" lon="11.718151593259869"><ele>127.0</ele><time>2026-04-16T10:09:19Z</time></trkpt><trkpt lat="45.806929553363034" lon="11.718123977197825"><ele>124.0</ele><time>2026-04-16T10:09:20Z</time></trkpt><trkpt lat="45.8071786447125" lon="11.718092290780424"><ele>124.0</ele><time>2026-04-16T10:09:21Z</time></trkpt><trkpt lat="45.807421840539696" lon="11.718066384567443"><ele>124.0</ele><time>2026-04-16T10:09:22Z</time></trkpt><trkpt lat="45.807686471083834" lon="11.718033246494336"><ele>125.5</ele><time>2026-04-16T10:09:23Z</time></trkpt><trkpt lat="45.80796764397351" lon="11.71799566009232"><ele>127.0</ele><time>2026-04-16T10:09:24Z</time></trkpt><trkpt lat="45.808253713329506" lon="11.717946207125163"><ele>124.0</ele><time>2026-04-16T10:09:25Z</time></trkpt><trkpt lat="45.80854348042833" lon="11.71788798406007"><ele>121.0</ele><time>2026-04-16T10:09:26Z</time></trkpt><trkpt lat="45.808847689184844" lon="11.717821710387984"><ele>121.0</ele><time>2026-04-16T10:09:27Z</time></trkpt><trkpt lat="45.80915247330353" lon="11.71776493414455"><ele>121.0</ele><time>2026-04-16T10:09:28Z</time></trkpt><trkpt lat="45.809429078425794" lon="11.717715063892555"><ele>121.0</ele><time>2026-04-16T10:09:29Z</time></trkpt><trkpt lat="45.809686382366216" lon="11.717666651152662"><ele>121.0</ele><time>2026-04-16T10:09:30Z</time></trkpt><trkpt lat="45.80993065706063" lon="11.717618708770312"><ele>121.5</ele><time>2026-04-16T10:09:31Z</time></trkpt><trkpt lat="45.81016292797222" lon="11.717573545677288"><ele>122.0</ele><time>2026-04-16T10:09:32Z</time></trkpt><trkpt lat="45.810385191094795" lon="11.717534897175547"><ele>122.0</ele><time>2026-04-16T10:09:33Z</time></trkpt><trkpt lat="45.81060500994692" lon="11.717495853347232"><ele>122.0</ele><time>2026-04-16T10:09:34Z</time></trkpt><trkpt lat="45.810842816896255" lon="11.717450400500454"><ele>122.5</ele><time>2026-04-16T10:09:35Z</time></trkpt><trkpt lat="45.811108396010134" lon="11.717399119778309"><ele>123.0</ele><time>2026-04-16T10:09:36Z</time></trkpt><trkpt lat="45.81139221368914" lon="11.717341975431216"><ele>123.0</ele><time>2026-04-16T10:09:37Z</time></trkpt><trkpt lat="45.811689766367394" lon="11.717285064501086"><ele>123.0</ele><time>2026-04-16T10:09:38Z</time></trkpt><trkpt lat="45.81200075665139" lon="11.71723101801376"><ele>124.0</ele><time>2026-04-16T10:09:39Z</time></trkpt><trkpt lat="45.812324036520046" lon="11.717172796469207"><ele>125.0</ele><time>2026-04-16T10:09:40Z</time></trkpt><trkpt lat="45.81265277724898" lon="11.717111974861455"><ele>125.0</ele><time>2026-04-16T10:09:41Z</time></trkpt><trkpt lat="45.8129660585844" lon="11.717051297639058"><ele>125.0</ele><time>2026-04-16T10:09:42Z</time></trkpt><trkpt lat="45.81326336019598" lon="11.716993731228532"><ele>124.5</ele><time>2026-04-16T10:09:43Z</time></trkpt><trkpt lat="45.81357117400876" lon="11.716932230475727"><ele>124.0</ele><time>2026-04-16T10:09:44Z</time></trkpt><trkpt lat="45.813898108651365" lon="11.716867234182523"><ele>123.5</ele><time>2026-04-16T10:09:45Z</time></trkpt><trkpt lat="45.81423113877861" lon="11.716812385381786"><ele>123.0</ele><time>2026-04-16T10:09:46Z</time></trkpt><trkpt lat="45.8145499219431" lon="11.716768733578785"><ele>124.5</ele><time>2026-04-16T10:09:47Z</time></trkpt><trkpt lat="45.81483755500465" lon="11.71672836179462"><ele>126.0</ele><time>2026-04-16T10:09:48Z</time></trkpt><trkpt lat="45.815105443946344" lon="11.716681417861485"><ele>124.5</ele><time>2026-04-16T10:09:49Z</time></trkpt><trkpt lat="45.81538313061705" lon="11.716621632951075"><ele>123.0</ele><time>2026-04-16T10:09:50Z</time></trkpt><trkpt lat="45.81567604819588" lon="11.716559597473271"><ele>123.0</ele><time>2026-04-16T10:09:51Z</time></trkpt><trkpt lat="45.81594858169306" lon="11.71649779846904"><ele>123.0</ele><time>2026-04-16T10:09:52Z</time></trkpt><trkpt lat="45.81621489931346" lon="11.716441374019032"><ele>123.5</ele><time>2026-04-16T10:09:53Z</time></trkpt><trkpt lat="45.816464490331484" lon="11.716386985686736"><ele>124.0</ele><time>2026-04-16T10:09:54Z</time></trkpt><trkpt lat="45.81668893802503" lon="11.716336774465145"><ele>126.0</ele><time>2026-04-16T10:09:55Z</time></trkpt><trkpt lat="45.81689183616462" lon="11.716291643244459"><ele>128.0</ele><time>2026-04-16T10:09:56Z</time></trkpt><trkpt lat="45.81707574037512" lon="11.716248379302176"><ele>130.0</ele><time>2026-04-16T10:09:57Z</time></trkpt><trkpt lat="45.81725508830356" lon="11.71618962859186"><ele>130.0</ele><time>2026-04-16T10:09:58.001Z</time></trkpt><trkpt lat="45.81743575862446" lon="11.716089312742312"><ele>130.0</ele><time>2026-04-16T10:09:59.001Z</time></trkpt><trkpt lat="45.81761882072611" lon="11.715943931090772"><ele>130.0</ele><time>2026-04-16T10:10:00.001Z</time></trkpt><trkpt lat="45.81781883579463" lon="11.71575334885234"><ele>130.0</ele><time>2026-04-16T10:10:01.001Z</time></trkpt><trkpt lat="45.8180345393749" lon="11.715542702080256"><ele>130.0</ele><time>2026-04-16T10:10:02.001Z</time></trkpt><trkpt lat="45.81822263049366" lon="11.715361904732449"><ele>130.33333333333334</ele><time>2026-04-16T10:10:03.001Z</time></trkpt><trkpt lat="45.81840035131798" lon="11.715184776351427"><ele>130.66666666666666</ele><time>2026-04-16T10:10:04.001Z</time></trkpt><trkpt lat="45.81857270674254" lon="11.715007663963425"><ele>131.0</ele><time>2026-04-16T10:10:05.001Z</time></trkpt><trkpt lat="45.81873915521134" lon="11.714833186571429"><ele>131.0</ele><time>2026-04-16T10:10:06.001Z</time></trkpt><trkpt lat="45.81890304091627" lon="11.714658465582254"><ele>131.0</ele><time>2026-04-16T10:10:07.001Z</time></trkpt><trkpt lat="45.819066423981965" lon="11.714488547584654"><ele>131.0</ele><time>2026-04-16T10:10:08.001Z</time></trkpt><trkpt lat="45.81922534641758" lon="11.714321357487096"><ele>132.33333333333331</ele><time>2026-04-16T10:10:09Z</time></trkpt><trkpt lat="45.819379922409695" lon="11.714154464054715"><ele>133.66666666666666</ele><time>2026-04-16T10:10:10Z</time></trkpt><trkpt lat="45.81954476970688" lon="11.714001220037241"><ele>135.0</ele><time>2026-04-16T10:10:11Z</time></trkpt><trkpt lat="45.81970675499999" lon="11.713834593306963"><ele>135.0</ele><time>2026-04-16T10:10:12Z</time></trkpt><trkpt lat="45.81986947792146" lon="11.713664798196184"><ele>135.0</ele><time>2026-04-16T10:10:13Z</time></trkpt><trkpt lat="45.82002400410951" lon="11.713476108847104"><ele>135.0</ele><time>2026-04-16T10:10:14Z</time></trkpt><trkpt lat="45.82019296773469" lon="11.713317433016268"><ele>135.33333333333334</ele><time>2026-04-16T10:10:15Z</time></trkpt><trkpt lat="45.82034954007882" lon="11.713163250231272"><ele>135.66666666666669</ele><time>2026-04-16T10:10:16Z</time></trkpt><trkpt lat="45.82049688219404" lon="11.713018765655363"><ele>136.0</ele><time>2026-04-16T10:10:17Z</time></trkpt><trkpt lat="45.820647688762364" lon="11.712874322604854"><ele>136.0</ele><time>2026-04-16T10:10:18Z</time></trkpt><trkpt lat="45.8207997690656" lon="11.712725140568642"><ele>136.0</ele><time>2026-04-16T10:10:19Z</time></trkpt><trkpt lat="45.82094137315717" lon="11.712586636586902"><ele>136.0</ele><time>2026-04-16T10:10:20Z</time></trkpt><trkpt lat="45.8210889012282" lon="11.712444784015577"><ele>136.0</ele><time>2026-04-16T10:10:21Z</time></trkpt><trkpt lat="45.821247833842854" lon="11.712292419108982"><ele>136.0</ele><time>2026-04-16T10:10:22Z</time></trkpt><trkpt lat="45.82139834537363" lon="11.712153099575758"><ele>136.0</ele><time>2026-04-16T10:10:23Z</time></trkpt><trkpt lat="45.821540428884305" lon="11.712016653624595"><ele>135.33333333333334</ele><time>2026-04-16T10:10:24Z</time></trkpt><trkpt lat="45.821685839120526" lon="11.711875799350919"><ele>134.66666666666666</ele><time>2026-04-16T10:10:25Z</time></trkpt><trkpt lat="45.821840897554374" lon="11.711729378914656"><ele>134.0</ele><time>2026-04-16T10:10:26Z</time></trkpt><trkpt lat="45.82199082928695" lon="11.711586271989013"><ele>134.0</ele><time>2026-04-16T10:10:27Z</time></trkpt><trkpt lat="45.822129870647714" lon="11.711454269614125"><ele>134.0</ele><time>2026-04-16T10:10:28Z</time></trkpt><trkpt lat="45.82225945227098" lon="11.711327886560198"><ele>134.0</ele><time>2026-04-16T10:10:29Z</time></trkpt><trkpt lat="45.82238499623653" lon="11.711207699286511"><ele>134.0</ele><time>2026-04-16T10:10:30Z</time></trkpt><trkpt lat="45.82251310812949" lon="11.71108703368559"><ele>134.0</ele><time>2026-04-16T10:10:31Z</time></trkpt><trkpt lat="45.822637153231916" lon="11.710968195929146"><ele>134.0</ele><time>2026-04-16T10:10:32Z</time></trkpt><trkpt lat="45.82275317929721" lon="11.710858844653467"><ele>134.0</ele><time>2026-04-16T10:10:33Z</time></trkpt><trkpt lat="45.82286108096372" lon="11.71075864736777"><ele>134.25</ele><time>2026-04-16T10:10:34Z</time></trkpt><trkpt lat="45.822967013221046" lon="11.710657585795083"><ele>134.5</ele><time>2026-04-16T10:10:35Z</time></trkpt><trkpt lat="45.823073517336624" lon="11.710553174400399"><ele>134.75</ele><time>2026-04-16T10:10:36Z</time></trkpt><trkpt lat="45.82316005912546" lon="11.710470192824019"><ele>135.0</ele><time>2026-04-16T10:10:37Z</time></trkpt><trkpt lat="45.82324635119844" lon="11.710387206966649"><ele>135.0</ele><time>2026-04-16T10:10:38Z</time></trkpt><trkpt lat="45.823313375703634" lon="11.710323710795901"><ele>135.0</ele><time>2026-04-16T10:10:39Z</time></trkpt><trkpt lat="45.82337766924943" lon="11.710264951245207"><ele>135.0</ele><time>2026-04-16T10:10:40Z</time></trkpt><trkpt lat="45.823449250017795" lon="11.710194998603669"><ele>135.0</ele><time>2026-04-16T10:10:41Z</time></trkpt><trkpt lat="45.823575561331374" lon="11.710063142992409"><ele>135.0</ele><time>2026-04-16T10:10:42Z</time></trkpt><trkpt lat="45.823709852703736" lon="11.709907211655842"><ele>135.33333333333334</ele><time>2026-04-16T10:10:43Z</time></trkpt><trkpt lat="45.823838751389594" lon="11.709744952661982"><ele>135.66666666666669</ele><time>2026-04-16T10:10:44Z</time></trkpt><trkpt lat="45.823991002021266" lon="11.709519875015056"><ele>136.0</ele><time>2026-04-16T10:10:45Z</time></trkpt><trkpt lat="45.82413960384635" lon="11.709280909295328"><ele>135.0</ele><time>2026-04-16T10:10:46Z</time></trkpt><trkpt lat="45.824276964959346" lon="11.709038270230876"><ele>134.0</ele><time>2026-04-16T10:10:47Z</time></trkpt><trkpt lat="45.824426174845854" lon="11.708770279221364"><ele>134.0</ele><time>2026-04-16T10:10:48Z</time></trkpt><trkpt lat="45.82458095629088" lon="11.708495722985969"><ele>134.0</ele><time>2026-04-16T10:10:49Z</time></trkpt><trkpt lat="45.82472395039123" lon="11.708241650682726"><ele>134.0</ele><time>2026-04-16T10:10:50Z</time></trkpt><trkpt lat="45.824865693696886" lon="11.7079914831503"><ele>134.0</ele><time>2026-04-16T10:10:51Z</time></trkpt><trkpt lat="45.82501082873005" lon="11.707729266564932"><ele>138.5</ele><time>2026-04-16T10:10:52Z</time></trkpt><trkpt lat="45.82516285702196" lon="11.707448207291431"><ele>143.0</ele><time>2026-04-16T10:10:53Z</time></trkpt><trkpt lat="45.8253229355483" lon="11.707152731614158"><ele>141.0</ele><time>2026-04-16T10:10:54Z</time></trkpt><trkpt lat="45.825474253418996" lon="11.706881878194373"><ele>139.0</ele><time>2026-04-16T10:10:55Z</time></trkpt><trkpt lat="45.825614282538496" lon="11.706631588916247"><ele>139.0</ele><time>2026-04-16T10:10:56Z</time></trkpt><trkpt lat="45.82575288722693" lon="11.706404566643112"><ele>139.0</ele><time>2026-04-16T10:10:57Z</time></trkpt><trkpt lat="45.82589895567016" lon="11.706195728155564"><ele>139.0</ele><time>2026-04-16T10:10:58Z</time></trkpt><trkpt lat="45.82606520631023" lon="11.705995095002955"><ele>137.0</ele><time>2026-04-16T10:10:59Z</time></trkpt><trkpt lat="45.82623471886456" lon="11.705826285884008"><ele>135.0</ele><time>2026-04-16T10:11:00Z</time></trkpt><trkpt lat="45.82641646985473" lon="11.705686088130145"><ele>133.0</ele><time>2026-04-16T10:11:01Z</time></trkpt><trkpt lat="45.82663347951507" lon="11.705534557516227"><ele>133.5</ele><time>2026-04-16T10:11:02Z</time></trkpt><trkpt lat="45.826867141210265" lon="11.70535776808989"><ele>134.0</ele><time>2026-04-16T10:11:03Z</time></trkpt><trkpt lat="45.82710358751276" lon="11.705163244375653"><ele>134.0</ele><time>2026-04-16T10:11:04Z</time></trkpt><trkpt lat="45.82732681180071" lon="11.704979441750023"><ele>134.0</ele><time>2026-04-16T10:11:05Z</time></trkpt><trkpt lat="45.827561965270725" lon="11.7047842129858"><ele>133.5</ele><time>2026-04-16T10:11:06Z</time></trkpt><trkpt lat="45.827810810495464" lon="11.704569887131811"><ele>133.0</ele><time>2026-04-16T10:11:07Z</time></trkpt><trkpt lat="45.82806535832602" lon="11.704355768546753"><ele>133.0</ele><time>2026-04-16T10:11:08Z</time></trkpt><trkpt lat="45.82833835541742" lon="11.704148647107079"><ele>133.0</ele><time>2026-04-16T10:11:09Z</time></trkpt><trkpt lat="45.8286119400061" lon="11.703945954124197"><ele>131.5</ele><time>2026-04-16T10:11:10Z</time></trkpt><trkpt lat="45.82885696483734" lon="11.70375056744885"><ele>130.0</ele><time>2026-04-16T10:11:11Z</time></trkpt><trkpt lat="45.82909409355776" lon="11.703562888248527"><ele>136.0</ele><time>2026-04-16T10:11:12Z</time></trkpt><trkpt lat="45.829333275669526" lon="11.70337772271018"><ele>142.0</ele><time>2026-04-16T10:11:13Z</time></trkpt><trkpt lat="45.8295801645487" lon="11.703184138241918"><ele>142.0</ele><time>2026-04-16T10:11:14Z</time></trkpt><trkpt lat="45.829816156195946" lon="11.702999296897696"><ele>142.0</ele><time>2026-04-16T10:11:15Z</time></trkpt><trkpt lat="45.83004446445772" lon="11.702815331617648"><ele>139.0</ele><time>2026-04-16T10:11:16Z</time></trkpt><trkpt lat="45.830267286089665" lon="11.702638733961194"><ele>136.0</ele><time>2026-04-16T10:11:17Z</time></trkpt><trkpt lat="45.8304719648943" lon="11.702477802320082"><ele>136.0</ele><time>2026-04-16T10:11:18Z</time></trkpt><trkpt lat="45.83065603283527" lon="11.702324357099098"><ele>136.0</ele><time>2026-04-16T10:11:19Z</time></trkpt><trkpt lat="45.830826267661095" lon="11.702164998271952"><ele>136.0</ele><time>2026-04-16T10:11:20Z</time></trkpt><trkpt lat="45.83098274797384" lon="11.702000170111953"><ele>139.33333333333334</ele><time>2026-04-16T10:11:21Z</time></trkpt><trkpt lat="45.831127697099376" lon="11.701840766048873"><ele>142.66666666666666</ele><time>2026-04-16T10:11:22Z</time></trkpt><trkpt lat="45.83126037851198" lon="11.701678553684491"><ele>146.0</ele><time>2026-04-16T10:11:23Z</time></trkpt><trkpt lat="45.831389326467445" lon="11.70150073981699"><ele>146.0</ele><time>2026-04-16T10:11:24Z</time></trkpt><trkpt lat="45.83151939826785" lon="11.701308275203175"><ele>146.0</ele><time>2026-04-16T10:11:25Z</time></trkpt><trkpt lat="45.8316421930336" lon="11.701114325369696"><ele>146.0</ele><time>2026-04-16T10:11:26Z</time></trkpt><trkpt lat="45.83175667481239" lon="11.700922550998564"><ele>147.66666666666666</ele><time>2026-04-16T10:11:27Z</time></trkpt><trkpt lat="45.83185536860283" lon="11.700732466269885"><ele>149.33333333333334</ele><time>2026-04-16T10:11:28Z</time></trkpt><trkpt lat="45.83194786061809" lon="11.700532651810585"><ele>151.0</ele><time>2026-04-16T10:11:29Z</time></trkpt><trkpt lat="45.83203375149623" lon="11.700327920041186"><ele>147.66666666666669</ele><time>2026-04-16T10:11:30Z</time></trkpt><trkpt lat="45.832113881604066" lon="11.700121156636802"><ele>144.33333333333334</ele><time>2026-04-16T10:11:31Z</time></trkpt><trkpt lat="45.83219521965435" lon="11.699899506776525"><ele>141.0</ele><time>2026-04-16T10:11:32Z</time></trkpt><trkpt lat="45.83227888690958" lon="11.699641878446537"><ele>140.66666666666666</ele><time>2026-04-16T10:11:33Z</time></trkpt><trkpt lat="45.832347810948924" lon="11.699405125613383"><ele>140.33333333333331</ele><time>2026-04-16T10:11:34Z</time></trkpt><trkpt lat="45.83241603144121" lon="11.699185305396153"><ele>140.0</ele><time>2026-04-16T10:11:35Z</time></trkpt><trkpt lat="45.832483514934744" lon="11.698967596361696"><ele>140.0</ele><time>2026-04-16T10:11:36Z</time></trkpt><trkpt lat="45.832555847547376" lon="11.698732374408657"><ele>140.0</ele><time>2026-04-16T10:11:37Z</time></trkpt><trkpt lat="45.83263681873055" lon="11.698487023203462"><ele>140.0</ele><time>2026-04-16T10:11:38Z</time></trkpt><trkpt lat="45.832723699528714" lon="11.698257380184414"><ele>139.66666666666666</ele><time>2026-04-16T10:11:39Z</time></trkpt><trkpt lat="45.83281739180901" lon="11.698042518524975"><ele>139.33333333333334</ele><time>2026-04-16T10:11:40Z</time></trkpt><trkpt lat="45.83291630803101" lon="11.697834914476232"><ele>139.0</ele><time>2026-04-16T10:11:41Z</time></trkpt><trkpt lat="45.83302290738431" lon="11.697634133363065"><ele>139.0</ele><time>2026-04-16T10:11:42Z</time></trkpt><trkpt lat="45.83313821811214" lon="11.697441444468685"><ele>139.0</ele><time>2026-04-16T10:11:43Z</time></trkpt><trkpt lat="45.8332692649616" lon="11.697242928843327"><ele>139.0</ele><time>2026-04-16T10:11:44Z</time></trkpt><trkpt lat="45.83341240186387" lon="11.697046479706023"><ele>138.33333333333334</ele><time>2026-04-16T10:11:45Z</time></trkpt><trkpt lat="45.83354982385855" lon="11.696876858554525"><ele>137.66666666666666</ele><time>2026-04-16T10:11:46Z</time></trkpt><trkpt lat="45.833687220048176" lon="11.696705819024123"><ele>137.0</ele><time>2026-04-16T10:11:47Z</time></trkpt><trkpt lat="45.833830774736775" lon="11.696527059237233"><ele>137.0</ele><time>2026-04-16T10:11:48Z</time></trkpt><trkpt lat="45.833980080697955" lon="11.696342262644855"><ele>137.0</ele><time>2026-04-16T10:11:49Z</time></trkpt><trkpt lat="45.83413286623693" lon="11.696153976828615"><ele>137.0</ele><time>2026-04-16T10:11:50Z</time></trkpt><trkpt lat="45.83428925240341" lon="11.695959654211983"><ele>136.5</ele><time>2026-04-16T10:11:51Z</time></trkpt><trkpt lat="45.83446930183886" lon="11.695767392952593"><ele>136.0</ele><time>2026-04-16T10:11:52Z</time></trkpt><trkpt lat="45.83465903518829" lon="11.695532917806341"><ele>136.0</ele><time>2026-04-16T10:11:53Z</time></trkpt><trkpt lat="45.8348596340099" lon="11.695286604356303"><ele>136.0</ele><time>2026-04-16T10:11:54Z</time></trkpt><trkpt lat="45.83506084037449" lon="11.69501517722325"><ele>138.0</ele><time>2026-04-16T10:11:55Z</time></trkpt><trkpt lat="45.835256907745546" lon="11.694783640166714"><ele>140.0</ele><time>2026-04-16T10:11:56Z</time></trkpt><trkpt lat="45.83543417432928" lon="11.6945626959412"><ele>138.66666666666666</ele><time>2026-04-16T10:11:57Z</time></trkpt><trkpt lat="45.83560196878655" lon="11.694355743370025"><ele>137.33333333333334</ele><time>2026-04-16T10:11:58Z</time></trkpt><trkpt lat="45.835761974044104" lon="11.694162058538751"><ele>136.0</ele><time>2026-04-16T10:11:59Z</time></trkpt><trkpt lat="45.83591135588642" lon="11.69398329900639"><ele>137.0</ele><time>2026-04-16T10:12:00Z</time></trkpt><trkpt lat="45.83603834207497" lon="11.693825304459478"><ele>138.0</ele><time>2026-04-16T10:12:01Z</time></trkpt><trkpt lat="45.83615925345144" lon="11.693674412221517"><ele>139.0</ele><time>2026-04-16T10:12:02Z</time></trkpt><trkpt lat="45.83627370487784" lon="11.693536480243303"><ele>139.0</ele><time>2026-04-16T10:12:03Z</time></trkpt><trkpt lat="45.836381175327986" lon="11.693406717453543"><ele>139.0</ele><time>2026-04-16T10:12:04Z</time></trkpt><trkpt lat="45.836487836327144" lon="11.693274061786957"><ele>139.0</ele><time>2026-04-16T10:12:05Z</time></trkpt><trkpt lat="45.83660971966915" lon="11.693122008927913"><ele>139.0</ele><time>2026-04-16T10:12:06Z</time></trkpt><trkpt lat="45.83672519402187" lon="11.69297676791011"><ele>140.0</ele><time>2026-04-16T10:12:07Z</time></trkpt><trkpt lat="45.83682240236933" lon="11.692857961110995"><ele>141.0</ele><time>2026-04-16T10:12:08Z</time></trkpt><trkpt lat="45.836905530346534" lon="11.692759368920077"><ele>142.0</ele><time>2026-04-16T10:12:09Z</time></trkpt><trkpt lat="45.83698276268458" lon="11.692661531872982"><ele>143.0</ele><time>2026-04-16T10:12:10Z</time></trkpt><trkpt lat="45.83706735275916" lon="11.692557050101296"><ele>143.0</ele><time>2026-04-16T10:12:11Z</time></trkpt><trkpt lat="45.83715856524622" lon="11.69244711107223"><ele>143.0</ele><time>2026-04-16T10:12:12Z</time></trkpt><trkpt lat="45.83725143904829" lon="11.692329800351398"><ele>143.0</ele><time>2026-04-16T10:12:13Z</time></trkpt><trkpt lat="45.83735391165028" lon="11.69219824325254"><ele>143.0</ele><time>2026-04-16T10:12:14Z</time></trkpt><trkpt lat="45.837494916158" lon="11.692045898661394"><ele>142.66666666666666</ele><time>2026-04-16T10:12:15Z</time></trkpt><trkpt lat="45.837643426968526" lon="11.691848773741016"><ele>142.33333333333334</ele><time>2026-04-16T10:12:16Z</time></trkpt><trkpt lat="45.83777663980656" lon="11.691636500854273"><ele>142.0</ele><time>2026-04-16T10:12:17Z</time></trkpt><trkpt lat="45.837918023138755" lon="11.691452866914604"><ele>142.0</ele><time>2026-04-16T10:12:18Z</time></trkpt><trkpt lat="45.83805810105538" lon="11.691229077435784"><ele>142.0</ele><time>2026-04-16T10:12:19Z</time></trkpt><trkpt lat="45.8381935300965" lon="11.690982102376259"><ele>142.0</ele><time>2026-04-16T10:12:20Z</time></trkpt><trkpt lat="45.8383056701076" lon="11.690751593776719"><ele>141.66666666666669</ele><time>2026-04-16T10:12:21Z</time></trkpt><trkpt lat="45.838399787954614" lon="11.690555545121029"><ele>141.33333333333334</ele><time>2026-04-16T10:12:22Z</time></trkpt><trkpt lat="45.838493606004015" lon="11.690383046748748"><ele>141.0</ele><time>2026-04-16T10:12:23Z</time></trkpt><trkpt lat="45.83858327790489" lon="11.690218595399088"><ele>142.25</ele><time>2026-04-16T10:12:24Z</time></trkpt><trkpt lat="45.83866394324972" lon="11.690056758851881"><ele>143.5</ele><time>2026-04-16T10:12:25Z</time></trkpt><trkpt lat="45.8387492069948" lon="11.689888351247413"><ele>144.75</ele><time>2026-04-16T10:12:26Z</time></trkpt><trkpt lat="45.83884225783359" lon="11.689719200873196"><ele>146.0</ele><time>2026-04-16T10:12:27Z</time></trkpt><trkpt lat="45.83892647267876" lon="11.689546761397178"><ele>146.66666666666666</ele><time>2026-04-16T10:12:28Z</time></trkpt><trkpt lat="45.83901804715142" lon="11.68937904576253"><ele>147.33333333333334</ele><time>2026-04-16T10:12:29Z</time></trkpt><trkpt lat="45.83910258233606" lon="11.68920356998178"><ele>148.0</ele><time>2026-04-16T10:12:30Z</time></trkpt><trkpt lat="45.83920547752666" lon="11.689010026299071"><ele>148.66666666666669</ele><time>2026-04-16T10:12:31Z</time></trkpt><trkpt lat="45.83931723557001" lon="11.68878441101443"><ele>149.33333333333334</ele><time>2026-04-16T10:12:32Z</time></trkpt><trkpt lat="45.839457532396814" lon="11.688537627412016"><ele>150.0</ele><time>2026-04-16T10:12:33Z</time></trkpt><trkpt lat="45.839601808452215" lon="11.688262289764227"><ele>150.0</ele><time>2026-04-16T10:12:34Z</time></trkpt><trkpt lat="45.83972938830972" lon="11.687984325084951"><ele>150.0</ele><time>2026-04-16T10:12:35Z</time></trkpt><trkpt lat="45.839867979507844" lon="11.687717987082038"><ele>148.5</ele><time>2026-04-16T10:12:36Z</time></trkpt><trkpt lat="45.84003645155472" lon="11.687429248600901"><ele>147.0</ele><time>2026-04-16T10:12:37Z</time></trkpt><trkpt lat="45.84018889005216" lon="11.687136989945513"><ele>146.66666666666666</ele><time>2026-04-16T10:12:38Z</time></trkpt><trkpt lat="45.84031453289698" lon="11.68686728957033"><ele>146.33333333333331</ele><time>2026-04-16T10:12:39Z</time></trkpt><trkpt lat="45.840448043837" lon="11.686632072973953"><ele>146.0</ele><time>2026-04-16T10:12:40Z</time></trkpt><trkpt lat="45.84057856833927" lon="11.686378699057455"><ele>146.0</ele><time>2026-04-16T10:12:41Z</time></trkpt><trkpt lat="45.840708758493975" lon="11.686122406793265"><ele>146.0</ele><time>2026-04-16T10:12:42Z</time></trkpt><trkpt lat="45.84083474017058" lon="11.685886658433978"><ele>146.0</ele><time>2026-04-16T10:12:43Z</time></trkpt><trkpt lat="45.840955067202614" lon="11.685660114584925"><ele>146.66666666666666</ele><time>2026-04-16T10:12:44Z</time></trkpt><trkpt lat="45.84107056530225" lon="11.685424619359107"><ele>147.33333333333334</ele><time>2026-04-16T10:12:45Z</time></trkpt><trkpt lat="45.84117514214167" lon="11.685185770749628"><ele>148.0</ele><time>2026-04-16T10:12:46Z</time></trkpt><trkpt lat="45.841269791139666" lon="11.684944831009304"><ele>148.0</ele><time>2026-04-16T10:12:47Z</time></trkpt><trkpt lat="45.84136847325641" lon="11.684666239086665"><ele>148.0</ele><time>2026-04-16T10:12:48Z</time></trkpt><trkpt lat="45.84148422429231" lon="11.68435508759204"><ele>147.5</ele><time>2026-04-16T10:12:49Z</time></trkpt><trkpt lat="45.84158272810946" lon="11.684023751067102"><ele>147.0</ele><time>2026-04-16T10:12:50Z</time></trkpt><trkpt lat="45.841650671849955" lon="11.68372589448431"><ele>145.66666666666666</ele><time>2026-04-16T10:12:51Z</time></trkpt><trkpt lat="45.84172207212201" lon="11.683474273599737"><ele>144.33333333333331</ele><time>2026-04-16T10:12:52Z</time></trkpt><trkpt lat="45.841783760881945" lon="11.683252248735156"><ele>143.0</ele><time>2026-04-16T10:12:53Z</time></trkpt><trkpt lat="45.84184212615801" lon="11.683044808808305"><ele>146.0</ele><time>2026-04-16T10:12:54Z</time></trkpt><trkpt lat="45.84189870447658" lon="11.682843997220498"><ele>149.0</ele><time>2026-04-16T10:12:55Z</time></trkpt><trkpt lat="45.8419544621982" lon="11.68265060532693"><ele>152.0</ele><time>2026-04-16T10:12:56Z</time></trkpt><trkpt lat="45.84200785205667" lon="11.6824450077921"><ele>152.0</ele><time>2026-04-16T10:12:57Z</time></trkpt><trkpt lat="45.84206213832703" lon="11.682223620320256"><ele>152.0</ele><time>2026-04-16T10:12:58Z</time></trkpt><trkpt lat="45.8421206945832" lon="11.682001984661333"><ele>152.0</ele><time>2026-04-16T10:12:59Z</time></trkpt><trkpt lat="45.842183714843266" lon="11.681777565096368"><ele>150.33333333333331</ele><time>2026-04-16T10:13:00Z</time></trkpt><trkpt lat="45.84224974903838" lon="11.681553189742425"><ele>148.66666666666666</ele><time>2026-04-16T10:13:01Z</time></trkpt><trkpt lat="45.84231346299957" lon="11.681336019266096"><ele>147.0</ele><time>2026-04-16T10:13:02Z</time></trkpt><trkpt lat="45.8423717922571" lon="11.681125621836287"><ele>145.0</ele><time>2026-04-16T10:13:03Z</time></trkpt><trkpt lat="45.842432270763915" lon="11.680911940886418"><ele>143.0</ele><time>2026-04-16T10:13:04Z</time></trkpt><trkpt lat="45.842498376840055" lon="11.680699538649732"><ele>141.0</ele><time>2026-04-16T10:13:05Z</time></trkpt><trkpt lat="45.84257200126939" lon="11.680487473696965"><ele>142.33333333333334</ele><time>2026-04-16T10:13:06Z</time></trkpt><trkpt lat="45.842654635044966" lon="11.680256277625753"><ele>143.66666666666669</ele><time>2026-04-16T10:13:07Z</time></trkpt><trkpt lat="45.842739558204215" lon="11.68003374335245"><ele>145.0</ele><time>2026-04-16T10:13:08Z</time></trkpt><trkpt lat="45.84282229408543" lon="11.679834195218454"><ele>145.0</ele><time>2026-04-16T10:13:09Z</time></trkpt><trkpt lat="45.84290657304894" lon="11.679640765012056"><ele>145.0</ele><time>2026-04-16T10:13:10Z</time></trkpt><trkpt lat="45.842993277232" lon="11.679440802975671"><ele>145.0</ele><time>2026-04-16T10:13:11Z</time></trkpt><trkpt lat="45.84308225667849" lon="11.679241580269935"><ele>144.66666666666669</ele><time>2026-04-16T10:13:12Z</time></trkpt><trkpt lat="45.84317090000123" lon="11.679050535466068"><ele>144.33333333333334</ele><time>2026-04-16T10:13:13Z</time></trkpt><trkpt lat="45.84325433663908" lon="11.678873964256228"><ele>144.0</ele><time>2026-04-16T10:13:14Z</time></trkpt><trkpt lat="45.8433359900611" lon="11.67869578823043"><ele>143.66666666666666</ele><time>2026-04-16T10:13:15Z</time></trkpt><trkpt lat="45.84341974597454" lon="11.67851812747597"><ele>143.33333333333331</ele><time>2026-04-16T10:13:16Z</time></trkpt><trkpt lat="45.843503128260046" lon="11.678340065232671"><ele>143.0</ele><time>2026-04-16T10:13:17Z</time></trkpt><trkpt lat="45.84358562161996" lon="11.678157581204745"><ele>143.33333333333331</ele><time>2026-04-16T10:13:18Z</time></trkpt><trkpt lat="45.84366691249208" lon="11.67797158099143"><ele>143.66666666666666</ele><time>2026-04-16T10:13:19Z</time></trkpt><trkpt lat="45.84375168105421" lon="11.677788138755584"><ele>144.0</ele><time>2026-04-16T10:13:20Z</time></trkpt><trkpt lat="45.84383991404766" lon="11.677605318144714"><ele>144.0</ele><time>2026-04-16T10:13:21Z</time></trkpt><trkpt lat="45.84392561281115" lon="11.677421236207206"><ele>144.0</ele><time>2026-04-16T10:13:22Z</time></trkpt><trkpt lat="45.84400506117414" lon="11.677244595709032"><ele>144.0</ele><time>2026-04-16T10:13:23Z</time></trkpt><trkpt lat="45.84408040727534" lon="11.67707498812561"><ele>144.0</ele><time>2026-04-16T10:13:24Z</time></trkpt><trkpt lat="45.84415817636912" lon="11.676897629238466"><ele>143.66666666666666</ele><time>2026-04-16T10:13:25Z</time></trkpt><trkpt lat="45.84423771678121" lon="11.676714727894435"><ele>143.33333333333331</ele><time>2026-04-16T10:13:26Z</time></trkpt><trkpt lat="45.8443174910063" lon="11.676524167287244"><ele>143.0</ele><time>2026-04-16T10:13:27Z</time></trkpt><trkpt lat="45.844393827602566" lon="11.676339722432873"><ele>145.0</ele><time>2026-04-16T10:13:28Z</time></trkpt><trkpt lat="45.84446135199331" lon="11.676163200198124"><ele>147.0</ele><time>2026-04-16T10:13:29Z</time></trkpt><trkpt lat="45.84452930499342" lon="11.6759980382033"><ele>149.0</ele><time>2026-04-16T10:13:30Z</time></trkpt><trkpt lat="45.84459624064686" lon="11.675843669890652"><ele>151.0</ele><time>2026-04-16T10:13:31Z</time></trkpt><trkpt lat="45.844663874956744" lon="11.675698596472015"><ele>151.0</ele><time>2026-04-16T10:13:32Z</time></trkpt><trkpt lat="45.84473904700144" lon="11.675557047454774"><ele>151.0</ele><time>2026-04-16T10:13:33Z</time></trkpt><trkpt lat="45.84482374331901" lon="11.675419748059651"><ele>151.0</ele><time>2026-04-16T10:13:34Z</time></trkpt><trkpt lat="45.84491511743329" lon="11.67528549615055"><ele>151.0</ele><time>2026-04-16T10:13:35Z</time></trkpt><trkpt lat="45.84501363555787" lon="11.675152707394004"><ele>151.0</ele><time>2026-04-16T10:13:36Z</time></trkpt><trkpt lat="45.845119226412145" lon="11.675022576957941"><ele>151.0</ele><time>2026-04-16T10:13:37Z</time></trkpt><trkpt lat="45.84523059750974" lon="11.67489464737855"><ele>151.0</ele><time>2026-04-16T10:13:38Z</time></trkpt><trkpt lat="45.845344344897185" lon="11.674769310555623"><ele>151.0</ele><time>2026-04-16T10:13:39Z</time></trkpt><trkpt lat="45.845449632453466" lon="11.67464560902707"><ele>151.0</ele><time>2026-04-16T10:13:40Z</time></trkpt><trkpt lat="45.845549934331586" lon="11.6745327994506"><ele>151.0</ele><time>2026-04-16T10:13:41Z</time></trkpt><trkpt lat="45.84564854450845" lon="11.67442506426074"><ele>151.0</ele><time>2026-04-16T10:13:42Z</time></trkpt><trkpt lat="45.845743322157716" lon="11.674315078628275"><ele>151.0</ele><time>2026-04-16T10:13:43Z</time></trkpt><trkpt lat="45.845842962648334" lon="11.67420242452376"><ele>152.0</ele><time>2026-04-16T10:13:44Z</time></trkpt><trkpt lat="45.84594504725375" lon="11.674087193487786"><ele>153.0</ele><time>2026-04-16T10:13:45Z</time></trkpt><trkpt lat="45.84603647306051" lon="11.673982659011955"><ele>154.0</ele><time>2026-04-16T10:13:46Z</time></trkpt><trkpt lat="45.84612282134501" lon="11.67387287044385"><ele>155.0</ele><time>2026-04-16T10:13:47Z</time></trkpt><trkpt lat="45.84619726357633" lon="11.673736633095643"><ele>154.25</ele><time>2026-04-16T10:13:48Z</time></trkpt><trkpt lat="45.84625660726959" lon="11.673576568615513"><ele>153.5</ele><time>2026-04-16T10:13:49Z</time></trkpt><trkpt lat="45.846297847673846" lon="11.673407139446311"><ele>152.75</ele><time>2026-04-16T10:13:50Z</time></trkpt><trkpt lat="45.84633692505631" lon="11.673263502338372"><ele>152.0</ele><time>2026-04-16T10:13:51Z</time></trkpt><trkpt lat="45.84637307050944" lon="11.67313099746695"><ele>152.0</ele><time>2026-04-16T10:13:52Z</time></trkpt><trkpt lat="45.84640595012313" lon="11.673000766803025"><ele>152.0</ele><time>2026-04-16T10:13:53Z</time></trkpt><trkpt lat="45.846454812720694" lon="11.672866128328595"><ele>152.0</ele><time>2026-04-16T10:13:54Z</time></trkpt><trkpt lat="45.84652123687545" lon="11.672725386980051"><ele>152.0</ele><time>2026-04-16T10:13:55Z</time></trkpt><trkpt lat="45.84659641836971" lon="11.672589548789315"><ele>152.0</ele><time>2026-04-16T10:13:56Z</time></trkpt><trkpt lat="45.84667819112771" lon="11.672456073916663"><ele>154.5</ele><time>2026-04-16T10:13:57Z</time></trkpt><trkpt lat="45.846757974660505" lon="11.672332512132423"><ele>157.0</ele><time>2026-04-16T10:13:58Z</time></trkpt><trkpt lat="45.84683600007023" lon="11.67222668058229"><ele>159.5</ele><time>2026-04-16T10:13:59Z</time></trkpt><trkpt lat="45.84692024023527" lon="11.672130477497827"><ele>162.0</ele><time>2026-04-16T10:14:00Z</time></trkpt><trkpt lat="45.847014452814285" lon="11.672027734232387"><ele>158.25</ele><time>2026-04-16T10:14:01Z</time></trkpt><trkpt lat="45.84711434809055" lon="11.67192499971364"><ele>154.5</ele><time>2026-04-16T10:14:02Z</time></trkpt><trkpt lat="45.847226536096564" lon="11.671824851011635"><ele>150.75</ele><time>2026-04-16T10:14:03Z</time></trkpt><trkpt lat="45.84736226513093" lon="11.671714010573744"><ele>147.0</ele><time>2026-04-16T10:14:04Z</time></trkpt><trkpt lat="45.84750146358318" lon="11.671586340679966"><ele>147.0</ele><time>2026-04-16T10:14:05Z</time></trkpt><trkpt lat="45.84761568967714" lon="11.67147246003939"><ele>147.0</ele><time>2026-04-16T10:14:06Z</time></trkpt><trkpt lat="45.84772416582292" lon="11.671366890591043"><ele>147.0</ele><time>2026-04-16T10:14:07Z</time></trkpt><trkpt lat="45.84783023399374" lon="11.671265097033876"><ele>147.0</ele><time>2026-04-16T10:14:08Z</time></trkpt><trkpt lat="45.84792998668904" lon="11.671170078858589"><ele>147.5</ele><time>2026-04-16T10:14:09Z</time></trkpt><trkpt lat="45.84802218997657" lon="11.671076371849496"><ele>148.0</ele><time>2026-04-16T10:14:10Z</time></trkpt><trkpt lat="45.848123834990595" lon="11.670954219561665"><ele>148.5</ele><time>2026-04-16T10:14:11Z</time></trkpt><trkpt lat="45.84824043795653" lon="11.670835323223692"><ele>149.0</ele><time>2026-04-16T10:14:12Z</time></trkpt><trkpt lat="45.84835973660424" lon="11.67069870822134"><ele>149.0</ele><time>2026-04-16T10:14:13Z</time></trkpt><trkpt lat="45.848475372988624" lon="11.670566999140062"><ele>149.0</ele><time>2026-04-16T10:14:14Z</time></trkpt><trkpt lat="45.848583135957526" lon="11.670457888014072"><ele>149.0</ele><time>2026-04-16T10:14:15Z</time></trkpt><trkpt lat="45.84868762029247" lon="11.670360763348688"><ele>149.0</ele><time>2026-04-16T10:14:16Z</time></trkpt><trkpt lat="45.848790086836615" lon="11.670268421114853"><ele>149.0</ele><time>2026-04-16T10:14:17Z</time></trkpt><trkpt lat="45.848902279783616" lon="11.670166717070796"><ele>149.0</ele><time>2026-04-16T10:14:18Z</time></trkpt><trkpt lat="45.849028485095545" lon="11.67005001568332"><ele>149.0</ele><time>2026-04-16T10:14:19Z</time></trkpt><trkpt lat="45.849168620251945" lon="11.669932808969255"><ele>149.0</ele><time>2026-04-16T10:14:20Z</time></trkpt><trkpt lat="45.84929767175365" lon="11.669839415524633"><ele>153.75</ele><time>2026-04-16T10:14:21Z</time></trkpt><trkpt lat="45.84941771108824" lon="11.669763645414731"><ele>158.5</ele><time>2026-04-16T10:14:22Z</time></trkpt><trkpt lat="45.849530421885426" lon="11.669688301018308"><ele>163.25</ele><time>2026-04-16T10:14:23Z</time></trkpt><trkpt lat="45.84964689755587" lon="11.669606546113178"><ele>168.0</ele><time>2026-04-16T10:14:24Z</time></trkpt><trkpt lat="45.84978118614904" lon="11.669510237276622"><ele>165.25</ele><time>2026-04-16T10:14:25Z</time></trkpt><trkpt lat="45.84991437107912" lon="11.66941485964321"><ele>162.5</ele><time>2026-04-16T10:14:26Z</time></trkpt><trkpt lat="45.85003297110933" lon="11.669330852966235"><ele>159.75</ele><time>2026-04-16T10:14:27Z</time></trkpt><trkpt lat="45.85016714398953" lon="11.66923166485746"><ele>157.0</ele><time>2026-04-16T10:14:28Z</time></trkpt><trkpt lat="45.85031594268125" lon="11.669129316991814"><ele>157.0</ele><time>2026-04-16T10:14:29Z</time></trkpt><trkpt lat="45.8504763457356" lon="11.669026542670984"><ele>157.0</ele><time>2026-04-16T10:14:30Z</time></trkpt><trkpt lat="45.85062596303263" lon="11.668935814449409"><ele>157.0</ele><time>2026-04-16T10:14:31Z</time></trkpt><trkpt lat="45.85076650499974" lon="11.66885459421211"><ele>157.0</ele><time>2026-04-16T10:14:32Z</time></trkpt><trkpt lat="45.8509032580354" lon="11.668773253098513"><ele>157.0</ele><time>2026-04-16T10:14:33Z</time></trkpt><trkpt lat="45.85103758253118" lon="11.668686656808093"><ele>157.0</ele><time>2026-04-16T10:14:34Z</time></trkpt><trkpt lat="45.85116928924083" lon="11.66860029236018"><ele>157.0</ele><time>2026-04-16T10:14:35Z</time></trkpt><trkpt lat="45.85131211654573" lon="11.66850577172551"><ele>154.33333333333334</ele><time>2026-04-16T10:14:36Z</time></trkpt><trkpt lat="45.85146242449965" lon="11.66840456408158"><ele>151.66666666666666</ele><time>2026-04-16T10:14:37Z</time></trkpt><trkpt lat="45.8516280598651" lon="11.66830102265522"><ele>149.0</ele><time>2026-04-16T10:14:38Z</time></trkpt><trkpt lat="45.85179791653998" lon="11.668189085829747"><ele>155.0</ele><time>2026-04-16T10:14:39Z</time></trkpt><trkpt lat="45.851958416222395" lon="11.668061898586322"><ele>161.0</ele><time>2026-04-16T10:14:40Z</time></trkpt><trkpt lat="45.85209500418274" lon="11.667925024525795"><ele>167.0</ele><time>2026-04-16T10:14:41Z</time></trkpt><trkpt lat="45.85222827300113" lon="11.66778396407138"><ele>160.33333333333331</ele><time>2026-04-16T10:14:42Z</time></trkpt><trkpt lat="45.85236448009271" lon="11.667628332486467"><ele>153.66666666666666</ele><time>2026-04-16T10:14:43Z</time></trkpt><trkpt lat="45.85249376469337" lon="11.667477617645805"><ele>147.0</ele><time>2026-04-16T10:14:44Z</time></trkpt><trkpt lat="45.85261619065094" lon="11.66734371285501"><ele>147.0</ele><time>2026-04-16T10:14:45Z</time></trkpt><trkpt lat="45.85273249342598" lon="11.667219028699108"><ele>147.0</ele><time>2026-04-16T10:14:46Z</time></trkpt><trkpt lat="45.85284499188108" lon="11.667083908908188"><ele>147.0</ele><time>2026-04-16T10:14:47Z</time></trkpt><trkpt lat="45.85294971605039" lon="11.66693284353889"><ele>147.0</ele><time>2026-04-16T10:14:48Z</time></trkpt><trkpt lat="45.85304907076899" lon="11.666774619804922"><ele>147.0</ele><time>2026-04-16T10:14:49Z</time></trkpt><trkpt lat="45.85314928674841" lon="11.666618071654595"><ele>147.0</ele><time>2026-04-16T10:14:50Z</time></trkpt><trkpt lat="45.85325217565576" lon="11.666469078471204"><ele>147.0</ele><time>2026-04-16T10:14:51Z</time></trkpt><trkpt lat="45.85335733722993" lon="11.666314244642392"><ele>147.0</ele><time>2026-04-16T10:14:52Z</time></trkpt><trkpt lat="45.85346507446691" lon="11.666148823167665"><ele>148.0</ele><time>2026-04-16T10:14:53Z</time></trkpt><trkpt lat="45.85357459914076" lon="11.665976373280937"><ele>149.0</ele><time>2026-04-16T10:14:54Z</time></trkpt><trkpt lat="45.85368483255147" lon="11.665814250613321"><ele>150.0</ele><time>2026-04-16T10:14:55Z</time></trkpt><trkpt lat="45.8537969198617" lon="11.665682058310969"><ele>150.0</ele><time>2026-04-16T10:14:56Z</time></trkpt><trkpt lat="45.85392790524582" lon="11.665554161747737"><ele>150.0</ele><time>2026-04-16T10:14:57Z</time></trkpt><trkpt lat="45.85407614842423" lon="11.665420340828783"><ele>150.0</ele><time>2026-04-16T10:14:58Z</time></trkpt><trkpt lat="45.8542067361424" lon="11.665294626343988"><ele>152.75</ele><time>2026-04-16T10:14:59Z</time></trkpt><trkpt lat="45.854325591942796" lon="11.665177230574256"><ele>155.5</ele><time>2026-04-16T10:15:00Z</time></trkpt><trkpt lat="45.85444484191084" lon="11.665062263333386"><ele>158.25</ele><time>2026-04-16T10:15:01Z</time></trkpt><trkpt lat="45.85456829320523" lon="11.66495051663179"><ele>161.0</ele><time>2026-04-16T10:15:02Z</time></trkpt><trkpt lat="45.85468336592871" lon="11.6648605290944"><ele>161.0</ele><time>2026-04-16T10:15:03Z</time></trkpt><trkpt lat="45.85479185079112" lon="11.664768324618816"><ele>161.0</ele><time>2026-04-16T10:15:04Z</time></trkpt><trkpt lat="45.854913041504616" lon="11.6646923843558"><ele>161.0</ele><time>2026-04-16T10:15:05Z</time></trkpt><trkpt lat="45.85503554635892" lon="11.664606611842188"><ele>161.0</ele><time>2026-04-16T10:15:06Z</time></trkpt><trkpt lat="45.85516030518736" lon="11.664518173179733"><ele>159.25</ele><time>2026-04-16T10:15:07Z</time></trkpt><trkpt lat="45.85528846589354" lon="11.664426221635985"><ele>157.5</ele><time>2026-04-16T10:15:08Z</time></trkpt><trkpt lat="45.85540726431313" lon="11.664342890321578"><ele>155.75</ele><time>2026-04-16T10:15:09Z</time></trkpt><trkpt lat="45.85551606320061" lon="11.664261908370001"><ele>154.0</ele><time>2026-04-16T10:15:10Z</time></trkpt><trkpt lat="45.85561687327246" lon="11.66419039598898"><ele>154.0</ele><time>2026-04-16T10:15:11Z</time></trkpt><trkpt lat="45.85572395112756" lon="11.664122576791758"><ele>154.0</ele><time>2026-04-16T10:15:12Z</time></trkpt><trkpt lat="45.85583984939804" lon="11.664042136168172"><ele>154.0</ele><time>2026-04-16T10:15:13Z</time></trkpt><trkpt lat="45.855964848509295" lon="11.66393543857761"><ele>154.0</ele><time>2026-04-16T10:15:14Z</time></trkpt><trkpt lat="45.85608440689833" lon="11.663797711220969"><ele>155.75</ele><time>2026-04-16T10:15:15Z</time></trkpt><trkpt lat="45.856188079478905" lon="11.66368235078292"><ele>157.5</ele><time>2026-04-16T10:15:16Z</time></trkpt><trkpt lat="45.85627522924088" lon="11.663561454549855"><ele>159.25</ele><time>2026-04-16T10:15:17Z</time></trkpt><trkpt lat="45.85633862682196" lon="11.663434926816173"><ele>161.0</ele><time>2026-04-16T10:15:18Z</time></trkpt><trkpt lat="45.85640867176544" lon="11.663324196720598"><ele>161.0</ele><time>2026-04-16T10:15:19Z</time></trkpt><trkpt lat="45.85648830364182" lon="11.663216717086556"><ele>161.0</ele><time>2026-04-16T10:15:20Z</time></trkpt><trkpt lat="45.856562559446125" lon="11.66310679823568"><ele>161.0</ele><time>2026-04-16T10:15:21Z</time></trkpt><trkpt lat="45.85663164873354" lon="11.663008508159667"><ele>161.0</ele><time>2026-04-16T10:15:22Z</time></trkpt><trkpt lat="45.85670122521344" lon="11.662907841501234"><ele>161.0</ele><time>2026-04-16T10:15:23Z</time></trkpt><trkpt lat="45.856772591290415" lon="11.66280107931436"><ele>161.60000000000002</ele><time>2026-04-16T10:15:24Z</time></trkpt><trkpt lat="45.85684429613281" lon="11.66269002818018"><ele>162.2</ele><time>2026-04-16T10:15:25Z</time></trkpt><trkpt lat="45.85691797011736" lon="11.662583775907098"><ele>162.8</ele><time>2026-04-16T10:15:26Z</time></trkpt><trkpt lat="45.856986037477604" lon="11.662483312086357"><ele>163.39999999999998</ele><time>2026-04-16T10:15:27Z</time></trkpt><trkpt lat="45.857052999763965" lon="11.662392024302248"><ele>164.0</ele><time>2026-04-16T10:15:28Z</time></trkpt><trkpt lat="45.857117329240324" lon="11.662303204183775"><ele>164.0</ele><time>2026-04-16T10:15:29Z</time></trkpt><trkpt lat="45.85718296927479" lon="11.662215174070358"><ele>164.0</ele><time>2026-04-16T10:15:30Z</time></trkpt><trkpt lat="45.85724842532547" lon="11.66212586400937"><ele>164.0</ele><time>2026-04-16T10:15:31Z</time></trkpt><trkpt lat="45.85730706312237" lon="11.66203902885388"><ele>164.0</ele><time>2026-04-16T10:15:32Z</time></trkpt><trkpt lat="45.857366752433926" lon="11.661968261742615"><ele>164.0</ele><time>2026-04-16T10:15:33Z</time></trkpt><trkpt lat="45.85742440477492" lon="11.661905158544405"><ele>164.0</ele><time>2026-04-16T10:15:34Z</time></trkpt><trkpt lat="45.857484828275936" lon="11.661840918755917"><ele>162.6</ele><time>2026-04-16T10:15:35Z</time></trkpt><trkpt lat="45.85755434118335" lon="11.661776250905461"><ele>161.2</ele><time>2026-04-16T10:15:36Z</time></trkpt><trkpt lat="45.857630852186524" lon="11.661715417984158"><ele>159.79999999999998</ele><time>2026-04-16T10:15:37Z</time></trkpt><trkpt lat="45.857714965055955" lon="11.66165421709896"><ele>158.39999999999998</ele><time>2026-04-16T10:15:38Z</time></trkpt><trkpt lat="45.85780078545688" lon="11.661577733316927"><ele>157.0</ele><time>2026-04-16T10:15:39Z</time></trkpt><trkpt lat="45.85788057715946" lon="11.661470749306924"><ele>157.0</ele><time>2026-04-16T10:15:40Z</time></trkpt><trkpt lat="45.85796021757142" lon="11.661420628666356"><ele>157.0</ele><time>2026-04-16T10:15:41Z</time></trkpt><trkpt lat="45.858031395209835" lon="11.661361859394917"><ele>157.0</ele><time>2026-04-16T10:15:42Z</time></trkpt><trkpt lat="45.858099501349855" lon="11.661310205533749"><ele>157.0</ele><time>2026-04-16T10:15:43Z</time></trkpt><trkpt lat="45.85816515022952" lon="11.661261836960604"><ele>157.0</ele><time>2026-04-16T10:15:44Z</time></trkpt><trkpt lat="45.85823518762868" lon="11.661205891336632"><ele>157.0</ele><time>2026-04-16T10:15:45Z</time></trkpt><trkpt lat="45.858319977026774" lon="11.661140741401931"><ele>156.5</ele><time>2026-04-16T10:15:46Z</time></trkpt><trkpt lat="45.858430593054344" lon="11.661059819713651"><ele>156.0</ele><time>2026-04-16T10:15:47Z</time></trkpt><trkpt lat="45.85854791313953" lon="11.660975050509222"><ele>155.5</ele><time>2026-04-16T10:15:48Z</time></trkpt><trkpt lat="45.858675457158434" lon="11.660898597402284"><ele>155.0</ele><time>2026-04-16T10:15:49Z</time></trkpt><trkpt lat="45.85879223841447" lon="11.660860928645974"><ele>155.0</ele><time>2026-04-16T10:15:50Z</time></trkpt><trkpt lat="45.8589015491108" lon="11.660830421784658"><ele>155.0</ele><time>2026-04-16T10:15:51Z</time></trkpt><trkpt lat="45.859017300922474" lon="11.660795952116194"><ele>155.0</ele><time>2026-04-16T10:15:52Z</time></trkpt><trkpt lat="45.85912102815863" lon="11.660785879824845"><ele>155.0</ele><time>2026-04-16T10:15:53Z</time></trkpt><trkpt lat="45.85922061474089" lon="11.660772559918513"><ele>155.0</ele><time>2026-04-16T10:15:54Z</time></trkpt><trkpt lat="45.85932210134536" lon="11.660767713260519"><ele>155.0</ele><time>2026-04-16T10:15:55Z</time></trkpt><trkpt lat="45.85942777099956" lon="11.660761931759836"><ele>155.0</ele><time>2026-04-16T10:15:56Z</time></trkpt><trkpt lat="45.85953881896236" lon="11.660753766181658"><ele>155.0</ele><time>2026-04-16T10:15:57Z</time></trkpt><trkpt lat="45.85965274150051" lon="11.66074669626996"><ele>155.0</ele><time>2026-04-16T10:15:58Z</time></trkpt><trkpt lat="45.85977152672609" lon="11.66073996535155"><ele>155.0</ele><time>2026-04-16T10:15:59Z</time></trkpt><trkpt lat="45.85989132229285" lon="11.66073458600982"><ele>155.0</ele><time>2026-04-16T10:16:00Z</time></trkpt><trkpt lat="45.86001328576085" lon="11.66073184077944"><ele>155.0</ele><time>2026-04-16T10:16:01Z</time></trkpt><trkpt lat="45.86013721062075" lon="11.660733020791522"><ele>155.0</ele><time>2026-04-16T10:16:02Z</time></trkpt><trkpt lat="45.86026298195902" lon="11.66072825947134"><ele>155.5</ele><time>2026-04-16T10:16:03Z</time></trkpt><trkpt lat="45.860391096530954" lon="11.66072879185154"><ele>156.0</ele><time>2026-04-16T10:16:04Z</time></trkpt><trkpt lat="45.860524218406454" lon="11.660729520436767"><ele>156.5</ele><time>2026-04-16T10:16:05Z</time></trkpt><trkpt lat="45.86066516708374" lon="11.660738785766833"><ele>157.0</ele><time>2026-04-16T10:16:06Z</time></trkpt><trkpt lat="45.86081457245456" lon="11.660760349111392"><ele>157.0</ele><time>2026-04-16T10:16:07Z</time></trkpt><trkpt lat="45.860955401643935" lon="11.66078942844082"><ele>157.0</ele><time>2026-04-16T10:16:08Z</time></trkpt><trkpt lat="45.86108971001671" lon="11.660818119606809"><ele>157.0</ele><time>2026-04-16T10:16:09Z</time></trkpt><trkpt lat="45.861232242697696" lon="11.660851270054696"><ele>157.0</ele><time>2026-04-16T10:16:10Z</time></trkpt><trkpt lat="45.861377423987726" lon="11.660889667346503"><ele>157.0</ele><time>2026-04-16T10:16:11Z</time></trkpt><trkpt lat="45.86152519556058" lon="11.6609258245799"><ele>157.0</ele><time>2026-04-16T10:16:12Z</time></trkpt><trkpt lat="45.861665981432104" lon="11.660971576283782"><ele>157.0</ele><time>2026-04-16T10:16:13Z</time></trkpt><trkpt lat="45.86179657927388" lon="11.661013879076384"><ele>157.0</ele><time>2026-04-16T10:16:14Z</time></trkpt><trkpt lat="45.86192642037326" lon="11.661060399228253"><ele>157.0</ele><time>2026-04-16T10:16:15Z</time></trkpt><trkpt lat="45.86205997195724" lon="11.661105857254988"><ele>157.0</ele><time>2026-04-16T10:16:16Z</time></trkpt><trkpt lat="45.86219650694749" lon="11.661153802154642"><ele>157.0</ele><time>2026-04-16T10:16:17Z</time></trkpt><trkpt lat="45.862337327833984" lon="11.661202349088697"><ele>157.0</ele><time>2026-04-16T10:16:18Z</time></trkpt><trkpt lat="45.862479859011025" lon="11.66125843851826"><ele>156.66666666666669</ele><time>2026-04-16T10:16:19Z</time></trkpt><trkpt lat="45.862626618941114" lon="11.661323851379072"><ele>156.33333333333334</ele><time>2026-04-16T10:16:20Z</time></trkpt><trkpt lat="45.86277181477168" lon="11.661397357481306"><ele>156.0</ele><time>2026-04-16T10:16:21Z</time></trkpt><trkpt lat="45.86291918748831" lon="11.661475486365466"><ele>156.0</ele><time>2026-04-16T10:16:22Z</time></trkpt><trkpt lat="45.86307005416978" lon="11.661558713324174"><ele>156.0</ele><time>2026-04-16T10:16:23Z</time></trkpt><trkpt lat="45.8632201892331" lon="11.661645831905242"><ele>156.0</ele><time>2026-04-16T10:16:24Z</time></trkpt><trkpt lat="45.86336980167729" lon="11.661734735119868"><ele>155.33333333333334</ele><time>2026-04-16T10:16:25Z</time></trkpt><trkpt lat="45.86351955989622" lon="11.661824095455952"><ele>154.66666666666669</ele><time>2026-04-16T10:16:26Z</time></trkpt><trkpt lat="45.863668213230795" lon="11.661919511092764"><ele>154.0</ele><time>2026-04-16T10:16:27Z</time></trkpt><trkpt lat="45.86382002252014" lon="11.662025164326002"><ele>156.0</ele><time>2026-04-16T10:16:28Z</time></trkpt><trkpt lat="45.863970112066376" lon="11.662145846505672"><ele>158.0</ele><time>2026-04-16T10:16:29Z</time></trkpt><trkpt lat="45.864117195607136" lon="11.662275529844191"><ele>160.0</ele><time>2026-04-16T10:16:30Z</time></trkpt><trkpt lat="45.86425307657124" lon="11.662400550418882"><ele>159.0</ele><time>2026-04-16T10:16:31Z</time></trkpt><trkpt lat="45.86438703459234" lon="11.662525420275367"><ele>158.0</ele><time>2026-04-16T10:16:32Z</time></trkpt><trkpt lat="45.864524761227955" lon="11.662655310533513"><ele>157.0</ele><time>2026-04-16T10:16:33Z</time></trkpt><trkpt lat="45.86466145367292" lon="11.662797039147561"><ele>157.0</ele><time>2026-04-16T10:16:34Z</time></trkpt><trkpt lat="45.86479563449816" lon="11.662955953468357"><ele>157.0</ele><time>2026-04-16T10:16:35Z</time></trkpt><trkpt lat="45.864925549990964" lon="11.663132217943499"><ele>157.0</ele><time>2026-04-16T10:16:36Z</time></trkpt><trkpt lat="45.86505481781291" lon="11.6633226527002"><ele>155.0</ele><time>2026-04-16T10:16:37Z</time></trkpt><trkpt lat="45.86517914584251" lon="11.663524912359863"><ele>153.0</ele><time>2026-04-16T10:16:38Z</time></trkpt><trkpt lat="45.86529330149927" lon="11.663720694126768"><ele>151.0</ele><time>2026-04-16T10:16:39Z</time></trkpt><trkpt lat="45.865400897730495" lon="11.663912136973057"><ele>151.0</ele><time>2026-04-16T10:16:40Z</time></trkpt><trkpt lat="45.86550706925324" lon="11.664099651783122"><ele>151.0</ele><time>2026-04-16T10:16:41Z</time></trkpt><trkpt lat="45.86561110661946" lon="11.664288248268223"><ele>151.0</ele><time>2026-04-16T10:16:42Z</time></trkpt><trkpt lat="45.86571473225858" lon="11.664474908307952"><ele>151.66666666666669</ele><time>2026-04-16T10:16:43Z</time></trkpt><trkpt lat="45.86581699631017" lon="11.664649775262582"><ele>152.33333333333334</ele><time>2026-04-16T10:16:44Z</time></trkpt><trkpt lat="45.86592469753111" lon="11.664819673469216"><ele>153.0</ele><time>2026-04-16T10:16:45Z</time></trkpt><trkpt lat="45.866051420292344" lon="11.664993115156923"><ele>153.0</ele><time>2026-04-16T10:16:46Z</time></trkpt><trkpt lat="45.86621277334618" lon="11.665190221378793"><ele>153.0</ele><time>2026-04-16T10:16:47Z</time></trkpt><trkpt lat="45.86639378080694" lon="11.665403837861337"><ele>153.0</ele><time>2026-04-16T10:16:48Z</time></trkpt><trkpt lat="45.866588398977626" lon="11.66563261499389"><ele>155.5</ele><time>2026-04-16T10:16:49Z</time></trkpt><trkpt lat="45.866770634638776" lon="11.665841330286552"><ele>158.0</ele><time>2026-04-16T10:16:50Z</time></trkpt><trkpt lat="45.86695839057777" lon="11.666062246929222"><ele>165.0</ele><time>2026-04-16T10:16:51Z</time></trkpt><trkpt lat="45.86716530018787" lon="11.666308667814091"><ele>172.0</ele><time>2026-04-16T10:16:52Z</time></trkpt><trkpt lat="45.867386165686284" lon="11.666565395943733"><ele>168.0</ele><time>2026-04-16T10:16:53Z</time></trkpt><trkpt lat="45.86761477175122" lon="11.66683102745963"><ele>164.0</ele><time>2026-04-16T10:16:54Z</time></trkpt><trkpt lat="45.86784404087514" lon="11.667110581009355"><ele>164.0</ele><time>2026-04-16T10:16:55Z</time></trkpt><trkpt lat="45.868077232122516" lon="11.667410892566068"><ele>164.0</ele><time>2026-04-16T10:16:56Z</time></trkpt><trkpt lat="45.86830925802488" lon="11.66772787983227"><ele>160.0</ele><time>2026-04-16T10:16:57Z</time></trkpt><trkpt lat="45.86854094802465" lon="11.66805947193612"><ele>156.0</ele><time>2026-04-16T10:16:58Z</time></trkpt><trkpt lat="45.86877619858669" lon="11.66839813269489"><ele>164.5</ele><time>2026-04-16T10:16:59Z</time></trkpt><trkpt lat="45.86899835930611" lon="11.668714608282285"><ele>173.0</ele><time>2026-04-16T10:17:00Z</time></trkpt><trkpt lat="45.869207977573595" lon="11.66901498847957"><ele>169.5</ele><time>2026-04-16T10:17:01Z</time></trkpt><trkpt lat="45.86942253665173" lon="11.669319099030252"><ele>166.0</ele><time>2026-04-16T10:17:02Z</time></trkpt><trkpt lat="45.86964056238025" lon="11.669637971818656"><ele>166.0</ele><time>2026-04-16T10:17:03Z</time></trkpt><trkpt lat="45.869865326939774" lon="11.669958806124237"><ele>166.0</ele><time>2026-04-16T10:17:04Z</time></trkpt><trkpt lat="45.87010105076715" lon="11.670294597479735"><ele>162.5</ele><time>2026-04-16T10:17:05Z</time></trkpt><trkpt lat="45.87034242813931" lon="11.670641803456771"><ele>159.0</ele><time>2026-04-16T10:17:06Z</time></trkpt><trkpt lat="45.87058800866591" lon="11.670998110190645"><ele>158.0</ele><time>2026-04-16T10:17:07Z</time></trkpt><trkpt lat="45.87083035434481" lon="11.671351036558441"><ele>157.0</ele><time>2026-04-16T10:17:08Z</time></trkpt><trkpt lat="45.87105723857078" lon="11.671671041102774"><ele>159.0</ele><time>2026-04-16T10:17:09Z</time></trkpt><trkpt lat="45.87126005356602" lon="11.671967700060987"><ele>161.0</ele><time>2026-04-16T10:17:10Z</time></trkpt><trkpt lat="45.871449041795145" lon="11.672242355241641"><ele>161.0</ele><time>2026-04-16T10:17:11Z</time></trkpt><trkpt lat="45.87163966423109" lon="11.67249727436011"><ele>161.0</ele><time>2026-04-16T10:17:12Z</time></trkpt><trkpt lat="45.87181007968053" lon="11.672765565431293"><ele>158.5</ele><time>2026-04-16T10:17:13Z</time></trkpt><trkpt lat="45.87195086235457" lon="11.673031871927947"><ele>156.0</ele><time>2026-04-16T10:17:14Z</time></trkpt><trkpt lat="45.87207015514858" lon="11.673302854442595"><ele>156.0</ele><time>2026-04-16T10:17:15Z</time></trkpt><trkpt lat="45.872175085331364" lon="11.673591504237992"><ele>156.0</ele><time>2026-04-16T10:17:16Z</time></trkpt><trkpt lat="45.872266001142215" lon="11.67388894056381"><ele>158.0</ele><time>2026-04-16T10:17:17Z</time></trkpt><trkpt lat="45.8723423458865" lon="11.674204733495424"><ele>160.0</ele><time>2026-04-16T10:17:18Z</time></trkpt><trkpt lat="45.87240628827829" lon="11.674522993369555"><ele>163.0</ele><time>2026-04-16T10:17:19Z</time></trkpt><trkpt lat="45.87248736600165" lon="11.674816102302081"><ele>166.0</ele><time>2026-04-16T10:17:20Z</time></trkpt><trkpt lat="45.872602111946335" lon="11.675110615955251"><ele>168.0</ele><time>2026-04-16T10:17:21Z</time></trkpt><trkpt lat="45.872741038060624" lon="11.675411463193395"><ele>170.0</ele><time>2026-04-16T10:17:22Z</time></trkpt><trkpt lat="45.872899442731345" lon="11.675691384874023"><ele>170.0</ele><time>2026-04-16T10:17:23Z</time></trkpt><trkpt lat="45.873029530563315" lon="11.675980031004592"><ele>170.0</ele><time>2026-04-16T10:17:24Z</time></trkpt><trkpt lat="45.87326118092563" lon="11.676151636387177"><ele>178.5</ele><time>2026-04-16T10:17:25Z</time></trkpt><trkpt lat="45.87346946639029" lon="11.676357147976507"><ele>187.0</ele><time>2026-04-16T10:17:26Z</time></trkpt><trkpt lat="45.873697374232435" lon="11.676552498394697"><ele>187.0</ele><time>2026-04-16T10:17:27Z</time></trkpt><trkpt lat="45.873947350976195" lon="11.676734945659723"><ele>187.0</ele><time>2026-04-16T10:17:28Z</time></trkpt><trkpt lat="45.874207560280716" lon="11.676924945256882"><ele>208.0</ele><time>2026-04-16T10:17:29Z</time></trkpt><trkpt lat="45.8744399084541" lon="11.677107986732667"><ele>229.0</ele><time>2026-04-16T10:17:30Z</time></trkpt><trkpt lat="45.87465738560336" lon="11.67727241957587"><ele>229.0</ele><time>2026-04-16T10:17:31Z</time></trkpt><trkpt lat="45.87487455727079" lon="11.677403460560171"><ele>229.0</ele><time>2026-04-16T10:17:32Z</time></trkpt><trkpt lat="45.87510212193772" lon="11.67750655779249"><ele>202.5</ele><time>2026-04-16T10:17:33Z</time></trkpt><trkpt lat="45.875329212919624" lon="11.677602390419075"><ele>176.0</ele><time>2026-04-16T10:17:34Z</time></trkpt><trkpt lat="45.875556390244185" lon="11.677724141637642"><ele>176.0</ele><time>2026-04-16T10:17:35Z</time></trkpt><trkpt lat="45.87580012513701" lon="11.67787355131248"><ele>176.0</ele><time>2026-04-16T10:17:36Z</time></trkpt><trkpt lat="45.87604988834732" lon="11.678042744727628"><ele>176.0</ele><time>2026-04-16T10:17:37Z</time></trkpt><trkpt lat="45.876281650279175" lon="11.678207002992256"><ele>176.0</ele><time>2026-04-16T10:17:38Z</time></trkpt><trkpt lat="45.876499243578444" lon="11.678357151194566"><ele>176.0</ele><time>2026-04-16T10:17:39Z</time></trkpt><trkpt lat="45.87671597372703" lon="11.678510185184678"><ele>176.0</ele><time>2026-04-16T10:17:40Z</time></trkpt><trkpt lat="45.876932434841976" lon="11.678685882543459"><ele>179.0</ele><time>2026-04-16T10:17:41Z</time></trkpt><trkpt lat="45.877155558991255" lon="11.678884447661266"><ele>182.0</ele><time>2026-04-16T10:17:42Z</time></trkpt><trkpt lat="45.87737638037388" lon="11.679093903124013"><ele>182.0</ele><time>2026-04-16T10:17:43Z</time></trkpt><trkpt lat="45.87759154577672" lon="11.679276067478934"><ele>182.0</ele><time>2026-04-16T10:17:44Z</time></trkpt><trkpt lat="45.87779924421019" lon="11.679439822482028"><ele>183.33333333333331</ele><time>2026-04-16T10:17:45Z</time></trkpt><trkpt lat="45.87799735617886" lon="11.679584389809593"><ele>184.66666666666666</ele><time>2026-04-16T10:17:46Z</time></trkpt><trkpt lat="45.87820147109839" lon="11.679700328280111"><ele>186.0</ele><time>2026-04-16T10:17:47Z</time></trkpt><trkpt lat="45.87840403329627" lon="11.679794025940275"><ele>180.0</ele><time>2026-04-16T10:17:48Z</time></trkpt><trkpt lat="45.87858653887009" lon="11.679869166577651"><ele>174.0</ele><time>2026-04-16T10:17:49Z</time></trkpt><trkpt lat="45.87875006434875" lon="11.67993001378135"><ele>168.0</ele><time>2026-04-16T10:17:50Z</time></trkpt><trkpt lat="45.87890982388675" lon="11.679978153280983"><ele>168.0</ele><time>2026-04-16T10:17:51Z</time></trkpt><trkpt lat="45.87906630077233" lon="11.680008943276945"><ele>168.0</ele><time>2026-04-16T10:17:52Z</time></trkpt><trkpt lat="45.87922115682605" lon="11.68003832755302"><ele>168.0</ele><time>2026-04-16T10:17:53Z</time></trkpt><trkpt lat="45.87937721024967" lon="11.680071989476025"><ele>166.33333333333334</ele><time>2026-04-16T10:17:54Z</time></trkpt><trkpt lat="45.87953147951676" lon="11.680110513770355"><ele>164.66666666666669</ele><time>2026-04-16T10:17:55Z</time></trkpt><trkpt lat="45.879686128755296" lon="11.680151890898204"><ele>163.0</ele><time>2026-04-16T10:17:56Z</time></trkpt><trkpt lat="45.879848029787524" lon="11.680202994128743"><ele>164.0</ele><time>2026-04-16T10:17:57Z</time></trkpt><trkpt lat="45.880038021250535" lon="11.680280752036458"><ele>165.0</ele><time>2026-04-16T10:17:58Z</time></trkpt><trkpt lat="45.88024775523787" lon="11.680378764316817"><ele>166.0</ele><time>2026-04-16T10:17:59Z</time></trkpt><trkpt lat="45.88047915472564" lon="11.680494738272621"><ele>166.0</ele><time>2026-04-16T10:18:00Z</time></trkpt><trkpt lat="45.88073046540885" lon="11.680630096337143"><ele>166.0</ele><time>2026-04-16T10:18:01Z</time></trkpt><trkpt lat="45.880961476111246" lon="11.680766291421332"><ele>166.0</ele><time>2026-04-16T10:18:02Z</time></trkpt><trkpt lat="45.88119997845512" lon="11.68092727472539"><ele>166.0</ele><time>2026-04-16T10:18:03Z</time></trkpt><trkpt lat="45.881455171531314" lon="11.68111932521377"><ele>166.0</ele><time>2026-04-16T10:18:04Z</time></trkpt><trkpt lat="45.88171243226166" lon="11.681343932844985"><ele>166.0</ele><time>2026-04-16T10:18:05Z</time></trkpt><trkpt lat="45.88197221422188" lon="11.6815932276074"><ele>164.0</ele><time>2026-04-16T10:18:06Z</time></trkpt><trkpt lat="45.882239045502004" lon="11.681865727805006"><ele>162.0</ele><time>2026-04-16T10:18:07Z</time></trkpt><trkpt lat="45.88251310307746" lon="11.682154467466566"><ele>161.5</ele><time>2026-04-16T10:18:08Z</time></trkpt><trkpt lat="45.882799672684385" lon="11.682454434072008"><ele>161.0</ele><time>2026-04-16T10:18:09Z</time></trkpt><trkpt lat="45.88309260984837" lon="11.682768123363372"><ele>162.0</ele><time>2026-04-16T10:18:10Z</time></trkpt><trkpt lat="45.88338898894271" lon="11.683094433153174"><ele>163.0</ele><time>2026-04-16T10:18:11Z</time></trkpt><trkpt lat="45.883675117689805" lon="11.683407880115467"><ele>174.0</ele><time>2026-04-16T10:18:12Z</time></trkpt><trkpt lat="45.88394308863014" lon="11.683693937542355"><ele>185.0</ele><time>2026-04-16T10:18:13Z</time></trkpt><trkpt lat="45.88422164010055" lon="11.683999011399143"><ele>184.5</ele><time>2026-04-16T10:18:14Z</time></trkpt><trkpt lat="45.88450980776886" lon="11.684306930410127"><ele>184.0</ele><time>2026-04-16T10:18:15Z</time></trkpt><trkpt lat="45.8847708717756" lon="11.684587117151661"><ele>184.0</ele><time>2026-04-16T10:18:16Z</time></trkpt><trkpt lat="45.88501716634707" lon="11.684848255382999"><ele>184.0</ele><time>2026-04-16T10:18:17Z</time></trkpt><trkpt lat="45.88527299993422" lon="11.685115735980613"><ele>179.5</ele><time>2026-04-16T10:18:18Z</time></trkpt><trkpt lat="45.88554182664306" lon="11.685400844009779"><ele>175.0</ele><time>2026-04-16T10:18:19Z</time></trkpt><trkpt lat="45.88580615432109" lon="11.685690315934801"><ele>174.0</ele><time>2026-04-16T10:18:20Z</time></trkpt><trkpt lat="45.88605074796256" lon="11.685959877924356"><ele>173.0</ele><time>2026-04-16T10:18:20.999Z</time></trkpt><trkpt lat="45.886313442575386" lon="11.686228365439385"><ele>173.0</ele><time>2026-04-16T10:18:22Z</time></trkpt><trkpt lat="45.88659019600117" lon="11.686500590977735"><ele>173.0</ele><time>2026-04-16T10:18:23Z</time></trkpt><trkpt lat="45.88686382187841" lon="11.68676030013317"><ele>176.5</ele><time>2026-04-16T10:18:24Z</time></trkpt><trkpt lat="45.887107063323974" lon="11.686987690056467"><ele>180.0</ele><time>2026-04-16T10:18:25Z</time></trkpt><trkpt lat="45.88734561396388" lon="11.687209418194705"><ele>176.5</ele><time>2026-04-16T10:18:26Z</time></trkpt><trkpt lat="45.887595286146755" lon="11.687448483238006"><ele>173.0</ele><time>2026-04-16T10:18:27Z</time></trkpt><trkpt lat="45.88784617375395" lon="11.687688346146258"><ele>176.5</ele><time>2026-04-16T10:18:28Z</time></trkpt><trkpt lat="45.888094978215044" lon="11.687929623107138"><ele>180.0</ele><time>2026-04-16T10:18:29Z</time></trkpt><trkpt lat="45.88833876488746" lon="11.688180275861173"><ele>184.0</ele><time>2026-04-16T10:18:30Z</time></trkpt><trkpt lat="45.88857580300049" lon="11.688434081600295"><ele>188.0</ele><time>2026-04-16T10:18:31Z</time></trkpt><trkpt lat="45.88880677888717" lon="11.688681619623242"><ele>188.0</ele><time>2026-04-16T10:18:32Z</time></trkpt><trkpt lat="45.88903491175947" lon="11.688916690451359"><ele>188.0</ele><time>2026-04-16T10:18:33Z</time></trkpt><trkpt lat="45.8892561214784" lon="11.689146381408719"><ele>188.0</ele><time>2026-04-16T10:18:34Z</time></trkpt><trkpt lat="45.88946579627624" lon="11.689366190318077"><ele>188.0</ele><time>2026-04-16T10:18:35Z</time></trkpt><trkpt lat="45.88968541321831" lon="11.689591150044558"><ele>188.0</ele><time>2026-04-16T10:18:36Z</time></trkpt><trkpt lat="45.88991287075542" lon="11.689809437877088"><ele>188.0</ele><time>2026-04-16T10:18:37Z</time></trkpt><trkpt lat="45.890136841375636" lon="11.690009595360271"><ele>185.5</ele><time>2026-04-16T10:18:38Z</time></trkpt><trkpt lat="45.890360013504036" lon="11.69018118731804"><ele>183.0</ele><time>2026-04-16T10:18:39Z</time></trkpt><trkpt lat="45.890593202209146" lon="11.690349024079921"><ele>183.0</ele><time>2026-04-16T10:18:40Z</time></trkpt><trkpt lat="45.89081236244252" lon="11.690498929794524"><ele>183.0</ele><time>2026-04-16T10:18:41Z</time></trkpt><trkpt lat="45.891017968710266" lon="11.690637448961505"><ele>179.66666666666666</ele><time>2026-04-16T10:18:42Z</time></trkpt><trkpt lat="45.89121405391905" lon="11.690766813662963"><ele>176.33333333333331</ele><time>2026-04-16T10:18:43Z</time></trkpt><trkpt lat="45.89140733265029" lon="11.690885699214462"><ele>173.0</ele><time>2026-04-16T10:18:44Z</time></trkpt><trkpt lat="45.89160910104874" lon="11.690988995552843"><ele>171.33333333333331</ele><time>2026-04-16T10:18:45Z</time></trkpt><trkpt lat="45.891820100017014" lon="11.69107107648961"><ele>169.66666666666666</ele><time>2026-04-16T10:18:46Z</time></trkpt><trkpt lat="45.89202743016784" lon="11.69112827216264"><ele>168.0</ele><time>2026-04-16T10:18:47Z</time></trkpt><trkpt lat="45.89224288381561" lon="11.69116325704636"><ele>170.5</ele><time>2026-04-16T10:18:48Z</time></trkpt><trkpt lat="45.89246914855855" lon="11.691179757802814"><ele>173.0</ele><time>2026-04-16T10:18:49Z</time></trkpt><trkpt lat="45.892699929953835" lon="11.691172439272865"><ele>173.0</ele><time>2026-04-16T10:18:50Z</time></trkpt><trkpt lat="45.892942102269686" lon="11.691140945073592"><ele>173.0</ele><time>2026-04-16T10:18:51Z</time></trkpt><trkpt lat="45.893200411768916" lon="11.691087528922623"><ele>173.0</ele><time>2026-04-16T10:18:52Z</time></trkpt><trkpt lat="45.893474737510836" lon="11.691022079196303"><ele>173.0</ele><time>2026-04-16T10:18:53Z</time></trkpt><trkpt lat="45.893740579929094" lon="11.690966411127464"><ele>173.0</ele><time>2026-04-16T10:18:54Z</time></trkpt><trkpt lat="45.89398893256928" lon="11.69091591793192"><ele>173.0</ele><time>2026-04-16T10:18:55Z</time></trkpt><trkpt lat="45.89423294712258" lon="11.690866105517966"><ele>174.5</ele><time>2026-04-16T10:18:56Z</time></trkpt><trkpt lat="45.89447910628587" lon="11.690819968894884"><ele>176.0</ele><time>2026-04-16T10:18:57Z</time></trkpt><trkpt lat="45.89471481570404" lon="11.690784636396495"><ele>176.0</ele><time>2026-04-16T10:18:58Z</time></trkpt><trkpt lat="45.894950353755696" lon="11.690756513677554"><ele>176.0</ele><time>2026-04-16T10:18:59Z</time></trkpt><trkpt lat="45.89518732726102" lon="11.690744747531214"><ele>176.5</ele><time>2026-04-16T10:19:00Z</time></trkpt><trkpt lat="45.89544051671544" lon="11.690748168196006"><ele>177.0</ele><time>2026-04-16T10:19:01Z</time></trkpt><trkpt lat="45.895714428838346" lon="11.690756369576155"><ele>176.5</ele><time>2026-04-16T10:19:02Z</time></trkpt><trkpt lat="45.89599018926439" lon="11.690774124106266"><ele>176.0</ele><time>2026-04-16T10:19:03Z</time></trkpt><trkpt lat="45.89623947594151" lon="11.690785662886455"><ele>176.0</ele><time>2026-04-16T10:19:04Z</time></trkpt><trkpt lat="45.896476495526876" lon="11.690803023507046"><ele>176.0</ele><time>2026-04-16T10:19:05Z</time></trkpt><trkpt lat="45.8967040268426" lon="11.690821815973475"><ele>174.33333333333331</ele><time>2026-04-16T10:19:06Z</time></trkpt><trkpt lat="45.896926254965194" lon="11.690846927421754"><ele>172.66666666666666</ele><time>2026-04-16T10:19:07Z</time></trkpt><trkpt lat="45.897140028169986" lon="11.690895514225014"><ele>171.0</ele><time>2026-04-16T10:19:08Z</time></trkpt><trkpt lat="45.89734493531022" lon="11.690968935870453"><ele>171.0</ele><time>2026-04-16T10:19:09Z</time></trkpt><trkpt lat="45.8975433735354" lon="11.691057069517091"><ele>171.0</ele><time>2026-04-16T10:19:10Z</time></trkpt><trkpt lat="45.897733884230306" lon="11.691165136358935"><ele>171.0</ele><time>2026-04-16T10:19:11Z</time></trkpt><trkpt lat="45.897917254386314" lon="11.691293679209041"><ele>171.33333333333334</ele><time>2026-04-16T10:19:12Z</time></trkpt><trkpt lat="45.89808973070232" lon="11.691441438704505"><ele>171.66666666666669</ele><time>2026-04-16T10:19:13Z</time></trkpt><trkpt lat="45.89825843715097" lon="11.691602225043919"><ele>172.0</ele><time>2026-04-16T10:19:14Z</time></trkpt><trkpt lat="45.89842043694233" lon="11.691780904841103"><ele>173.0</ele><time>2026-04-16T10:19:15Z</time></trkpt><trkpt lat="45.89857723894899" lon="11.691978077959432"><ele>174.0</ele><time>2026-04-16T10:19:16Z</time></trkpt><trkpt lat="45.89872942818943" lon="11.692202609071087"><ele>175.0</ele><time>2026-04-16T10:19:17Z</time></trkpt><trkpt lat="45.89887295900227" lon="11.692445303432384"><ele>175.0</ele><time>2026-04-16T10:19:18Z</time></trkpt><trkpt lat="45.89899812623245" lon="11.692693897352456"><ele>175.0</ele><time>2026-04-16T10:19:19Z</time></trkpt><trkpt lat="45.89910588993176" lon="11.692953921960003"><ele>175.0</ele><time>2026-04-16T10:19:20Z</time></trkpt><trkpt lat="45.89919840526998" lon="11.693227621365201"><ele>175.0</ele><time>2026-04-16T10:19:21Z</time></trkpt><trkpt lat="45.89928083078359" lon="11.693519084180993"><ele>175.0</ele><time>2026-04-16T10:19:22Z</time></trkpt><trkpt lat="45.89935197217859" lon="11.693824870449072"><ele>175.0</ele><time>2026-04-16T10:19:23Z</time></trkpt><trkpt lat="45.89941339896748" lon="11.694148172056913"><ele>174.5</ele><time>2026-04-16T10:19:24Z</time></trkpt><trkpt lat="45.89947120540129" lon="11.69450363996525"><ele>174.0</ele><time>2026-04-16T10:19:25Z</time></trkpt><trkpt lat="45.89952721271485" lon="11.694862671652151"><ele>174.0</ele><time>2026-04-16T10:19:26Z</time></trkpt><trkpt lat="45.89958259688434" lon="11.695185904377727"><ele>174.0</ele><time>2026-04-16T10:19:27Z</time></trkpt><trkpt lat="45.89963452018084" lon="11.695494243122573"><ele>174.0</ele><time>2026-04-16T10:19:28Z</time></trkpt><trkpt lat="45.89968513685937" lon="11.69578880357278"><ele>174.0</ele><time>2026-04-16T10:19:29Z</time></trkpt><trkpt lat="45.899735181343125" lon="11.696075090225744"><ele>174.0</ele><time>2026-04-16T10:19:30Z</time></trkpt><trkpt lat="45.89978259503181" lon="11.696352515036315"><ele>174.33333333333334</ele><time>2026-04-16T10:19:31Z</time></trkpt><trkpt lat="45.89982814783217" lon="11.696613466516947"><ele>174.66666666666669</ele><time>2026-04-16T10:19:32Z</time></trkpt><trkpt lat="45.89987232681988" lon="11.696862584252749"><ele>175.0</ele><time>2026-04-16T10:19:33Z</time></trkpt><trkpt lat="45.89991685088539" lon="11.697112189370229"><ele>175.0</ele><time>2026-04-16T10:19:34Z</time></trkpt><trkpt lat="45.899972325672266" lon="11.697365175601094"><ele>175.0</ele><time>2026-04-16T10:19:35Z</time></trkpt><trkpt lat="45.90004263886571" lon="11.697630272218426"><ele>175.0</ele><time>2026-04-16T10:19:36Z</time></trkpt><trkpt lat="45.900110846264745" lon="11.69790944336505"><ele>175.0</ele><time>2026-04-16T10:19:37Z</time></trkpt><trkpt lat="45.900173051362046" lon="11.698207565188413"><ele>175.0</ele><time>2026-04-16T10:19:38Z</time></trkpt><trkpt lat="45.900242412101775" lon="11.698534435796342"><ele>174.66666666666669</ele><time>2026-04-16T10:19:39Z</time></trkpt><trkpt lat="45.900314544078064" lon="11.698856404126872"><ele>174.33333333333334</ele><time>2026-04-16T10:19:40Z</time></trkpt><trkpt lat="45.90037839153612" lon="11.699146382438707"><ele>174.0</ele><time>2026-04-16T10:19:41Z</time></trkpt><trkpt lat="45.90044127681193" lon="11.699419039518633"><ele>174.0</ele><time>2026-04-16T10:19:42Z</time></trkpt><trkpt lat="45.9005023099566" lon="11.699676719854127"><ele>174.0</ele><time>2026-04-16T10:19:43Z</time></trkpt><trkpt lat="45.900558935437545" lon="11.699920593626807"><ele>174.0</ele><time>2026-04-16T10:19:44Z</time></trkpt><trkpt lat="45.90061602170828" lon="11.700159454329967"><ele>174.0</ele><time>2026-04-16T10:19:45Z</time></trkpt><trkpt lat="45.90067511701762" lon="11.700400193756545"><ele>174.0</ele><time>2026-04-16T10:19:46Z</time></trkpt><trkpt lat="45.900734083634966" lon="11.700646205192273"><ele>174.0</ele><time>2026-04-16T10:19:47Z</time></trkpt><trkpt lat="45.900792451565316" lon="11.700894824908717"><ele>174.33333333333334</ele><time>2026-04-16T10:19:48Z</time></trkpt><trkpt lat="45.900856961233025" lon="11.701163938987913"><ele>174.66666666666669</ele><time>2026-04-16T10:19:49Z</time></trkpt><trkpt lat="45.900922137900274" lon="11.701454080312951"><ele>175.0</ele><time>2026-04-16T10:19:50Z</time></trkpt><trkpt lat="45.900989547867376" lon="11.701754295594943"><ele>175.5</ele><time>2026-04-16T10:19:51Z</time></trkpt><trkpt lat="45.90105995211923" lon="11.7020645035362"><ele>176.0</ele><time>2026-04-16T10:19:52Z</time></trkpt><trkpt lat="45.90113091620972" lon="11.702379127068028"><ele>176.0</ele><time>2026-04-16T10:19:53Z</time></trkpt><trkpt lat="45.90119956409879" lon="11.702678614927567"><ele>176.0</ele><time>2026-04-16T10:19:54Z</time></trkpt><trkpt lat="45.90126932886236" lon="11.70297085316266"><ele>176.0</ele><time>2026-04-16T10:19:55Z</time></trkpt><trkpt lat="45.901341365027974" lon="11.703248592795877"><ele>177.0</ele><time>2026-04-16T10:19:56Z</time></trkpt><trkpt lat="45.90140939468095" lon="11.703508177272488"><ele>178.0</ele><time>2026-04-16T10:19:57Z</time></trkpt><trkpt lat="45.90147766762482" lon="11.703765283659708"><ele>179.0</ele><time>2026-04-16T10:19:58Z</time></trkpt><trkpt lat="45.90154571121988" lon="11.704014191073854"><ele>179.66666666666666</ele><time>2026-04-16T10:19:59Z</time></trkpt><trkpt lat="45.90160925487676" lon="11.704254209608798"><ele>180.33333333333334</ele><time>2026-04-16T10:20:00Z</time></trkpt><trkpt lat="45.9016734761832" lon="11.704508176513526"><ele>181.0</ele><time>2026-04-16T10:20:01Z</time></trkpt><trkpt lat="45.901733830298824" lon="11.704782801672167"><ele>181.0</ele><time>2026-04-16T10:20:02Z</time></trkpt><trkpt lat="45.901784372327384" lon="11.705044810421429"><ele>181.0</ele><time>2026-04-16T10:20:03Z</time></trkpt><trkpt lat="45.90182519966162" lon="11.705297183285708"><ele>181.0</ele><time>2026-04-16T10:20:04Z</time></trkpt><trkpt lat="45.90186554810031" lon="11.705547703273728"><ele>178.66666666666669</ele><time>2026-04-16T10:20:05Z</time></trkpt><trkpt lat="45.901905756096504" lon="11.705784817273148"><ele>176.33333333333334</ele><time>2026-04-16T10:20:06Z</time></trkpt><trkpt lat="45.90194475555121" lon="11.706015202739586"><ele>174.0</ele><time>2026-04-16T10:20:07Z</time></trkpt><trkpt lat="45.901980178953536" lon="11.706245275152465"><ele>174.0</ele><time>2026-04-16T10:20:08Z</time></trkpt><trkpt lat="45.90201324466232" lon="11.706463700580196"><ele>174.0</ele><time>2026-04-16T10:20:09Z</time></trkpt><trkpt lat="45.90204683229791" lon="11.706676163803525"><ele>174.0</ele><time>2026-04-16T10:20:10Z</time></trkpt><trkpt lat="45.90208509775153" lon="11.706907191580564"><ele>175.0</ele><time>2026-04-16T10:20:11Z</time></trkpt><trkpt lat="45.90212749538869" lon="11.707165248062418"><ele>176.0</ele><time>2026-04-16T10:20:12Z</time></trkpt><trkpt lat="45.902170276448835" lon="11.707430370790963"><ele>177.0</ele><time>2026-04-16T10:20:13Z</time></trkpt><trkpt lat="45.90220895972809" lon="11.707679911489794"><ele>178.66666666666666</ele><time>2026-04-16T10:20:14Z</time></trkpt><trkpt lat="45.90224883110451" lon="11.707930822095411"><ele>180.33333333333331</ele><time>2026-04-16T10:20:15Z</time></trkpt><trkpt lat="45.90228789795009" lon="11.708184711407027"><ele>182.0</ele><time>2026-04-16T10:20:16Z</time></trkpt><trkpt lat="45.902326341079615" lon="11.708442743084976"><ele>186.66666666666666</ele><time>2026-04-16T10:20:17Z</time></trkpt><trkpt lat="45.90236529411062" lon="11.708700971543266"><ele>191.33333333333331</ele><time>2026-04-16T10:20:18Z</time></trkpt><trkpt lat="45.90240482030434" lon="11.708964770329775"><ele>196.0</ele><time>2026-04-16T10:20:19Z</time></trkpt><trkpt lat="45.902435377597634" lon="11.709220526255326"><ele>195.33333333333331</ele><time>2026-04-16T10:20:20Z</time></trkpt><trkpt lat="45.90245915435262" lon="11.709463516068539"><ele>194.66666666666669</ele><time>2026-04-16T10:20:21Z</time></trkpt><trkpt lat="45.90247714184475" lon="11.709713237854137"><ele>194.0</ele><time>2026-04-16T10:20:21.999Z</time></trkpt><trkpt lat="45.90250009625375" lon="11.709970663313197"><ele>194.0</ele><time>2026-04-16T10:20:22.999Z</time></trkpt><trkpt lat="45.90252398138018" lon="11.710231362899714"><ele>194.0</ele><time>2026-04-16T10:20:23.999Z</time></trkpt><trkpt lat="45.9025528766522" lon="11.71049721916897"><ele>194.0</ele><time>2026-04-16T10:20:24.999Z</time></trkpt><trkpt lat="45.902582613617696" lon="11.71075252706412"><ele>188.33333333333334</ele><time>2026-04-16T10:20:25.999Z</time></trkpt><trkpt lat="45.90260987261919" lon="11.710992853501544"><ele>182.66666666666669</ele><time>2026-04-16T10:20:26.999Z</time></trkpt><trkpt lat="45.90263762773828" lon="11.7112212563312"><ele>177.0</ele><time>2026-04-16T10:20:28Z</time></trkpt><trkpt lat="45.90266892481346" lon="11.711448637041489"><ele>176.66666666666666</ele><time>2026-04-16T10:20:29Z</time></trkpt><trkpt lat="45.902700774969254" lon="11.711679364411477"><ele>176.33333333333331</ele><time>2026-04-16T10:20:30Z</time></trkpt><trkpt lat="45.90273528085374" lon="11.711912463762763"><ele>176.0</ele><time>2026-04-16T10:20:31Z</time></trkpt><trkpt lat="45.90277165603154" lon="11.712141938750806"><ele>176.66666666666666</ele><time>2026-04-16T10:20:32Z</time></trkpt><trkpt lat="45.90280705227532" lon="11.712366928264842"><ele>177.33333333333334</ele><time>2026-04-16T10:20:33Z</time></trkpt><trkpt lat="45.902843613449384" lon="11.712594364608906"><ele>178.0</ele><time>2026-04-16T10:20:34Z</time></trkpt><trkpt lat="45.90288948935357" lon="11.712819049134836"><ele>179.33333333333334</ele><time>2026-04-16T10:20:35Z</time></trkpt><trkpt lat="45.902940219071866" lon="11.713045059902486"><ele>180.66666666666666</ele><time>2026-04-16T10:20:36Z</time></trkpt><trkpt lat="45.90299794083411" lon="11.71326969105349"><ele>182.0</ele><time>2026-04-16T10:20:37Z</time></trkpt><trkpt lat="45.903071844932036" lon="11.713489716034628"><ele>184.0</ele><time>2026-04-16T10:20:38Z</time></trkpt><trkpt lat="45.90316055184994" lon="11.71371103508623"><ele>186.0</ele><time>2026-04-16T10:20:39Z</time></trkpt><trkpt lat="45.90327279291895" lon="11.713946171626402"><ele>188.0</ele><time>2026-04-16T10:20:40Z</time></trkpt><trkpt lat="45.90338671624419" lon="11.714158896325372"><ele>186.33333333333331</ele><time>2026-04-16T10:20:41Z</time></trkpt><trkpt lat="45.903499102961035" lon="11.71435834335198"><ele>184.66666666666666</ele><time>2026-04-16T10:20:42Z</time></trkpt><trkpt lat="45.90361657262811" lon="11.71454987598521"><ele>183.0</ele><time>2026-04-16T10:20:43Z</time></trkpt><trkpt lat="45.9037297097917" lon="11.714725788997276"><ele>183.0</ele><time>2026-04-16T10:20:44Z</time></trkpt><trkpt lat="45.90384094926784" lon="11.714895631780834"><ele>183.0</ele><time>2026-04-16T10:20:45Z</time></trkpt><trkpt lat="45.90395529943615" lon="11.715067575350785"><ele>183.0</ele><time>2026-04-16T10:20:46Z</time></trkpt><trkpt lat="45.90406316127485" lon="11.715238341579507"><ele>182.66666666666666</ele><time>2026-04-16T10:20:47Z</time></trkpt><trkpt lat="45.904172150202015" lon="11.715404975748973"><ele>182.33333333333331</ele><time>2026-04-16T10:20:48Z</time></trkpt><trkpt lat="45.904274347207476" lon="11.715563084208933"><ele>182.0</ele><time>2026-04-16T10:20:49Z</time></trkpt><trkpt lat="45.90437326691351" lon="11.71571065175433"><ele>182.0</ele><time>2026-04-16T10:20:50Z</time></trkpt><trkpt lat="45.90446906086329" lon="11.715863625950918"><ele>182.0</ele><time>2026-04-16T10:20:51Z</time></trkpt><trkpt lat="45.904568658055375" lon="11.716018114480578"><ele>182.0</ele><time>2026-04-16T10:20:52Z</time></trkpt><trkpt lat="45.904670679283015" lon="11.716177107214564"><ele>182.0</ele><time>2026-04-16T10:20:53Z</time></trkpt><trkpt lat="45.90477094720968" lon="11.716332620227801"><ele>182.75</ele><time>2026-04-16T10:20:54Z</time></trkpt><trkpt lat="45.90486399786232" lon="11.716476678292674"><ele>183.5</ele><time>2026-04-16T10:20:55Z</time></trkpt><trkpt lat="45.90496122632677" lon="11.716629095356241"><ele>184.25</ele><time>2026-04-16T10:20:56Z</time></trkpt><trkpt lat="45.905065343896915" lon="11.716784286526599"><ele>185.0</ele><time>2026-04-16T10:20:57Z</time></trkpt><trkpt lat="45.90516803435958" lon="11.716945731025248"><ele>185.0</ele><time>2026-04-16T10:20:58Z</time></trkpt><trkpt lat="45.905267089286276" lon="11.717121127477919"><ele>185.0</ele><time>2026-04-16T10:20:59Z</time></trkpt><trkpt lat="45.905366118800195" lon="11.717318544627"><ele>185.0</ele><time>2026-04-16T10:21:00Z</time></trkpt><trkpt lat="45.90549756400647" lon="11.717553473077547"><ele>186.5</ele><time>2026-04-16T10:21:01Z</time></trkpt><trkpt lat="45.90565887248165" lon="11.717800706597883"><ele>188.0</ele><time>2026-04-16T10:21:02Z</time></trkpt><trkpt lat="45.90583713597929" lon="11.718080348911966"><ele>188.5</ele><time>2026-04-16T10:21:03Z</time></trkpt><trkpt lat="45.90603104799851" lon="11.718382793176074"><ele>189.0</ele><time>2026-04-16T10:21:04Z</time></trkpt><trkpt lat="45.90620971093128" lon="11.718666168619432"><ele>190.5</ele><time>2026-04-16T10:21:05Z</time></trkpt><trkpt lat="45.90637501001011" lon="11.718927694820367"><ele>192.0</ele><time>2026-04-16T10:21:06Z</time></trkpt><trkpt lat="45.90653691348192" lon="11.719184707228518"><ele>192.0</ele><time>2026-04-16T10:21:07Z</time></trkpt><trkpt lat="45.90670541180249" lon="11.7194430491407"><ele>192.0</ele><time>2026-04-16T10:21:08Z</time></trkpt><trkpt lat="45.90687818391329" lon="11.71970463505963"><ele>192.0</ele><time>2026-04-16T10:21:09Z</time></trkpt><trkpt lat="45.90706567986711" lon="11.719994128729681"><ele>192.0</ele><time>2026-04-16T10:21:10Z</time></trkpt><trkpt lat="45.9072649462361" lon="11.7203061304944"><ele>191.5</ele><time>2026-04-16T10:21:11Z</time></trkpt><trkpt lat="45.90744967529502" lon="11.720597147136647"><ele>191.0</ele><time>2026-04-16T10:21:12Z</time></trkpt><trkpt lat="45.907618999028365" lon="11.720862473645388"><ele>190.5</ele><time>2026-04-16T10:21:13Z</time></trkpt><trkpt lat="45.90779221774807" lon="11.72113232766274"><ele>190.0</ele><time>2026-04-16T10:21:14Z</time></trkpt><trkpt lat="45.90797951699782" lon="11.721417706167824"><ele>190.0</ele><time>2026-04-16T10:21:15Z</time></trkpt><trkpt lat="45.90816240316774" lon="11.721696746480799"><ele>190.0</ele><time>2026-04-16T10:21:16Z</time></trkpt><trkpt lat="45.908346444913924" lon="11.721981190545952"><ele>191.0</ele><time>2026-04-16T10:21:17Z</time></trkpt><trkpt lat="45.908539185757306" lon="11.72226510206761"><ele>192.0</ele><time>2026-04-16T10:21:18Z</time></trkpt><trkpt lat="45.9087434557837" lon="11.722534794574052"><ele>191.0</ele><time>2026-04-16T10:21:19Z</time></trkpt><trkpt lat="45.908965943148814" lon="11.72279160899326"><ele>190.0</ele><time>2026-04-16T10:21:20Z</time></trkpt><trkpt lat="45.90920196812148" lon="11.72303702765954"><ele>189.0</ele><time>2026-04-16T10:21:21Z</time></trkpt><trkpt lat="45.909438979284054" lon="11.72325843515279"><ele>188.0</ele><time>2026-04-16T10:21:22Z</time></trkpt><trkpt lat="45.90968323546062" lon="11.723456869724359"><ele>189.0</ele><time>2026-04-16T10:21:23Z</time></trkpt><trkpt lat="45.90994619376263" lon="11.723639860980823"><ele>190.0</ele><time>2026-04-16T10:21:24Z</time></trkpt><trkpt lat="45.91023446015968" lon="11.723814963063155"><ele>190.0</ele><time>2026-04-16T10:21:25Z</time></trkpt><trkpt lat="45.91054100008714" lon="11.723983677418056"><ele>190.0</ele><time>2026-04-16T10:21:26Z</time></trkpt><trkpt lat="45.910859950710666" lon="11.724154050177635"><ele>190.5</ele><time>2026-04-16T10:21:27Z</time></trkpt><trkpt lat="45.91119022818307" lon="11.724333119838844"><ele>191.0</ele><time>2026-04-16T10:21:28Z</time></trkpt><trkpt lat="45.91152987811601" lon="11.724518351931104"><ele>193.0</ele><time>2026-04-16T10:21:29Z</time></trkpt><trkpt lat="45.91187824043036" lon="11.724709014583444"><ele>195.0</ele><time>2026-04-16T10:21:30Z</time></trkpt><trkpt lat="45.91223248606687" lon="11.724902033369862"><ele>193.5</ele><time>2026-04-16T10:21:31Z</time></trkpt><trkpt lat="45.91259355358457" lon="11.725095337675056"><ele>192.0</ele><time>2026-04-16T10:21:32Z</time></trkpt><trkpt lat="45.91296158478505" lon="11.725290152641321"><ele>191.5</ele><time>2026-04-16T10:21:33Z</time></trkpt><trkpt lat="45.91333460314974" lon="11.725490675229295"><ele>191.0</ele><time>2026-04-16T10:21:34Z</time></trkpt><trkpt lat="45.91371197460652" lon="11.725696205432538"><ele>191.0</ele><time>2026-04-16T10:21:35Z</time></trkpt><trkpt lat="45.91409386593099" lon="11.725903940833744"><ele>191.0</ele><time>2026-04-16T10:21:36Z</time></trkpt><trkpt lat="45.91446899424599" lon="11.726104288883285"><ele>191.5</ele><time>2026-04-16T10:21:37Z</time></trkpt><trkpt lat="45.91480712430523" lon="11.726292007199428"><ele>192.0</ele><time>2026-04-16T10:21:38Z</time></trkpt><trkpt lat="45.915131555087385" lon="11.726467717722471"><ele>192.5</ele><time>2026-04-16T10:21:39Z</time></trkpt><trkpt lat="45.915469825268474" lon="11.726649461011053"><ele>193.0</ele><time>2026-04-16T10:21:40Z</time></trkpt><trkpt lat="45.91581754116579" lon="11.726834492473754"><ele>193.0</ele><time>2026-04-16T10:21:41Z</time></trkpt><trkpt lat="45.916166589965584" lon="11.727021978295573"><ele>193.0</ele><time>2026-04-16T10:21:42Z</time></trkpt><trkpt lat="45.916495686904305" lon="11.727199034503062"><ele>193.0</ele><time>2026-04-16T10:21:43Z</time></trkpt><trkpt lat="45.91679782130814" lon="11.727361924225635"><ele>193.0</ele><time>2026-04-16T10:21:44Z</time></trkpt><trkpt lat="45.91708101944338" lon="11.727516013384818"><ele>193.0</ele><time>2026-04-16T10:21:45Z</time></trkpt><trkpt lat="45.917359809889675" lon="11.72766835829715"><ele>193.0</ele><time>2026-04-16T10:21:46Z</time></trkpt><trkpt lat="45.91765038567008" lon="11.727810120852569"><ele>193.0</ele><time>2026-04-16T10:21:47Z</time></trkpt><trkpt lat="45.9179328167796" lon="11.72794258930591"><ele>193.0</ele><time>2026-04-16T10:21:48Z</time></trkpt><trkpt lat="45.918213882255294" lon="11.728054314754742"><ele>193.0</ele><time>2026-04-16T10:21:49Z</time></trkpt><trkpt lat="45.91852115992546" lon="11.728160889435445"><ele>193.0</ele><time>2026-04-16T10:21:50Z</time></trkpt><trkpt lat="45.91883798249162" lon="11.728262088244433"><ele>193.0</ele><time>2026-04-16T10:21:51Z</time></trkpt><trkpt lat="45.91914681750161" lon="11.728344446159895"><ele>193.0</ele><time>2026-04-16T10:21:52Z</time></trkpt><trkpt lat="45.9194654273002" lon="11.728411403100994"><ele>193.0</ele><time>2026-04-16T10:21:53Z</time></trkpt><trkpt lat="45.91979301241693" lon="11.728466466539464"><ele>193.0</ele><time>2026-04-16T10:21:54Z</time></trkpt><trkpt lat="45.92011977660154" lon="11.728504170348428"><ele>193.0</ele><time>2026-04-16T10:21:55Z</time></trkpt><trkpt lat="45.92044479252315" lon="11.728531232507875"><ele>193.0</ele><time>2026-04-16T10:21:56Z</time></trkpt><trkpt lat="45.920768183997076" lon="11.728538934408272"><ele>193.0</ele><time>2026-04-16T10:21:57Z</time></trkpt><trkpt lat="45.92110071702257" lon="11.728531696172354"><ele>193.0</ele><time>2026-04-16T10:21:58Z</time></trkpt><trkpt lat="45.921439184249955" lon="11.728509004428606"><ele>193.0</ele><time>2026-04-16T10:21:59Z</time></trkpt><trkpt lat="45.921779296649" lon="11.728471919939953"><ele>193.0</ele><time>2026-04-16T10:22:00Z</time></trkpt><trkpt lat="45.922118845447116" lon="11.72841856126944"><ele>193.0</ele><time>2026-04-16T10:22:01Z</time></trkpt><trkpt lat="45.92244407660984" lon="11.728361494519634"><ele>193.0</ele><time>2026-04-16T10:22:02Z</time></trkpt><trkpt lat="45.92274418515113" lon="11.728312663655828"><ele>193.0</ele><time>2026-04-16T10:22:03Z</time></trkpt><trkpt lat="45.923034259498294" lon="11.728264193732768"><ele>193.0</ele><time>2026-04-16T10:22:04Z</time></trkpt><trkpt lat="45.92330943873538" lon="11.728225608536153"><ele>193.0</ele><time>2026-04-16T10:22:05Z</time></trkpt><trkpt lat="45.92357978699544" lon="11.728180896670239"><ele>193.0</ele><time>2026-04-16T10:22:06Z</time></trkpt><trkpt lat="45.92386348640371" lon="11.728125630950284"><ele>193.0</ele><time>2026-04-16T10:22:07Z</time></trkpt><trkpt lat="45.9241401531226" lon="11.728078778144436"><ele>193.0</ele><time>2026-04-16T10:22:08Z</time></trkpt><trkpt lat="45.92440762094002" lon="11.72804390157862"><ele>193.0</ele><time>2026-04-16T10:22:09Z</time></trkpt><trkpt lat="45.92467218775237" lon="11.728016782869465"><ele>193.0</ele><time>2026-04-16T10:22:10Z</time></trkpt><trkpt lat="45.92493146063638" lon="11.728002224942568"><ele>193.0</ele><time>2026-04-16T10:22:11Z</time></trkpt><trkpt lat="45.925176970558844" lon="11.727998174092185"><ele>193.0</ele><time>2026-04-16T10:22:12Z</time></trkpt><trkpt lat="45.92542249867521" lon="11.7280102776794"><ele>193.0</ele><time>2026-04-16T10:22:13Z</time></trkpt><trkpt lat="45.92567919935277" lon="11.728041819295456"><ele>193.0</ele><time>2026-04-16T10:22:14Z</time></trkpt><trkpt lat="45.925942442846576" lon="11.728091378022615"><ele>193.0</ele><time>2026-04-16T10:22:15Z</time></trkpt><trkpt lat="45.926217610766436" lon="11.728155287313895"><ele>193.0</ele><time>2026-04-16T10:22:16Z</time></trkpt><trkpt lat="45.926508684915255" lon="11.728231035944173"><ele>193.0</ele><time>2026-04-16T10:22:16.999Z</time></trkpt><trkpt lat="45.92680613171732" lon="11.7283110911172"><ele>193.0</ele><time>2026-04-16T10:22:17.999Z</time></trkpt><trkpt lat="45.9270762421465" lon="11.72838400902044"><ele>193.0</ele><time>2026-04-16T10:22:18.999Z</time></trkpt><trkpt lat="45.927335764021564" lon="11.728446866367383"><ele>193.0</ele><time>2026-04-16T10:22:19.999Z</time></trkpt><trkpt lat="45.92759744116102" lon="11.728497446161988"><ele>193.0</ele><time>2026-04-16T10:22:20.999Z</time></trkpt><trkpt lat="45.92785323428603" lon="11.728524358939875"><ele>193.0</ele><time>2026-04-16T10:22:21.999Z</time></trkpt><trkpt lat="45.928118691463034" lon="11.728535703391625"><ele>193.0</ele><time>2026-04-16T10:22:22.999Z</time></trkpt><trkpt lat="45.92838855735099" lon="11.728531305683356"><ele>193.0</ele><time>2026-04-16T10:22:23.999Z</time></trkpt><trkpt lat="45.92865433488111" lon="11.728511704595785"><ele>193.0</ele><time>2026-04-16T10:22:24.999Z</time></trkpt><trkpt lat="45.9289188325569" lon="11.728473738729713"><ele>193.0</ele><time>2026-04-16T10:22:25.999Z</time></trkpt><trkpt lat="45.92918237181695" lon="11.728424429813705"><ele>193.0</ele><time>2026-04-16T10:22:26.999Z</time></trkpt><trkpt lat="45.92944061364298" lon="11.728360559753998"><ele>193.0</ele><time>2026-04-16T10:22:27.999Z</time></trkpt><trkpt lat="45.929702521720024" lon="11.72827636284827"><ele>193.0</ele><time>2026-04-16T10:22:28.999Z</time></trkpt><trkpt lat="45.92998374678103" lon="11.728181051624736"><ele>193.0</ele><time>2026-04-16T10:22:29.999Z</time></trkpt><trkpt lat="45.93027710882508" lon="11.728091868861762"><ele>193.0</ele><time>2026-04-16T10:22:30.999Z</time></trkpt><trkpt lat="45.930559210984015" lon="11.728007201196771"><ele>193.0</ele><time>2026-04-16T10:22:31.999Z</time></trkpt><trkpt lat="45.93082135074369" lon="11.727926263490373"><ele>316.0</ele><time>2026-04-16T10:22:32.999Z</time></trkpt><trkpt lat="45.931076852280974" lon="11.727843183423245"><ele>439.0</ele><time>2026-04-16T10:22:34Z</time></trkpt><trkpt lat="45.93131933595662" lon="11.727757678443472"><ele>381.0</ele><time>2026-04-16T10:22:35Z</time></trkpt><trkpt lat="45.93155083137448" lon="11.72766063579659"><ele>323.0</ele><time>2026-04-16T10:22:36Z</time></trkpt><trkpt lat="45.93178382932045" lon="11.727544617239781"><ele>323.0</ele><time>2026-04-16T10:22:37Z</time></trkpt><trkpt lat="45.93201834524723" lon="11.727413518868453"><ele>323.0</ele><time>2026-04-16T10:22:38Z</time></trkpt><trkpt lat="45.93224585756746" lon="11.727275786437918"><ele>323.0</ele><time>2026-04-16T10:22:39Z</time></trkpt><trkpt lat="45.93247088726986" lon="11.727123164183148"><ele>323.0</ele><time>2026-04-16T10:22:40Z</time></trkpt><trkpt lat="45.932702777809226" lon="11.726941628571039"><ele>261.5</ele><time>2026-04-16T10:22:41Z</time></trkpt><trkpt lat="45.93293079904664" lon="11.726760953824222"><ele>200.0</ele><time>2026-04-16T10:22:42Z</time></trkpt><trkpt lat="45.933140695935194" lon="11.726597139581965"><ele>200.0</ele><time>2026-04-16T10:22:43Z</time></trkpt><trkpt lat="45.933336245676664" lon="11.726448142329277"><ele>200.0</ele><time>2026-04-16T10:22:44Z</time></trkpt><trkpt lat="45.93352842839774" lon="11.726312731078208"><ele>200.0</ele><time>2026-04-16T10:22:45Z</time></trkpt><trkpt lat="45.93372064269268" lon="11.726194863715966"><ele>200.0</ele><time>2026-04-16T10:22:46Z</time></trkpt><trkpt lat="45.933932711036704" lon="11.726079317425533"><ele>200.0</ele><time>2026-04-16T10:22:47Z</time></trkpt><trkpt lat="45.9341625666709" lon="11.725970989224196"><ele>200.0</ele><time>2026-04-16T10:22:48Z</time></trkpt><trkpt lat="45.93440955706672" lon="11.725873975538303"><ele>200.0</ele><time>2026-04-16T10:22:49Z</time></trkpt><trkpt lat="45.934671240534186" lon="11.725782478682678"><ele>200.0</ele><time>2026-04-16T10:22:50Z</time></trkpt><trkpt lat="45.93494476747192" lon="11.725697690052229"><ele>200.0</ele><time>2026-04-16T10:22:51Z</time></trkpt><trkpt lat="45.93523642127433" lon="11.72562113736213"><ele>200.0</ele><time>2026-04-16T10:22:52Z</time></trkpt><trkpt lat="45.93554067128088" lon="11.725546641873725"><ele>200.0</ele><time>2026-04-16T10:22:53Z</time></trkpt><trkpt lat="45.93582555302927" lon="11.725476601937553"><ele>200.0</ele><time>2026-04-16T10:22:54Z</time></trkpt><trkpt lat="45.936099650484174" lon="11.725405218093947"><ele>200.0</ele><time>2026-04-16T10:22:55Z</time></trkpt><trkpt lat="45.9363601252809" lon="11.725340988708064"><ele>200.0</ele><time>2026-04-16T10:22:56Z</time></trkpt><trkpt lat="45.93660719603759" lon="11.725282533862622"><ele>200.0</ele><time>2026-04-16T10:22:57Z</time></trkpt><trkpt lat="45.936850234795266" lon="11.725224173339836"><ele>200.0</ele><time>2026-04-16T10:22:58Z</time></trkpt><trkpt lat="45.93709178451757" lon="11.725187744257425"><ele>200.0</ele><time>2026-04-16T10:22:59Z</time></trkpt><trkpt lat="45.937342433110274" lon="11.72517982034083"><ele>200.0</ele><time>2026-04-16T10:23:00Z</time></trkpt><trkpt lat="45.937600391105455" lon="11.725199216495394"><ele>200.0</ele><time>2026-04-16T10:23:01Z</time></trkpt><trkpt lat="45.937872115038964" lon="11.725229634710347"><ele>200.0</ele><time>2026-04-16T10:23:02Z</time></trkpt><trkpt lat="45.938160078371915" lon="11.72525653864306"><ele>200.0</ele><time>2026-04-16T10:23:03Z</time></trkpt><trkpt lat="45.938464777765" lon="11.725276739909642"><ele>200.0</ele><time>2026-04-16T10:23:04Z</time></trkpt><trkpt lat="45.9387843224247" lon="11.72530172238146"><ele>200.0</ele><time>2026-04-16T10:23:05Z</time></trkpt><trkpt lat="45.93911568786163" lon="11.725328977237545"><ele>200.0</ele><time>2026-04-16T10:23:06Z</time></trkpt><trkpt lat="45.93942685532628" lon="11.725357227195211"><ele>200.0</ele><time>2026-04-16T10:23:07Z</time></trkpt><trkpt lat="45.93971478944097" lon="11.72538549923144"><ele>200.0</ele><time>2026-04-16T10:23:08Z</time></trkpt><trkpt lat="45.93998739823577" lon="11.725410833552866"><ele>200.0</ele><time>2026-04-16T10:23:09Z</time></trkpt><trkpt lat="45.940249158427164" lon="11.725430674425786"><ele>200.0</ele><time>2026-04-16T10:23:10Z</time></trkpt><trkpt lat="45.94049366699158" lon="11.725462261079253"><ele>200.0</ele><time>2026-04-16T10:23:11Z</time></trkpt><trkpt lat="45.9407334762012" lon="11.725516722960625"><ele>212.0</ele><time>2026-04-16T10:23:12Z</time></trkpt><trkpt lat="45.940984157418825" lon="11.725598147353281"><ele>224.0</ele><time>2026-04-16T10:23:13Z</time></trkpt><trkpt lat="45.941242421995675" lon="11.725701531481619"><ele>224.0</ele><time>2026-04-16T10:23:14Z</time></trkpt><trkpt lat="45.94152132576391" lon="11.725822169282278"><ele>224.0</ele><time>2026-04-16T10:23:15Z</time></trkpt><trkpt lat="45.94181278502694" lon="11.725951306505776"><ele>223.0</ele><time>2026-04-16T10:23:16Z</time></trkpt><trkpt lat="45.94211658209624" lon="11.726081223645167"><ele>222.0</ele><time>2026-04-16T10:23:17Z</time></trkpt><trkpt lat="45.94242261594143" lon="11.726211769816942"><ele>222.0</ele><time>2026-04-16T10:23:18Z</time></trkpt><trkpt lat="45.94269947700795" lon="11.726331155841438"><ele>222.0</ele><time>2026-04-16T10:23:19Z</time></trkpt><trkpt lat="45.94296210787165" lon="11.726444762932292"><ele>222.0</ele><time>2026-04-16T10:23:20Z</time></trkpt><trkpt lat="45.943216183344845" lon="11.726554812463736"><ele>222.0</ele><time>2026-04-16T10:23:21Z</time></trkpt><trkpt lat="45.943455650384124" lon="11.726660847379149"><ele>222.0</ele><time>2026-04-16T10:23:22Z</time></trkpt><trkpt lat="45.943682889342" lon="11.726758864051371"><ele>222.0</ele><time>2026-04-16T10:23:23Z</time></trkpt><trkpt lat="45.94390082608583" lon="11.726838347221648"><ele>252.0</ele><time>2026-04-16T10:23:24Z</time></trkpt><trkpt lat="45.944111108652024" lon="11.726894148303527"><ele>282.0</ele><time>2026-04-16T10:23:25Z</time></trkpt><trkpt lat="45.944320205396856" lon="11.726922206163819"><ele>312.0</ele><time>2026-04-16T10:23:26Z</time></trkpt><trkpt lat="45.94453439867231" lon="11.726921191320418"><ele>312.0</ele><time>2026-04-16T10:23:27Z</time></trkpt><trkpt lat="45.94475784219659" lon="11.726898160402913"><ele>312.0</ele><time>2026-04-16T10:23:28Z</time></trkpt><trkpt lat="45.94500244587301" lon="11.726865290128902"><ele>312.0</ele><time>2026-04-16T10:23:29Z</time></trkpt><trkpt lat="45.945259240494835" lon="11.726814324820088"><ele>312.0</ele><time>2026-04-16T10:23:30Z</time></trkpt><trkpt lat="45.945517398391296" lon="11.726763113371359"><ele>312.0</ele><time>2026-04-16T10:23:31Z</time></trkpt><trkpt lat="45.94576843702627" lon="11.726713126234113"><ele>312.0</ele><time>2026-04-16T10:23:32Z</time></trkpt><trkpt lat="45.94600887918537" lon="11.726663379000597"><ele>312.0</ele><time>2026-04-16T10:23:33Z</time></trkpt><trkpt lat="45.94624544278651" lon="11.726616399712377"><ele>312.0</ele><time>2026-04-16T10:23:34Z</time></trkpt><trkpt lat="45.946485865149505" lon="11.726567296526776"><ele>312.0</ele><time>2026-04-16T10:23:35Z</time></trkpt><trkpt lat="45.94672681297003" lon="11.726508150708911"><ele>312.0</ele><time>2026-04-16T10:23:36Z</time></trkpt><trkpt lat="45.946966709622494" lon="11.72642866643818"><ele>312.0</ele><time>2026-04-16T10:23:37Z</time></trkpt><trkpt lat="45.94720144801365" lon="11.726334546982226"><ele>312.0</ele><time>2026-04-16T10:23:38Z</time></trkpt><trkpt lat="45.94742501448742" lon="11.726234403981401"><ele>327.3333333333333</ele><time>2026-04-16T10:23:39Z</time></trkpt><trkpt lat="45.94763577032332" lon="11.726141986314433"><ele>342.66666666666663</ele><time>2026-04-16T10:23:40Z</time></trkpt><trkpt lat="45.947844545871334" lon="11.726048680910596"><ele>358.0</ele><time>2026-04-16T10:23:41Z</time></trkpt><trkpt lat="45.94804875105111" lon="11.7259477237992"><ele>358.0</ele><time>2026-04-16T10:23:42Z</time></trkpt><trkpt lat="45.9482494768097" lon="11.725828014265428"><ele>358.0</ele><time>2026-04-16T10:23:43Z</time></trkpt><trkpt lat="45.94845235923865" lon="11.725689148040907"><ele>358.0</ele><time>2026-04-16T10:23:44Z</time></trkpt><trkpt lat="45.94866275839711" lon="11.725548809044584"><ele>363.0</ele><time>2026-04-16T10:23:45Z</time></trkpt><trkpt lat="45.94887453654225" lon="11.725411335890453"><ele>368.0</ele><time>2026-04-16T10:23:46Z</time></trkpt><trkpt lat="45.949081583695275" lon="11.725277638565123"><ele>374.33333333333337</ele><time>2026-04-16T10:23:47Z</time></trkpt><trkpt lat="45.949277517458384" lon="11.725151175484884"><ele>380.6666666666667</ele><time>2026-04-16T10:23:48Z</time></trkpt><trkpt lat="45.94947118671212" lon="11.725032378440002"><ele>387.0</ele><time>2026-04-16T10:23:49Z</time></trkpt><trkpt lat="45.94966221470606" lon="11.724921661772946"><ele>387.0</ele><time>2026-04-16T10:23:50Z</time></trkpt><trkpt lat="45.949843571476535" lon="11.724817220586296"><ele>387.0</ele><time>2026-04-16T10:23:51Z</time></trkpt><trkpt lat="45.95003104236788" lon="11.724714028468323"><ele>387.0</ele><time>2026-04-16T10:23:52Z</time></trkpt><trkpt lat="45.9502309527676" lon="11.724601927107638"><ele>385.5</ele><time>2026-04-16T10:23:53Z</time></trkpt><trkpt lat="45.950448715936304" lon="11.72447980235307"><ele>384.0</ele><time>2026-04-16T10:23:54Z</time></trkpt><trkpt lat="45.950653698720174" lon="11.72436687478449"><ele>372.3333333333333</ele><time>2026-04-16T10:23:55Z</time></trkpt><trkpt lat="45.95084437348323" lon="11.724253053729264"><ele>360.66666666666663</ele><time>2026-04-16T10:23:56Z</time></trkpt><trkpt lat="45.95103191263474" lon="11.724142441322472"><ele>349.0</ele><time>2026-04-16T10:23:57Z</time></trkpt><trkpt lat="45.951217864347946" lon="11.72403268592061"><ele>349.0</ele><time>2026-04-16T10:23:58Z</time></trkpt><trkpt lat="45.951396184084324" lon="11.72391573494429"><ele>349.0</ele><time>2026-04-16T10:23:59Z</time></trkpt><trkpt lat="45.95157084403145" lon="11.723774630801975"><ele>349.0</ele><time>2026-04-16T10:24:00Z</time></trkpt><trkpt lat="45.951734061893" lon="11.723606912773562"><ele>336.0</ele><time>2026-04-16T10:24:01Z</time></trkpt><trkpt lat="45.95188999930286" lon="11.723408779228413"><ele>323.0</ele><time>2026-04-16T10:24:02Z</time></trkpt><trkpt lat="45.95205045742946" lon="11.723183999750976"><ele>310.0</ele><time>2026-04-16T10:24:03Z</time></trkpt><trkpt lat="45.95221149820786" lon="11.722946823648705"><ele>294.66666666666663</ele><time>2026-04-16T10:24:04Z</time></trkpt><trkpt lat="45.952364325269876" lon="11.72271398242744"><ele>279.3333333333333</ele><time>2026-04-16T10:24:05Z</time></trkpt><trkpt lat="45.95250305281509" lon="11.722498271565621"><ele>264.0</ele><time>2026-04-16T10:24:06Z</time></trkpt><trkpt lat="45.95262935993241" lon="11.722301310257395"><ele>264.0</ele><time>2026-04-16T10:24:07Z</time></trkpt><trkpt lat="45.952744935500434" lon="11.722111969187862"><ele>264.0</ele><time>2026-04-16T10:24:08Z</time></trkpt><trkpt lat="45.9528482155099" lon="11.721944880189001"><ele>264.0</ele><time>2026-04-16T10:24:09Z</time></trkpt><trkpt lat="45.95294107883662" lon="11.721789585992903"><ele>255.39999999999998</ele><time>2026-04-16T10:24:10Z</time></trkpt><trkpt lat="45.95302472753143" lon="11.721649695004551"><ele>246.79999999999998</ele><time>2026-04-16T10:24:11Z</time></trkpt><trkpt lat="45.95309451156808" lon="11.721539632310478"><ele>238.20000000000002</ele><time>2026-04-16T10:24:12Z</time></trkpt><trkpt lat="45.95315966983516" lon="11.721456604281618"><ele>229.60000000000002</ele><time>2026-04-16T10:24:13Z</time></trkpt><trkpt lat="45.953223907037554" lon="11.72139821766855"><ele>221.0</ele><time>2026-04-16T10:24:14Z</time></trkpt><trkpt lat="45.953295629390695" lon="11.721348251761778"><ele>233.20000000000002</ele><time>2026-04-16T10:24:15Z</time></trkpt><trkpt lat="45.95338220608743" lon="11.721314552252522"><ele>245.40000000000003</ele><time>2026-04-16T10:24:16Z</time></trkpt><trkpt lat="45.95347259589645" lon="11.721301226824522"><ele>257.6</ele><time>2026-04-16T10:24:17Z</time></trkpt><trkpt lat="45.95356079883905" lon="11.721306056427968"><ele>269.8</ele><time>2026-04-16T10:24:18Z</time></trkpt><trkpt lat="45.953633465373116" lon="11.721324325090198"><ele>282.0</ele><time>2026-04-16T10:24:19Z</time></trkpt><trkpt lat="45.95373759749001" lon="11.721378104033324"><ele>282.0</ele><time>2026-04-16T10:24:21Z</time></trkpt><trkpt lat="45.953813233845864" lon="11.721458744430327"><ele>282.0</ele><time>2026-04-16T10:24:23.999Z</time></trkpt><trkpt lat="45.95386259125002" lon="11.721515008194027"><ele>282.0</ele><time>2026-04-16T10:24:24.999Z</time></trkpt><trkpt lat="45.953914349606826" lon="11.721600138400289"><ele>282.0</ele><time>2026-04-16T10:24:25.999Z</time></trkpt><trkpt lat="45.953974650132544" lon="11.721731754782146"><ele>282.0</ele><time>2026-04-16T10:24:26.999Z</time></trkpt><trkpt lat="45.95402944424905" lon="11.721853171794244"><ele>282.0</ele><time>2026-04-16T10:24:27.999Z</time></trkpt><trkpt lat="45.954089163928586" lon="11.721988944118813"><ele>296.25</ele><time>2026-04-16T10:24:29.019Z</time></trkpt><trkpt lat="45.954148884383116" lon="11.722124560023333"><ele>310.5</ele><time>2026-04-16T10:24:30.017Z</time></trkpt><trkpt lat="45.95421506819689" lon="11.722274435060328"><ele>324.75</ele><time>2026-04-16T10:24:31.019Z</time></trkpt><trkpt lat="45.95427965946877" lon="11.722423298765424"><ele>339.0</ele><time>2026-04-16T10:24:32.019Z</time></trkpt><trkpt lat="45.95435162897717" lon="11.722585657416257"><ele>455.0</ele><time>2026-04-16T10:24:33.016Z</time></trkpt><trkpt lat="45.95547571586358" lon="11.724997373544115"><ele>648.0</ele><time>2026-04-16T10:24:36.979Z</time></trkpt><trkpt lat="45.95735216926745" lon="11.729098377355587"><ele>710.0</ele><time>2026-04-16T10:24:43.98Z</time></trkpt><trkpt lat="45.95782801882103" lon="11.730136576315266"><ele>723.0</ele><time>2026-04-16T10:24:44.98Z</time></trkpt><trkpt lat="45.95814283295234" lon="11.730818269030065"><ele>786.0</ele><time>2026-04-16T10:24:45.979Z</time></trkpt><trkpt lat="45.958440356126346" lon="11.731462539185062"><ele>795.0</ele><time>2026-04-16T10:24:46.977Z</time></trkpt><trkpt lat="45.958741327489484" lon="11.732107357627756"><ele>795.0</ele><time>2026-04-16T10:24:47.979Z</time></trkpt><trkpt lat="45.95878390000001" lon="11.732198000000002"><ele>795.0</ele><time>2026-04-16T10:24:48.98Z</time></trkpt><trkpt lat="45.96908853316493" lon="11.75479958652257"><ele>539.5</ele><time>2026-04-16T10:25:58.999Z</time></trkpt><trkpt lat="45.9692818682296" lon="11.755233092911125"><ele>284.0</ele><time>2026-04-16T10:25:59.999Z</time></trkpt><trkpt lat="45.96948389328908" lon="11.755599028034045"><ele>284.0</ele><time>2026-04-16T10:26:00.999Z</time></trkpt><trkpt lat="45.9696583779319" lon="11.755972360433942"><ele>284.0</ele><time>2026-04-16T10:26:01.999Z</time></trkpt><trkpt lat="45.969815981727564" lon="11.756306933732112"><ele>283.0</ele><time>2026-04-16T10:26:02.999Z</time></trkpt><trkpt lat="45.96996269439622" lon="11.756615576282703"><ele>282.0</ele><time>2026-04-16T10:26:03.999Z</time></trkpt><trkpt lat="45.970105130314664" lon="11.756903252358715"><ele>284.0</ele><time>2026-04-16T10:26:04.999Z</time></trkpt><trkpt lat="45.97024808777348" lon="11.757179320529985"><ele>286.0</ele><time>2026-04-16T10:26:05.999Z</time></trkpt><trkpt lat="45.97040316756952" lon="11.75744625128508"><ele>286.0</ele><time>2026-04-16T10:26:06.999Z</time></trkpt><trkpt lat="45.97057468250506" lon="11.757690153218599"><ele>286.0</ele><time>2026-04-16T10:26:07.999Z</time></trkpt><trkpt lat="45.970769569401114" lon="11.757914993387786"><ele>288.0</ele><time>2026-04-16T10:26:08.999Z</time></trkpt><trkpt lat="45.97098272074" lon="11.758127836327516"><ele>290.0</ele><time>2026-04-16T10:26:10Z</time></trkpt><trkpt lat="45.97119376420844" lon="11.75829261547352"><ele>290.0</ele><time>2026-04-16T10:26:11Z</time></trkpt><trkpt lat="45.971412519332006" lon="11.758431366134348"><ele>290.0</ele><time>2026-04-16T10:26:12Z</time></trkpt><trkpt lat="45.97165167310538" lon="11.75856940631219"><ele>293.0</ele><time>2026-04-16T10:26:13Z</time></trkpt><trkpt lat="45.97190380628402" lon="11.758684148714742"><ele>296.0</ele><time>2026-04-16T10:26:14Z</time></trkpt><trkpt lat="45.972166406814296" lon="11.758778585419213"><ele>296.0</ele><time>2026-04-16T10:26:15Z</time></trkpt><trkpt lat="45.972437473001186" lon="11.758847088019836"><ele>296.0</ele><time>2026-04-16T10:26:16Z</time></trkpt><trkpt lat="45.97271634519263" lon="11.758895365087918"><ele>295.5</ele><time>2026-04-16T10:26:17Z</time></trkpt><trkpt lat="45.97301425663758" lon="11.758933228277069"><ele>295.0</ele><time>2026-04-16T10:26:18Z</time></trkpt><trkpt lat="45.97332815960718" lon="11.75897583033242"><ele>297.5</ele><time>2026-04-16T10:26:19Z</time></trkpt><trkpt lat="45.973654808157725" lon="11.759022928446436"><ele>300.0</ele><time>2026-04-16T10:26:20Z</time></trkpt><trkpt lat="45.973992020807785" lon="11.759071923511975"><ele>297.0</ele><time>2026-04-16T10:26:21Z</time></trkpt><trkpt lat="45.97434129341733" lon="11.75912307394517"><ele>294.0</ele><time>2026-04-16T10:26:22Z</time></trkpt><trkpt lat="45.97470068497781" lon="11.759176215696623"><ele>293.0</ele><time>2026-04-16T10:26:23Z</time></trkpt><trkpt lat="45.97506617764307" lon="11.75923142336723"><ele>292.0</ele><time>2026-04-16T10:26:24Z</time></trkpt><trkpt lat="45.97540177308169" lon="11.759281584854868"><ele>292.0</ele><time>2026-04-16T10:26:25Z</time></trkpt><trkpt lat="45.975711973470645" lon="11.759327102795254"><ele>292.0</ele><time>2026-04-16T10:26:26Z</time></trkpt><trkpt lat="45.97600580153879" lon="11.759367496474521"><ele>303.5</ele><time>2026-04-16T10:26:27Z</time></trkpt><trkpt lat="45.97627975754408" lon="11.759408571131637"><ele>315.0</ele><time>2026-04-16T10:26:28Z</time></trkpt><trkpt lat="45.976541298257054" lon="11.759455003665579"><ele>309.5</ele><time>2026-04-16T10:26:29Z</time></trkpt><trkpt lat="45.976797292291764" lon="11.759507240463677"><ele>304.0</ele><time>2026-04-16T10:26:30Z</time></trkpt><trkpt lat="45.97703452728264" lon="11.759561651537124"><ele>304.0</ele><time>2026-04-16T10:26:31Z</time></trkpt><trkpt lat="45.97725773201813" lon="11.75962107475519"><ele>304.0</ele><time>2026-04-16T10:26:32Z</time></trkpt><trkpt lat="45.97746854623019" lon="11.759689629050428"><ele>304.0</ele><time>2026-04-16T10:26:33Z</time></trkpt><trkpt lat="45.97766372465165" lon="11.759772883318453"><ele>301.3333333333333</ele><time>2026-04-16T10:26:34Z</time></trkpt><trkpt lat="45.9778524975801" lon="11.759869074520491"><ele>298.6666666666667</ele><time>2026-04-16T10:26:35Z</time></trkpt><trkpt lat="45.97802975130628" lon="11.759975577767877"><ele>296.0</ele><time>2026-04-16T10:26:36Z</time></trkpt><trkpt lat="45.97819718211215" lon="11.760085041370806"><ele>297.33333333333337</ele><time>2026-04-16T10:26:37Z</time></trkpt><trkpt lat="45.978354603054115" lon="11.760201653299132"><ele>298.6666666666667</ele><time>2026-04-16T10:26:38Z</time></trkpt><trkpt lat="45.978498010344204" lon="11.760324550168244"><ele>300.0</ele><time>2026-04-16T10:26:39Z</time></trkpt><trkpt lat="45.97862136028574" lon="11.760446147881439"><ele>300.0</ele><time>2026-04-16T10:26:40Z</time></trkpt><trkpt lat="45.978730199257036" lon="11.760569262421297"><ele>300.0</ele><time>2026-04-16T10:26:41Z</time></trkpt><trkpt lat="45.97883344591836" lon="11.760696657802301"><ele>300.0</ele><time>2026-04-16T10:26:42Z</time></trkpt><trkpt lat="45.9789421003264" lon="11.760836553418175"><ele>300.0</ele><time>2026-04-16T10:26:43Z</time></trkpt><trkpt lat="45.97905427258331" lon="11.760992751940226"><ele>300.6666666666667</ele><time>2026-04-16T10:26:44Z</time></trkpt><trkpt lat="45.979166781061046" lon="11.76116486584195"><ele>301.33333333333337</ele><time>2026-04-16T10:26:45Z</time></trkpt><trkpt lat="45.97927720063722" lon="11.761353944626698"><ele>302.0</ele><time>2026-04-16T10:26:46Z</time></trkpt><trkpt lat="45.97938633128099" lon="11.76156007054358"><ele>302.0</ele><time>2026-04-16T10:26:47Z</time></trkpt><trkpt lat="45.97950080996849" lon="11.761802764512547"><ele>302.0</ele><time>2026-04-16T10:26:48Z</time></trkpt><trkpt lat="45.979618035668906" lon="11.762078429188708"><ele>302.0</ele><time>2026-04-16T10:26:49Z</time></trkpt><trkpt lat="45.979726079969325" lon="11.762381015050464"><ele>302.6666666666667</ele><time>2026-04-16T10:26:50Z</time></trkpt><trkpt lat="45.97980556146132" lon="11.762666082336867"><ele>303.3333333333333</ele><time>2026-04-16T10:26:51Z</time></trkpt><trkpt lat="45.97987468712874" lon="11.762961955512473"><ele>304.0</ele><time>2026-04-16T10:26:52Z</time></trkpt><trkpt lat="45.979943807133544" lon="11.76329716206847"><ele>307.5</ele><time>2026-04-16T10:26:53Z</time></trkpt><trkpt lat="45.979994275985966" lon="11.763629675551892"><ele>311.0</ele><time>2026-04-16T10:26:54Z</time></trkpt><trkpt lat="45.9800279944115" lon="11.763964364909024"><ele>311.0</ele><time>2026-04-16T10:26:55Z</time></trkpt><trkpt lat="45.980049182669006" lon="11.764320398338642"><ele>311.0</ele><time>2026-04-16T10:26:56Z</time></trkpt><trkpt lat="45.980062696958804" lon="11.76470260116519"><ele>313.0</ele><time>2026-04-16T10:26:57Z</time></trkpt><trkpt lat="45.98007641953319" lon="11.765069830997737"><ele>315.0</ele><time>2026-04-16T10:26:58Z</time></trkpt><trkpt lat="45.98007492056348" lon="11.765431830660807"><ele>315.5</ele><time>2026-04-16T10:26:59Z</time></trkpt><trkpt lat="45.98008687948006" lon="11.765837502222029"><ele>316.0</ele><time>2026-04-16T10:27:00.017Z</time></trkpt><trkpt lat="45.980133361806544" lon="11.76625319155071"><ele>314.5</ele><time>2026-04-16T10:27:01.015Z</time></trkpt><trkpt lat="45.98014444693511" lon="11.7666509868109"><ele>313.0</ele><time>2026-04-16T10:27:02.015Z</time></trkpt><trkpt lat="45.98015640835206" lon="11.767026505112256"><ele>312.5</ele><time>2026-04-16T10:27:03.021Z</time></trkpt><trkpt lat="45.98016935719681" lon="11.767399435163354"><ele>312.0</ele><time>2026-04-16T10:27:04.02Z</time></trkpt><trkpt lat="45.980182450372396" lon="11.76770997043518"><ele>311.0</ele><time>2026-04-16T10:27:05Z</time></trkpt><trkpt lat="45.980190945483926" lon="11.768049063707924"><ele>310.0</ele><time>2026-04-16T10:27:06Z</time></trkpt><trkpt lat="45.98020314392651" lon="11.76840979342266"><ele>307.5</ele><time>2026-04-16T10:27:07Z</time></trkpt><trkpt lat="45.9802175640572" lon="11.768784307096322"><ele>305.0</ele><time>2026-04-16T10:27:08Z</time></trkpt><trkpt lat="45.9802336825421" lon="11.769158582595757"><ele>302.0</ele><time>2026-04-16T10:27:09Z</time></trkpt><trkpt lat="45.98024876110049" lon="11.769517078911289"><ele>299.0</ele><time>2026-04-16T10:27:10Z</time></trkpt><trkpt lat="45.98025988926341" lon="11.769866593657914"><ele>294.5</ele><time>2026-04-16T10:27:11Z</time></trkpt><trkpt lat="45.98027061053136" lon="11.77022410911154"><ele>290.0</ele><time>2026-04-16T10:27:12Z</time></trkpt><trkpt lat="45.980277757000636" lon="11.770575905389991"><ele>290.0</ele><time>2026-04-16T10:27:13Z</time></trkpt><trkpt lat="45.980273921461816" lon="11.770933946936383"><ele>290.0</ele><time>2026-04-16T10:27:14Z</time></trkpt><trkpt lat="45.980255323326695" lon="11.771311666620573"><ele>288.0</ele><time>2026-04-16T10:27:15Z</time></trkpt><trkpt lat="45.98021520434096" lon="11.771714038573938"><ele>286.0</ele><time>2026-04-16T10:27:16Z</time></trkpt><trkpt lat="45.98017058164978" lon="11.772091981219711"><ele>284.5</ele><time>2026-04-16T10:27:17Z</time></trkpt><trkpt lat="45.98012805377549" lon="11.772473695051387"><ele>283.0</ele><time>2026-04-16T10:27:18Z</time></trkpt><trkpt lat="45.98009579880988" lon="11.77285759289371"><ele>279.0</ele><time>2026-04-16T10:27:19Z</time></trkpt><trkpt lat="45.98007510076003" lon="11.773241079786342"><ele>275.0</ele><time>2026-04-16T10:27:20Z</time></trkpt><trkpt lat="45.98006709142287" lon="11.77362422266294"><ele>274.0</ele><time>2026-04-16T10:27:21Z</time></trkpt><trkpt lat="45.980079279381584" lon="11.77401371180373"><ele>273.0</ele><time>2026-04-16T10:27:22Z</time></trkpt><trkpt lat="45.98011502800024" lon="11.774383829955413"><ele>273.0</ele><time>2026-04-16T10:27:23Z</time></trkpt><trkpt lat="45.98016911680067" lon="11.774727125278474"><ele>273.0</ele><time>2026-04-16T10:27:24Z</time></trkpt><trkpt lat="45.98023205635314" lon="11.775062600662114"><ele>273.0</ele><time>2026-04-16T10:27:25Z</time></trkpt><trkpt lat="45.98030795494879" lon="11.77537534311122"><ele>273.0</ele><time>2026-04-16T10:27:26Z</time></trkpt><trkpt lat="45.98039774901007" lon="11.775681708413504"><ele>273.0</ele><time>2026-04-16T10:27:27Z</time></trkpt><trkpt lat="45.98050073341995" lon="11.77597648616024"><ele>273.0</ele><time>2026-04-16T10:27:28Z</time></trkpt><trkpt lat="45.980605252168814" lon="11.776266025678638"><ele>271.5</ele><time>2026-04-16T10:27:29Z</time></trkpt><trkpt lat="45.980728427310105" lon="11.776555278607377"><ele>270.0</ele><time>2026-04-16T10:27:30Z</time></trkpt><trkpt lat="45.980851286583096" lon="11.77683167056936"><ele>282.0</ele><time>2026-04-16T10:27:31Z</time></trkpt><trkpt lat="45.9809637926117" lon="11.777099293937416"><ele>294.0</ele><time>2026-04-16T10:27:32Z</time></trkpt><trkpt lat="45.98107075809298" lon="11.777364183159563"><ele>306.0</ele><time>2026-04-16T10:27:33Z</time></trkpt><trkpt lat="45.98117911642047" lon="11.777626896082287"><ele>308.3333333333333</ele><time>2026-04-16T10:27:34Z</time></trkpt><trkpt lat="45.98128580441995" lon="11.777886137474335"><ele>310.66666666666663</ele><time>2026-04-16T10:27:35Z</time></trkpt><trkpt lat="45.98139720513853" lon="11.778156557769721"><ele>313.0</ele><time>2026-04-16T10:27:36Z</time></trkpt><trkpt lat="45.98151599213642" lon="11.77844606895749"><ele>312.5</ele><time>2026-04-16T10:27:37Z</time></trkpt><trkpt lat="45.98163695741145" lon="11.778754616217716"><ele>312.0</ele><time>2026-04-16T10:27:38.016Z</time></trkpt><trkpt lat="45.98174562713445" lon="11.779056433621099"><ele>297.6666666666667</ele><time>2026-04-16T10:27:39.018Z</time></trkpt><trkpt lat="45.98184061691956" lon="11.779347032596926"><ele>283.33333333333337</ele><time>2026-04-16T10:27:40.018Z</time></trkpt><trkpt lat="45.981932531518126" lon="11.779639569146259"><ele>269.0</ele><time>2026-04-16T10:27:41.015Z</time></trkpt><trkpt lat="45.982600115282445" lon="11.782227298255807"><ele>269.0</ele><time>2026-04-16T10:27:49.999Z</time></trkpt><trkpt lat="45.98266780573995" lon="11.782515274333933"><ele>269.0</ele><time>2026-04-16T10:27:50.999Z</time></trkpt><trkpt lat="45.98271776659354" lon="11.782746569414735"><ele>269.0</ele><time>2026-04-16T10:27:51.999Z</time></trkpt><trkpt lat="45.98280470664613" lon="11.783011404300428"><ele>269.0</ele><time>2026-04-16T10:27:52.999Z</time></trkpt><trkpt lat="45.98290992415427" lon="11.78327183486185"><ele>269.0</ele><time>2026-04-16T10:27:53.999Z</time></trkpt><trkpt lat="45.98302197709954" lon="11.783520809400347"><ele>269.0</ele><time>2026-04-16T10:27:54.999Z</time></trkpt><trkpt lat="45.98314030751539" lon="11.783761415351481"><ele>269.0</ele><time>2026-04-16T10:27:55.999Z</time></trkpt><trkpt lat="45.983268114882875" lon="11.783991047248792"><ele>269.0</ele><time>2026-04-16T10:27:56.999Z</time></trkpt><trkpt lat="45.983405680214126" lon="11.784210903564407"><ele>269.0</ele><time>2026-04-16T10:27:57.999Z</time></trkpt><trkpt lat="45.983572053591985" lon="11.78444494521684"><ele>269.0</ele><time>2026-04-16T10:27:58.999Z</time></trkpt><trkpt lat="45.983737168973356" lon="11.784647756062618"><ele>269.0</ele><time>2026-04-16T10:27:59.999Z</time></trkpt><trkpt lat="45.98390369599593" lon="11.784828314994897"><ele>269.0</ele><time>2026-04-16T10:28:00.999Z</time></trkpt><trkpt lat="45.98408376899047" lon="11.784999351708073"><ele>268.5</ele><time>2026-04-16T10:28:01.999Z</time></trkpt><trkpt lat="45.9842840448365" lon="11.785152899198287"><ele>268.0</ele><time>2026-04-16T10:28:02.999Z</time></trkpt><trkpt lat="45.98451270231626" lon="11.785304289692887"><ele>269.0</ele><time>2026-04-16T10:28:03.999Z</time></trkpt><trkpt lat="45.98476151140838" lon="11.785473847665308"><ele>270.0</ele><time>2026-04-16T10:28:04.999Z</time></trkpt><trkpt lat="45.98502697558996" lon="11.785654822347713"><ele>270.0</ele><time>2026-04-16T10:28:05.999Z</time></trkpt><trkpt lat="45.98531349791808" lon="11.785834628533872"><ele>270.0</ele><time>2026-04-16T10:28:06.999Z</time></trkpt><trkpt lat="45.98560782318716" lon="11.786042757419473"><ele>271.5</ele><time>2026-04-16T10:28:07.999Z</time></trkpt><trkpt lat="45.98590235204535" lon="11.786229003602442"><ele>273.0</ele><time>2026-04-16T10:28:08.999Z</time></trkpt><trkpt lat="45.98618646890306" lon="11.786408665745324"><ele>273.0</ele><time>2026-04-16T10:28:09.999Z</time></trkpt><trkpt lat="45.98645013990574" lon="11.786575398832728"><ele>273.0</ele><time>2026-04-16T10:28:10.999Z</time></trkpt><trkpt lat="45.98670429981901" lon="11.786717880259594"><ele>275.0</ele><time>2026-04-16T10:28:11.999Z</time></trkpt><trkpt lat="45.986930133472335" lon="11.786867792792798"><ele>277.0</ele><time>2026-04-16T10:28:12.999Z</time></trkpt><trkpt lat="45.98715299642326" lon="11.787012132975807"><ele>277.0</ele><time>2026-04-16T10:28:13.999Z</time></trkpt><trkpt lat="45.98737655917717" lon="11.787153901056984"><ele>277.0</ele><time>2026-04-16T10:28:14.999Z</time></trkpt><trkpt lat="45.987586770276735" lon="11.787282492182705"><ele>278.0</ele><time>2026-04-16T10:28:16Z</time></trkpt><trkpt lat="45.98779119215924" lon="11.787406366138939"><ele>279.0</ele><time>2026-04-16T10:28:17Z</time></trkpt><trkpt lat="45.98800419469244" lon="11.787543413126368"><ele>279.0</ele><time>2026-04-16T10:28:18Z</time></trkpt><trkpt lat="45.98820871703264" lon="11.787675294820701"><ele>279.0</ele><time>2026-04-16T10:28:19Z</time></trkpt><trkpt lat="45.988397435860904" lon="11.787797435320048"><ele>279.0</ele><time>2026-04-16T10:28:20Z</time></trkpt><trkpt lat="45.98859397836073" lon="11.787922148518808"><ele>280.0</ele><time>2026-04-16T10:28:21Z</time></trkpt><trkpt lat="45.988784594938224" lon="11.788042133729824"><ele>281.0</ele><time>2026-04-16T10:28:22Z</time></trkpt><trkpt lat="45.98897361737524" lon="11.78816931412136"><ele>282.0</ele><time>2026-04-16T10:28:23Z</time></trkpt><trkpt lat="45.98916174519456" lon="11.788303378613124"><ele>282.3333333333333</ele><time>2026-04-16T10:28:24Z</time></trkpt><trkpt lat="45.98934209676812" lon="11.788439058329105"><ele>282.66666666666663</ele><time>2026-04-16T10:28:25Z</time></trkpt><trkpt lat="45.98952302718856" lon="11.788593376753091"><ele>283.0</ele><time>2026-04-16T10:28:26Z</time></trkpt><trkpt lat="45.989707527914014" lon="11.788777219500048"><ele>285.0</ele><time>2026-04-16T10:28:27Z</time></trkpt><trkpt lat="45.989882118387804" lon="11.788989272793456"><ele>287.0</ele><time>2026-04-16T10:28:28Z</time></trkpt><trkpt lat="45.99005362769926" lon="11.789225177443447"><ele>289.0</ele><time>2026-04-16T10:28:29Z</time></trkpt><trkpt lat="45.99023231748914" lon="11.789475753711107"><ele>291.0</ele><time>2026-04-16T10:28:30Z</time></trkpt><trkpt lat="45.99039085332003" lon="11.78970857250536"><ele>291.0</ele><time>2026-04-16T10:28:31Z</time></trkpt><trkpt lat="45.99054360003952" lon="11.789930294894928"><ele>291.0</ele><time>2026-04-16T10:28:32Z</time></trkpt><trkpt lat="45.990702954682114" lon="11.790156875855581"><ele>291.0</ele><time>2026-04-16T10:28:33Z</time></trkpt><trkpt lat="45.99086816233853" lon="11.790377905846018"><ele>289.0</ele><time>2026-04-16T10:28:34Z</time></trkpt><trkpt lat="45.99103603445395" lon="11.790578723337156"><ele>287.0</ele><time>2026-04-16T10:28:35Z</time></trkpt><trkpt lat="45.991208748887644" lon="11.790772787225135"><ele>285.0</ele><time>2026-04-16T10:28:36Z</time></trkpt><trkpt lat="45.991385874303006" lon="11.790959886816696"><ele>283.5</ele><time>2026-04-16T10:28:37Z</time></trkpt><trkpt lat="45.99156687905381" lon="11.791145657710576"><ele>282.0</ele><time>2026-04-16T10:28:38Z</time></trkpt><trkpt lat="45.99175832388491" lon="11.791329236229185"><ele>282.0</ele><time>2026-04-16T10:28:39Z</time></trkpt><trkpt lat="45.99194921146142" lon="11.79150820054906"><ele>282.0</ele><time>2026-04-16T10:28:40Z</time></trkpt><trkpt lat="45.992127127740446" lon="11.791679533043265"><ele>282.0</ele><time>2026-04-16T10:28:41Z</time></trkpt><trkpt lat="45.99231234361663" lon="11.7918578131198"><ele>281.0</ele><time>2026-04-16T10:28:42Z</time></trkpt><trkpt lat="45.99249867061559" lon="11.792038688245011"><ele>280.0</ele><time>2026-04-16T10:28:43Z</time></trkpt><trkpt lat="45.99267814560691" lon="11.792223336599978"><ele>279.0</ele><time>2026-04-16T10:28:44Z</time></trkpt><trkpt lat="45.99284630715042" lon="11.79242215391485"><ele>279.0</ele><time>2026-04-16T10:28:45Z</time></trkpt><trkpt lat="45.99300650727236" lon="11.792638985585265"><ele>279.0</ele><time>2026-04-16T10:28:46Z</time></trkpt><trkpt lat="45.993165490279935" lon="11.792881839700927"><ele>280.0</ele><time>2026-04-16T10:28:47Z</time></trkpt><trkpt lat="45.993317907591575" lon="11.793148690664356"><ele>281.0</ele><time>2026-04-16T10:28:48Z</time></trkpt><trkpt lat="45.993469582997896" lon="11.793440947858253"><ele>281.5</ele><time>2026-04-16T10:28:49Z</time></trkpt><trkpt lat="45.993612239912004" lon="11.793777038817241"><ele>282.0</ele><time>2026-04-16T10:28:50Z</time></trkpt><trkpt lat="45.993773976883716" lon="11.794119719445883"><ele>285.0</ele><time>2026-04-16T10:28:51Z</time></trkpt><trkpt lat="45.99394441376214" lon="11.794478210525206"><ele>288.0</ele><time>2026-04-16T10:28:52Z</time></trkpt><trkpt lat="45.994120634754545" lon="11.794848868723818"><ele>285.5</ele><time>2026-04-16T10:28:53Z</time></trkpt><trkpt lat="45.994316424732226" lon="11.795217125280779"><ele>283.0</ele><time>2026-04-16T10:28:54Z</time></trkpt><trkpt lat="45.99449427760795" lon="11.795584718187554"><ele>283.0</ele><time>2026-04-16T10:28:55Z</time></trkpt><trkpt lat="45.99469041121591" lon="11.795964507781953"><ele>283.0</ele><time>2026-04-16T10:28:56Z</time></trkpt><trkpt lat="45.994902403362644" lon="11.796346260121178"><ele>284.5</ele><time>2026-04-16T10:28:57Z</time></trkpt><trkpt lat="45.99512886909472" lon="11.796729893638537"><ele>286.0</ele><time>2026-04-16T10:28:58Z</time></trkpt><trkpt lat="45.99534596916969" lon="11.797138066449861"><ele>286.0</ele><time>2026-04-16T10:28:59Z</time></trkpt><trkpt lat="45.995609771863506" lon="11.797506730095852"><ele>286.0</ele><time>2026-04-16T10:29:00Z</time></trkpt><trkpt lat="45.99585853919043" lon="11.797903097680397"><ele>286.0</ele><time>2026-04-16T10:29:01Z</time></trkpt><trkpt lat="45.99611263306993" lon="11.798303475319743"><ele>286.0</ele><time>2026-04-16T10:29:02Z</time></trkpt><trkpt lat="45.996364529941935" lon="11.798708146030258"><ele>288.5</ele><time>2026-04-16T10:29:03Z</time></trkpt><trkpt lat="45.996616569662606" lon="11.799115343411192"><ele>291.0</ele><time>2026-04-16T10:29:04Z</time></trkpt><trkpt lat="45.99687039948021" lon="11.799524709691555"><ele>293.5</ele><time>2026-04-16T10:29:05Z</time></trkpt><trkpt lat="45.997124967742515" lon="11.799936942172078"><ele>296.0</ele><time>2026-04-16T10:29:06Z</time></trkpt><trkpt lat="45.99736053009111" lon="11.80031352344634"><ele>293.0</ele><time>2026-04-16T10:29:07Z</time></trkpt><trkpt lat="45.99757631987816" lon="11.800662723991804"><ele>290.0</ele><time>2026-04-16T10:29:08Z</time></trkpt><trkpt lat="45.997776363851074" lon="11.800990344600736"><ele>292.5</ele><time>2026-04-16T10:29:09Z</time></trkpt><trkpt lat="45.997967108736376" lon="11.801297146631981"><ele>295.0</ele><time>2026-04-16T10:29:10Z</time></trkpt><trkpt lat="45.998153453543395" lon="11.801596197608562"><ele>295.0</ele><time>2026-04-16T10:29:11Z</time></trkpt><trkpt lat="45.99834005249636" lon="11.801896312808827"><ele>295.0</ele><time>2026-04-16T10:29:12Z</time></trkpt><trkpt lat="45.998533664162196" lon="11.80219646391478"><ele>295.0</ele><time>2026-04-16T10:29:13Z</time></trkpt><trkpt lat="45.99873703858891" lon="11.802501573037867"><ele>295.0</ele><time>2026-04-16T10:29:14Z</time></trkpt><trkpt lat="45.99895069714254" lon="11.802804925795554"><ele>293.0</ele><time>2026-04-16T10:29:15Z</time></trkpt><trkpt lat="45.99918048955201" lon="11.803116755879083"><ele>291.0</ele><time>2026-04-16T10:29:16Z</time></trkpt><trkpt lat="45.99940918543429" lon="11.803419444929457"><ele>296.0</ele><time>2026-04-16T10:29:17Z</time></trkpt><trkpt lat="45.99961595586429" lon="11.803692846708351"><ele>301.0</ele><time>2026-04-16T10:29:18Z</time></trkpt><trkpt lat="45.99981555246243" lon="11.803955527162778"><ele>301.0</ele><time>2026-04-16T10:29:19Z</time></trkpt><trkpt lat="45.999998025349726" lon="11.804202815918924"><ele>301.0</ele><time>2026-04-16T10:29:20Z</time></trkpt><trkpt lat="46.0001657643677" lon="11.804432985026278"><ele>303.0</ele><time>2026-04-16T10:29:21Z</time></trkpt><trkpt lat="46.00032082957799" lon="11.804651501044715"><ele>305.0</ele><time>2026-04-16T10:29:22Z</time></trkpt><trkpt lat="46.00046933180506" lon="11.804857410393511"><ele>307.0</ele><time>2026-04-16T10:29:23Z</time></trkpt><trkpt lat="46.00061220073923" lon="11.805061167916909"><ele>309.0</ele><time>2026-04-16T10:29:24Z</time></trkpt><trkpt lat="46.000746624944085" lon="11.805278550725344"><ele>311.0</ele><time>2026-04-16T10:29:25Z</time></trkpt><trkpt lat="46.00087136325871" lon="11.805506425104054"><ele>313.0</ele><time>2026-04-16T10:29:26Z</time></trkpt><trkpt lat="46.00099387697175" lon="11.80576390652005"><ele>303.5</ele><time>2026-04-16T10:29:27Z</time></trkpt><trkpt lat="46.00111043611177" lon="11.806056360215823"><ele>294.0</ele><time>2026-04-16T10:29:28Z</time></trkpt><trkpt lat="46.00122555546186" lon="11.806374841818013"><ele>294.0</ele><time>2026-04-16T10:29:29Z</time></trkpt><trkpt lat="46.00133019241475" lon="11.806703309168057"><ele>294.0</ele><time>2026-04-16T10:29:30Z</time></trkpt><trkpt lat="46.00141386429798" lon="11.80701639459398"><ele>293.5</ele><time>2026-04-16T10:29:31Z</time></trkpt><trkpt lat="46.001484621733624" lon="11.807348093256506"><ele>293.0</ele><time>2026-04-16T10:29:32Z</time></trkpt><trkpt lat="46.00154518359109" lon="11.807705115244955"><ele>293.0</ele><time>2026-04-16T10:29:33Z</time></trkpt><trkpt lat="46.00159055002747" lon="11.808061469285994"><ele>293.0</ele><time>2026-04-16T10:29:34Z</time></trkpt><trkpt lat="46.00162404326076" lon="11.808432216362151"><ele>293.5</ele><time>2026-04-16T10:29:35Z</time></trkpt><trkpt lat="46.00165480196083" lon="11.80882750108283"><ele>294.0</ele><time>2026-04-16T10:29:36Z</time></trkpt><trkpt lat="46.001683463037516" lon="11.809241865444866"><ele>293.5</ele><time>2026-04-16T10:29:37Z</time></trkpt><trkpt lat="46.00171234185616" lon="11.809671941190725"><ele>293.0</ele><time>2026-04-16T10:29:38Z</time></trkpt><trkpt lat="46.00174255787041" lon="11.810120415051951"><ele>293.0</ele><time>2026-04-16T10:29:39Z</time></trkpt><trkpt lat="46.00177940677212" lon="11.81058766590632"><ele>293.0</ele><time>2026-04-16T10:29:40Z</time></trkpt><trkpt lat="46.001820084626445" lon="11.811070024976583"><ele>292.5</ele><time>2026-04-16T10:29:41Z</time></trkpt><trkpt lat="46.0018567121746" lon="11.811566357972328"><ele>292.0</ele><time>2026-04-16T10:29:42Z</time></trkpt><trkpt lat="46.00188556854109" lon="11.812047761408131"><ele>293.0</ele><time>2026-04-16T10:29:43Z</time></trkpt><trkpt lat="46.001905835290444" lon="11.812498473639106"><ele>294.0</ele><time>2026-04-16T10:29:44Z</time></trkpt><trkpt lat="46.001918744849604" lon="11.812967787389685"><ele>296.0</ele><time>2026-04-16T10:29:45Z</time></trkpt><trkpt lat="46.00192772744636" lon="11.813453410080811"><ele>298.0</ele><time>2026-04-16T10:29:46Z</time></trkpt><trkpt lat="46.00193665122233" lon="11.813950878927404"><ele>298.5</ele><time>2026-04-16T10:29:47Z</time></trkpt><trkpt lat="46.00194364483663" lon="11.814460475037636"><ele>299.0</ele><time>2026-04-16T10:29:48Z</time></trkpt><trkpt lat="46.00194998597576" lon="11.814979315628525"><ele>299.5</ele><time>2026-04-16T10:29:49Z</time></trkpt><trkpt lat="46.00195727239454" lon="11.81550527188356"><ele>300.0</ele><time>2026-04-16T10:29:50Z</time></trkpt><trkpt lat="46.00196717494737" lon="11.816038104758215"><ele>301.5</ele><time>2026-04-16T10:29:51Z</time></trkpt><trkpt lat="46.00197704794929" lon="11.816576259747979"><ele>303.0</ele><time>2026-04-16T10:29:52Z</time></trkpt><trkpt lat="46.00198599301048" lon="11.817117709875294"><ele>303.0</ele><time>2026-04-16T10:29:53Z</time></trkpt><trkpt lat="46.0019939401149" lon="11.817661626168794"><ele>303.0</ele><time>2026-04-16T10:29:53.999Z</time></trkpt><trkpt lat="46.002002858157965" lon="11.818208725332966"><ele>304.0</ele><time>2026-04-16T10:29:54.999Z</time></trkpt><trkpt lat="46.00201302522822" lon="11.818759934966389"><ele>305.0</ele><time>2026-04-16T10:29:55.999Z</time></trkpt><trkpt lat="46.00202427193026" lon="11.819314277119467"><ele>305.0</ele><time>2026-04-16T10:29:56.999Z</time></trkpt><trkpt lat="46.00203190427309" lon="11.81985484525819"><ele>305.0</ele><time>2026-04-16T10:29:57.999Z</time></trkpt><trkpt lat="46.002036347746426" lon="11.820338331491074"><ele>305.5</ele><time>2026-04-16T10:29:58.999Z</time></trkpt><trkpt lat="46.00203986077522" lon="11.820803808258965"><ele>306.0</ele><time>2026-04-16T10:29:59.999Z</time></trkpt><trkpt lat="46.00204559065405" lon="11.821271082128506"><ele>307.0</ele><time>2026-04-16T10:30:00.999Z</time></trkpt><trkpt lat="46.00205040422414" lon="11.821731594382888"><ele>308.0</ele><time>2026-04-16T10:30:01.999Z</time></trkpt><trkpt lat="46.00205766307004" lon="11.822186030718026"><ele>307.5</ele><time>2026-04-16T10:30:02.999Z</time></trkpt><trkpt lat="46.00206481525758" lon="11.822648199151642"><ele>307.0</ele><time>2026-04-16T10:30:03.999Z</time></trkpt><trkpt lat="46.00207190178237" lon="11.823127283380899"><ele>309.0</ele><time>2026-04-16T10:30:04.999Z</time></trkpt><trkpt lat="46.00207668434936" lon="11.823620528277615"><ele>311.0</ele><time>2026-04-16T10:30:05.999Z</time></trkpt><trkpt lat="46.002082598492876" lon="11.82412630079007"><ele>312.0</ele><time>2026-04-16T10:30:06.999Z</time></trkpt><trkpt lat="46.00208994702111" lon="11.824644034919643"><ele>313.0</ele><time>2026-04-16T10:30:07.999Z</time></trkpt><trkpt lat="46.00209779303916" lon="11.825172392846405"><ele>313.5</ele><time>2026-04-16T10:30:08.999Z</time></trkpt><trkpt lat="46.00210688681558" lon="11.825709650716627"><ele>314.0</ele><time>2026-04-16T10:30:09.999Z</time></trkpt><trkpt lat="46.00211618729784" lon="11.826251048633614"><ele>314.5</ele><time>2026-04-16T10:30:10.999Z</time></trkpt><trkpt lat="46.00212486754306" lon="11.826794507859802"><ele>315.0</ele><time>2026-04-16T10:30:11.999Z</time></trkpt><trkpt lat="46.00213162686591" lon="11.82728961735587"><ele>314.5</ele><time>2026-04-16T10:30:12.999Z</time></trkpt><trkpt lat="46.002135657793815" lon="11.827754494841036"><ele>314.0</ele><time>2026-04-16T10:30:13.999Z</time></trkpt><trkpt lat="46.00214081344807" lon="11.828236372058187"><ele>314.0</ele><time>2026-04-16T10:30:14.999Z</time></trkpt><trkpt lat="46.00215057345838" lon="11.828742781487056"><ele>314.0</ele><time>2026-04-16T10:30:15.999Z</time></trkpt><trkpt lat="46.00215821512331" lon="11.829235788942134"><ele>315.0</ele><time>2026-04-16T10:30:16.999Z</time></trkpt><trkpt lat="46.00216747980934" lon="11.829680560860368"><ele>316.0</ele><time>2026-04-16T10:30:17.999Z</time></trkpt><trkpt lat="46.002175881125595" lon="11.830122759431688"><ele>316.5</ele><time>2026-04-16T10:30:18.999Z</time></trkpt><trkpt lat="46.00218038195063" lon="11.830569067900596"><ele>317.0</ele><time>2026-04-16T10:30:19.999Z</time></trkpt><trkpt lat="46.002185840196894" lon="11.831000655855846"><ele>317.0</ele><time>2026-04-16T10:30:20.999Z</time></trkpt><trkpt lat="46.00219310985111" lon="11.83141046281957"><ele>317.0</ele><time>2026-04-16T10:30:22Z</time></trkpt><trkpt lat="46.0021982638687" lon="11.83182038606458"><ele>317.5</ele><time>2026-04-16T10:30:23Z</time></trkpt><trkpt lat="46.002202507682384" lon="11.832227373374826"><ele>318.0</ele><time>2026-04-16T10:30:24Z</time></trkpt><trkpt lat="46.00220897782269" lon="11.832613788896643"><ele>318.0</ele><time>2026-04-16T10:30:25Z</time></trkpt><trkpt lat="46.00221523688038" lon="11.832971170088488"><ele>318.0</ele><time>2026-04-16T10:30:26Z</time></trkpt><trkpt lat="46.002220292880224" lon="11.833313328864042"><ele>318.0</ele><time>2026-04-16T10:30:27Z</time></trkpt><trkpt lat="46.002224155928616" lon="11.833646390562023"><ele>318.0</ele><time>2026-04-16T10:30:28Z</time></trkpt><trkpt lat="46.00222938385361" lon="11.833981328270454"><ele>318.0</ele><time>2026-04-16T10:30:29Z</time></trkpt><trkpt lat="46.002234546549616" lon="11.834316030596153"><ele>318.0</ele><time>2026-04-16T10:30:30Z</time></trkpt><trkpt lat="46.00223466489528" lon="11.834649077342956"><ele>318.0</ele><time>2026-04-16T10:30:31Z</time></trkpt><trkpt lat="46.00222717896087" lon="11.834974493119779"><ele>318.0</ele><time>2026-04-16T10:30:32Z</time></trkpt><trkpt lat="46.002215592394414" lon="11.83527172602933"><ele>318.0</ele><time>2026-04-16T10:30:33Z</time></trkpt><trkpt lat="46.002202108572156" lon="11.835538634052432"><ele>318.3333333333333</ele><time>2026-04-16T10:30:34Z</time></trkpt><trkpt lat="46.002191418100765" lon="11.83577613941793"><ele>318.66666666666663</ele><time>2026-04-16T10:30:35Z</time></trkpt><trkpt lat="46.00217939544091" lon="11.83599740681802"><ele>319.0</ele><time>2026-04-16T10:30:36Z</time></trkpt><trkpt lat="46.002153388288" lon="11.836206629140957"><ele>319.0</ele><time>2026-04-16T10:30:37Z</time></trkpt><trkpt lat="46.00211531193582" lon="11.836395760716524"><ele>319.0</ele><time>2026-04-16T10:30:38Z</time></trkpt><trkpt lat="46.00209859215081" lon="11.836562064954512"><ele>319.0</ele><time>2026-04-16T10:30:39Z</time></trkpt><trkpt lat="46.00211781350563" lon="11.83671391221506"><ele>319.0</ele><time>2026-04-16T10:30:40Z</time></trkpt><trkpt lat="46.002166855058114" lon="11.836843449503867"><ele>319.0</ele><time>2026-04-16T10:30:41Z</time></trkpt><trkpt lat="46.00224338072931" lon="11.836927588214797"><ele>319.0</ele><time>2026-04-16T10:30:42Z</time></trkpt><trkpt lat="46.0023403920317" lon="11.836963188730241"><ele>319.0</ele><time>2026-04-16T10:30:43Z</time></trkpt><trkpt lat="46.00245142095819" lon="11.836950328068239"><ele>319.0</ele><time>2026-04-16T10:30:44Z</time></trkpt><trkpt lat="46.00255399349906" lon="11.836950047209339"><ele>319.0</ele><time>2026-04-16T10:30:45Z</time></trkpt><trkpt lat="46.00264320704313" lon="11.836999088712057"><ele>319.0</ele><time>2026-04-16T10:30:46Z</time></trkpt><trkpt lat="46.002734414284326" lon="11.837093948948224"><ele>319.0</ele><time>2026-04-16T10:30:47Z</time></trkpt><trkpt lat="46.002840893722855" lon="11.837191331735037"><ele>319.0</ele><time>2026-04-16T10:30:48Z</time></trkpt><trkpt lat="46.002917570833105" lon="11.837387193781856"><ele>319.0</ele><time>2026-04-16T10:30:49Z</time></trkpt><trkpt lat="46.00301004040767" lon="11.837608644267958"><ele>318.66666666666663</ele><time>2026-04-16T10:30:50Z</time></trkpt><trkpt lat="46.0031156855408" lon="11.837906167994255"><ele>318.3333333333333</ele><time>2026-04-16T10:30:51Z</time></trkpt><trkpt lat="46.00320972044719" lon="11.838142504650557"><ele>318.0</ele><time>2026-04-16T10:30:52Z</time></trkpt><trkpt lat="46.00330614410832" lon="11.838380356153388"><ele>318.25</ele><time>2026-04-16T10:30:53Z</time></trkpt><trkpt lat="46.003393493855945" lon="11.838581928731065"><ele>318.5</ele><time>2026-04-16T10:30:54Z</time></trkpt><trkpt lat="46.00344694694325" lon="11.838741622829735"><ele>318.75</ele><time>2026-04-16T10:30:55Z</time></trkpt><trkpt lat="46.00350306104445" lon="11.838868555632788"><ele>319.0</ele><time>2026-04-16T10:30:56Z</time></trkpt><trkpt lat="46.003557081451035" lon="11.838952271722244"><ele>319.0</ele><time>2026-04-16T10:30:57Z</time></trkpt><trkpt lat="46.00357650194644" lon="11.839054100357393"><ele>319.0</ele><time>2026-04-16T10:30:58Z</time></trkpt><trkpt lat="46.00356887863566" lon="11.839180855356586"><ele>319.0</ele><time>2026-04-16T10:30:59Z</time></trkpt><trkpt lat="46.00361078210988" lon="11.839317689392859"><ele>319.0</ele><time>2026-04-16T10:31:00Z</time></trkpt><trkpt lat="46.00366611280964" lon="11.839434169650076"><ele>319.0</ele><time>2026-04-16T10:31:01Z</time></trkpt><trkpt lat="46.00362750863904" lon="11.83956623510673"><ele>319.75</ele><time>2026-04-16T10:31:02Z</time></trkpt><trkpt lat="46.00361171813149" lon="11.83970674619217"><ele>320.5</ele><time>2026-04-16T10:31:03Z</time></trkpt><trkpt lat="46.00358665883564" lon="11.839845508426803"><ele>321.25</ele><time>2026-04-16T10:31:04Z</time></trkpt><trkpt lat="46.00353994804879" lon="11.839989806664207"><ele>322.0</ele><time>2026-04-16T10:31:05Z</time></trkpt><trkpt lat="46.00348057506045" lon="11.840193104204573"><ele>322.3333333333333</ele><time>2026-04-16T10:31:06Z</time></trkpt><trkpt lat="46.003423123960125" lon="11.840411906416522"><ele>322.6666666666667</ele><time>2026-04-16T10:31:07Z</time></trkpt><trkpt lat="46.00337225552059" lon="11.840652016382583"><ele>323.0</ele><time>2026-04-16T10:31:08Z</time></trkpt><trkpt lat="46.00328524341962" lon="11.840933826151728"><ele>322.33333333333337</ele><time>2026-04-16T10:31:09Z</time></trkpt><trkpt lat="46.0032010947328" lon="11.841202711814116"><ele>321.6666666666667</ele><time>2026-04-16T10:31:10Z</time></trkpt><trkpt lat="46.00312631272775" lon="11.841449235473835"><ele>321.0</ele><time>2026-04-16T10:31:11Z</time></trkpt><trkpt lat="46.00305752806937" lon="11.841704459871966"><ele>321.6666666666667</ele><time>2026-04-16T10:31:12Z</time></trkpt><trkpt lat="46.00300592681949" lon="11.841982118684546"><ele>322.33333333333337</ele><time>2026-04-16T10:31:13Z</time></trkpt><trkpt lat="46.00297688712906" lon="11.842279030253469"><ele>323.0</ele><time>2026-04-16T10:31:14Z</time></trkpt><trkpt lat="46.00297196914723" lon="11.842554908722427"><ele>322.6666666666667</ele><time>2026-04-16T10:31:15Z</time></trkpt><trkpt lat="46.00299043420244" lon="11.842850364394772"><ele>322.3333333333333</ele><time>2026-04-16T10:31:16Z</time></trkpt><trkpt lat="46.00302904463731" lon="11.843188211866853"><ele>322.0</ele><time>2026-04-16T10:31:17Z</time></trkpt><trkpt lat="46.00307582219528" lon="11.84355786015684"><ele>321.3333333333333</ele><time>2026-04-16T10:31:18Z</time></trkpt><trkpt lat="46.00312428734105" lon="11.84388539650373"><ele>320.6666666666667</ele><time>2026-04-16T10:31:19Z</time></trkpt><trkpt lat="46.003178757056425" lon="11.84418051742864"><ele>320.0</ele><time>2026-04-16T10:31:20Z</time></trkpt><trkpt lat="46.00324841145324" lon="11.84447554285218"><ele>320.5</ele><time>2026-04-16T10:31:21Z</time></trkpt><trkpt lat="46.00334434376646" lon="11.844799653855768"><ele>321.0</ele><time>2026-04-16T10:31:22Z</time></trkpt><trkpt lat="46.0034531011626" lon="11.845122966571742"><ele>319.3333333333333</ele><time>2026-04-16T10:31:23Z</time></trkpt><trkpt lat="46.00355782423662" lon="11.845397599401165"><ele>317.66666666666663</ele><time>2026-04-16T10:31:24Z</time></trkpt><trkpt lat="46.00365570796585" lon="11.845618192789926"><ele>316.0</ele><time>2026-04-16T10:31:25Z</time></trkpt><trkpt lat="46.003757663747564" lon="11.845826608908903"><ele>315.3333333333333</ele><time>2026-04-16T10:31:26Z</time></trkpt><trkpt lat="46.003859734621216" lon="11.846047443369152"><ele>314.6666666666667</ele><time>2026-04-16T10:31:27Z</time></trkpt><trkpt lat="46.00396241726379" lon="11.846266448212312"><ele>314.0</ele><time>2026-04-16T10:31:28Z</time></trkpt><trkpt lat="46.00406172701555" lon="11.846472797550161"><ele>314.0</ele><time>2026-04-16T10:31:29Z</time></trkpt><trkpt lat="46.004145897189574" lon="11.846656217601046"><ele>314.0</ele><time>2026-04-16T10:31:30Z</time></trkpt><trkpt lat="46.00423148540135" lon="11.846838148963304"><ele>314.0</ele><time>2026-04-16T10:31:31Z</time></trkpt><trkpt lat="46.004322867989174" lon="11.847056344037497"><ele>314.0</ele><time>2026-04-16T10:31:32Z</time></trkpt><trkpt lat="46.004443176922905" lon="11.847315795582348"><ele>314.0</ele><time>2026-04-16T10:31:33Z</time></trkpt><trkpt lat="46.00459328256757" lon="11.847600696390618"><ele>312.5</ele><time>2026-04-16T10:31:34Z</time></trkpt><trkpt lat="46.00474894846608" lon="11.847882726163274"><ele>311.0</ele><time>2026-04-16T10:31:35Z</time></trkpt><trkpt lat="46.00489822979462" lon="11.848148565008282"><ele>311.0</ele><time>2026-04-16T10:31:36Z</time></trkpt><trkpt lat="46.005033958312836" lon="11.848389777700604"><ele>311.0</ele><time>2026-04-16T10:31:37Z</time></trkpt><trkpt lat="46.00516486785545" lon="11.848586708928657"><ele>311.0</ele><time>2026-04-16T10:31:38Z</time></trkpt><trkpt lat="46.005272988749596" lon="11.848788681485262"><ele>311.0</ele><time>2026-04-16T10:31:39Z</time></trkpt><trkpt lat="46.00537416828941" lon="11.848983925277507"><ele>311.0</ele><time>2026-04-16T10:31:40Z</time></trkpt><trkpt lat="46.00547128305463" lon="11.849193985277573"><ele>311.0</ele><time>2026-04-16T10:31:41Z</time></trkpt><trkpt lat="46.00555955986609" lon="11.849407561276484"><ele>311.0</ele><time>2026-04-16T10:31:42Z</time></trkpt><trkpt lat="46.00565002277741" lon="11.849623881528434"><ele>311.0</ele><time>2026-04-16T10:31:43Z</time></trkpt><trkpt lat="46.005730331596354" lon="11.849859509910337"><ele>311.0</ele><time>2026-04-16T10:31:44Z</time></trkpt><trkpt lat="46.00580433147534" lon="11.850056558444058"><ele>311.0</ele><time>2026-04-16T10:31:45Z</time></trkpt><trkpt lat="46.00587358520076" lon="11.850245165979008"><ele>311.0</ele><time>2026-04-16T10:31:46Z</time></trkpt><trkpt lat="46.00592814927524" lon="11.85042151720319"><ele>311.0</ele><time>2026-04-16T10:31:47Z</time></trkpt><trkpt lat="46.00597805082962" lon="11.850585391842557"><ele>311.0</ele><time>2026-04-16T10:31:48Z</time></trkpt><trkpt lat="46.006032992433965" lon="11.850753121273026"><ele>311.0</ele><time>2026-04-16T10:31:49Z</time></trkpt><trkpt lat="46.006093512871836" lon="11.850922256475418"><ele>311.0</ele><time>2026-04-16T10:31:50Z</time></trkpt><trkpt lat="46.00615384254134" lon="11.851113134626852"><ele>311.0</ele><time>2026-04-16T10:31:51Z</time></trkpt><trkpt lat="46.006230787866315" lon="11.85131474832519"><ele>311.0</ele><time>2026-04-16T10:31:52Z</time></trkpt><trkpt lat="46.006318029734274" lon="11.851529854950673"><ele>309.6666666666667</ele><time>2026-04-16T10:31:53Z</time></trkpt><trkpt lat="46.00640075631456" lon="11.851807798566202"><ele>308.3333333333333</ele><time>2026-04-16T10:31:54Z</time></trkpt><trkpt lat="46.00651315434234" lon="11.852095980567446"><ele>307.0</ele><time>2026-04-16T10:31:55Z</time></trkpt><trkpt lat="46.006614575877464" lon="11.852400979417768"><ele>306.66666666666663</ele><time>2026-04-16T10:31:56Z</time></trkpt><trkpt lat="46.00670073976854" lon="11.852672464744513"><ele>306.3333333333333</ele><time>2026-04-16T10:31:56.999Z</time></trkpt><trkpt lat="46.00678108809048" lon="11.852928470182905"><ele>306.0</ele><time>2026-04-16T10:31:57.999Z</time></trkpt><trkpt lat="46.00686309336672" lon="11.853187701314878"><ele>306.0</ele><time>2026-04-16T10:31:58.999Z</time></trkpt><trkpt lat="46.006955854684485" lon="11.853445400653799"><ele>306.0</ele><time>2026-04-16T10:31:59.999Z</time></trkpt><trkpt lat="46.00703625656486" lon="11.85367728076109"><ele>306.0</ele><time>2026-04-16T10:32:00.999Z</time></trkpt><trkpt lat="46.00711139995811" lon="11.853892530620383"><ele>306.0</ele><time>2026-04-16T10:32:01.999Z</time></trkpt><trkpt lat="46.007185127249116" lon="11.854097807203917"><ele>306.0</ele><time>2026-04-16T10:32:02.999Z</time></trkpt><trkpt lat="46.00725446460773" lon="11.854304184187974"><ele>306.0</ele><time>2026-04-16T10:32:03.999Z</time></trkpt><trkpt lat="46.00732384366105" lon="11.85450587587685"><ele>305.3333333333333</ele><time>2026-04-16T10:32:04.999Z</time></trkpt><trkpt lat="46.007395426700256" lon="11.854704293643255"><ele>304.66666666666663</ele><time>2026-04-16T10:32:05.999Z</time></trkpt><trkpt lat="46.00746663761274" lon="11.854912019901969"><ele>304.0</ele><time>2026-04-16T10:32:06.999Z</time></trkpt><trkpt lat="46.00753997672612" lon="11.85512806299666"><ele>303.66666666666663</ele><time>2026-04-16T10:32:07.999Z</time></trkpt><trkpt lat="46.007613206817474" lon="11.855342563543084"><ele>303.3333333333333</ele><time>2026-04-16T10:32:08.999Z</time></trkpt><trkpt lat="46.00768831234221" lon="11.855572575212591"><ele>303.0</ele><time>2026-04-16T10:32:09.999Z</time></trkpt><trkpt lat="46.007766600546326" lon="11.855802949417239"><ele>302.3333333333333</ele><time>2026-04-16T10:32:10.999Z</time></trkpt><trkpt lat="46.00784045949654" lon="11.856017147054892"><ele>301.66666666666663</ele><time>2026-04-16T10:32:11.999Z</time></trkpt><trkpt lat="46.0079161321505" lon="11.856221937691926"><ele>301.0</ele><time>2026-04-16T10:32:12.999Z</time></trkpt><trkpt lat="46.00799466615102" lon="11.856434383028116"><ele>301.0</ele><time>2026-04-16T10:32:13.999Z</time></trkpt><trkpt lat="46.00806595151673" lon="11.856654462543405"><ele>301.0</ele><time>2026-04-16T10:32:14.999Z</time></trkpt><trkpt lat="46.008138564678504" lon="11.856866811125794"><ele>301.0</ele><time>2026-04-16T10:32:15.999Z</time></trkpt><trkpt lat="46.00821256668017" lon="11.857079763664238"><ele>300.3333333333333</ele><time>2026-04-16T10:32:16.999Z</time></trkpt><trkpt lat="46.00828495441175" lon="11.85729561231714"><ele>299.6666666666667</ele><time>2026-04-16T10:32:17.999Z</time></trkpt><trkpt lat="46.00835566286384" lon="11.857509145452832"><ele>299.0</ele><time>2026-04-16T10:32:18.999Z</time></trkpt><trkpt lat="46.00843094423936" lon="11.857730135514323"><ele>299.0</ele><time>2026-04-16T10:32:19.999Z</time></trkpt><trkpt lat="46.00853313458634" lon="11.857982466886307"><ele>299.0</ele><time>2026-04-16T10:32:20.999Z</time></trkpt><trkpt lat="46.008628420109986" lon="11.858287369650887"><ele>299.0</ele><time>2026-04-16T10:32:21.999Z</time></trkpt><trkpt lat="46.00873995202136" lon="11.85861226266981"><ele>298.0</ele><time>2026-04-16T10:32:22.999Z</time></trkpt><trkpt lat="46.00884064975383" lon="11.858905595729237"><ele>297.0</ele><time>2026-04-16T10:32:23.999Z</time></trkpt><trkpt lat="46.00894590466625" lon="11.859181254159783"><ele>296.0</ele><time>2026-04-16T10:32:24.999Z</time></trkpt><trkpt lat="46.00904881885341" lon="11.85950087837047"><ele>295.0</ele><time>2026-04-16T10:32:25.999Z</time></trkpt><trkpt lat="46.009157994941795" lon="11.85984082836053"><ele>294.0</ele><time>2026-04-16T10:32:26.999Z</time></trkpt><trkpt lat="46.0092830705628" lon="11.8602054619679"><ele>294.0</ele><time>2026-04-16T10:32:28Z</time></trkpt><trkpt lat="46.009409479770994" lon="11.860578021533934"><ele>294.0</ele><time>2026-04-16T10:32:29Z</time></trkpt><trkpt lat="46.00952360583" lon="11.860911676275315"><ele>292.5</ele><time>2026-04-16T10:32:30Z</time></trkpt><trkpt lat="46.009629770558625" lon="11.861222660621065"><ele>291.0</ele><time>2026-04-16T10:32:31Z</time></trkpt><trkpt lat="46.00973827379856" lon="11.861552883249347"><ele>291.0</ele><time>2026-04-16T10:32:32Z</time></trkpt><trkpt lat="46.00986516939068" lon="11.861917563504814"><ele>291.0</ele><time>2026-04-16T10:32:33Z</time></trkpt><trkpt lat="46.010004559487676" lon="11.86231256911395"><ele>291.0</ele><time>2026-04-16T10:32:34Z</time></trkpt><trkpt lat="46.010130039900375" lon="11.86269025559417"><ele>291.0</ele><time>2026-04-16T10:32:35Z</time></trkpt><trkpt lat="46.01024760098435" lon="11.86303253290319"><ele>291.0</ele><time>2026-04-16T10:32:36Z</time></trkpt><trkpt lat="46.01035924513239" lon="11.863355234259586"><ele>291.0</ele><time>2026-04-16T10:32:37Z</time></trkpt><trkpt lat="46.01046547311054" lon="11.863660483792339"><ele>291.3333333333333</ele><time>2026-04-16T10:32:38Z</time></trkpt><trkpt lat="46.01056735131551" lon="11.863946865228113"><ele>291.66666666666663</ele><time>2026-04-16T10:32:39Z</time></trkpt><trkpt lat="46.010664850353216" lon="11.864217346354904"><ele>292.0</ele><time>2026-04-16T10:32:40Z</time></trkpt><trkpt lat="46.01075457566079" lon="11.864477399176522"><ele>291.0</ele><time>2026-04-16T10:32:41Z</time></trkpt><trkpt lat="46.010843143194094" lon="11.86473441282849"><ele>290.0</ele><time>2026-04-16T10:32:42Z</time></trkpt><trkpt lat="46.01093576531747" lon="11.864992998316664"><ele>289.0</ele><time>2026-04-16T10:32:43Z</time></trkpt><trkpt lat="46.011029504620964" lon="11.865256068177395"><ele>288.0</ele><time>2026-04-16T10:32:44Z</time></trkpt><trkpt lat="46.01114006170182" lon="11.865553061677309"><ele>287.0</ele><time>2026-04-16T10:32:45Z</time></trkpt><trkpt lat="46.011246614107165" lon="11.865889721441532"><ele>286.5</ele><time>2026-04-16T10:32:46Z</time></trkpt><trkpt lat="46.01136615561456" lon="11.866237469863622"><ele>286.0</ele><time>2026-04-16T10:32:47Z</time></trkpt><trkpt lat="46.01150314137975" lon="11.866607194715423"><ele>286.0</ele><time>2026-04-16T10:32:48Z</time></trkpt><trkpt lat="46.01163521291402" lon="11.8670124966628"><ele>286.0</ele><time>2026-04-16T10:32:49Z</time></trkpt><trkpt lat="46.01176030152177" lon="11.867386561156811"><ele>286.0</ele><time>2026-04-16T10:32:50Z</time></trkpt><trkpt lat="46.01187667109051" lon="11.867729538315533"><ele>286.0</ele><time>2026-04-16T10:32:51Z</time></trkpt><trkpt lat="46.01198753581724" lon="11.868052100850297"><ele>286.0</ele><time>2026-04-16T10:32:52Z</time></trkpt><trkpt lat="46.01209053028329" lon="11.868357253247593"><ele>286.0</ele><time>2026-04-16T10:32:53Z</time></trkpt><trkpt lat="46.0121930867883" lon="11.8686585583674"><ele>284.5</ele><time>2026-04-16T10:32:54Z</time></trkpt><trkpt lat="46.01230242199965" lon="11.868972438878288"><ele>283.0</ele><time>2026-04-16T10:32:55Z</time></trkpt><trkpt lat="46.012412855298976" lon="11.86929593916543"><ele>283.0</ele><time>2026-04-16T10:32:56Z</time></trkpt><trkpt lat="46.01251958036723" lon="11.869613320333086"><ele>283.0</ele><time>2026-04-16T10:32:57Z</time></trkpt><trkpt lat="46.01262069631367" lon="11.869900365925194"><ele>283.0</ele><time>2026-04-16T10:32:58Z</time></trkpt><trkpt lat="46.012711974232495" lon="11.87016775955384"><ele>283.0</ele><time>2026-04-16T10:32:59Z</time></trkpt><trkpt lat="46.01279653119669" lon="11.870421922692172"><ele>283.0</ele><time>2026-04-16T10:33:00Z</time></trkpt><trkpt lat="46.012887081325246" lon="11.870694491547535"><ele>282.5</ele><time>2026-04-16T10:33:01Z</time></trkpt><trkpt lat="46.01300074691807" lon="11.87100630497627"><ele>282.0</ele><time>2026-04-16T10:33:02Z</time></trkpt><trkpt lat="46.013123458574334" lon="11.87134814951787"><ele>282.0</ele><time>2026-04-16T10:33:03Z</time></trkpt><trkpt lat="46.013248351433894" lon="11.871716010378375"><ele>282.0</ele><time>2026-04-16T10:33:04Z</time></trkpt><trkpt lat="46.013378210113785" lon="11.87209977872091"><ele>281.5</ele><time>2026-04-16T10:33:05Z</time></trkpt><trkpt lat="46.01349413224919" lon="11.87244687924137"><ele>281.0</ele><time>2026-04-16T10:33:06Z</time></trkpt><trkpt lat="46.01360657343638" lon="11.872774101595551"><ele>281.0</ele><time>2026-04-16T10:33:07Z</time></trkpt><trkpt lat="46.01371835857312" lon="11.873091387915121"><ele>281.0</ele><time>2026-04-16T10:33:08Z</time></trkpt><trkpt lat="46.013809587252425" lon="11.873354208331504"><ele>280.33333333333337</ele><time>2026-04-16T10:33:09Z</time></trkpt><trkpt lat="46.01388669346705" lon="11.873580933435138"><ele>279.6666666666667</ele><time>2026-04-16T10:33:10Z</time></trkpt><trkpt lat="46.01395267129788" lon="11.873782897092699"><ele>279.0</ele><time>2026-04-16T10:33:11Z</time></trkpt><trkpt lat="46.01401647964004" lon="11.873970931214428"><ele>279.0</ele><time>2026-04-16T10:33:12Z</time></trkpt><trkpt lat="46.01407216246965" lon="11.874138637959083"><ele>279.0</ele><time>2026-04-16T10:33:13Z</time></trkpt><trkpt lat="46.01412587600681" lon="11.874300859488633"><ele>279.0</ele><time>2026-04-16T10:33:14Z</time></trkpt><trkpt lat="46.01417695026395" lon="11.874453587709954"><ele>279.0</ele><time>2026-04-16T10:33:15Z</time></trkpt><trkpt lat="46.014241928827325" lon="11.874633983572457"><ele>279.0</ele><time>2026-04-16T10:33:16Z</time></trkpt><trkpt lat="46.01432969195984" lon="11.87485043896427"><ele>279.0</ele><time>2026-04-16T10:33:17Z</time></trkpt><trkpt lat="46.01442476547515" lon="11.875111329562383"><ele>279.0</ele><time>2026-04-16T10:33:18Z</time></trkpt><trkpt lat="46.014522864164846" lon="11.875410839506594"><ele>278.5</ele><time>2026-04-16T10:33:19Z</time></trkpt><trkpt lat="46.01463128390411" lon="11.875730576168916"><ele>278.0</ele><time>2026-04-16T10:33:20Z</time></trkpt><trkpt lat="46.01473156049648" lon="11.876013974216033"><ele>277.33333333333337</ele><time>2026-04-16T10:33:21Z</time></trkpt><trkpt lat="46.01483089802162" lon="11.876297123481752"><ele>276.6666666666667</ele><time>2026-04-16T10:33:22Z</time></trkpt><trkpt lat="46.01493301514996" lon="11.87658777059774"><ele>276.0</ele><time>2026-04-16T10:33:23Z</time></trkpt><trkpt lat="46.01503728428248" lon="11.876879736838774"><ele>275.6666666666667</ele><time>2026-04-16T10:33:24Z</time></trkpt><trkpt lat="46.01513945904037" lon="11.877163454562796"><ele>275.33333333333337</ele><time>2026-04-16T10:33:25Z</time></trkpt><trkpt lat="46.01523936203783" lon="11.877457359780394"><ele>275.0</ele><time>2026-04-16T10:33:26Z</time></trkpt><trkpt lat="46.015353967493446" lon="11.877776649512896"><ele>275.0</ele><time>2026-04-16T10:33:27Z</time></trkpt><trkpt lat="46.01545562545834" lon="11.878117961010792"><ele>275.0</ele><time>2026-04-16T10:33:28Z</time></trkpt><trkpt lat="46.015583432245805" lon="11.878487904621014"><ele>275.5</ele><time>2026-04-16T10:33:29Z</time></trkpt><trkpt lat="46.015719441548896" lon="11.878881548654764"><ele>276.0</ele><time>2026-04-16T10:33:30Z</time></trkpt><trkpt lat="46.01586213883132" lon="11.87929446857651"><ele>275.0</ele><time>2026-04-16T10:33:31Z</time></trkpt><trkpt lat="46.0160042256558" lon="11.879705621937829"><ele>274.0</ele><time>2026-04-16T10:33:32Z</time></trkpt><trkpt lat="46.01616227078824" lon="11.880122688589724"><ele>272.5</ele><time>2026-04-16T10:33:33Z</time></trkpt><trkpt lat="46.01630579564543" lon="11.880570684440565"><ele>271.0</ele><time>2026-04-16T10:33:34Z</time></trkpt><trkpt lat="46.01644000567205" lon="11.880981817263638"><ele>270.5</ele><time>2026-04-16T10:33:35Z</time></trkpt><trkpt lat="46.01656904721765" lon="11.881361654437246"><ele>270.0</ele><time>2026-04-16T10:33:36Z</time></trkpt><trkpt lat="46.01669211003749" lon="11.881720371634783"><ele>270.5</ele><time>2026-04-16T10:33:37Z</time></trkpt><trkpt lat="46.016811470954934" lon="11.882075584374324"><ele>271.0</ele><time>2026-04-16T10:33:38Z</time></trkpt><trkpt lat="46.016928950941164" lon="11.88241818742988"><ele>272.0</ele><time>2026-04-16T10:33:39Z</time></trkpt><trkpt lat="46.01704683397286" lon="11.882766866247387"><ele>273.0</ele><time>2026-04-16T10:33:40Z</time></trkpt><trkpt lat="46.01716874516278" lon="11.883110006158507"><ele>273.0</ele><time>2026-04-16T10:33:41Z</time></trkpt><trkpt lat="46.01728010337168" lon="11.883417626433713"><ele>273.0</ele><time>2026-04-16T10:33:42Z</time></trkpt><trkpt lat="46.01737374252986" lon="11.88370076721536"><ele>272.3333333333333</ele><time>2026-04-16T10:33:43Z</time></trkpt><trkpt lat="46.01746726112611" lon="11.8839565421718"><ele>271.66666666666663</ele><time>2026-04-16T10:33:44Z</time></trkpt><trkpt lat="46.01755541453816" lon="11.884202840856815"><ele>271.0</ele><time>2026-04-16T10:33:45Z</time></trkpt><trkpt lat="46.01762811433493" lon="11.88442656863638"><ele>270.0</ele><time>2026-04-16T10:33:46Z</time></trkpt><trkpt lat="46.01769467238517" lon="11.884626395026528"><ele>269.0</ele><time>2026-04-16T10:33:47Z</time></trkpt><trkpt lat="46.01775807627674" lon="11.88481103342895"><ele>268.0</ele><time>2026-04-16T10:33:48Z</time></trkpt><trkpt lat="46.01781373395832" lon="11.884976646528077"><ele>267.0</ele><time>2026-04-16T10:33:49Z</time></trkpt><trkpt lat="46.01786914503259" lon="11.885133011337235"><ele>266.75</ele><time>2026-04-16T10:33:50Z</time></trkpt><trkpt lat="46.017922774357665" lon="11.885282306183731"><ele>266.5</ele><time>2026-04-16T10:33:51Z</time></trkpt><trkpt lat="46.01797694565482" lon="11.885433785729866"><ele>266.25</ele><time>2026-04-16T10:33:52Z</time></trkpt><trkpt lat="46.01803137869869" lon="11.88558582725798"><ele>266.0</ele><time>2026-04-16T10:33:53Z</time></trkpt><trkpt lat="46.01808519862767" lon="11.885737177159738"><ele>266.0</ele><time>2026-04-16T10:33:54Z</time></trkpt><trkpt lat="46.018137123527" lon="11.885886749469933"><ele>266.0</ele><time>2026-04-16T10:33:55Z</time></trkpt><trkpt lat="46.01818786846035" lon="11.886033589679517"><ele>266.0</ele><time>2026-04-16T10:33:55.999Z</time></trkpt><trkpt lat="46.0182373297547" lon="11.886183197193915"><ele>266.0</ele><time>2026-04-16T10:33:56.999Z</time></trkpt><trkpt lat="46.01828971708724" lon="11.886324954218344"><ele>266.2</ele><time>2026-04-16T10:33:57.999Z</time></trkpt><trkpt lat="46.01833775217458" lon="11.886462949446422"><ele>266.40000000000003</ele><time>2026-04-16T10:33:58.999Z</time></trkpt><trkpt lat="46.018380075876244" lon="11.886590258832472"><ele>266.6</ele><time>2026-04-16T10:33:59.999Z</time></trkpt><trkpt lat="46.01841477885378" lon="11.886707525185718"><ele>266.8</ele><time>2026-04-16T10:34:00.999Z</time></trkpt><trkpt lat="46.018441888008496" lon="11.88681987945832"><ele>267.0</ele><time>2026-04-16T10:34:01.999Z</time></trkpt><trkpt lat="46.0184677049507" lon="11.88693628977645"><ele>267.0</ele><time>2026-04-16T10:34:02.999Z</time></trkpt><trkpt lat="46.018494576799554" lon="11.887070686549027"><ele>267.0</ele><time>2026-04-16T10:34:03.999Z</time></trkpt><trkpt lat="46.0185213554878" lon="11.887212555959811"><ele>267.0</ele><time>2026-04-16T10:34:04.999Z</time></trkpt><trkpt lat="46.018533720478466" lon="11.887341650222416"><ele>267.0</ele><time>2026-04-16T10:34:05.999Z</time></trkpt><trkpt lat="46.018525245892484" lon="11.887454609719068"><ele>267.0</ele><time>2026-04-16T10:34:06.999Z</time></trkpt><trkpt lat="46.01850193074934" lon="11.887555947228089"><ele>267.0</ele><time>2026-04-16T10:34:07.999Z</time></trkpt><trkpt lat="46.018472011818716" lon="11.887647425597619"><ele>267.0</ele><time>2026-04-16T10:34:08.999Z</time></trkpt><trkpt lat="46.01841005325207" lon="11.887781933189059"><ele>267.0</ele><time>2026-04-16T10:34:10.999Z</time></trkpt><trkpt lat="46.01838235614237" lon="11.88791487519345"><ele>267.0</ele><time>2026-04-16T10:34:12.999Z</time></trkpt><trkpt lat="46.01830805860737" lon="11.888075388812224"><ele>267.0</ele><time>2026-04-16T10:34:14.999Z</time></trkpt><trkpt lat="46.0182362031608" lon="11.888195333705923"><ele>267.0</ele><time>2026-04-16T10:34:15.999Z</time></trkpt><trkpt lat="46.01814762190846" lon="11.888317745210689"><ele>267.0</ele><time>2026-04-16T10:34:16.999Z</time></trkpt><trkpt lat="46.01804317928473" lon="11.888398841840191"><ele>267.0</ele><time>2026-04-16T10:34:17.999Z</time></trkpt><trkpt lat="46.01792941598614" lon="11.888407801524048"><ele>267.0</ele><time>2026-04-16T10:34:18.999Z</time></trkpt><trkpt lat="46.01782461317971" lon="11.888459169944046"><ele>267.5</ele><time>2026-04-16T10:34:19.999Z</time></trkpt><trkpt lat="46.01771663722106" lon="11.888493018216376"><ele>268.0</ele><time>2026-04-16T10:34:20.999Z</time></trkpt><trkpt lat="46.017636726358596" lon="11.888525582378184"><ele>268.5</ele><time>2026-04-16T10:34:21.999Z</time></trkpt><trkpt lat="46.01754940230874" lon="11.888572447817495"><ele>269.0</ele><time>2026-04-16T10:34:23.999Z</time></trkpt><trkpt lat="46.01753014801795" lon="11.888685685150874"><ele>269.5</ele><time>2026-04-16T10:34:25.999Z</time></trkpt><trkpt lat="46.017545321204295" lon="11.888776993926866"><ele>270.0</ele><time>2026-04-16T10:34:26.999Z</time></trkpt><trkpt lat="46.01756467556376" lon="11.888899258877524"><ele>270.0</ele><time>2026-04-16T10:34:27.999Z</time></trkpt><trkpt lat="46.01758919966663" lon="11.88905082954837"><ele>270.0</ele><time>2026-04-16T10:34:28.999Z</time></trkpt><trkpt lat="46.01760514640201" lon="11.889182775867129"><ele>270.0</ele><time>2026-04-16T10:34:29.999Z</time></trkpt><trkpt lat="46.01761034903345" lon="11.889333826873697"><ele>270.0</ele><time>2026-04-16T10:34:30.999Z</time></trkpt><trkpt lat="46.01762763432504" lon="11.889526417647584"><ele>270.0</ele><time>2026-04-16T10:34:31.999Z</time></trkpt><trkpt lat="46.01764951612365" lon="11.889702900604833"><ele>270.25</ele><time>2026-04-16T10:34:32.999Z</time></trkpt><trkpt lat="46.01766547741667" lon="11.889876937072593"><ele>270.5</ele><time>2026-04-16T10:34:34Z</time></trkpt><trkpt lat="46.01768358298435" lon="11.890077296514178"><ele>270.75</ele><time>2026-04-16T10:34:35Z</time></trkpt><trkpt lat="46.01770551325839" lon="11.890294240648595"><ele>271.0</ele><time>2026-04-16T10:34:36Z</time></trkpt><trkpt lat="46.01773169436603" lon="11.890506113256821"><ele>271.0</ele><time>2026-04-16T10:34:37Z</time></trkpt><trkpt lat="46.01774589653428" lon="11.89070281971019"><ele>271.0</ele><time>2026-04-16T10:34:38Z</time></trkpt><trkpt lat="46.017757748856795" lon="11.890884733083134"><ele>271.0</ele><time>2026-04-16T10:34:39Z</time></trkpt><trkpt lat="46.017775710977816" lon="11.891067782567918"><ele>271.0</ele><time>2026-04-16T10:34:40Z</time></trkpt><trkpt lat="46.01779484692656" lon="11.891228147095084"><ele>271.0</ele><time>2026-04-16T10:34:41Z</time></trkpt><trkpt lat="46.01781052163559" lon="11.891320115305811"><ele>271.0</ele><time>2026-04-16T10:34:42Z</time></trkpt><trkpt lat="46.01781160904484" lon="11.891439973706143"><ele>271.0</ele><time>2026-04-16T10:34:44Z</time></trkpt><trkpt lat="46.0176264855144" lon="11.891513874826988"><ele>271.0</ele><time>2026-04-16T10:34:52Z</time></trkpt><trkpt lat="46.01753804492889" lon="11.891538257343809"><ele>271.0</ele><time>2026-04-16T10:34:53Z</time></trkpt><trkpt lat="46.017468230334764" lon="11.891581667437581"><ele>270.5</ele><time>2026-04-16T10:34:54Z</time></trkpt><trkpt lat="46.0173832796339" lon="11.891580925102401"><ele>270.0</ele><time>2026-04-16T10:34:56Z</time></trkpt><trkpt lat="46.0173663971466" lon="11.891470010576814"><ele>269.5</ele><time>2026-04-16T10:34:59Z</time></trkpt><trkpt lat="46.017353001761705" lon="11.891344987946784"><ele>269.0</ele><time>2026-04-16T10:35:00Z</time></trkpt><trkpt lat="46.01733723053026" lon="11.891192966649015"><ele>268.5</ele><time>2026-04-16T10:35:01Z</time></trkpt><trkpt lat="46.017323947983215" lon="11.891066261729534"><ele>268.0</ele><time>2026-04-16T10:35:02Z</time></trkpt><trkpt lat="46.017310716279255" lon="11.890940041839785"><ele>268.0</ele><time>2026-04-16T10:35:03Z</time></trkpt><trkpt lat="46.01729595701261" lon="11.890799250170378"><ele>268.0</ele><time>2026-04-16T10:35:04Z</time></trkpt><trkpt lat="46.017283314953794" lon="11.890679150679652"><ele>268.0</ele><time>2026-04-16T10:35:05Z</time></trkpt><trkpt lat="46.017272960370896" lon="11.890581483150447"><ele>268.0</ele><time>2026-04-16T10:35:06Z</time></trkpt><trkpt lat="46.01712432848678" lon="11.890523290754912"><ele>268.0</ele><time>2026-04-16T10:35:07Z</time></trkpt><trkpt lat="46.01705146741607" lon="11.890421509792944"><ele>268.0</ele><time>2026-04-16T10:35:08Z</time></trkpt><trkpt lat="46.01699653156518" lon="11.890351262468558"><ele>268.0</ele><time>2026-04-16T10:35:09Z</time></trkpt><trkpt lat="46.01699888847973" lon="11.890220261454804"><ele>268.0</ele><time>2026-04-16T10:35:11Z</time></trkpt><trkpt lat="46.01701553604909" lon="11.890107871486151"><ele>268.0</ele><time>2026-04-16T10:35:12Z</time></trkpt><trkpt lat="46.01703540853406" lon="11.889973709789013"><ele>268.0</ele><time>2026-04-16T10:35:13Z</time></trkpt><trkpt lat="46.01705156889463" lon="11.889864609042805"><ele>268.0</ele><time>2026-04-16T10:35:14Z</time></trkpt><trkpt lat="46.01708343985745" lon="11.889764315953586"><ele>268.0</ele><time>2026-04-16T10:35:16Z</time></trkpt><trkpt lat="46.01718553265757" lon="11.88976729338589"><ele>268.0</ele><time>2026-04-16T10:35:18Z</time></trkpt><trkpt lat="46.01727861002915" lon="11.8897541037746"><ele>268.0</ele><time>2026-04-16T10:35:20Z</time></trkpt><trkpt lat="46.017355710899956" lon="11.889875175609763"><ele>268.0</ele><time>2026-04-16T10:35:24Z</time></trkpt><trkpt lat="46.01736759025543" lon="11.889975395086159"><ele>268.0</ele><time>2026-04-16T10:35:26Z</time></trkpt><trkpt lat="46.0173883393233" lon="11.890147668526781"><ele>268.0</ele><time>2026-04-16T10:35:28Z</time></trkpt><trkpt lat="46.017383052678575" lon="11.890308487675293"><ele>268.0</ele><time>2026-04-16T10:35:30Z</time></trkpt><trkpt lat="46.01731600203475" lon="11.890458506079526"><ele>268.0</ele><time>2026-04-16T10:35:32Z</time></trkpt><trkpt lat="46.01730485913792" lon="11.890557086999923"><ele>268.0</ele><time>2026-04-16T10:35:35Z</time></trkpt><trkpt lat="46.01730474295653" lon="11.8904647873725"><ele>268.0</ele><time>2026-04-16T10:35:38Z</time></trkpt><trkpt lat="46.01740936376715" lon="11.890503854971925"><ele>268.0</ele><time>2026-04-16T10:36:02.999Z</time></trkpt><trkpt lat="46.01734187161811" lon="11.890459521838178"><ele>268.0</ele><time>2026-04-16T10:39:53Z</time></trkpt><trkpt lat="46.017411722475174" lon="11.89027734599421"><ele>268.0</ele><time>2026-04-16T10:42:04.999Z</time></trkpt><trkpt lat="46.01731910286499" lon="11.890335041558165"><ele>268.0</ele><time>2026-04-16T10:42:05.999Z</time></trkpt><trkpt lat="46.01726727904196" lon="11.890452738250746"><ele>268.0</ele><time>2026-04-16T10:42:06.999Z</time></trkpt></trkseg></trk></gpx>